<?xml version="1.0" encoding="UTF-8" standalone="no" ?>
<gpx xmlns="http://www.topografix.com/GPX/1/1" xmlns:xsi="http://www.w3.org/2001/XMLSchema-instance" xsi:schemaLocation="http://www.topografix.com/GPX/1/1 http://www.topografix.com/GPX/1/1/gpx.xsd" version="1.1" creator="VisuGPX - https://www.visugpx.com">
  <metadata>
    <name>Session d'entrainement 20.02.2021</name>
  </metadata>
  <trk>
    <name><![CDATA[Session d'entrainement 20.02.2021]]></name>
    <trkseg>
      <trkpt lat="49.6738" lon="5.66374">
        <ele>359.309998</ele>
        <time>2021-02-20T14:02:14Z</time>
      </trkpt>
      <trkpt lat="49.67377" lon="5.66374">
        <ele>359.350006</ele>
        <time>2021-02-20T14:02:19Z</time>
      </trkpt>
      <trkpt lat="49.67376" lon="5.66376">
        <ele>359.299988</ele>
        <time>2021-02-20T14:02:24Z</time>
      </trkpt>
      <trkpt lat="49.67374" lon="5.66377">
        <ele>359.299988</ele>
        <time>2021-02-20T14:02:29Z</time>
      </trkpt>
      <trkpt lat="49.67375" lon="5.66375">
        <ele>359.309998</ele>
        <time>2021-02-20T14:02:34Z</time>
      </trkpt>
      <trkpt lat="49.67376" lon="5.66375">
        <ele>359.320007</ele>
        <time>2021-02-20T14:02:39Z</time>
      </trkpt>
      <trkpt lat="49.67375" lon="5.66375">
        <ele>359.339996</ele>
        <time>2021-02-20T14:02:44Z</time>
      </trkpt>
      <trkpt lat="49.67376" lon="5.66378">
        <ele>359.329987</ele>
        <time>2021-02-20T14:02:49Z</time>
      </trkpt>
      <trkpt lat="49.67374" lon="5.66377">
        <ele>359.269989</ele>
        <time>2021-02-20T14:02:54Z</time>
      </trkpt>
      <trkpt lat="49.67374" lon="5.66377">
        <ele>359.220001</ele>
        <time>2021-02-20T14:02:59Z</time>
      </trkpt>
      <trkpt lat="49.67374" lon="5.66377">
        <ele>359.220001</ele>
        <time>2021-02-20T14:03:04Z</time>
      </trkpt>
      <trkpt lat="49.67374" lon="5.66378">
        <ele>359.230011</ele>
        <time>2021-02-20T14:03:09Z</time>
      </trkpt>
      <trkpt lat="49.67374" lon="5.66378">
        <ele>359.269989</ele>
        <time>2021-02-20T14:03:14Z</time>
      </trkpt>
      <trkpt lat="49.67374" lon="5.66379">
        <ele>359.279999</ele>
        <time>2021-02-20T14:03:19Z</time>
      </trkpt>
      <trkpt lat="49.67374" lon="5.66379">
        <ele>359.190002</ele>
        <time>2021-02-20T14:03:24Z</time>
      </trkpt>
      <trkpt lat="49.67374" lon="5.66379">
        <ele>359.149994</ele>
        <time>2021-02-20T14:03:29Z</time>
      </trkpt>
      <trkpt lat="49.67376" lon="5.66375">
        <ele>359.160004</ele>
        <time>2021-02-20T14:03:34Z</time>
      </trkpt>
      <trkpt lat="49.67376" lon="5.66376">
        <ele>359.179993</ele>
        <time>2021-02-20T14:03:39Z</time>
      </trkpt>
      <trkpt lat="49.67376" lon="5.66376">
        <ele>359.130005</ele>
        <time>2021-02-20T14:03:44Z</time>
      </trkpt>
      <trkpt lat="49.67375" lon="5.66375">
        <ele>359.149994</ele>
        <time>2021-02-20T14:03:49Z</time>
      </trkpt>
      <trkpt lat="49.67374" lon="5.66376">
        <ele>359.140015</ele>
        <time>2021-02-20T14:03:54Z</time>
      </trkpt>
      <trkpt lat="49.67374" lon="5.66376">
        <ele>359.170013</ele>
        <time>2021-02-20T14:03:59Z</time>
      </trkpt>
      <trkpt lat="49.67374" lon="5.66377">
        <ele>359.140015</ele>
        <time>2021-02-20T14:04:04Z</time>
      </trkpt>
      <trkpt lat="49.67374" lon="5.66378">
        <ele>359.100006</ele>
        <time>2021-02-20T14:04:09Z</time>
      </trkpt>
      <trkpt lat="49.67374" lon="5.66379">
        <ele>359.089996</ele>
        <time>2021-02-20T14:04:14Z</time>
      </trkpt>
      <trkpt lat="49.67376" lon="5.66376">
        <ele>359.190002</ele>
        <time>2021-02-20T14:04:19Z</time>
      </trkpt>
      <trkpt lat="49.67376" lon="5.66375">
        <ele>359.23999</ele>
        <time>2021-02-20T14:04:24Z</time>
      </trkpt>
      <trkpt lat="49.67377" lon="5.66374">
        <ele>359.279999</ele>
        <time>2021-02-20T14:04:29Z</time>
      </trkpt>
      <trkpt lat="49.67376" lon="5.66373">
        <ele>359.299988</ele>
        <time>2021-02-20T14:04:34Z</time>
      </trkpt>
      <trkpt lat="49.67376" lon="5.66372">
        <ele>359.299988</ele>
        <time>2021-02-20T14:04:39Z</time>
      </trkpt>
      <trkpt lat="49.67376" lon="5.66373">
        <ele>359.350006</ele>
        <time>2021-02-20T14:04:44Z</time>
      </trkpt>
      <trkpt lat="49.67376" lon="5.66374">
        <ele>359.350006</ele>
        <time>2021-02-20T14:04:49Z</time>
      </trkpt>
      <trkpt lat="49.67376" lon="5.66375">
        <ele>359.350006</ele>
        <time>2021-02-20T14:04:54Z</time>
      </trkpt>
      <trkpt lat="49.67375" lon="5.66374">
        <ele>359.339996</ele>
        <time>2021-02-20T14:04:59Z</time>
      </trkpt>
      <trkpt lat="49.67375" lon="5.66376">
        <ele>359.299988</ele>
        <time>2021-02-20T14:05:04Z</time>
      </trkpt>
      <trkpt lat="49.67375" lon="5.66377">
        <ele>359.23999</ele>
        <time>2021-02-20T14:05:09Z</time>
      </trkpt>
      <trkpt lat="49.67376" lon="5.66377">
        <ele>359.179993</ele>
        <time>2021-02-20T14:05:14Z</time>
      </trkpt>
      <trkpt lat="49.67376" lon="5.66378">
        <ele>359.190002</ele>
        <time>2021-02-20T14:05:19Z</time>
      </trkpt>
      <trkpt lat="49.67375" lon="5.66378">
        <ele>359.140015</ele>
        <time>2021-02-20T14:05:24Z</time>
      </trkpt>
      <trkpt lat="49.67374" lon="5.66379">
        <ele>359.079987</ele>
        <time>2021-02-20T14:05:29Z</time>
      </trkpt>
      <trkpt lat="49.67375" lon="5.6638">
        <ele>359.089996</ele>
        <time>2021-02-20T14:05:34Z</time>
      </trkpt>
      <trkpt lat="49.67374" lon="5.66381">
        <ele>359.109985</ele>
        <time>2021-02-20T14:05:39Z</time>
      </trkpt>
      <trkpt lat="49.67374" lon="5.6638">
        <ele>359.119995</ele>
        <time>2021-02-20T14:05:44Z</time>
      </trkpt>
      <trkpt lat="49.67374" lon="5.66379">
        <ele>359.160004</ele>
        <time>2021-02-20T14:05:49Z</time>
      </trkpt>
      <trkpt lat="49.67372" lon="5.66379">
        <ele>359.160004</ele>
        <time>2021-02-20T14:05:54Z</time>
      </trkpt>
      <trkpt lat="49.67371" lon="5.66379">
        <ele>359.149994</ele>
        <time>2021-02-20T14:05:59Z</time>
      </trkpt>
      <trkpt lat="49.67371" lon="5.66379">
        <ele>359.089996</ele>
        <time>2021-02-20T14:06:04Z</time>
      </trkpt>
      <trkpt lat="49.67372" lon="5.6638">
        <ele>359.089996</ele>
        <time>2021-02-20T14:06:09Z</time>
      </trkpt>
      <trkpt lat="49.67372" lon="5.66379">
        <ele>359.119995</ele>
        <time>2021-02-20T14:06:14Z</time>
      </trkpt>
      <trkpt lat="49.67372" lon="5.66378">
        <ele>359.149994</ele>
        <time>2021-02-20T14:06:19Z</time>
      </trkpt>
      <trkpt lat="49.67373" lon="5.66376">
        <ele>359.179993</ele>
        <time>2021-02-20T14:06:24Z</time>
      </trkpt>
      <trkpt lat="49.67374" lon="5.66376">
        <ele>359.230011</ele>
        <time>2021-02-20T14:06:29Z</time>
      </trkpt>
      <trkpt lat="49.67374" lon="5.66375">
        <ele>359.309998</ele>
        <time>2021-02-20T14:06:34Z</time>
      </trkpt>
      <trkpt lat="49.67375" lon="5.66374">
        <ele>359.339996</ele>
        <time>2021-02-20T14:06:39Z</time>
      </trkpt>
      <trkpt lat="49.67376" lon="5.66373">
        <ele>359.329987</ele>
        <time>2021-02-20T14:06:44Z</time>
      </trkpt>
      <trkpt lat="49.67376" lon="5.66374">
        <ele>359.339996</ele>
        <time>2021-02-20T14:06:49Z</time>
      </trkpt>
      <trkpt lat="49.67376" lon="5.66374">
        <ele>359.359985</ele>
        <time>2021-02-20T14:06:54Z</time>
      </trkpt>
      <trkpt lat="49.67376" lon="5.66374">
        <ele>359.380005</ele>
        <time>2021-02-20T14:06:59Z</time>
      </trkpt>
      <trkpt lat="49.67376" lon="5.66374">
        <ele>359.380005</ele>
        <time>2021-02-20T14:07:04Z</time>
      </trkpt>
      <trkpt lat="49.67376" lon="5.66374">
        <ele>359.380005</ele>
        <time>2021-02-20T14:07:09Z</time>
      </trkpt>
      <trkpt lat="49.67376" lon="5.66374">
        <ele>359.420013</ele>
        <time>2021-02-20T14:07:14Z</time>
      </trkpt>
      <trkpt lat="49.67377" lon="5.66374">
        <ele>359.480011</ele>
        <time>2021-02-20T14:07:19Z</time>
      </trkpt>
      <trkpt lat="49.67377" lon="5.66375">
        <ele>359.5</ele>
        <time>2021-02-20T14:07:24Z</time>
      </trkpt>
      <trkpt lat="49.67377" lon="5.66375">
        <ele>359.559998</ele>
        <time>2021-02-20T14:07:29Z</time>
      </trkpt>
      <trkpt lat="49.67377" lon="5.66375">
        <ele>359.549988</ele>
        <time>2021-02-20T14:07:34Z</time>
      </trkpt>
      <trkpt lat="49.67377" lon="5.66375">
        <ele>359.480011</ele>
        <time>2021-02-20T14:07:39Z</time>
      </trkpt>
      <trkpt lat="49.67377" lon="5.66373">
        <ele>359.410004</ele>
        <time>2021-02-20T14:07:44Z</time>
      </trkpt>
      <trkpt lat="49.67376" lon="5.66373">
        <ele>359.350006</ele>
        <time>2021-02-20T14:07:49Z</time>
      </trkpt>
      <trkpt lat="49.67376" lon="5.66373">
        <ele>359.299988</ele>
        <time>2021-02-20T14:07:54Z</time>
      </trkpt>
      <trkpt lat="49.67376" lon="5.66377">
        <ele>359.290009</ele>
        <time>2021-02-20T14:07:59Z</time>
      </trkpt>
      <trkpt lat="49.67375" lon="5.66376">
        <ele>359.309998</ele>
        <time>2021-02-20T14:08:04Z</time>
      </trkpt>
      <trkpt lat="49.67372" lon="5.66374">
        <ele>359.329987</ele>
        <time>2021-02-20T14:08:09Z</time>
      </trkpt>
      <trkpt lat="49.6737" lon="5.66371">
        <ele>359.320007</ele>
        <time>2021-02-20T14:08:14Z</time>
      </trkpt>
      <trkpt lat="49.67371" lon="5.66367">
        <ele>359.320007</ele>
        <time>2021-02-20T14:08:18Z</time>
      </trkpt>
      <trkpt lat="49.67367" lon="5.66354">
        <ele>359.359985</ele>
        <time>2021-02-20T14:08:23Z</time>
      </trkpt>
      <trkpt lat="49.67364" lon="5.6634">
        <ele>359.390015</ele>
        <time>2021-02-20T14:08:27Z</time>
      </trkpt>
      <trkpt lat="49.67357" lon="5.66332">
        <ele>359.420013</ele>
        <time>2021-02-20T14:08:30Z</time>
      </trkpt>
      <trkpt lat="49.67347" lon="5.66338">
        <ele>359.440002</ele>
        <time>2021-02-20T14:08:34Z</time>
      </trkpt>
      <trkpt lat="49.67337" lon="5.66341">
        <ele>359.450012</ele>
        <time>2021-02-20T14:08:38Z</time>
      </trkpt>
      <trkpt lat="49.67326" lon="5.66345">
        <ele>359.429993</ele>
        <time>2021-02-20T14:08:42Z</time>
      </trkpt>
      <trkpt lat="49.67316" lon="5.66343">
        <ele>359.420013</ele>
        <time>2021-02-20T14:08:46Z</time>
      </trkpt>
      <trkpt lat="49.67305" lon="5.66338">
        <ele>359.410004</ele>
        <time>2021-02-20T14:08:50Z</time>
      </trkpt>
      <trkpt lat="49.67294" lon="5.66339">
        <ele>359.399994</ele>
        <time>2021-02-20T14:08:54Z</time>
      </trkpt>
      <trkpt lat="49.67285" lon="5.66348">
        <ele>359.369995</ele>
        <time>2021-02-20T14:08:58Z</time>
      </trkpt>
      <trkpt lat="49.67276" lon="5.66358">
        <ele>359.359985</ele>
        <time>2021-02-20T14:09:01Z</time>
      </trkpt>
      <trkpt lat="49.6727" lon="5.66371">
        <ele>359.359985</ele>
        <time>2021-02-20T14:09:06Z</time>
      </trkpt>
      <trkpt lat="49.67262" lon="5.66377">
        <ele>359.359985</ele>
        <time>2021-02-20T14:09:08Z</time>
      </trkpt>
      <trkpt lat="49.6725" lon="5.66383">
        <ele>359.359985</ele>
        <time>2021-02-20T14:09:11Z</time>
      </trkpt>
      <trkpt lat="49.67238" lon="5.66379">
        <ele>359.369995</ele>
        <time>2021-02-20T14:09:14Z</time>
      </trkpt>
      <trkpt lat="49.67227" lon="5.66381">
        <ele>359.359985</ele>
        <time>2021-02-20T14:09:17Z</time>
      </trkpt>
      <trkpt lat="49.67219" lon="5.66393">
        <ele>359.329987</ele>
        <time>2021-02-20T14:09:21Z</time>
      </trkpt>
      <trkpt lat="49.67212" lon="5.66404">
        <ele>359.309998</ele>
        <time>2021-02-20T14:09:24Z</time>
      </trkpt>
      <trkpt lat="49.67204" lon="5.66413">
        <ele>359.299988</ele>
        <time>2021-02-20T14:09:27Z</time>
      </trkpt>
      <trkpt lat="49.67196" lon="5.66423">
        <ele>359.299988</ele>
        <time>2021-02-20T14:09:32Z</time>
      </trkpt>
      <trkpt lat="49.67187" lon="5.66432">
        <ele>359.309998</ele>
        <time>2021-02-20T14:09:36Z</time>
      </trkpt>
      <trkpt lat="49.6718" lon="5.66442">
        <ele>359.350006</ele>
        <time>2021-02-20T14:09:40Z</time>
      </trkpt>
      <trkpt lat="49.67172" lon="5.66455">
        <ele>359.359985</ele>
        <time>2021-02-20T14:09:44Z</time>
      </trkpt>
      <trkpt lat="49.67164" lon="5.66464">
        <ele>359.380005</ele>
        <time>2021-02-20T14:09:47Z</time>
      </trkpt>
      <trkpt lat="49.67154" lon="5.66478">
        <ele>359.399994</ele>
        <time>2021-02-20T14:09:50Z</time>
      </trkpt>
      <trkpt lat="49.67144" lon="5.66489">
        <ele>359.429993</ele>
        <time>2021-02-20T14:09:53Z</time>
      </trkpt>
      <trkpt lat="49.67135" lon="5.66503">
        <ele>359.440002</ele>
        <time>2021-02-20T14:09:56Z</time>
      </trkpt>
      <trkpt lat="49.67125" lon="5.66516">
        <ele>359.440002</ele>
        <time>2021-02-20T14:09:59Z</time>
      </trkpt>
      <trkpt lat="49.67115" lon="5.66527">
        <ele>359.440002</ele>
        <time>2021-02-20T14:10:02Z</time>
      </trkpt>
      <trkpt lat="49.67106" lon="5.66537">
        <ele>359.429993</ele>
        <time>2021-02-20T14:10:04Z</time>
      </trkpt>
      <trkpt lat="49.671" lon="5.66553">
        <ele>359.429993</ele>
        <time>2021-02-20T14:10:07Z</time>
      </trkpt>
      <trkpt lat="49.671" lon="5.66572">
        <ele>359.440002</ele>
        <time>2021-02-20T14:10:10Z</time>
      </trkpt>
      <trkpt lat="49.671" lon="5.66587">
        <ele>359.440002</ele>
        <time>2021-02-20T14:10:13Z</time>
      </trkpt>
      <trkpt lat="49.67102" lon="5.66604">
        <ele>359.440002</ele>
        <time>2021-02-20T14:10:15Z</time>
      </trkpt>
      <trkpt lat="49.67102" lon="5.6662">
        <ele>359.459991</ele>
        <time>2021-02-20T14:10:17Z</time>
      </trkpt>
      <trkpt lat="49.67103" lon="5.66636">
        <ele>359.480011</ele>
        <time>2021-02-20T14:10:19Z</time>
      </trkpt>
      <trkpt lat="49.67102" lon="5.66651">
        <ele>359.48999</ele>
        <time>2021-02-20T14:10:21Z</time>
      </trkpt>
      <trkpt lat="49.67101" lon="5.66666">
        <ele>359.51001</ele>
        <time>2021-02-20T14:10:23Z</time>
      </trkpt>
      <trkpt lat="49.67097" lon="5.66682">
        <ele>359.519989</ele>
        <time>2021-02-20T14:10:26Z</time>
      </trkpt>
      <trkpt lat="49.6709" lon="5.66696">
        <ele>359.529999</ele>
        <time>2021-02-20T14:10:28Z</time>
      </trkpt>
      <trkpt lat="49.67083" lon="5.66708">
        <ele>359.540009</ele>
        <time>2021-02-20T14:10:30Z</time>
      </trkpt>
      <trkpt lat="49.67075" lon="5.66718">
        <ele>359.559998</ele>
        <time>2021-02-20T14:10:32Z</time>
      </trkpt>
      <trkpt lat="49.67067" lon="5.66726">
        <ele>359.559998</ele>
        <time>2021-02-20T14:10:34Z</time>
      </trkpt>
      <trkpt lat="49.67058" lon="5.66736">
        <ele>359.570007</ele>
        <time>2021-02-20T14:10:36Z</time>
      </trkpt>
      <trkpt lat="49.67049" lon="5.66745">
        <ele>359.570007</ele>
        <time>2021-02-20T14:10:38Z</time>
      </trkpt>
      <trkpt lat="49.6704" lon="5.66752">
        <ele>359.579987</ele>
        <time>2021-02-20T14:10:40Z</time>
      </trkpt>
      <trkpt lat="49.67028" lon="5.66764">
        <ele>359.600006</ele>
        <time>2021-02-20T14:10:43Z</time>
      </trkpt>
      <trkpt lat="49.67019" lon="5.66773">
        <ele>359.609985</ele>
        <time>2021-02-20T14:10:46Z</time>
      </trkpt>
      <trkpt lat="49.67016" lon="5.6679">
        <ele>359.609985</ele>
        <time>2021-02-20T14:10:49Z</time>
      </trkpt>
      <trkpt lat="49.67014" lon="5.66809">
        <ele>353.140015</ele>
        <time>2021-02-20T14:10:52Z</time>
      </trkpt>
      <trkpt lat="49.67012" lon="5.66825">
        <ele>349.799988</ele>
        <time>2021-02-20T14:10:55Z</time>
      </trkpt>
      <trkpt lat="49.67008" lon="5.66838">
        <ele>348.100006</ele>
        <time>2021-02-20T14:10:57Z</time>
      </trkpt>
      <trkpt lat="49.66999" lon="5.66856">
        <ele>345.589996</ele>
        <time>2021-02-20T14:11:01Z</time>
      </trkpt>
      <trkpt lat="49.66995" lon="5.66871">
        <ele>344.299988</ele>
        <time>2021-02-20T14:11:03Z</time>
      </trkpt>
      <trkpt lat="49.66985" lon="5.66883">
        <ele>343.350006</ele>
        <time>2021-02-20T14:11:06Z</time>
      </trkpt>
      <trkpt lat="49.66977" lon="5.66895">
        <ele>342.869995</ele>
        <time>2021-02-20T14:11:08Z</time>
      </trkpt>
      <trkpt lat="49.66971" lon="5.66907">
        <ele>342.480011</ele>
        <time>2021-02-20T14:11:10Z</time>
      </trkpt>
      <trkpt lat="49.66965" lon="5.66918">
        <ele>342.170013</ele>
        <time>2021-02-20T14:11:12Z</time>
      </trkpt>
      <trkpt lat="49.66958" lon="5.6693">
        <ele>341.910004</ele>
        <time>2021-02-20T14:11:14Z</time>
      </trkpt>
      <trkpt lat="49.66952" lon="5.66941">
        <ele>341.700012</ele>
        <time>2021-02-20T14:11:16Z</time>
      </trkpt>
      <trkpt lat="49.66945" lon="5.66952">
        <ele>341.529999</ele>
        <time>2021-02-20T14:11:18Z</time>
      </trkpt>
      <trkpt lat="49.66939" lon="5.66963">
        <ele>341.399994</ele>
        <time>2021-02-20T14:11:20Z</time>
      </trkpt>
      <trkpt lat="49.66931" lon="5.66977">
        <ele>341.23999</ele>
        <time>2021-02-20T14:11:23Z</time>
      </trkpt>
      <trkpt lat="49.66924" lon="5.66993">
        <ele>341.119995</ele>
        <time>2021-02-20T14:11:26Z</time>
      </trkpt>
      <trkpt lat="49.66916" lon="5.67011">
        <ele>336.029999</ele>
        <time>2021-02-20T14:11:29Z</time>
      </trkpt>
      <trkpt lat="49.66909" lon="5.67023">
        <ele>334.190002</ele>
        <time>2021-02-20T14:11:31Z</time>
      </trkpt>
      <trkpt lat="49.66902" lon="5.67035">
        <ele>332.690002</ele>
        <time>2021-02-20T14:11:33Z</time>
      </trkpt>
      <trkpt lat="49.66896" lon="5.67047">
        <ele>331.480011</ele>
        <time>2021-02-20T14:11:35Z</time>
      </trkpt>
      <trkpt lat="49.6689" lon="5.67058">
        <ele>330.5</ele>
        <time>2021-02-20T14:11:37Z</time>
      </trkpt>
      <trkpt lat="49.66882" lon="5.67073">
        <ele>329.359985</ele>
        <time>2021-02-20T14:11:40Z</time>
      </trkpt>
      <trkpt lat="49.66876" lon="5.67083">
        <ele>328.790009</ele>
        <time>2021-02-20T14:11:42Z</time>
      </trkpt>
      <trkpt lat="49.66866" lon="5.67098">
        <ele>328.119995</ele>
        <time>2021-02-20T14:11:44Z</time>
      </trkpt>
      <trkpt lat="49.66855" lon="5.67108">
        <ele>327.630005</ele>
        <time>2021-02-20T14:11:47Z</time>
      </trkpt>
      <trkpt lat="49.66846" lon="5.67109">
        <ele>327.380005</ele>
        <time>2021-02-20T14:11:50Z</time>
      </trkpt>
      <trkpt lat="49.66837" lon="5.67116">
        <ele>327.089996</ele>
        <time>2021-02-20T14:11:51Z</time>
      </trkpt>
      <trkpt lat="49.66828" lon="5.6713">
        <ele>326.820007</ele>
        <time>2021-02-20T14:11:55Z</time>
      </trkpt>
      <trkpt lat="49.66819" lon="5.67139">
        <ele>326.730011</ele>
        <time>2021-02-20T14:11:57Z</time>
      </trkpt>
      <trkpt lat="49.6681" lon="5.67145">
        <ele>326.649994</ele>
        <time>2021-02-20T14:11:59Z</time>
      </trkpt>
      <trkpt lat="49.668" lon="5.67149">
        <ele>326.589996</ele>
        <time>2021-02-20T14:12:01Z</time>
      </trkpt>
      <trkpt lat="49.66791" lon="5.67154">
        <ele>326.529999</ele>
        <time>2021-02-20T14:12:03Z</time>
      </trkpt>
      <trkpt lat="49.66781" lon="5.67159">
        <ele>326.48999</ele>
        <time>2021-02-20T14:12:05Z</time>
      </trkpt>
      <trkpt lat="49.66773" lon="5.67164">
        <ele>326.459991</ele>
        <time>2021-02-20T14:12:07Z</time>
      </trkpt>
      <trkpt lat="49.66764" lon="5.67169">
        <ele>326.429993</ele>
        <time>2021-02-20T14:12:09Z</time>
      </trkpt>
      <trkpt lat="49.66755" lon="5.67174">
        <ele>326.410004</ele>
        <time>2021-02-20T14:12:11Z</time>
      </trkpt>
      <trkpt lat="49.66747" lon="5.67179">
        <ele>326.390015</ele>
        <time>2021-02-20T14:12:13Z</time>
      </trkpt>
      <trkpt lat="49.66738" lon="5.67184">
        <ele>326.380005</ele>
        <time>2021-02-20T14:12:15Z</time>
      </trkpt>
      <trkpt lat="49.66729" lon="5.67189">
        <ele>326.359985</ele>
        <time>2021-02-20T14:12:17Z</time>
      </trkpt>
      <trkpt lat="49.6672" lon="5.67194">
        <ele>326.359985</ele>
        <time>2021-02-20T14:12:19Z</time>
      </trkpt>
      <trkpt lat="49.66711" lon="5.67199">
        <ele>326.350006</ele>
        <time>2021-02-20T14:12:21Z</time>
      </trkpt>
      <trkpt lat="49.66702" lon="5.67203">
        <ele>326.339996</ele>
        <time>2021-02-20T14:12:23Z</time>
      </trkpt>
      <trkpt lat="49.66692" lon="5.67208">
        <ele>326.339996</ele>
        <time>2021-02-20T14:12:25Z</time>
      </trkpt>
      <trkpt lat="49.66683" lon="5.67213">
        <ele>326.329987</ele>
        <time>2021-02-20T14:12:27Z</time>
      </trkpt>
      <trkpt lat="49.66674" lon="5.67218">
        <ele>326.329987</ele>
        <time>2021-02-20T14:12:29Z</time>
      </trkpt>
      <trkpt lat="49.66665" lon="5.67223">
        <ele>326.329987</ele>
        <time>2021-02-20T14:12:31Z</time>
      </trkpt>
      <trkpt lat="49.66656" lon="5.67228">
        <ele>326.320007</ele>
        <time>2021-02-20T14:12:33Z</time>
      </trkpt>
      <trkpt lat="49.66647" lon="5.67233">
        <ele>326.320007</ele>
        <time>2021-02-20T14:12:35Z</time>
      </trkpt>
      <trkpt lat="49.66637" lon="5.67237">
        <ele>326.320007</ele>
        <time>2021-02-20T14:12:37Z</time>
      </trkpt>
      <trkpt lat="49.66628" lon="5.6724">
        <ele>326.320007</ele>
        <time>2021-02-20T14:12:39Z</time>
      </trkpt>
      <trkpt lat="49.66618" lon="5.67241">
        <ele>326.320007</ele>
        <time>2021-02-20T14:12:41Z</time>
      </trkpt>
      <trkpt lat="49.66609" lon="5.67242">
        <ele>326.320007</ele>
        <time>2021-02-20T14:12:43Z</time>
      </trkpt>
      <trkpt lat="49.666" lon="5.67243">
        <ele>326.320007</ele>
        <time>2021-02-20T14:12:45Z</time>
      </trkpt>
      <trkpt lat="49.66591" lon="5.67243">
        <ele>326.320007</ele>
        <time>2021-02-20T14:12:47Z</time>
      </trkpt>
      <trkpt lat="49.66581" lon="5.67244">
        <ele>326.320007</ele>
        <time>2021-02-20T14:12:49Z</time>
      </trkpt>
      <trkpt lat="49.66572" lon="5.67243">
        <ele>326.320007</ele>
        <time>2021-02-20T14:12:51Z</time>
      </trkpt>
      <trkpt lat="49.66563" lon="5.67241">
        <ele>326.320007</ele>
        <time>2021-02-20T14:12:53Z</time>
      </trkpt>
      <trkpt lat="49.66553" lon="5.67238">
        <ele>326.320007</ele>
        <time>2021-02-20T14:12:55Z</time>
      </trkpt>
      <trkpt lat="49.66543" lon="5.67234">
        <ele>326.320007</ele>
        <time>2021-02-20T14:12:57Z</time>
      </trkpt>
      <trkpt lat="49.66533" lon="5.6723">
        <ele>326.320007</ele>
        <time>2021-02-20T14:12:59Z</time>
      </trkpt>
      <trkpt lat="49.66523" lon="5.67226">
        <ele>326.320007</ele>
        <time>2021-02-20T14:13:01Z</time>
      </trkpt>
      <trkpt lat="49.66514" lon="5.67222">
        <ele>326.320007</ele>
        <time>2021-02-20T14:13:03Z</time>
      </trkpt>
      <trkpt lat="49.66504" lon="5.67219">
        <ele>326.320007</ele>
        <time>2021-02-20T14:13:05Z</time>
      </trkpt>
      <trkpt lat="49.66494" lon="5.67216">
        <ele>326.320007</ele>
        <time>2021-02-20T14:13:07Z</time>
      </trkpt>
      <trkpt lat="49.66485" lon="5.67213">
        <ele>326.320007</ele>
        <time>2021-02-20T14:13:09Z</time>
      </trkpt>
      <trkpt lat="49.66475" lon="5.67209">
        <ele>326.320007</ele>
        <time>2021-02-20T14:13:11Z</time>
      </trkpt>
      <trkpt lat="49.66464" lon="5.67207">
        <ele>326.320007</ele>
        <time>2021-02-20T14:13:13Z</time>
      </trkpt>
      <trkpt lat="49.66454" lon="5.67206">
        <ele>326.320007</ele>
        <time>2021-02-20T14:13:15Z</time>
      </trkpt>
      <trkpt lat="49.66445" lon="5.67205">
        <ele>326.320007</ele>
        <time>2021-02-20T14:13:17Z</time>
      </trkpt>
      <trkpt lat="49.66435" lon="5.67203">
        <ele>326.320007</ele>
        <time>2021-02-20T14:13:19Z</time>
      </trkpt>
      <trkpt lat="49.66425" lon="5.67201">
        <ele>326.320007</ele>
        <time>2021-02-20T14:13:22Z</time>
      </trkpt>
      <trkpt lat="49.66416" lon="5.67201">
        <ele>326.320007</ele>
        <time>2021-02-20T14:13:24Z</time>
      </trkpt>
      <trkpt lat="49.66404" lon="5.67202">
        <ele>326.320007</ele>
        <time>2021-02-20T14:13:26Z</time>
      </trkpt>
      <trkpt lat="49.66394" lon="5.67201">
        <ele>326.320007</ele>
        <time>2021-02-20T14:13:28Z</time>
      </trkpt>
      <trkpt lat="49.66384" lon="5.672">
        <ele>326.320007</ele>
        <time>2021-02-20T14:13:30Z</time>
      </trkpt>
      <trkpt lat="49.66375" lon="5.67199">
        <ele>326.320007</ele>
        <time>2021-02-20T14:13:32Z</time>
      </trkpt>
      <trkpt lat="49.66366" lon="5.67197">
        <ele>326.320007</ele>
        <time>2021-02-20T14:13:34Z</time>
      </trkpt>
      <trkpt lat="49.66354" lon="5.67196">
        <ele>326.320007</ele>
        <time>2021-02-20T14:13:37Z</time>
      </trkpt>
      <trkpt lat="49.66341" lon="5.67194">
        <ele>326.320007</ele>
        <time>2021-02-20T14:13:40Z</time>
      </trkpt>
      <trkpt lat="49.6633" lon="5.67192">
        <ele>326.320007</ele>
        <time>2021-02-20T14:13:42Z</time>
      </trkpt>
      <trkpt lat="49.66318" lon="5.67191">
        <ele>326.320007</ele>
        <time>2021-02-20T14:13:44Z</time>
      </trkpt>
      <trkpt lat="49.66308" lon="5.67189">
        <ele>326.320007</ele>
        <time>2021-02-20T14:13:47Z</time>
      </trkpt>
      <trkpt lat="49.66299" lon="5.67187">
        <ele>326.320007</ele>
        <time>2021-02-20T14:13:49Z</time>
      </trkpt>
      <trkpt lat="49.6629" lon="5.67184">
        <ele>326.320007</ele>
        <time>2021-02-20T14:13:51Z</time>
      </trkpt>
      <trkpt lat="49.66281" lon="5.67181">
        <ele>326.320007</ele>
        <time>2021-02-20T14:13:53Z</time>
      </trkpt>
      <trkpt lat="49.66272" lon="5.67177">
        <ele>326.320007</ele>
        <time>2021-02-20T14:13:55Z</time>
      </trkpt>
      <trkpt lat="49.66263" lon="5.67173">
        <ele>326.320007</ele>
        <time>2021-02-20T14:13:57Z</time>
      </trkpt>
      <trkpt lat="49.66253" lon="5.67165">
        <ele>326.320007</ele>
        <time>2021-02-20T14:13:59Z</time>
      </trkpt>
      <trkpt lat="49.66242" lon="5.67159">
        <ele>326.320007</ele>
        <time>2021-02-20T14:14:02Z</time>
      </trkpt>
      <trkpt lat="49.66234" lon="5.67151">
        <ele>326.320007</ele>
        <time>2021-02-20T14:14:04Z</time>
      </trkpt>
      <trkpt lat="49.66226" lon="5.67144">
        <ele>326.320007</ele>
        <time>2021-02-20T14:14:06Z</time>
      </trkpt>
      <trkpt lat="49.66217" lon="5.67136">
        <ele>326.320007</ele>
        <time>2021-02-20T14:14:08Z</time>
      </trkpt>
      <trkpt lat="49.66209" lon="5.67129">
        <ele>326.320007</ele>
        <time>2021-02-20T14:14:10Z</time>
      </trkpt>
      <trkpt lat="49.66199" lon="5.67117">
        <ele>326.320007</ele>
        <time>2021-02-20T14:14:13Z</time>
      </trkpt>
      <trkpt lat="49.6619" lon="5.67108">
        <ele>326.320007</ele>
        <time>2021-02-20T14:14:15Z</time>
      </trkpt>
      <trkpt lat="49.6618" lon="5.67099">
        <ele>326.320007</ele>
        <time>2021-02-20T14:14:17Z</time>
      </trkpt>
      <trkpt lat="49.66172" lon="5.6709">
        <ele>326.320007</ele>
        <time>2021-02-20T14:14:19Z</time>
      </trkpt>
      <trkpt lat="49.66164" lon="5.67084">
        <ele>326.320007</ele>
        <time>2021-02-20T14:14:20Z</time>
      </trkpt>
      <trkpt lat="49.66156" lon="5.67076">
        <ele>326.320007</ele>
        <time>2021-02-20T14:14:24Z</time>
      </trkpt>
      <trkpt lat="49.66143" lon="5.67063">
        <ele>326.320007</ele>
        <time>2021-02-20T14:14:27Z</time>
      </trkpt>
      <trkpt lat="49.66134" lon="5.67057">
        <ele>326.320007</ele>
        <time>2021-02-20T14:14:29Z</time>
      </trkpt>
      <trkpt lat="49.66125" lon="5.67049">
        <ele>326.320007</ele>
        <time>2021-02-20T14:14:31Z</time>
      </trkpt>
      <trkpt lat="49.66117" lon="5.6704">
        <ele>326.320007</ele>
        <time>2021-02-20T14:14:33Z</time>
      </trkpt>
      <trkpt lat="49.66109" lon="5.67032">
        <ele>326.320007</ele>
        <time>2021-02-20T14:14:35Z</time>
      </trkpt>
      <trkpt lat="49.66101" lon="5.67024">
        <ele>326.320007</ele>
        <time>2021-02-20T14:14:37Z</time>
      </trkpt>
      <trkpt lat="49.6609" lon="5.67014">
        <ele>326.320007</ele>
        <time>2021-02-20T14:14:40Z</time>
      </trkpt>
      <trkpt lat="49.66079" lon="5.67003">
        <ele>326.320007</ele>
        <time>2021-02-20T14:14:44Z</time>
      </trkpt>
      <trkpt lat="49.66069" lon="5.66992">
        <ele>326.320007</ele>
        <time>2021-02-20T14:14:47Z</time>
      </trkpt>
      <trkpt lat="49.66058" lon="5.66982">
        <ele>326.320007</ele>
        <time>2021-02-20T14:14:49Z</time>
      </trkpt>
      <trkpt lat="49.66045" lon="5.6697">
        <ele>326.320007</ele>
        <time>2021-02-20T14:14:52Z</time>
      </trkpt>
      <trkpt lat="49.66035" lon="5.66961">
        <ele>326.320007</ele>
        <time>2021-02-20T14:14:54Z</time>
      </trkpt>
      <trkpt lat="49.66025" lon="5.66954">
        <ele>326.320007</ele>
        <time>2021-02-20T14:14:57Z</time>
      </trkpt>
      <trkpt lat="49.66017" lon="5.66946">
        <ele>326.320007</ele>
        <time>2021-02-20T14:14:59Z</time>
      </trkpt>
      <trkpt lat="49.66007" lon="5.66938">
        <ele>326.320007</ele>
        <time>2021-02-20T14:15:01Z</time>
      </trkpt>
      <trkpt lat="49.66" lon="5.6693">
        <ele>326.320007</ele>
        <time>2021-02-20T14:15:02Z</time>
      </trkpt>
      <trkpt lat="49.65993" lon="5.66917">
        <ele>326.320007</ele>
        <time>2021-02-20T14:15:06Z</time>
      </trkpt>
      <trkpt lat="49.65981" lon="5.66909">
        <ele>326.320007</ele>
        <time>2021-02-20T14:15:08Z</time>
      </trkpt>
      <trkpt lat="49.65968" lon="5.66907">
        <ele>326.320007</ele>
        <time>2021-02-20T14:15:11Z</time>
      </trkpt>
      <trkpt lat="49.65957" lon="5.66904">
        <ele>326.320007</ele>
        <time>2021-02-20T14:15:14Z</time>
      </trkpt>
      <trkpt lat="49.65946" lon="5.669">
        <ele>326.320007</ele>
        <time>2021-02-20T14:15:17Z</time>
      </trkpt>
      <trkpt lat="49.65936" lon="5.66897">
        <ele>326.320007</ele>
        <time>2021-02-20T14:15:20Z</time>
      </trkpt>
      <trkpt lat="49.65927" lon="5.66892">
        <ele>326.320007</ele>
        <time>2021-02-20T14:15:23Z</time>
      </trkpt>
      <trkpt lat="49.65918" lon="5.66884">
        <ele>326.320007</ele>
        <time>2021-02-20T14:15:26Z</time>
      </trkpt>
      <trkpt lat="49.65909" lon="5.66876">
        <ele>326.320007</ele>
        <time>2021-02-20T14:15:29Z</time>
      </trkpt>
      <trkpt lat="49.65899" lon="5.66869">
        <ele>326.320007</ele>
        <time>2021-02-20T14:15:32Z</time>
      </trkpt>
      <trkpt lat="49.65889" lon="5.66864">
        <ele>326.320007</ele>
        <time>2021-02-20T14:15:35Z</time>
      </trkpt>
      <trkpt lat="49.65881" lon="5.66859">
        <ele>326.320007</ele>
        <time>2021-02-20T14:15:38Z</time>
      </trkpt>
      <trkpt lat="49.65871" lon="5.66852">
        <ele>326.320007</ele>
        <time>2021-02-20T14:15:41Z</time>
      </trkpt>
      <trkpt lat="49.65862" lon="5.66848">
        <ele>326.320007</ele>
        <time>2021-02-20T14:15:44Z</time>
      </trkpt>
      <trkpt lat="49.65852" lon="5.66841">
        <ele>326.320007</ele>
        <time>2021-02-20T14:15:47Z</time>
      </trkpt>
      <trkpt lat="49.65843" lon="5.66836">
        <ele>326.320007</ele>
        <time>2021-02-20T14:15:51Z</time>
      </trkpt>
      <trkpt lat="49.65834" lon="5.66831">
        <ele>326.320007</ele>
        <time>2021-02-20T14:15:53Z</time>
      </trkpt>
      <trkpt lat="49.65825" lon="5.66826">
        <ele>326.320007</ele>
        <time>2021-02-20T14:15:56Z</time>
      </trkpt>
      <trkpt lat="49.65817" lon="5.66821">
        <ele>326.320007</ele>
        <time>2021-02-20T14:15:59Z</time>
      </trkpt>
      <trkpt lat="49.65806" lon="5.66817">
        <ele>326.320007</ele>
        <time>2021-02-20T14:16:03Z</time>
      </trkpt>
      <trkpt lat="49.65796" lon="5.66817">
        <ele>326.320007</ele>
        <time>2021-02-20T14:16:07Z</time>
      </trkpt>
      <trkpt lat="49.65788" lon="5.66825">
        <ele>326.320007</ele>
        <time>2021-02-20T14:16:12Z</time>
      </trkpt>
      <trkpt lat="49.6578" lon="5.66833">
        <ele>326.320007</ele>
        <time>2021-02-20T14:16:15Z</time>
      </trkpt>
      <trkpt lat="49.6577" lon="5.66841">
        <ele>326.320007</ele>
        <time>2021-02-20T14:16:19Z</time>
      </trkpt>
      <trkpt lat="49.65759" lon="5.66847">
        <ele>326.320007</ele>
        <time>2021-02-20T14:16:24Z</time>
      </trkpt>
      <trkpt lat="49.65749" lon="5.66855">
        <ele>326.320007</ele>
        <time>2021-02-20T14:16:26Z</time>
      </trkpt>
      <trkpt lat="49.65739" lon="5.66865">
        <ele>326.320007</ele>
        <time>2021-02-20T14:16:29Z</time>
      </trkpt>
      <trkpt lat="49.65729" lon="5.66872">
        <ele>326.320007</ele>
        <time>2021-02-20T14:16:32Z</time>
      </trkpt>
      <trkpt lat="49.6572" lon="5.66884">
        <ele>326.320007</ele>
        <time>2021-02-20T14:16:35Z</time>
      </trkpt>
      <trkpt lat="49.6571" lon="5.66894">
        <ele>326.320007</ele>
        <time>2021-02-20T14:16:38Z</time>
      </trkpt>
      <trkpt lat="49.65698" lon="5.66902">
        <ele>326.320007</ele>
        <time>2021-02-20T14:16:41Z</time>
      </trkpt>
      <trkpt lat="49.65687" lon="5.6691">
        <ele>326.320007</ele>
        <time>2021-02-20T14:16:44Z</time>
      </trkpt>
      <trkpt lat="49.65679" lon="5.66918">
        <ele>326.320007</ele>
        <time>2021-02-20T14:16:46Z</time>
      </trkpt>
      <trkpt lat="49.6567" lon="5.66926">
        <ele>326.320007</ele>
        <time>2021-02-20T14:16:48Z</time>
      </trkpt>
      <trkpt lat="49.65662" lon="5.66933">
        <ele>326.320007</ele>
        <time>2021-02-20T14:16:50Z</time>
      </trkpt>
      <trkpt lat="49.65653" lon="5.66941">
        <ele>326.320007</ele>
        <time>2021-02-20T14:16:52Z</time>
      </trkpt>
      <trkpt lat="49.65645" lon="5.66948">
        <ele>326.320007</ele>
        <time>2021-02-20T14:16:54Z</time>
      </trkpt>
      <trkpt lat="49.65637" lon="5.66956">
        <ele>326.320007</ele>
        <time>2021-02-20T14:16:57Z</time>
      </trkpt>
      <trkpt lat="49.65627" lon="5.66968">
        <ele>326.320007</ele>
        <time>2021-02-20T14:17:01Z</time>
      </trkpt>
      <trkpt lat="49.65619" lon="5.66977">
        <ele>326.320007</ele>
        <time>2021-02-20T14:17:03Z</time>
      </trkpt>
      <trkpt lat="49.65611" lon="5.66985">
        <ele>326.320007</ele>
        <time>2021-02-20T14:17:06Z</time>
      </trkpt>
      <trkpt lat="49.65603" lon="5.66995">
        <ele>326.320007</ele>
        <time>2021-02-20T14:17:09Z</time>
      </trkpt>
      <trkpt lat="49.65594" lon="5.67003">
        <ele>326.320007</ele>
        <time>2021-02-20T14:17:12Z</time>
      </trkpt>
      <trkpt lat="49.65586" lon="5.6701">
        <ele>326.320007</ele>
        <time>2021-02-20T14:17:15Z</time>
      </trkpt>
      <trkpt lat="49.65574" lon="5.6701">
        <ele>326.320007</ele>
        <time>2021-02-20T14:17:18Z</time>
      </trkpt>
      <trkpt lat="49.65573" lon="5.67019">
        <ele>326.320007</ele>
        <time>2021-02-20T14:17:23Z</time>
      </trkpt>
      <trkpt lat="49.65572" lon="5.67018">
        <ele>326.320007</ele>
        <time>2021-02-20T14:17:28Z</time>
      </trkpt>
      <trkpt lat="49.6557" lon="5.67032">
        <ele>326.320007</ele>
        <time>2021-02-20T14:17:32Z</time>
      </trkpt>
      <trkpt lat="49.65566" lon="5.67041">
        <ele>326.320007</ele>
        <time>2021-02-20T14:17:37Z</time>
      </trkpt>
      <trkpt lat="49.6556" lon="5.67048">
        <ele>326.320007</ele>
        <time>2021-02-20T14:17:41Z</time>
      </trkpt>
      <trkpt lat="49.65551" lon="5.67058">
        <ele>326.320007</ele>
        <time>2021-02-20T14:17:45Z</time>
      </trkpt>
      <trkpt lat="49.6554" lon="5.67064">
        <ele>326.320007</ele>
        <time>2021-02-20T14:17:48Z</time>
      </trkpt>
      <trkpt lat="49.65532" lon="5.67071">
        <ele>326.320007</ele>
        <time>2021-02-20T14:17:52Z</time>
      </trkpt>
      <trkpt lat="49.65523" lon="5.67077">
        <ele>326.320007</ele>
        <time>2021-02-20T14:17:56Z</time>
      </trkpt>
      <trkpt lat="49.65513" lon="5.67084">
        <ele>326.320007</ele>
        <time>2021-02-20T14:18:01Z</time>
      </trkpt>
      <trkpt lat="49.65503" lon="5.67089">
        <ele>326.320007</ele>
        <time>2021-02-20T14:18:04Z</time>
      </trkpt>
      <trkpt lat="49.65492" lon="5.67096">
        <ele>326.320007</ele>
        <time>2021-02-20T14:18:08Z</time>
      </trkpt>
      <trkpt lat="49.65484" lon="5.67107">
        <ele>326.320007</ele>
        <time>2021-02-20T14:18:12Z</time>
      </trkpt>
      <trkpt lat="49.65475" lon="5.67116">
        <ele>326.320007</ele>
        <time>2021-02-20T14:18:15Z</time>
      </trkpt>
      <trkpt lat="49.65463" lon="5.67124">
        <ele>326.320007</ele>
        <time>2021-02-20T14:18:18Z</time>
      </trkpt>
      <trkpt lat="49.65455" lon="5.67129">
        <ele>326.320007</ele>
        <time>2021-02-20T14:18:20Z</time>
      </trkpt>
      <trkpt lat="49.65445" lon="5.67133">
        <ele>326.320007</ele>
        <time>2021-02-20T14:18:22Z</time>
      </trkpt>
      <trkpt lat="49.65436" lon="5.67139">
        <ele>326.320007</ele>
        <time>2021-02-20T14:18:26Z</time>
      </trkpt>
      <trkpt lat="49.65424" lon="5.67146">
        <ele>326.320007</ele>
        <time>2021-02-20T14:18:29Z</time>
      </trkpt>
      <trkpt lat="49.65413" lon="5.67152">
        <ele>326.320007</ele>
        <time>2021-02-20T14:18:32Z</time>
      </trkpt>
      <trkpt lat="49.654" lon="5.67155">
        <ele>326.320007</ele>
        <time>2021-02-20T14:18:35Z</time>
      </trkpt>
      <trkpt lat="49.65379" lon="5.67161">
        <ele>326.320007</ele>
        <time>2021-02-20T14:18:39Z</time>
      </trkpt>
      <trkpt lat="49.65368" lon="5.67166">
        <ele>326.320007</ele>
        <time>2021-02-20T14:18:41Z</time>
      </trkpt>
      <trkpt lat="49.65359" lon="5.67173">
        <ele>326.320007</ele>
        <time>2021-02-20T14:18:43Z</time>
      </trkpt>
      <trkpt lat="49.65347" lon="5.67179">
        <ele>326.320007</ele>
        <time>2021-02-20T14:18:46Z</time>
      </trkpt>
      <trkpt lat="49.65337" lon="5.67185">
        <ele>326.320007</ele>
        <time>2021-02-20T14:18:48Z</time>
      </trkpt>
      <trkpt lat="49.65329" lon="5.6719">
        <ele>326.320007</ele>
        <time>2021-02-20T14:18:50Z</time>
      </trkpt>
      <trkpt lat="49.65318" lon="5.67194">
        <ele>326.320007</ele>
        <time>2021-02-20T14:18:54Z</time>
      </trkpt>
      <trkpt lat="49.65306" lon="5.67201">
        <ele>326.320007</ele>
        <time>2021-02-20T14:18:58Z</time>
      </trkpt>
      <trkpt lat="49.65296" lon="5.67207">
        <ele>326.320007</ele>
        <time>2021-02-20T14:19:02Z</time>
      </trkpt>
      <trkpt lat="49.65287" lon="5.6721">
        <ele>326.320007</ele>
        <time>2021-02-20T14:19:06Z</time>
      </trkpt>
      <trkpt lat="49.65278" lon="5.67213">
        <ele>326.320007</ele>
        <time>2021-02-20T14:19:10Z</time>
      </trkpt>
      <trkpt lat="49.65266" lon="5.67221">
        <ele>326.320007</ele>
        <time>2021-02-20T14:19:13Z</time>
      </trkpt>
      <trkpt lat="49.65257" lon="5.67225">
        <ele>326.320007</ele>
        <time>2021-02-20T14:19:15Z</time>
      </trkpt>
      <trkpt lat="49.65244" lon="5.67232">
        <ele>326.320007</ele>
        <time>2021-02-20T14:19:18Z</time>
      </trkpt>
      <trkpt lat="49.65234" lon="5.67237">
        <ele>326.320007</ele>
        <time>2021-02-20T14:19:19Z</time>
      </trkpt>
      <trkpt lat="49.65224" lon="5.67244">
        <ele>326.320007</ele>
        <time>2021-02-20T14:19:20Z</time>
      </trkpt>
      <trkpt lat="49.65215" lon="5.67249">
        <ele>326.320007</ele>
        <time>2021-02-20T14:19:21Z</time>
      </trkpt>
      <trkpt lat="49.65202" lon="5.67257">
        <ele>326.320007</ele>
        <time>2021-02-20T14:19:23Z</time>
      </trkpt>
      <trkpt lat="49.65191" lon="5.67261">
        <ele>326.320007</ele>
        <time>2021-02-20T14:19:25Z</time>
      </trkpt>
      <trkpt lat="49.65182" lon="5.67266">
        <ele>326.320007</ele>
        <time>2021-02-20T14:19:27Z</time>
      </trkpt>
      <trkpt lat="49.6517" lon="5.67272">
        <ele>326.320007</ele>
        <time>2021-02-20T14:19:29Z</time>
      </trkpt>
      <trkpt lat="49.6516" lon="5.67277">
        <ele>326.320007</ele>
        <time>2021-02-20T14:19:32Z</time>
      </trkpt>
      <trkpt lat="49.65148" lon="5.67281">
        <ele>326.320007</ele>
        <time>2021-02-20T14:19:34Z</time>
      </trkpt>
      <trkpt lat="49.65137" lon="5.67286">
        <ele>326.320007</ele>
        <time>2021-02-20T14:19:36Z</time>
      </trkpt>
      <trkpt lat="49.65127" lon="5.67285">
        <ele>326.320007</ele>
        <time>2021-02-20T14:19:39Z</time>
      </trkpt>
      <trkpt lat="49.65117" lon="5.67289">
        <ele>326.320007</ele>
        <time>2021-02-20T14:19:41Z</time>
      </trkpt>
      <trkpt lat="49.65103" lon="5.67295">
        <ele>326.320007</ele>
        <time>2021-02-20T14:19:43Z</time>
      </trkpt>
      <trkpt lat="49.65091" lon="5.67298">
        <ele>326.320007</ele>
        <time>2021-02-20T14:19:45Z</time>
      </trkpt>
      <trkpt lat="49.6508" lon="5.67299">
        <ele>326.320007</ele>
        <time>2021-02-20T14:19:48Z</time>
      </trkpt>
      <trkpt lat="49.65067" lon="5.67302">
        <ele>326.320007</ele>
        <time>2021-02-20T14:19:50Z</time>
      </trkpt>
      <trkpt lat="49.65059" lon="5.67307">
        <ele>326.320007</ele>
        <time>2021-02-20T14:19:53Z</time>
      </trkpt>
      <trkpt lat="49.65049" lon="5.67311">
        <ele>326.320007</ele>
        <time>2021-02-20T14:19:55Z</time>
      </trkpt>
      <trkpt lat="49.65037" lon="5.67313">
        <ele>326.320007</ele>
        <time>2021-02-20T14:19:58Z</time>
      </trkpt>
      <trkpt lat="49.65026" lon="5.67317">
        <ele>326.320007</ele>
        <time>2021-02-20T14:20:01Z</time>
      </trkpt>
      <trkpt lat="49.65013" lon="5.67321">
        <ele>326.320007</ele>
        <time>2021-02-20T14:20:04Z</time>
      </trkpt>
      <trkpt lat="49.65004" lon="5.67324">
        <ele>326.320007</ele>
        <time>2021-02-20T14:20:06Z</time>
      </trkpt>
      <trkpt lat="49.64991" lon="5.67329">
        <ele>326.320007</ele>
        <time>2021-02-20T14:20:09Z</time>
      </trkpt>
      <trkpt lat="49.64978" lon="5.67331">
        <ele>326.320007</ele>
        <time>2021-02-20T14:20:12Z</time>
      </trkpt>
      <trkpt lat="49.64967" lon="5.67337">
        <ele>326.320007</ele>
        <time>2021-02-20T14:20:15Z</time>
      </trkpt>
      <trkpt lat="49.64957" lon="5.67343">
        <ele>326.320007</ele>
        <time>2021-02-20T14:20:17Z</time>
      </trkpt>
      <trkpt lat="49.64945" lon="5.67347">
        <ele>326.320007</ele>
        <time>2021-02-20T14:20:19Z</time>
      </trkpt>
      <trkpt lat="49.64933" lon="5.6735">
        <ele>326.320007</ele>
        <time>2021-02-20T14:20:21Z</time>
      </trkpt>
      <trkpt lat="49.64923" lon="5.67351">
        <ele>326.320007</ele>
        <time>2021-02-20T14:20:22Z</time>
      </trkpt>
      <trkpt lat="49.6491" lon="5.67355">
        <ele>326.320007</ele>
        <time>2021-02-20T14:20:24Z</time>
      </trkpt>
      <trkpt lat="49.64897" lon="5.67357">
        <ele>326.320007</ele>
        <time>2021-02-20T14:20:26Z</time>
      </trkpt>
      <trkpt lat="49.64882" lon="5.67362">
        <ele>326.320007</ele>
        <time>2021-02-20T14:20:28Z</time>
      </trkpt>
      <trkpt lat="49.6487" lon="5.67366">
        <ele>326.320007</ele>
        <time>2021-02-20T14:20:30Z</time>
      </trkpt>
      <trkpt lat="49.64861" lon="5.67369">
        <ele>326.320007</ele>
        <time>2021-02-20T14:20:34Z</time>
      </trkpt>
      <trkpt lat="49.64844" lon="5.67373">
        <ele>326.320007</ele>
        <time>2021-02-20T14:20:38Z</time>
      </trkpt>
      <trkpt lat="49.64834" lon="5.67377">
        <ele>326.320007</ele>
        <time>2021-02-20T14:20:40Z</time>
      </trkpt>
      <trkpt lat="49.64824" lon="5.67381">
        <ele>326.320007</ele>
        <time>2021-02-20T14:20:42Z</time>
      </trkpt>
      <trkpt lat="49.64814" lon="5.67386">
        <ele>326.320007</ele>
        <time>2021-02-20T14:20:44Z</time>
      </trkpt>
      <trkpt lat="49.64804" lon="5.67391">
        <ele>326.320007</ele>
        <time>2021-02-20T14:20:46Z</time>
      </trkpt>
      <trkpt lat="49.64795" lon="5.67394">
        <ele>326.320007</ele>
        <time>2021-02-20T14:20:48Z</time>
      </trkpt>
      <trkpt lat="49.64784" lon="5.67399">
        <ele>326.320007</ele>
        <time>2021-02-20T14:20:50Z</time>
      </trkpt>
      <trkpt lat="49.64773" lon="5.674">
        <ele>326.320007</ele>
        <time>2021-02-20T14:20:53Z</time>
      </trkpt>
      <trkpt lat="49.64763" lon="5.67403">
        <ele>326.320007</ele>
        <time>2021-02-20T14:20:55Z</time>
      </trkpt>
      <trkpt lat="49.64751" lon="5.67406">
        <ele>326.320007</ele>
        <time>2021-02-20T14:20:57Z</time>
      </trkpt>
      <trkpt lat="49.6474" lon="5.67409">
        <ele>326.320007</ele>
        <time>2021-02-20T14:21:00Z</time>
      </trkpt>
      <trkpt lat="49.6473" lon="5.67412">
        <ele>326.320007</ele>
        <time>2021-02-20T14:21:05Z</time>
      </trkpt>
      <trkpt lat="49.64719" lon="5.67416">
        <ele>326.320007</ele>
        <time>2021-02-20T14:21:09Z</time>
      </trkpt>
      <trkpt lat="49.6471" lon="5.67422">
        <ele>326.320007</ele>
        <time>2021-02-20T14:21:12Z</time>
      </trkpt>
      <trkpt lat="49.64698" lon="5.67426">
        <ele>326.320007</ele>
        <time>2021-02-20T14:21:15Z</time>
      </trkpt>
      <trkpt lat="49.6469" lon="5.6743">
        <ele>326.320007</ele>
        <time>2021-02-20T14:21:18Z</time>
      </trkpt>
      <trkpt lat="49.64677" lon="5.67433">
        <ele>326.320007</ele>
        <time>2021-02-20T14:21:21Z</time>
      </trkpt>
      <trkpt lat="49.64665" lon="5.67436">
        <ele>326.320007</ele>
        <time>2021-02-20T14:21:24Z</time>
      </trkpt>
      <trkpt lat="49.64655" lon="5.6744">
        <ele>326.320007</ele>
        <time>2021-02-20T14:21:27Z</time>
      </trkpt>
      <trkpt lat="49.64647" lon="5.67427">
        <ele>326.320007</ele>
        <time>2021-02-20T14:21:30Z</time>
      </trkpt>
      <trkpt lat="49.64645" lon="5.67409">
        <ele>326.320007</ele>
        <time>2021-02-20T14:21:33Z</time>
      </trkpt>
      <trkpt lat="49.64648" lon="5.67392">
        <ele>326.320007</ele>
        <time>2021-02-20T14:21:37Z</time>
      </trkpt>
      <trkpt lat="49.64653" lon="5.67377">
        <ele>326.320007</ele>
        <time>2021-02-20T14:21:39Z</time>
      </trkpt>
      <trkpt lat="49.64656" lon="5.67362">
        <ele>326.320007</ele>
        <time>2021-02-20T14:21:43Z</time>
      </trkpt>
      <trkpt lat="49.64661" lon="5.67349">
        <ele>326.320007</ele>
        <time>2021-02-20T14:21:45Z</time>
      </trkpt>
      <trkpt lat="49.64665" lon="5.67334">
        <ele>326.320007</ele>
        <time>2021-02-20T14:21:48Z</time>
      </trkpt>
      <trkpt lat="49.64677" lon="5.67291">
        <ele>326.320007</ele>
        <time>2021-02-20T14:21:50Z</time>
      </trkpt>
      <trkpt lat="49.64681" lon="5.67277">
        <ele>326.320007</ele>
        <time>2021-02-20T14:21:51Z</time>
      </trkpt>
      <trkpt lat="49.64688" lon="5.67257">
        <ele>326.320007</ele>
        <time>2021-02-20T14:21:53Z</time>
      </trkpt>
      <trkpt lat="49.64694" lon="5.67237">
        <ele>326.320007</ele>
        <time>2021-02-20T14:21:55Z</time>
      </trkpt>
      <trkpt lat="49.647" lon="5.67218">
        <ele>326.320007</ele>
        <time>2021-02-20T14:21:57Z</time>
      </trkpt>
      <trkpt lat="49.64706" lon="5.67195">
        <ele>326.320007</ele>
        <time>2021-02-20T14:21:59Z</time>
      </trkpt>
      <trkpt lat="49.64713" lon="5.67174">
        <ele>326.320007</ele>
        <time>2021-02-20T14:22:01Z</time>
      </trkpt>
      <trkpt lat="49.64719" lon="5.67155">
        <ele>326.320007</ele>
        <time>2021-02-20T14:22:03Z</time>
      </trkpt>
      <trkpt lat="49.64725" lon="5.67137">
        <ele>326.320007</ele>
        <time>2021-02-20T14:22:05Z</time>
      </trkpt>
      <trkpt lat="49.64731" lon="5.67118">
        <ele>326.320007</ele>
        <time>2021-02-20T14:22:07Z</time>
      </trkpt>
      <trkpt lat="49.64736" lon="5.67101">
        <ele>326.320007</ele>
        <time>2021-02-20T14:22:09Z</time>
      </trkpt>
      <trkpt lat="49.64742" lon="5.67084">
        <ele>326.320007</ele>
        <time>2021-02-20T14:22:11Z</time>
      </trkpt>
      <trkpt lat="49.64748" lon="5.67068">
        <ele>326.320007</ele>
        <time>2021-02-20T14:22:13Z</time>
      </trkpt>
      <trkpt lat="49.64752" lon="5.67053">
        <ele>326.320007</ele>
        <time>2021-02-20T14:22:15Z</time>
      </trkpt>
      <trkpt lat="49.64756" lon="5.67039">
        <ele>326.320007</ele>
        <time>2021-02-20T14:22:17Z</time>
      </trkpt>
      <trkpt lat="49.64757" lon="5.67023">
        <ele>326.320007</ele>
        <time>2021-02-20T14:22:20Z</time>
      </trkpt>
      <trkpt lat="49.64747" lon="5.67025">
        <ele>326.320007</ele>
        <time>2021-02-20T14:22:24Z</time>
      </trkpt>
      <trkpt lat="49.64738" lon="5.67032">
        <ele>326.320007</ele>
        <time>2021-02-20T14:22:26Z</time>
      </trkpt>
      <trkpt lat="49.64729" lon="5.67034">
        <ele>326.320007</ele>
        <time>2021-02-20T14:22:28Z</time>
      </trkpt>
      <trkpt lat="49.64719" lon="5.67047">
        <ele>326.320007</ele>
        <time>2021-02-20T14:22:31Z</time>
      </trkpt>
      <trkpt lat="49.64708" lon="5.67058">
        <ele>326.320007</ele>
        <time>2021-02-20T14:22:33Z</time>
      </trkpt>
      <trkpt lat="49.64698" lon="5.67065">
        <ele>326.320007</ele>
        <time>2021-02-20T14:22:35Z</time>
      </trkpt>
      <trkpt lat="49.64687" lon="5.67073">
        <ele>326.320007</ele>
        <time>2021-02-20T14:22:37Z</time>
      </trkpt>
      <trkpt lat="49.64674" lon="5.67081">
        <ele>326.320007</ele>
        <time>2021-02-20T14:22:39Z</time>
      </trkpt>
      <trkpt lat="49.64662" lon="5.6709">
        <ele>326.320007</ele>
        <time>2021-02-20T14:22:41Z</time>
      </trkpt>
      <trkpt lat="49.64648" lon="5.671">
        <ele>326.320007</ele>
        <time>2021-02-20T14:22:43Z</time>
      </trkpt>
      <trkpt lat="49.64634" lon="5.67107">
        <ele>326.320007</ele>
        <time>2021-02-20T14:22:45Z</time>
      </trkpt>
      <trkpt lat="49.64618" lon="5.67115">
        <ele>326.320007</ele>
        <time>2021-02-20T14:22:47Z</time>
      </trkpt>
      <trkpt lat="49.64604" lon="5.67118">
        <ele>326.320007</ele>
        <time>2021-02-20T14:22:49Z</time>
      </trkpt>
      <trkpt lat="49.6459" lon="5.67123">
        <ele>326.320007</ele>
        <time>2021-02-20T14:22:51Z</time>
      </trkpt>
      <trkpt lat="49.64575" lon="5.67132">
        <ele>326.320007</ele>
        <time>2021-02-20T14:22:53Z</time>
      </trkpt>
      <trkpt lat="49.64561" lon="5.67138">
        <ele>326.320007</ele>
        <time>2021-02-20T14:22:55Z</time>
      </trkpt>
      <trkpt lat="49.64546" lon="5.67145">
        <ele>326.320007</ele>
        <time>2021-02-20T14:22:57Z</time>
      </trkpt>
      <trkpt lat="49.64532" lon="5.67147">
        <ele>326.320007</ele>
        <time>2021-02-20T14:22:59Z</time>
      </trkpt>
      <trkpt lat="49.64518" lon="5.67149">
        <ele>326.320007</ele>
        <time>2021-02-20T14:23:01Z</time>
      </trkpt>
      <trkpt lat="49.64506" lon="5.6715">
        <ele>326.320007</ele>
        <time>2021-02-20T14:23:03Z</time>
      </trkpt>
      <trkpt lat="49.64494" lon="5.67151">
        <ele>326.320007</ele>
        <time>2021-02-20T14:23:06Z</time>
      </trkpt>
      <trkpt lat="49.64478" lon="5.67155">
        <ele>326.320007</ele>
        <time>2021-02-20T14:23:08Z</time>
      </trkpt>
      <trkpt lat="49.64462" lon="5.67154">
        <ele>326.320007</ele>
        <time>2021-02-20T14:23:10Z</time>
      </trkpt>
      <trkpt lat="49.64453" lon="5.67151">
        <ele>326.320007</ele>
        <time>2021-02-20T14:23:12Z</time>
      </trkpt>
      <trkpt lat="49.64446" lon="5.6714">
        <ele>326.320007</ele>
        <time>2021-02-20T14:23:13Z</time>
      </trkpt>
      <trkpt lat="49.64436" lon="5.67135">
        <ele>326.320007</ele>
        <time>2021-02-20T14:23:16Z</time>
      </trkpt>
      <trkpt lat="49.64425" lon="5.67135">
        <ele>326.320007</ele>
        <time>2021-02-20T14:23:18Z</time>
      </trkpt>
      <trkpt lat="49.64415" lon="5.67134">
        <ele>326.320007</ele>
        <time>2021-02-20T14:23:19Z</time>
      </trkpt>
      <trkpt lat="49.64402" lon="5.67135">
        <ele>326.320007</ele>
        <time>2021-02-20T14:23:22Z</time>
      </trkpt>
      <trkpt lat="49.64389" lon="5.67133">
        <ele>326.320007</ele>
        <time>2021-02-20T14:23:24Z</time>
      </trkpt>
      <trkpt lat="49.64377" lon="5.6713">
        <ele>326.320007</ele>
        <time>2021-02-20T14:23:26Z</time>
      </trkpt>
      <trkpt lat="49.64364" lon="5.67128">
        <ele>326.320007</ele>
        <time>2021-02-20T14:23:28Z</time>
      </trkpt>
      <trkpt lat="49.64352" lon="5.67127">
        <ele>326.320007</ele>
        <time>2021-02-20T14:23:30Z</time>
      </trkpt>
      <trkpt lat="49.64341" lon="5.67126">
        <ele>326.320007</ele>
        <time>2021-02-20T14:23:32Z</time>
      </trkpt>
      <trkpt lat="49.64327" lon="5.67124">
        <ele>326.320007</ele>
        <time>2021-02-20T14:23:35Z</time>
      </trkpt>
      <trkpt lat="49.64318" lon="5.67133">
        <ele>326.320007</ele>
        <time>2021-02-20T14:23:37Z</time>
      </trkpt>
      <trkpt lat="49.64309" lon="5.67134">
        <ele>326.320007</ele>
        <time>2021-02-20T14:23:41Z</time>
      </trkpt>
      <trkpt lat="49.64295" lon="5.67124">
        <ele>326.320007</ele>
        <time>2021-02-20T14:23:45Z</time>
      </trkpt>
      <trkpt lat="49.64281" lon="5.67125">
        <ele>326.320007</ele>
        <time>2021-02-20T14:23:47Z</time>
      </trkpt>
      <trkpt lat="49.6427" lon="5.67128">
        <ele>326.329987</ele>
        <time>2021-02-20T14:23:50Z</time>
      </trkpt>
      <trkpt lat="49.64259" lon="5.67129">
        <ele>326.329987</ele>
        <time>2021-02-20T14:23:52Z</time>
      </trkpt>
      <trkpt lat="49.64246" lon="5.67119">
        <ele>326.329987</ele>
        <time>2021-02-20T14:23:54Z</time>
      </trkpt>
      <trkpt lat="49.64233" lon="5.67114">
        <ele>326.329987</ele>
        <time>2021-02-20T14:23:56Z</time>
      </trkpt>
      <trkpt lat="49.64224" lon="5.67111">
        <ele>326.329987</ele>
        <time>2021-02-20T14:23:58Z</time>
      </trkpt>
      <trkpt lat="49.64214" lon="5.67109">
        <ele>326.329987</ele>
        <time>2021-02-20T14:24:01Z</time>
      </trkpt>
      <trkpt lat="49.64205" lon="5.67109">
        <ele>326.329987</ele>
        <time>2021-02-20T14:24:06Z</time>
      </trkpt>
      <trkpt lat="49.64195" lon="5.67106">
        <ele>326.329987</ele>
        <time>2021-02-20T14:24:09Z</time>
      </trkpt>
      <trkpt lat="49.64183" lon="5.67106">
        <ele>326.329987</ele>
        <time>2021-02-20T14:24:11Z</time>
      </trkpt>
      <trkpt lat="49.64172" lon="5.67106">
        <ele>326.329987</ele>
        <time>2021-02-20T14:24:15Z</time>
      </trkpt>
      <trkpt lat="49.64158" lon="5.67106">
        <ele>326.329987</ele>
        <time>2021-02-20T14:24:19Z</time>
      </trkpt>
      <trkpt lat="49.64148" lon="5.67103">
        <ele>326.329987</ele>
        <time>2021-02-20T14:24:21Z</time>
      </trkpt>
      <trkpt lat="49.64136" lon="5.67099">
        <ele>326.329987</ele>
        <time>2021-02-20T14:24:23Z</time>
      </trkpt>
      <trkpt lat="49.64123" lon="5.67091">
        <ele>326.329987</ele>
        <time>2021-02-20T14:24:25Z</time>
      </trkpt>
      <trkpt lat="49.64113" lon="5.67084">
        <ele>326.329987</ele>
        <time>2021-02-20T14:24:27Z</time>
      </trkpt>
      <trkpt lat="49.64102" lon="5.67076">
        <ele>326.329987</ele>
        <time>2021-02-20T14:24:31Z</time>
      </trkpt>
      <trkpt lat="49.64093" lon="5.67063">
        <ele>326.329987</ele>
        <time>2021-02-20T14:24:33Z</time>
      </trkpt>
      <trkpt lat="49.64089" lon="5.67048">
        <ele>326.329987</ele>
        <time>2021-02-20T14:24:35Z</time>
      </trkpt>
      <trkpt lat="49.64089" lon="5.67034">
        <ele>326.329987</ele>
        <time>2021-02-20T14:24:38Z</time>
      </trkpt>
      <trkpt lat="49.64093" lon="5.67018">
        <ele>326.329987</ele>
        <time>2021-02-20T14:24:42Z</time>
      </trkpt>
      <trkpt lat="49.64095" lon="5.67001">
        <ele>326.329987</ele>
        <time>2021-02-20T14:24:44Z</time>
      </trkpt>
      <trkpt lat="49.64093" lon="5.66987">
        <ele>326.329987</ele>
        <time>2021-02-20T14:24:47Z</time>
      </trkpt>
      <trkpt lat="49.6409" lon="5.66974">
        <ele>326.329987</ele>
        <time>2021-02-20T14:24:50Z</time>
      </trkpt>
      <trkpt lat="49.64085" lon="5.6696">
        <ele>326.329987</ele>
        <time>2021-02-20T14:24:53Z</time>
      </trkpt>
      <trkpt lat="49.64077" lon="5.6695">
        <ele>326.329987</ele>
        <time>2021-02-20T14:24:56Z</time>
      </trkpt>
      <trkpt lat="49.64069" lon="5.66935">
        <ele>326.329987</ele>
        <time>2021-02-20T14:24:59Z</time>
      </trkpt>
      <trkpt lat="49.64062" lon="5.66923">
        <ele>326.329987</ele>
        <time>2021-02-20T14:25:02Z</time>
      </trkpt>
      <trkpt lat="49.64053" lon="5.66909">
        <ele>326.329987</ele>
        <time>2021-02-20T14:25:06Z</time>
      </trkpt>
      <trkpt lat="49.64043" lon="5.66896">
        <ele>326.329987</ele>
        <time>2021-02-20T14:25:09Z</time>
      </trkpt>
      <trkpt lat="49.64035" lon="5.66883">
        <ele>326.329987</ele>
        <time>2021-02-20T14:25:12Z</time>
      </trkpt>
      <trkpt lat="49.64029" lon="5.66865">
        <ele>326.329987</ele>
        <time>2021-02-20T14:25:15Z</time>
      </trkpt>
      <trkpt lat="49.64029" lon="5.66847">
        <ele>326.329987</ele>
        <time>2021-02-20T14:25:17Z</time>
      </trkpt>
      <trkpt lat="49.64026" lon="5.66832">
        <ele>326.329987</ele>
        <time>2021-02-20T14:25:19Z</time>
      </trkpt>
      <trkpt lat="49.64018" lon="5.66823">
        <ele>326.329987</ele>
        <time>2021-02-20T14:25:24Z</time>
      </trkpt>
      <trkpt lat="49.64008" lon="5.66819">
        <ele>326.329987</ele>
        <time>2021-02-20T14:25:27Z</time>
      </trkpt>
      <trkpt lat="49.63995" lon="5.66809">
        <ele>326.329987</ele>
        <time>2021-02-20T14:25:30Z</time>
      </trkpt>
      <trkpt lat="49.63982" lon="5.668">
        <ele>326.329987</ele>
        <time>2021-02-20T14:25:33Z</time>
      </trkpt>
      <trkpt lat="49.63971" lon="5.66796">
        <ele>326.329987</ele>
        <time>2021-02-20T14:25:35Z</time>
      </trkpt>
      <trkpt lat="49.63958" lon="5.66794">
        <ele>326.329987</ele>
        <time>2021-02-20T14:25:37Z</time>
      </trkpt>
      <trkpt lat="49.63946" lon="5.66793">
        <ele>326.329987</ele>
        <time>2021-02-20T14:25:39Z</time>
      </trkpt>
      <trkpt lat="49.63936" lon="5.66794">
        <ele>326.329987</ele>
        <time>2021-02-20T14:25:42Z</time>
      </trkpt>
      <trkpt lat="49.63924" lon="5.66791">
        <ele>326.329987</ele>
        <time>2021-02-20T14:25:44Z</time>
      </trkpt>
      <trkpt lat="49.63911" lon="5.66787">
        <ele>326.329987</ele>
        <time>2021-02-20T14:25:46Z</time>
      </trkpt>
      <trkpt lat="49.63901" lon="5.66783">
        <ele>326.329987</ele>
        <time>2021-02-20T14:25:48Z</time>
      </trkpt>
      <trkpt lat="49.6389" lon="5.66777">
        <ele>326.329987</ele>
        <time>2021-02-20T14:25:51Z</time>
      </trkpt>
      <trkpt lat="49.63878" lon="5.66774">
        <ele>326.329987</ele>
        <time>2021-02-20T14:25:53Z</time>
      </trkpt>
      <trkpt lat="49.63868" lon="5.66771">
        <ele>326.329987</ele>
        <time>2021-02-20T14:25:55Z</time>
      </trkpt>
      <trkpt lat="49.63857" lon="5.66768">
        <ele>326.329987</ele>
        <time>2021-02-20T14:25:57Z</time>
      </trkpt>
      <trkpt lat="49.63847" lon="5.66765">
        <ele>326.329987</ele>
        <time>2021-02-20T14:25:59Z</time>
      </trkpt>
      <trkpt lat="49.6383" lon="5.66763">
        <ele>326.329987</ele>
        <time>2021-02-20T14:26:02Z</time>
      </trkpt>
      <trkpt lat="49.63818" lon="5.66762">
        <ele>326.329987</ele>
        <time>2021-02-20T14:26:03Z</time>
      </trkpt>
      <trkpt lat="49.63801" lon="5.66762">
        <ele>326.329987</ele>
        <time>2021-02-20T14:26:05Z</time>
      </trkpt>
      <trkpt lat="49.63792" lon="5.66763">
        <ele>326.329987</ele>
        <time>2021-02-20T14:26:06Z</time>
      </trkpt>
      <trkpt lat="49.63781" lon="5.66763">
        <ele>326.329987</ele>
        <time>2021-02-20T14:26:08Z</time>
      </trkpt>
      <trkpt lat="49.63781" lon="5.6676">
        <ele>326.329987</ele>
        <time>2021-02-20T14:26:13Z</time>
      </trkpt>
      <trkpt lat="49.63778" lon="5.66758">
        <ele>326.329987</ele>
        <time>2021-02-20T14:26:17Z</time>
      </trkpt>
      <trkpt lat="49.63773" lon="5.66757">
        <ele>326.329987</ele>
        <time>2021-02-20T14:26:22Z</time>
      </trkpt>
      <trkpt lat="49.63782" lon="5.66756">
        <ele>326.329987</ele>
        <time>2021-02-20T14:26:27Z</time>
      </trkpt>
      <trkpt lat="49.63783" lon="5.66753">
        <ele>326.329987</ele>
        <time>2021-02-20T14:26:32Z</time>
      </trkpt>
      <trkpt lat="49.63782" lon="5.66752">
        <ele>326.329987</ele>
        <time>2021-02-20T14:26:37Z</time>
      </trkpt>
      <trkpt lat="49.63781" lon="5.66752">
        <ele>326.329987</ele>
        <time>2021-02-20T14:26:42Z</time>
      </trkpt>
      <trkpt lat="49.63781" lon="5.66752">
        <ele>326.329987</ele>
        <time>2021-02-20T14:26:47Z</time>
      </trkpt>
      <trkpt lat="49.63781" lon="5.66752">
        <ele>326.329987</ele>
        <time>2021-02-20T14:26:52Z</time>
      </trkpt>
      <trkpt lat="49.63781" lon="5.66752">
        <ele>326.329987</ele>
        <time>2021-02-20T14:26:57Z</time>
      </trkpt>
      <trkpt lat="49.63781" lon="5.66752">
        <ele>326.329987</ele>
        <time>2021-02-20T14:27:02Z</time>
      </trkpt>
      <trkpt lat="49.63781" lon="5.66752">
        <ele>326.329987</ele>
        <time>2021-02-20T14:27:07Z</time>
      </trkpt>
      <trkpt lat="49.63781" lon="5.66752">
        <ele>326.329987</ele>
        <time>2021-02-20T14:27:12Z</time>
      </trkpt>
      <trkpt lat="49.63781" lon="5.66752">
        <ele>326.329987</ele>
        <time>2021-02-20T14:27:17Z</time>
      </trkpt>
      <trkpt lat="49.6378" lon="5.66752">
        <ele>326.329987</ele>
        <time>2021-02-20T14:27:22Z</time>
      </trkpt>
      <trkpt lat="49.63779" lon="5.66752">
        <ele>326.329987</ele>
        <time>2021-02-20T14:27:27Z</time>
      </trkpt>
      <trkpt lat="49.63779" lon="5.6675">
        <ele>326.329987</ele>
        <time>2021-02-20T14:27:32Z</time>
      </trkpt>
      <trkpt lat="49.63779" lon="5.6675">
        <ele>326.329987</ele>
        <time>2021-02-20T14:27:37Z</time>
      </trkpt>
      <trkpt lat="49.63779" lon="5.66749">
        <ele>326.329987</ele>
        <time>2021-02-20T14:27:42Z</time>
      </trkpt>
      <trkpt lat="49.63778" lon="5.66749">
        <ele>326.329987</ele>
        <time>2021-02-20T14:27:47Z</time>
      </trkpt>
      <trkpt lat="49.63778" lon="5.66749">
        <ele>326.329987</ele>
        <time>2021-02-20T14:27:52Z</time>
      </trkpt>
      <trkpt lat="49.63778" lon="5.66748">
        <ele>326.329987</ele>
        <time>2021-02-20T14:27:57Z</time>
      </trkpt>
      <trkpt lat="49.63778" lon="5.66749">
        <ele>326.329987</ele>
        <time>2021-02-20T14:28:02Z</time>
      </trkpt>
      <trkpt lat="49.63778" lon="5.66748">
        <ele>326.329987</ele>
        <time>2021-02-20T14:28:07Z</time>
      </trkpt>
      <trkpt lat="49.63778" lon="5.66749">
        <ele>326.329987</ele>
        <time>2021-02-20T14:28:12Z</time>
      </trkpt>
      <trkpt lat="49.63777" lon="5.66749">
        <ele>326.329987</ele>
        <time>2021-02-20T14:28:17Z</time>
      </trkpt>
      <trkpt lat="49.63777" lon="5.66749">
        <ele>326.329987</ele>
        <time>2021-02-20T14:28:22Z</time>
      </trkpt>
      <trkpt lat="49.63777" lon="5.66749">
        <ele>326.329987</ele>
        <time>2021-02-20T14:28:27Z</time>
      </trkpt>
      <trkpt lat="49.63777" lon="5.66749">
        <ele>326.329987</ele>
        <time>2021-02-20T14:28:32Z</time>
      </trkpt>
      <trkpt lat="49.63777" lon="5.66749">
        <ele>326.329987</ele>
        <time>2021-02-20T14:28:37Z</time>
      </trkpt>
      <trkpt lat="49.63777" lon="5.66749">
        <ele>326.329987</ele>
        <time>2021-02-20T14:28:42Z</time>
      </trkpt>
      <trkpt lat="49.63777" lon="5.66749">
        <ele>326.329987</ele>
        <time>2021-02-20T14:28:47Z</time>
      </trkpt>
      <trkpt lat="49.63777" lon="5.66749">
        <ele>326.329987</ele>
        <time>2021-02-20T14:28:52Z</time>
      </trkpt>
      <trkpt lat="49.63777" lon="5.6675">
        <ele>326.329987</ele>
        <time>2021-02-20T14:28:57Z</time>
      </trkpt>
      <trkpt lat="49.63777" lon="5.6675">
        <ele>326.329987</ele>
        <time>2021-02-20T14:29:02Z</time>
      </trkpt>
      <trkpt lat="49.63777" lon="5.6675">
        <ele>326.329987</ele>
        <time>2021-02-20T14:29:07Z</time>
      </trkpt>
      <trkpt lat="49.63777" lon="5.6675">
        <ele>326.329987</ele>
        <time>2021-02-20T14:29:12Z</time>
      </trkpt>
      <trkpt lat="49.63777" lon="5.6675">
        <ele>326.329987</ele>
        <time>2021-02-20T14:29:17Z</time>
      </trkpt>
      <trkpt lat="49.63777" lon="5.6675">
        <ele>326.329987</ele>
        <time>2021-02-20T14:29:22Z</time>
      </trkpt>
      <trkpt lat="49.63777" lon="5.6675">
        <ele>326.329987</ele>
        <time>2021-02-20T14:29:27Z</time>
      </trkpt>
      <trkpt lat="49.63777" lon="5.6675">
        <ele>326.329987</ele>
        <time>2021-02-20T14:29:32Z</time>
      </trkpt>
      <trkpt lat="49.63777" lon="5.6675">
        <ele>326.329987</ele>
        <time>2021-02-20T14:29:37Z</time>
      </trkpt>
      <trkpt lat="49.63777" lon="5.6675">
        <ele>326.329987</ele>
        <time>2021-02-20T14:29:42Z</time>
      </trkpt>
      <trkpt lat="49.63777" lon="5.6675">
        <ele>326.329987</ele>
        <time>2021-02-20T14:29:47Z</time>
      </trkpt>
      <trkpt lat="49.63777" lon="5.6675">
        <ele>326.329987</ele>
        <time>2021-02-20T14:29:52Z</time>
      </trkpt>
      <trkpt lat="49.63777" lon="5.6675">
        <ele>326.329987</ele>
        <time>2021-02-20T14:29:57Z</time>
      </trkpt>
      <trkpt lat="49.63777" lon="5.6675">
        <ele>326.329987</ele>
        <time>2021-02-20T14:30:02Z</time>
      </trkpt>
      <trkpt lat="49.63777" lon="5.6675">
        <ele>326.329987</ele>
        <time>2021-02-20T14:30:07Z</time>
      </trkpt>
      <trkpt lat="49.63777" lon="5.6675">
        <ele>326.329987</ele>
        <time>2021-02-20T14:30:12Z</time>
      </trkpt>
      <trkpt lat="49.63777" lon="5.6675">
        <ele>326.329987</ele>
        <time>2021-02-20T14:30:17Z</time>
      </trkpt>
      <trkpt lat="49.63777" lon="5.6675">
        <ele>326.329987</ele>
        <time>2021-02-20T14:30:22Z</time>
      </trkpt>
      <trkpt lat="49.63777" lon="5.6675">
        <ele>326.329987</ele>
        <time>2021-02-20T14:30:27Z</time>
      </trkpt>
      <trkpt lat="49.63777" lon="5.6675">
        <ele>326.329987</ele>
        <time>2021-02-20T14:30:32Z</time>
      </trkpt>
      <trkpt lat="49.63777" lon="5.6675">
        <ele>326.329987</ele>
        <time>2021-02-20T14:30:37Z</time>
      </trkpt>
      <trkpt lat="49.63777" lon="5.6675">
        <ele>326.329987</ele>
        <time>2021-02-20T14:30:42Z</time>
      </trkpt>
      <trkpt lat="49.63777" lon="5.6675">
        <ele>326.329987</ele>
        <time>2021-02-20T14:30:47Z</time>
      </trkpt>
      <trkpt lat="49.63777" lon="5.6675">
        <ele>326.329987</ele>
        <time>2021-02-20T14:30:52Z</time>
      </trkpt>
      <trkpt lat="49.63777" lon="5.6675">
        <ele>326.329987</ele>
        <time>2021-02-20T14:30:57Z</time>
      </trkpt>
      <trkpt lat="49.63777" lon="5.6675">
        <ele>326.329987</ele>
        <time>2021-02-20T14:31:02Z</time>
      </trkpt>
      <trkpt lat="49.63777" lon="5.6675">
        <ele>326.329987</ele>
        <time>2021-02-20T14:31:07Z</time>
      </trkpt>
      <trkpt lat="49.63777" lon="5.6675">
        <ele>326.329987</ele>
        <time>2021-02-20T14:31:12Z</time>
      </trkpt>
      <trkpt lat="49.63777" lon="5.6675">
        <ele>326.329987</ele>
        <time>2021-02-20T14:31:17Z</time>
      </trkpt>
      <trkpt lat="49.63774" lon="5.66749">
        <ele>326.329987</ele>
        <time>2021-02-20T14:31:22Z</time>
      </trkpt>
      <trkpt lat="49.63773" lon="5.66749">
        <ele>326.329987</ele>
        <time>2021-02-20T14:31:27Z</time>
      </trkpt>
      <trkpt lat="49.63771" lon="5.66748">
        <ele>326.329987</ele>
        <time>2021-02-20T14:31:32Z</time>
      </trkpt>
      <trkpt lat="49.63771" lon="5.66748">
        <ele>326.329987</ele>
        <time>2021-02-20T14:31:37Z</time>
      </trkpt>
      <trkpt lat="49.63771" lon="5.66748">
        <ele>326.329987</ele>
        <time>2021-02-20T14:31:42Z</time>
      </trkpt>
      <trkpt lat="49.63771" lon="5.66748">
        <ele>326.329987</ele>
        <time>2021-02-20T14:31:47Z</time>
      </trkpt>
      <trkpt lat="49.63771" lon="5.66748">
        <ele>326.329987</ele>
        <time>2021-02-20T14:31:52Z</time>
      </trkpt>
      <trkpt lat="49.63771" lon="5.66748">
        <ele>326.329987</ele>
        <time>2021-02-20T14:31:57Z</time>
      </trkpt>
      <trkpt lat="49.63771" lon="5.66748">
        <ele>326.329987</ele>
        <time>2021-02-20T14:32:02Z</time>
      </trkpt>
      <trkpt lat="49.63771" lon="5.66748">
        <ele>326.329987</ele>
        <time>2021-02-20T14:32:07Z</time>
      </trkpt>
      <trkpt lat="49.63771" lon="5.66748">
        <ele>326.329987</ele>
        <time>2021-02-20T14:32:12Z</time>
      </trkpt>
      <trkpt lat="49.63771" lon="5.66748">
        <ele>326.329987</ele>
        <time>2021-02-20T14:32:17Z</time>
      </trkpt>
      <trkpt lat="49.63771" lon="5.66748">
        <ele>326.329987</ele>
        <time>2021-02-20T14:32:22Z</time>
      </trkpt>
      <trkpt lat="49.63771" lon="5.66748">
        <ele>326.329987</ele>
        <time>2021-02-20T14:32:27Z</time>
      </trkpt>
      <trkpt lat="49.63771" lon="5.66749">
        <ele>326.329987</ele>
        <time>2021-02-20T14:32:32Z</time>
      </trkpt>
      <trkpt lat="49.63772" lon="5.66748">
        <ele>326.329987</ele>
        <time>2021-02-20T14:32:37Z</time>
      </trkpt>
      <trkpt lat="49.63771" lon="5.66749">
        <ele>326.329987</ele>
        <time>2021-02-20T14:32:42Z</time>
      </trkpt>
      <trkpt lat="49.63772" lon="5.66749">
        <ele>326.329987</ele>
        <time>2021-02-20T14:32:47Z</time>
      </trkpt>
      <trkpt lat="49.63771" lon="5.66749">
        <ele>326.329987</ele>
        <time>2021-02-20T14:32:52Z</time>
      </trkpt>
      <trkpt lat="49.63775" lon="5.66749">
        <ele>326.329987</ele>
        <time>2021-02-20T14:32:57Z</time>
      </trkpt>
      <trkpt lat="49.63773" lon="5.66748">
        <ele>326.329987</ele>
        <time>2021-02-20T14:33:02Z</time>
      </trkpt>
      <trkpt lat="49.63773" lon="5.66749">
        <ele>326.329987</ele>
        <time>2021-02-20T14:33:07Z</time>
      </trkpt>
      <trkpt lat="49.63773" lon="5.66749">
        <ele>326.329987</ele>
        <time>2021-02-20T14:33:12Z</time>
      </trkpt>
      <trkpt lat="49.63773" lon="5.66749">
        <ele>326.329987</ele>
        <time>2021-02-20T14:33:17Z</time>
      </trkpt>
      <trkpt lat="49.63773" lon="5.66749">
        <ele>326.329987</ele>
        <time>2021-02-20T14:33:22Z</time>
      </trkpt>
      <trkpt lat="49.63773" lon="5.66749">
        <ele>326.329987</ele>
        <time>2021-02-20T14:33:27Z</time>
      </trkpt>
      <trkpt lat="49.63773" lon="5.66749">
        <ele>326.329987</ele>
        <time>2021-02-20T14:33:32Z</time>
      </trkpt>
      <trkpt lat="49.63773" lon="5.66749">
        <ele>326.329987</ele>
        <time>2021-02-20T14:33:37Z</time>
      </trkpt>
      <trkpt lat="49.63773" lon="5.66749">
        <ele>326.329987</ele>
        <time>2021-02-20T14:33:42Z</time>
      </trkpt>
      <trkpt lat="49.63773" lon="5.66749">
        <ele>326.329987</ele>
        <time>2021-02-20T14:33:47Z</time>
      </trkpt>
      <trkpt lat="49.63772" lon="5.66749">
        <ele>326.329987</ele>
        <time>2021-02-20T14:33:52Z</time>
      </trkpt>
      <trkpt lat="49.63773" lon="5.66752">
        <ele>326.329987</ele>
        <time>2021-02-20T14:33:57Z</time>
      </trkpt>
      <trkpt lat="49.63773" lon="5.66753">
        <ele>326.329987</ele>
        <time>2021-02-20T14:34:02Z</time>
      </trkpt>
      <trkpt lat="49.63773" lon="5.66753">
        <ele>326.329987</ele>
        <time>2021-02-20T14:34:07Z</time>
      </trkpt>
      <trkpt lat="49.63773" lon="5.66753">
        <ele>326.329987</ele>
        <time>2021-02-20T14:34:12Z</time>
      </trkpt>
      <trkpt lat="49.63773" lon="5.66753">
        <ele>326.329987</ele>
        <time>2021-02-20T14:34:17Z</time>
      </trkpt>
      <trkpt lat="49.63773" lon="5.66753">
        <ele>326.329987</ele>
        <time>2021-02-20T14:34:22Z</time>
      </trkpt>
      <trkpt lat="49.63773" lon="5.66753">
        <ele>326.329987</ele>
        <time>2021-02-20T14:34:27Z</time>
      </trkpt>
      <trkpt lat="49.63774" lon="5.66754">
        <ele>326.329987</ele>
        <time>2021-02-20T14:34:32Z</time>
      </trkpt>
      <trkpt lat="49.63774" lon="5.66754">
        <ele>326.329987</ele>
        <time>2021-02-20T14:34:37Z</time>
      </trkpt>
      <trkpt lat="49.63774" lon="5.66754">
        <ele>326.329987</ele>
        <time>2021-02-20T14:34:42Z</time>
      </trkpt>
      <trkpt lat="49.63774" lon="5.66755">
        <ele>326.329987</ele>
        <time>2021-02-20T14:34:47Z</time>
      </trkpt>
      <trkpt lat="49.63774" lon="5.66755">
        <ele>326.329987</ele>
        <time>2021-02-20T14:34:52Z</time>
      </trkpt>
      <trkpt lat="49.63777" lon="5.66753">
        <ele>326.329987</ele>
        <time>2021-02-20T14:34:57Z</time>
      </trkpt>
      <trkpt lat="49.6378" lon="5.66753">
        <ele>326.329987</ele>
        <time>2021-02-20T14:35:02Z</time>
      </trkpt>
      <trkpt lat="49.63781" lon="5.66753">
        <ele>326.329987</ele>
        <time>2021-02-20T14:35:07Z</time>
      </trkpt>
      <trkpt lat="49.63782" lon="5.66753">
        <ele>326.329987</ele>
        <time>2021-02-20T14:35:12Z</time>
      </trkpt>
      <trkpt lat="49.63781" lon="5.66753">
        <ele>326.329987</ele>
        <time>2021-02-20T14:35:17Z</time>
      </trkpt>
      <trkpt lat="49.63781" lon="5.66755">
        <ele>326.329987</ele>
        <time>2021-02-20T14:35:22Z</time>
      </trkpt>
      <trkpt lat="49.63781" lon="5.66755">
        <ele>326.329987</ele>
        <time>2021-02-20T14:35:27Z</time>
      </trkpt>
      <trkpt lat="49.63781" lon="5.66756">
        <ele>326.329987</ele>
        <time>2021-02-20T14:35:32Z</time>
      </trkpt>
      <trkpt lat="49.6378" lon="5.66758">
        <ele>326.329987</ele>
        <time>2021-02-20T14:35:37Z</time>
      </trkpt>
      <trkpt lat="49.63779" lon="5.66759">
        <ele>326.329987</ele>
        <time>2021-02-20T14:35:42Z</time>
      </trkpt>
      <trkpt lat="49.63778" lon="5.66759">
        <ele>326.329987</ele>
        <time>2021-02-20T14:35:47Z</time>
      </trkpt>
      <trkpt lat="49.63779" lon="5.66758">
        <ele>326.329987</ele>
        <time>2021-02-20T14:35:52Z</time>
      </trkpt>
      <trkpt lat="49.6378" lon="5.66757">
        <ele>326.329987</ele>
        <time>2021-02-20T14:35:57Z</time>
      </trkpt>
      <trkpt lat="49.63782" lon="5.66756">
        <ele>326.329987</ele>
        <time>2021-02-20T14:36:02Z</time>
      </trkpt>
      <trkpt lat="49.63782" lon="5.66755">
        <ele>326.329987</ele>
        <time>2021-02-20T14:36:07Z</time>
      </trkpt>
      <trkpt lat="49.63782" lon="5.66755">
        <ele>326.329987</ele>
        <time>2021-02-20T14:36:12Z</time>
      </trkpt>
      <trkpt lat="49.63789" lon="5.66765">
        <ele>326.329987</ele>
        <time>2021-02-20T14:36:17Z</time>
      </trkpt>
      <trkpt lat="49.63794" lon="5.66776">
        <ele>326.329987</ele>
        <time>2021-02-20T14:36:22Z</time>
      </trkpt>
      <trkpt lat="49.63799" lon="5.66788">
        <ele>326.329987</ele>
        <time>2021-02-20T14:36:26Z</time>
      </trkpt>
      <trkpt lat="49.63807" lon="5.66806">
        <ele>326.329987</ele>
        <time>2021-02-20T14:36:30Z</time>
      </trkpt>
      <trkpt lat="49.63813" lon="5.66818">
        <ele>326.329987</ele>
        <time>2021-02-20T14:36:33Z</time>
      </trkpt>
      <trkpt lat="49.63818" lon="5.66833">
        <ele>326.329987</ele>
        <time>2021-02-20T14:36:37Z</time>
      </trkpt>
      <trkpt lat="49.63823" lon="5.66848">
        <ele>326.329987</ele>
        <time>2021-02-20T14:36:40Z</time>
      </trkpt>
      <trkpt lat="49.63829" lon="5.66866">
        <ele>326.329987</ele>
        <time>2021-02-20T14:36:43Z</time>
      </trkpt>
      <trkpt lat="49.63829" lon="5.6688">
        <ele>326.329987</ele>
        <time>2021-02-20T14:36:46Z</time>
      </trkpt>
      <trkpt lat="49.6383" lon="5.66895">
        <ele>326.329987</ele>
        <time>2021-02-20T14:36:49Z</time>
      </trkpt>
      <trkpt lat="49.63834" lon="5.66912">
        <ele>326.329987</ele>
        <time>2021-02-20T14:36:53Z</time>
      </trkpt>
      <trkpt lat="49.63838" lon="5.66925">
        <ele>326.329987</ele>
        <time>2021-02-20T14:36:56Z</time>
      </trkpt>
      <trkpt lat="49.63841" lon="5.66939">
        <ele>326.329987</ele>
        <time>2021-02-20T14:36:58Z</time>
      </trkpt>
      <trkpt lat="49.63845" lon="5.66957">
        <ele>326.329987</ele>
        <time>2021-02-20T14:37:01Z</time>
      </trkpt>
      <trkpt lat="49.63848" lon="5.66972">
        <ele>326.329987</ele>
        <time>2021-02-20T14:37:03Z</time>
      </trkpt>
      <trkpt lat="49.63851" lon="5.66986">
        <ele>326.329987</ele>
        <time>2021-02-20T14:37:06Z</time>
      </trkpt>
      <trkpt lat="49.63852" lon="5.67005">
        <ele>326.329987</ele>
        <time>2021-02-20T14:37:10Z</time>
      </trkpt>
      <trkpt lat="49.63853" lon="5.67021">
        <ele>326.329987</ele>
        <time>2021-02-20T14:37:13Z</time>
      </trkpt>
      <trkpt lat="49.63852" lon="5.6704">
        <ele>326.329987</ele>
        <time>2021-02-20T14:37:16Z</time>
      </trkpt>
      <trkpt lat="49.63852" lon="5.67055">
        <ele>326.329987</ele>
        <time>2021-02-20T14:37:19Z</time>
      </trkpt>
      <trkpt lat="49.63856" lon="5.67066">
        <ele>326.329987</ele>
        <time>2021-02-20T14:37:23Z</time>
      </trkpt>
      <trkpt lat="49.63858" lon="5.67075">
        <ele>326.329987</ele>
        <time>2021-02-20T14:37:27Z</time>
      </trkpt>
      <trkpt lat="49.63859" lon="5.67086">
        <ele>326.329987</ele>
        <time>2021-02-20T14:37:32Z</time>
      </trkpt>
      <trkpt lat="49.63864" lon="5.67098">
        <ele>326.329987</ele>
        <time>2021-02-20T14:37:36Z</time>
      </trkpt>
      <trkpt lat="49.63864" lon="5.67112">
        <ele>326.329987</ele>
        <time>2021-02-20T14:37:40Z</time>
      </trkpt>
      <trkpt lat="49.63864" lon="5.67131">
        <ele>326.329987</ele>
        <time>2021-02-20T14:37:43Z</time>
      </trkpt>
      <trkpt lat="49.63868" lon="5.67142">
        <ele>326.329987</ele>
        <time>2021-02-20T14:37:47Z</time>
      </trkpt>
      <trkpt lat="49.63871" lon="5.67156">
        <ele>326.329987</ele>
        <time>2021-02-20T14:37:49Z</time>
      </trkpt>
      <trkpt lat="49.63874" lon="5.67171">
        <ele>326.329987</ele>
        <time>2021-02-20T14:37:51Z</time>
      </trkpt>
      <trkpt lat="49.63878" lon="5.67189">
        <ele>326.329987</ele>
        <time>2021-02-20T14:37:54Z</time>
      </trkpt>
      <trkpt lat="49.63882" lon="5.67206">
        <ele>326.329987</ele>
        <time>2021-02-20T14:37:58Z</time>
      </trkpt>
      <trkpt lat="49.63885" lon="5.67223">
        <ele>326.329987</ele>
        <time>2021-02-20T14:38:01Z</time>
      </trkpt>
      <trkpt lat="49.63884" lon="5.6724">
        <ele>326.329987</ele>
        <time>2021-02-20T14:38:05Z</time>
      </trkpt>
      <trkpt lat="49.63882" lon="5.67254">
        <ele>326.329987</ele>
        <time>2021-02-20T14:38:09Z</time>
      </trkpt>
      <trkpt lat="49.63881" lon="5.67268">
        <ele>326.329987</ele>
        <time>2021-02-20T14:38:12Z</time>
      </trkpt>
      <trkpt lat="49.63875" lon="5.67285">
        <ele>326.329987</ele>
        <time>2021-02-20T14:38:16Z</time>
      </trkpt>
      <trkpt lat="49.63869" lon="5.67295">
        <ele>326.329987</ele>
        <time>2021-02-20T14:38:19Z</time>
      </trkpt>
      <trkpt lat="49.63862" lon="5.67304">
        <ele>326.329987</ele>
        <time>2021-02-20T14:38:23Z</time>
      </trkpt>
      <trkpt lat="49.63853" lon="5.67315">
        <ele>326.329987</ele>
        <time>2021-02-20T14:38:27Z</time>
      </trkpt>
      <trkpt lat="49.63845" lon="5.67325">
        <ele>326.329987</ele>
        <time>2021-02-20T14:38:30Z</time>
      </trkpt>
      <trkpt lat="49.63839" lon="5.67332">
        <ele>326.329987</ele>
        <time>2021-02-20T14:38:34Z</time>
      </trkpt>
      <trkpt lat="49.63834" lon="5.67345">
        <ele>326.329987</ele>
        <time>2021-02-20T14:38:38Z</time>
      </trkpt>
      <trkpt lat="49.63829" lon="5.67358">
        <ele>326.329987</ele>
        <time>2021-02-20T14:38:42Z</time>
      </trkpt>
      <trkpt lat="49.63827" lon="5.67372">
        <ele>326.320007</ele>
        <time>2021-02-20T14:38:46Z</time>
      </trkpt>
      <trkpt lat="49.63823" lon="5.67386">
        <ele>326.320007</ele>
        <time>2021-02-20T14:38:51Z</time>
      </trkpt>
      <trkpt lat="49.63824" lon="5.67397">
        <ele>326.320007</ele>
        <time>2021-02-20T14:38:55Z</time>
      </trkpt>
      <trkpt lat="49.63821" lon="5.67414">
        <ele>326.320007</ele>
        <time>2021-02-20T14:38:59Z</time>
      </trkpt>
      <trkpt lat="49.63814" lon="5.67421">
        <ele>326.320007</ele>
        <time>2021-02-20T14:39:01Z</time>
      </trkpt>
      <trkpt lat="49.6381" lon="5.67428">
        <ele>326.320007</ele>
        <time>2021-02-20T14:39:05Z</time>
      </trkpt>
      <trkpt lat="49.63805" lon="5.67444">
        <ele>326.320007</ele>
        <time>2021-02-20T14:39:09Z</time>
      </trkpt>
      <trkpt lat="49.63801" lon="5.67457">
        <ele>326.320007</ele>
        <time>2021-02-20T14:39:11Z</time>
      </trkpt>
      <trkpt lat="49.63796" lon="5.67474">
        <ele>326.320007</ele>
        <time>2021-02-20T14:39:14Z</time>
      </trkpt>
      <trkpt lat="49.63793" lon="5.67491">
        <ele>326.320007</ele>
        <time>2021-02-20T14:39:17Z</time>
      </trkpt>
      <trkpt lat="49.63788" lon="5.67505">
        <ele>326.320007</ele>
        <time>2021-02-20T14:39:21Z</time>
      </trkpt>
      <trkpt lat="49.63784" lon="5.67519">
        <ele>326.320007</ele>
        <time>2021-02-20T14:39:23Z</time>
      </trkpt>
      <trkpt lat="49.63778" lon="5.67526">
        <ele>326.320007</ele>
        <time>2021-02-20T14:39:27Z</time>
      </trkpt>
      <trkpt lat="49.63771" lon="5.67536">
        <ele>326.320007</ele>
        <time>2021-02-20T14:39:30Z</time>
      </trkpt>
      <trkpt lat="49.63763" lon="5.67544">
        <ele>326.320007</ele>
        <time>2021-02-20T14:39:35Z</time>
      </trkpt>
      <trkpt lat="49.63756" lon="5.6755">
        <ele>326.320007</ele>
        <time>2021-02-20T14:39:39Z</time>
      </trkpt>
      <trkpt lat="49.63749" lon="5.67553">
        <ele>326.320007</ele>
        <time>2021-02-20T14:39:44Z</time>
      </trkpt>
      <trkpt lat="49.63739" lon="5.67556">
        <ele>326.320007</ele>
        <time>2021-02-20T14:39:48Z</time>
      </trkpt>
      <trkpt lat="49.63732" lon="5.6756">
        <ele>326.320007</ele>
        <time>2021-02-20T14:39:53Z</time>
      </trkpt>
      <trkpt lat="49.63722" lon="5.67565">
        <ele>326.320007</ele>
        <time>2021-02-20T14:39:57Z</time>
      </trkpt>
      <trkpt lat="49.63713" lon="5.67571">
        <ele>326.320007</ele>
        <time>2021-02-20T14:40:02Z</time>
      </trkpt>
      <trkpt lat="49.63704" lon="5.67573">
        <ele>326.320007</ele>
        <time>2021-02-20T14:40:05Z</time>
      </trkpt>
      <trkpt lat="49.63694" lon="5.6758">
        <ele>326.320007</ele>
        <time>2021-02-20T14:40:09Z</time>
      </trkpt>
      <trkpt lat="49.63685" lon="5.67588">
        <ele>326.320007</ele>
        <time>2021-02-20T14:40:14Z</time>
      </trkpt>
      <trkpt lat="49.63679" lon="5.67598">
        <ele>326.320007</ele>
        <time>2021-02-20T14:40:18Z</time>
      </trkpt>
      <trkpt lat="49.63673" lon="5.67601">
        <ele>326.320007</ele>
        <time>2021-02-20T14:40:22Z</time>
      </trkpt>
      <trkpt lat="49.63671" lon="5.67607">
        <ele>326.320007</ele>
        <time>2021-02-20T14:40:27Z</time>
      </trkpt>
      <trkpt lat="49.63667" lon="5.6762">
        <ele>326.320007</ele>
        <time>2021-02-20T14:40:31Z</time>
      </trkpt>
      <trkpt lat="49.63658" lon="5.67632">
        <ele>326.320007</ele>
        <time>2021-02-20T14:40:35Z</time>
      </trkpt>
      <trkpt lat="49.63651" lon="5.67643">
        <ele>326.320007</ele>
        <time>2021-02-20T14:40:38Z</time>
      </trkpt>
      <trkpt lat="49.63646" lon="5.67654">
        <ele>326.320007</ele>
        <time>2021-02-20T14:40:40Z</time>
      </trkpt>
      <trkpt lat="49.63643" lon="5.67669">
        <ele>326.320007</ele>
        <time>2021-02-20T14:40:45Z</time>
      </trkpt>
      <trkpt lat="49.63643" lon="5.67684">
        <ele>326.320007</ele>
        <time>2021-02-20T14:40:49Z</time>
      </trkpt>
      <trkpt lat="49.63644" lon="5.67702">
        <ele>326.320007</ele>
        <time>2021-02-20T14:40:54Z</time>
      </trkpt>
      <trkpt lat="49.63645" lon="5.6772">
        <ele>326.320007</ele>
        <time>2021-02-20T14:40:59Z</time>
      </trkpt>
      <trkpt lat="49.63648" lon="5.67734">
        <ele>326.320007</ele>
        <time>2021-02-20T14:41:03Z</time>
      </trkpt>
      <trkpt lat="49.63649" lon="5.67744">
        <ele>326.320007</ele>
        <time>2021-02-20T14:41:07Z</time>
      </trkpt>
      <trkpt lat="49.63649" lon="5.67754">
        <ele>326.320007</ele>
        <time>2021-02-20T14:41:11Z</time>
      </trkpt>
      <trkpt lat="49.63653" lon="5.67766">
        <ele>326.320007</ele>
        <time>2021-02-20T14:41:16Z</time>
      </trkpt>
      <trkpt lat="49.63657" lon="5.67778">
        <ele>326.320007</ele>
        <time>2021-02-20T14:41:21Z</time>
      </trkpt>
      <trkpt lat="49.6366" lon="5.67795">
        <ele>326.320007</ele>
        <time>2021-02-20T14:41:25Z</time>
      </trkpt>
      <trkpt lat="49.63664" lon="5.67808">
        <ele>326.320007</ele>
        <time>2021-02-20T14:41:29Z</time>
      </trkpt>
      <trkpt lat="49.63667" lon="5.67824">
        <ele>326.320007</ele>
        <time>2021-02-20T14:41:33Z</time>
      </trkpt>
      <trkpt lat="49.63668" lon="5.67841">
        <ele>326.320007</ele>
        <time>2021-02-20T14:41:37Z</time>
      </trkpt>
      <trkpt lat="49.63671" lon="5.67855">
        <ele>326.320007</ele>
        <time>2021-02-20T14:41:42Z</time>
      </trkpt>
      <trkpt lat="49.63671" lon="5.67872">
        <ele>326.320007</ele>
        <time>2021-02-20T14:41:46Z</time>
      </trkpt>
      <trkpt lat="49.63668" lon="5.67889">
        <ele>326.320007</ele>
        <time>2021-02-20T14:41:50Z</time>
      </trkpt>
      <trkpt lat="49.63668" lon="5.67908">
        <ele>326.320007</ele>
        <time>2021-02-20T14:41:54Z</time>
      </trkpt>
      <trkpt lat="49.63669" lon="5.67926">
        <ele>326.320007</ele>
        <time>2021-02-20T14:41:57Z</time>
      </trkpt>
      <trkpt lat="49.6367" lon="5.67942">
        <ele>326.320007</ele>
        <time>2021-02-20T14:42:00Z</time>
      </trkpt>
      <trkpt lat="49.63668" lon="5.67956">
        <ele>326.320007</ele>
        <time>2021-02-20T14:42:04Z</time>
      </trkpt>
      <trkpt lat="49.63667" lon="5.6797">
        <ele>326.320007</ele>
        <time>2021-02-20T14:42:08Z</time>
      </trkpt>
      <trkpt lat="49.63671" lon="5.67986">
        <ele>326.320007</ele>
        <time>2021-02-20T14:42:11Z</time>
      </trkpt>
      <trkpt lat="49.63677" lon="5.68001">
        <ele>326.320007</ele>
        <time>2021-02-20T14:42:14Z</time>
      </trkpt>
      <trkpt lat="49.63683" lon="5.68015">
        <ele>326.320007</ele>
        <time>2021-02-20T14:42:17Z</time>
      </trkpt>
      <trkpt lat="49.63688" lon="5.68027">
        <ele>326.320007</ele>
        <time>2021-02-20T14:42:20Z</time>
      </trkpt>
      <trkpt lat="49.63694" lon="5.6804">
        <ele>326.320007</ele>
        <time>2021-02-20T14:42:23Z</time>
      </trkpt>
      <trkpt lat="49.637" lon="5.68053">
        <ele>326.320007</ele>
        <time>2021-02-20T14:42:26Z</time>
      </trkpt>
      <trkpt lat="49.63708" lon="5.68061">
        <ele>326.320007</ele>
        <time>2021-02-20T14:42:29Z</time>
      </trkpt>
      <trkpt lat="49.63716" lon="5.68073">
        <ele>326.320007</ele>
        <time>2021-02-20T14:42:34Z</time>
      </trkpt>
      <trkpt lat="49.63723" lon="5.68087">
        <ele>326.320007</ele>
        <time>2021-02-20T14:42:38Z</time>
      </trkpt>
      <trkpt lat="49.6373" lon="5.68097">
        <ele>326.320007</ele>
        <time>2021-02-20T14:42:42Z</time>
      </trkpt>
      <trkpt lat="49.63738" lon="5.68111">
        <ele>326.320007</ele>
        <time>2021-02-20T14:42:46Z</time>
      </trkpt>
      <trkpt lat="49.6374" lon="5.68126">
        <ele>326.320007</ele>
        <time>2021-02-20T14:42:51Z</time>
      </trkpt>
      <trkpt lat="49.63745" lon="5.68141">
        <ele>326.320007</ele>
        <time>2021-02-20T14:42:55Z</time>
      </trkpt>
      <trkpt lat="49.63747" lon="5.68158">
        <ele>326.320007</ele>
        <time>2021-02-20T14:42:58Z</time>
      </trkpt>
      <trkpt lat="49.63742" lon="5.68172">
        <ele>326.320007</ele>
        <time>2021-02-20T14:43:01Z</time>
      </trkpt>
      <trkpt lat="49.63739" lon="5.68186">
        <ele>326.320007</ele>
        <time>2021-02-20T14:43:04Z</time>
      </trkpt>
      <trkpt lat="49.63732" lon="5.68197">
        <ele>326.320007</ele>
        <time>2021-02-20T14:43:08Z</time>
      </trkpt>
      <trkpt lat="49.63728" lon="5.68211">
        <ele>326.320007</ele>
        <time>2021-02-20T14:43:12Z</time>
      </trkpt>
      <trkpt lat="49.63726" lon="5.68227">
        <ele>326.320007</ele>
        <time>2021-02-20T14:43:15Z</time>
      </trkpt>
      <trkpt lat="49.63722" lon="5.6824">
        <ele>326.320007</ele>
        <time>2021-02-20T14:43:18Z</time>
      </trkpt>
      <trkpt lat="49.63717" lon="5.68253">
        <ele>326.320007</ele>
        <time>2021-02-20T14:43:21Z</time>
      </trkpt>
      <trkpt lat="49.63709" lon="5.68264">
        <ele>326.320007</ele>
        <time>2021-02-20T14:43:24Z</time>
      </trkpt>
      <trkpt lat="49.63703" lon="5.68278">
        <ele>326.320007</ele>
        <time>2021-02-20T14:43:27Z</time>
      </trkpt>
      <trkpt lat="49.63697" lon="5.68289">
        <ele>326.320007</ele>
        <time>2021-02-20T14:43:30Z</time>
      </trkpt>
      <trkpt lat="49.63691" lon="5.683">
        <ele>326.320007</ele>
        <time>2021-02-20T14:43:33Z</time>
      </trkpt>
      <trkpt lat="49.63683" lon="5.68313">
        <ele>326.320007</ele>
        <time>2021-02-20T14:43:37Z</time>
      </trkpt>
      <trkpt lat="49.63676" lon="5.68328">
        <ele>326.320007</ele>
        <time>2021-02-20T14:43:41Z</time>
      </trkpt>
      <trkpt lat="49.6367" lon="5.68341">
        <ele>326.320007</ele>
        <time>2021-02-20T14:43:46Z</time>
      </trkpt>
      <trkpt lat="49.63667" lon="5.68352">
        <ele>326.320007</ele>
        <time>2021-02-20T14:43:50Z</time>
      </trkpt>
      <trkpt lat="49.6366" lon="5.68366">
        <ele>326.320007</ele>
        <time>2021-02-20T14:43:55Z</time>
      </trkpt>
      <trkpt lat="49.63654" lon="5.68369">
        <ele>326.320007</ele>
        <time>2021-02-20T14:43:59Z</time>
      </trkpt>
      <trkpt lat="49.63644" lon="5.68367">
        <ele>326.320007</ele>
        <time>2021-02-20T14:44:03Z</time>
      </trkpt>
      <trkpt lat="49.63635" lon="5.68367">
        <ele>326.320007</ele>
        <time>2021-02-20T14:44:07Z</time>
      </trkpt>
      <trkpt lat="49.63626" lon="5.68363">
        <ele>326.320007</ele>
        <time>2021-02-20T14:44:12Z</time>
      </trkpt>
      <trkpt lat="49.63617" lon="5.6835">
        <ele>326.320007</ele>
        <time>2021-02-20T14:44:16Z</time>
      </trkpt>
      <trkpt lat="49.63607" lon="5.6834">
        <ele>326.320007</ele>
        <time>2021-02-20T14:44:19Z</time>
      </trkpt>
      <trkpt lat="49.63597" lon="5.68336">
        <ele>326.320007</ele>
        <time>2021-02-20T14:44:23Z</time>
      </trkpt>
      <trkpt lat="49.63587" lon="5.68331">
        <ele>326.320007</ele>
        <time>2021-02-20T14:44:26Z</time>
      </trkpt>
      <trkpt lat="49.63577" lon="5.68326">
        <ele>326.320007</ele>
        <time>2021-02-20T14:44:29Z</time>
      </trkpt>
      <trkpt lat="49.63567" lon="5.68319">
        <ele>326.320007</ele>
        <time>2021-02-20T14:44:32Z</time>
      </trkpt>
      <trkpt lat="49.63557" lon="5.68312">
        <ele>326.320007</ele>
        <time>2021-02-20T14:44:34Z</time>
      </trkpt>
      <trkpt lat="49.63548" lon="5.68308">
        <ele>326.320007</ele>
        <time>2021-02-20T14:44:37Z</time>
      </trkpt>
      <trkpt lat="49.63538" lon="5.68306">
        <ele>326.320007</ele>
        <time>2021-02-20T14:44:39Z</time>
      </trkpt>
      <trkpt lat="49.63529" lon="5.68303">
        <ele>326.320007</ele>
        <time>2021-02-20T14:44:40Z</time>
      </trkpt>
      <trkpt lat="49.63519" lon="5.68296">
        <ele>326.320007</ele>
        <time>2021-02-20T14:44:45Z</time>
      </trkpt>
      <trkpt lat="49.63508" lon="5.68294">
        <ele>326.320007</ele>
        <time>2021-02-20T14:44:46Z</time>
      </trkpt>
      <trkpt lat="49.63499" lon="5.68289">
        <ele>326.320007</ele>
        <time>2021-02-20T14:44:48Z</time>
      </trkpt>
      <trkpt lat="49.63487" lon="5.68287">
        <ele>326.320007</ele>
        <time>2021-02-20T14:44:50Z</time>
      </trkpt>
      <trkpt lat="49.63476" lon="5.68282">
        <ele>326.320007</ele>
        <time>2021-02-20T14:44:52Z</time>
      </trkpt>
      <trkpt lat="49.63462" lon="5.6828">
        <ele>326.320007</ele>
        <time>2021-02-20T14:44:55Z</time>
      </trkpt>
      <trkpt lat="49.6345" lon="5.68277">
        <ele>326.320007</ele>
        <time>2021-02-20T14:44:57Z</time>
      </trkpt>
      <trkpt lat="49.63438" lon="5.68274">
        <ele>326.320007</ele>
        <time>2021-02-20T14:44:59Z</time>
      </trkpt>
      <trkpt lat="49.63427" lon="5.68269">
        <ele>326.320007</ele>
        <time>2021-02-20T14:45:01Z</time>
      </trkpt>
      <trkpt lat="49.63418" lon="5.68265">
        <ele>326.320007</ele>
        <time>2021-02-20T14:45:03Z</time>
      </trkpt>
      <trkpt lat="49.63409" lon="5.68262">
        <ele>326.320007</ele>
        <time>2021-02-20T14:45:04Z</time>
      </trkpt>
      <trkpt lat="49.63397" lon="5.68259">
        <ele>326.320007</ele>
        <time>2021-02-20T14:45:07Z</time>
      </trkpt>
      <trkpt lat="49.63384" lon="5.68257">
        <ele>326.320007</ele>
        <time>2021-02-20T14:45:10Z</time>
      </trkpt>
      <trkpt lat="49.63368" lon="5.68256">
        <ele>326.320007</ele>
        <time>2021-02-20T14:45:12Z</time>
      </trkpt>
      <trkpt lat="49.63356" lon="5.68253">
        <ele>326.320007</ele>
        <time>2021-02-20T14:45:14Z</time>
      </trkpt>
      <trkpt lat="49.63347" lon="5.6825">
        <ele>326.320007</ele>
        <time>2021-02-20T14:45:16Z</time>
      </trkpt>
      <trkpt lat="49.63334" lon="5.68246">
        <ele>326.320007</ele>
        <time>2021-02-20T14:45:18Z</time>
      </trkpt>
      <trkpt lat="49.63323" lon="5.68245">
        <ele>326.320007</ele>
        <time>2021-02-20T14:45:20Z</time>
      </trkpt>
      <trkpt lat="49.63313" lon="5.68243">
        <ele>326.320007</ele>
        <time>2021-02-20T14:45:22Z</time>
      </trkpt>
      <trkpt lat="49.63303" lon="5.68241">
        <ele>326.320007</ele>
        <time>2021-02-20T14:45:23Z</time>
      </trkpt>
      <trkpt lat="49.63292" lon="5.6824">
        <ele>326.320007</ele>
        <time>2021-02-20T14:45:27Z</time>
      </trkpt>
      <trkpt lat="49.63282" lon="5.68234">
        <ele>326.320007</ele>
        <time>2021-02-20T14:45:29Z</time>
      </trkpt>
      <trkpt lat="49.63273" lon="5.6823">
        <ele>326.320007</ele>
        <time>2021-02-20T14:45:32Z</time>
      </trkpt>
      <trkpt lat="49.63261" lon="5.68223">
        <ele>326.320007</ele>
        <time>2021-02-20T14:45:35Z</time>
      </trkpt>
      <trkpt lat="49.63252" lon="5.68224">
        <ele>326.320007</ele>
        <time>2021-02-20T14:45:38Z</time>
      </trkpt>
      <trkpt lat="49.63242" lon="5.68222">
        <ele>326.320007</ele>
        <time>2021-02-20T14:45:41Z</time>
      </trkpt>
      <trkpt lat="49.63231" lon="5.6822">
        <ele>326.320007</ele>
        <time>2021-02-20T14:45:43Z</time>
      </trkpt>
      <trkpt lat="49.63222" lon="5.68219">
        <ele>326.320007</ele>
        <time>2021-02-20T14:45:46Z</time>
      </trkpt>
      <trkpt lat="49.63207" lon="5.68219">
        <ele>326.320007</ele>
        <time>2021-02-20T14:45:49Z</time>
      </trkpt>
      <trkpt lat="49.63198" lon="5.68223">
        <ele>326.320007</ele>
        <time>2021-02-20T14:45:51Z</time>
      </trkpt>
      <trkpt lat="49.63186" lon="5.68224">
        <ele>326.320007</ele>
        <time>2021-02-20T14:45:53Z</time>
      </trkpt>
      <trkpt lat="49.63175" lon="5.68229">
        <ele>326.320007</ele>
        <time>2021-02-20T14:45:56Z</time>
      </trkpt>
      <trkpt lat="49.63165" lon="5.68231">
        <ele>326.320007</ele>
        <time>2021-02-20T14:45:59Z</time>
      </trkpt>
      <trkpt lat="49.63153" lon="5.68231">
        <ele>326.320007</ele>
        <time>2021-02-20T14:46:02Z</time>
      </trkpt>
      <trkpt lat="49.63141" lon="5.68231">
        <ele>326.320007</ele>
        <time>2021-02-20T14:46:05Z</time>
      </trkpt>
      <trkpt lat="49.63131" lon="5.68234">
        <ele>326.320007</ele>
        <time>2021-02-20T14:46:07Z</time>
      </trkpt>
      <trkpt lat="49.63122" lon="5.68241">
        <ele>326.320007</ele>
        <time>2021-02-20T14:46:09Z</time>
      </trkpt>
      <trkpt lat="49.63113" lon="5.68251">
        <ele>326.320007</ele>
        <time>2021-02-20T14:46:11Z</time>
      </trkpt>
      <trkpt lat="49.63101" lon="5.68262">
        <ele>326.320007</ele>
        <time>2021-02-20T14:46:15Z</time>
      </trkpt>
      <trkpt lat="49.63091" lon="5.68276">
        <ele>326.320007</ele>
        <time>2021-02-20T14:46:17Z</time>
      </trkpt>
      <trkpt lat="49.63083" lon="5.68286">
        <ele>326.320007</ele>
        <time>2021-02-20T14:46:19Z</time>
      </trkpt>
      <trkpt lat="49.63075" lon="5.68299">
        <ele>326.320007</ele>
        <time>2021-02-20T14:46:22Z</time>
      </trkpt>
      <trkpt lat="49.63065" lon="5.68311">
        <ele>326.320007</ele>
        <time>2021-02-20T14:46:25Z</time>
      </trkpt>
      <trkpt lat="49.63058" lon="5.68321">
        <ele>326.320007</ele>
        <time>2021-02-20T14:46:28Z</time>
      </trkpt>
      <trkpt lat="49.6305" lon="5.68335">
        <ele>326.320007</ele>
        <time>2021-02-20T14:46:32Z</time>
      </trkpt>
      <trkpt lat="49.63042" lon="5.68348">
        <ele>326.320007</ele>
        <time>2021-02-20T14:46:35Z</time>
      </trkpt>
      <trkpt lat="49.63036" lon="5.68362">
        <ele>326.320007</ele>
        <time>2021-02-20T14:46:37Z</time>
      </trkpt>
      <trkpt lat="49.63031" lon="5.68375">
        <ele>326.320007</ele>
        <time>2021-02-20T14:46:38Z</time>
      </trkpt>
      <trkpt lat="49.63027" lon="5.68377">
        <ele>326.320007</ele>
        <time>2021-02-20T14:46:43Z</time>
      </trkpt>
      <trkpt lat="49.63023" lon="5.68386">
        <ele>326.320007</ele>
        <time>2021-02-20T14:46:47Z</time>
      </trkpt>
      <trkpt lat="49.63018" lon="5.68401">
        <ele>326.320007</ele>
        <time>2021-02-20T14:46:51Z</time>
      </trkpt>
      <trkpt lat="49.63013" lon="5.68418">
        <ele>326.320007</ele>
        <time>2021-02-20T14:46:55Z</time>
      </trkpt>
      <trkpt lat="49.63007" lon="5.68431">
        <ele>326.320007</ele>
        <time>2021-02-20T14:46:57Z</time>
      </trkpt>
      <trkpt lat="49.63001" lon="5.68449">
        <ele>326.320007</ele>
        <time>2021-02-20T14:47:00Z</time>
      </trkpt>
      <trkpt lat="49.62993" lon="5.68466">
        <ele>326.320007</ele>
        <time>2021-02-20T14:47:02Z</time>
      </trkpt>
      <trkpt lat="49.62986" lon="5.68481">
        <ele>326.320007</ele>
        <time>2021-02-20T14:47:05Z</time>
      </trkpt>
      <trkpt lat="49.6298" lon="5.68495">
        <ele>326.320007</ele>
        <time>2021-02-20T14:47:08Z</time>
      </trkpt>
      <trkpt lat="49.62977" lon="5.68509">
        <ele>326.320007</ele>
        <time>2021-02-20T14:47:10Z</time>
      </trkpt>
      <trkpt lat="49.62977" lon="5.68532">
        <ele>326.320007</ele>
        <time>2021-02-20T14:47:13Z</time>
      </trkpt>
      <trkpt lat="49.62975" lon="5.68549">
        <ele>326.320007</ele>
        <time>2021-02-20T14:47:15Z</time>
      </trkpt>
      <trkpt lat="49.62973" lon="5.68563">
        <ele>326.320007</ele>
        <time>2021-02-20T14:47:18Z</time>
      </trkpt>
      <trkpt lat="49.62971" lon="5.68568">
        <ele>326.320007</ele>
        <time>2021-02-20T14:47:22Z</time>
      </trkpt>
      <trkpt lat="49.62966" lon="5.68575">
        <ele>326.320007</ele>
        <time>2021-02-20T14:47:27Z</time>
      </trkpt>
      <trkpt lat="49.62954" lon="5.6859">
        <ele>326.320007</ele>
        <time>2021-02-20T14:47:31Z</time>
      </trkpt>
      <trkpt lat="49.62948" lon="5.686">
        <ele>326.320007</ele>
        <time>2021-02-20T14:47:34Z</time>
      </trkpt>
      <trkpt lat="49.62941" lon="5.68616">
        <ele>326.320007</ele>
        <time>2021-02-20T14:47:39Z</time>
      </trkpt>
      <trkpt lat="49.62943" lon="5.68629">
        <ele>326.320007</ele>
        <time>2021-02-20T14:47:43Z</time>
      </trkpt>
      <trkpt lat="49.62947" lon="5.68648">
        <ele>326.320007</ele>
        <time>2021-02-20T14:47:48Z</time>
      </trkpt>
      <trkpt lat="49.62948" lon="5.68667">
        <ele>326.320007</ele>
        <time>2021-02-20T14:47:50Z</time>
      </trkpt>
      <trkpt lat="49.62946" lon="5.68682">
        <ele>326.320007</ele>
        <time>2021-02-20T14:47:53Z</time>
      </trkpt>
      <trkpt lat="49.62939" lon="5.68693">
        <ele>326.320007</ele>
        <time>2021-02-20T14:47:55Z</time>
      </trkpt>
      <trkpt lat="49.6293" lon="5.68706">
        <ele>326.320007</ele>
        <time>2021-02-20T14:47:57Z</time>
      </trkpt>
      <trkpt lat="49.62927" lon="5.68714">
        <ele>326.320007</ele>
        <time>2021-02-20T14:48:02Z</time>
      </trkpt>
      <trkpt lat="49.62925" lon="5.68725">
        <ele>326.320007</ele>
        <time>2021-02-20T14:48:06Z</time>
      </trkpt>
      <trkpt lat="49.6292" lon="5.68736">
        <ele>326.320007</ele>
        <time>2021-02-20T14:48:09Z</time>
      </trkpt>
      <trkpt lat="49.62915" lon="5.68753">
        <ele>326.320007</ele>
        <time>2021-02-20T14:48:14Z</time>
      </trkpt>
      <trkpt lat="49.62914" lon="5.6877">
        <ele>326.320007</ele>
        <time>2021-02-20T14:48:18Z</time>
      </trkpt>
      <trkpt lat="49.62915" lon="5.68787">
        <ele>326.320007</ele>
        <time>2021-02-20T14:48:21Z</time>
      </trkpt>
      <trkpt lat="49.62913" lon="5.68804">
        <ele>326.320007</ele>
        <time>2021-02-20T14:48:25Z</time>
      </trkpt>
      <trkpt lat="49.6291" lon="5.68818">
        <ele>326.320007</ele>
        <time>2021-02-20T14:48:28Z</time>
      </trkpt>
      <trkpt lat="49.62908" lon="5.68834">
        <ele>326.320007</ele>
        <time>2021-02-20T14:48:32Z</time>
      </trkpt>
      <trkpt lat="49.62905" lon="5.68847">
        <ele>326.320007</ele>
        <time>2021-02-20T14:48:35Z</time>
      </trkpt>
      <trkpt lat="49.62896" lon="5.68859">
        <ele>326.320007</ele>
        <time>2021-02-20T14:48:38Z</time>
      </trkpt>
      <trkpt lat="49.62891" lon="5.68871">
        <ele>326.309998</ele>
        <time>2021-02-20T14:48:42Z</time>
      </trkpt>
      <trkpt lat="49.62885" lon="5.68883">
        <ele>326.309998</ele>
        <time>2021-02-20T14:48:46Z</time>
      </trkpt>
      <trkpt lat="49.6288" lon="5.68892">
        <ele>326.309998</ele>
        <time>2021-02-20T14:48:50Z</time>
      </trkpt>
      <trkpt lat="49.6288" lon="5.68904">
        <ele>326.309998</ele>
        <time>2021-02-20T14:48:54Z</time>
      </trkpt>
      <trkpt lat="49.62875" lon="5.68916">
        <ele>326.309998</ele>
        <time>2021-02-20T14:48:58Z</time>
      </trkpt>
      <trkpt lat="49.62868" lon="5.68929">
        <ele>326.309998</ele>
        <time>2021-02-20T14:49:03Z</time>
      </trkpt>
      <trkpt lat="49.62863" lon="5.68928">
        <ele>326.309998</ele>
        <time>2021-02-20T14:49:08Z</time>
      </trkpt>
      <trkpt lat="49.6286" lon="5.68927">
        <ele>326.309998</ele>
        <time>2021-02-20T14:49:13Z</time>
      </trkpt>
      <trkpt lat="49.62859" lon="5.68928">
        <ele>326.309998</ele>
        <time>2021-02-20T14:49:18Z</time>
      </trkpt>
      <trkpt lat="49.62859" lon="5.68929">
        <ele>326.309998</ele>
        <time>2021-02-20T14:49:23Z</time>
      </trkpt>
      <trkpt lat="49.62859" lon="5.68929">
        <ele>326.309998</ele>
        <time>2021-02-20T14:49:28Z</time>
      </trkpt>
      <trkpt lat="49.62859" lon="5.68929">
        <ele>326.309998</ele>
        <time>2021-02-20T14:49:33Z</time>
      </trkpt>
      <trkpt lat="49.62859" lon="5.6893">
        <ele>326.309998</ele>
        <time>2021-02-20T14:49:38Z</time>
      </trkpt>
      <trkpt lat="49.62858" lon="5.68934">
        <ele>326.309998</ele>
        <time>2021-02-20T14:49:43Z</time>
      </trkpt>
      <trkpt lat="49.62857" lon="5.68936">
        <ele>326.309998</ele>
        <time>2021-02-20T14:49:48Z</time>
      </trkpt>
      <trkpt lat="49.62852" lon="5.68947">
        <ele>326.309998</ele>
        <time>2021-02-20T14:49:52Z</time>
      </trkpt>
      <trkpt lat="49.62845" lon="5.68959">
        <ele>326.309998</ele>
        <time>2021-02-20T14:49:55Z</time>
      </trkpt>
      <trkpt lat="49.62835" lon="5.68973">
        <ele>326.309998</ele>
        <time>2021-02-20T14:49:58Z</time>
      </trkpt>
      <trkpt lat="49.62825" lon="5.68985">
        <ele>326.309998</ele>
        <time>2021-02-20T14:49:59Z</time>
      </trkpt>
      <trkpt lat="49.62818" lon="5.68996">
        <ele>326.309998</ele>
        <time>2021-02-20T14:50:00Z</time>
      </trkpt>
      <trkpt lat="49.62812" lon="5.69008">
        <ele>326.309998</ele>
        <time>2021-02-20T14:50:01Z</time>
      </trkpt>
      <trkpt lat="49.62806" lon="5.69013">
        <ele>326.309998</ele>
        <time>2021-02-20T14:50:05Z</time>
      </trkpt>
      <trkpt lat="49.62804" lon="5.69018">
        <ele>326.309998</ele>
        <time>2021-02-20T14:50:10Z</time>
      </trkpt>
      <trkpt lat="49.62804" lon="5.69021">
        <ele>326.309998</ele>
        <time>2021-02-20T14:50:15Z</time>
      </trkpt>
      <trkpt lat="49.62798" lon="5.69035">
        <ele>326.309998</ele>
        <time>2021-02-20T14:50:19Z</time>
      </trkpt>
      <trkpt lat="49.62791" lon="5.6905">
        <ele>326.309998</ele>
        <time>2021-02-20T14:50:21Z</time>
      </trkpt>
      <trkpt lat="49.62783" lon="5.69068">
        <ele>326.309998</ele>
        <time>2021-02-20T14:50:23Z</time>
      </trkpt>
      <trkpt lat="49.62774" lon="5.69088">
        <ele>326.309998</ele>
        <time>2021-02-20T14:50:25Z</time>
      </trkpt>
      <trkpt lat="49.6276" lon="5.69101">
        <ele>326.309998</ele>
        <time>2021-02-20T14:50:27Z</time>
      </trkpt>
      <trkpt lat="49.6275" lon="5.69105">
        <ele>326.309998</ele>
        <time>2021-02-20T14:50:28Z</time>
      </trkpt>
      <trkpt lat="49.62735" lon="5.69106">
        <ele>326.309998</ele>
        <time>2021-02-20T14:50:30Z</time>
      </trkpt>
      <trkpt lat="49.62723" lon="5.69108">
        <ele>326.309998</ele>
        <time>2021-02-20T14:50:32Z</time>
      </trkpt>
      <trkpt lat="49.6271" lon="5.69109">
        <ele>326.309998</ele>
        <time>2021-02-20T14:50:34Z</time>
      </trkpt>
      <trkpt lat="49.62693" lon="5.69106">
        <ele>326.309998</ele>
        <time>2021-02-20T14:50:36Z</time>
      </trkpt>
      <trkpt lat="49.62679" lon="5.69102">
        <ele>326.309998</ele>
        <time>2021-02-20T14:50:38Z</time>
      </trkpt>
      <trkpt lat="49.62664" lon="5.69097">
        <ele>326.309998</ele>
        <time>2021-02-20T14:50:40Z</time>
      </trkpt>
      <trkpt lat="49.62655" lon="5.69095">
        <ele>326.309998</ele>
        <time>2021-02-20T14:50:42Z</time>
      </trkpt>
      <trkpt lat="49.62644" lon="5.69089">
        <ele>326.309998</ele>
        <time>2021-02-20T14:50:44Z</time>
      </trkpt>
      <trkpt lat="49.62632" lon="5.6908">
        <ele>326.309998</ele>
        <time>2021-02-20T14:50:47Z</time>
      </trkpt>
      <trkpt lat="49.62625" lon="5.69072">
        <ele>326.309998</ele>
        <time>2021-02-20T14:50:49Z</time>
      </trkpt>
      <trkpt lat="49.62616" lon="5.69064">
        <ele>326.309998</ele>
        <time>2021-02-20T14:50:51Z</time>
      </trkpt>
      <trkpt lat="49.62613" lon="5.6905">
        <ele>326.309998</ele>
        <time>2021-02-20T14:50:56Z</time>
      </trkpt>
      <trkpt lat="49.6261" lon="5.69036">
        <ele>326.309998</ele>
        <time>2021-02-20T14:50:59Z</time>
      </trkpt>
      <trkpt lat="49.6261" lon="5.69021">
        <ele>326.309998</ele>
        <time>2021-02-20T14:51:02Z</time>
      </trkpt>
      <trkpt lat="49.6261" lon="5.69007">
        <ele>326.309998</ele>
        <time>2021-02-20T14:51:06Z</time>
      </trkpt>
      <trkpt lat="49.62611" lon="5.6899">
        <ele>326.309998</ele>
        <time>2021-02-20T14:51:10Z</time>
      </trkpt>
      <trkpt lat="49.62611" lon="5.68976">
        <ele>326.309998</ele>
        <time>2021-02-20T14:51:12Z</time>
      </trkpt>
      <trkpt lat="49.62613" lon="5.68958">
        <ele>326.309998</ele>
        <time>2021-02-20T14:51:15Z</time>
      </trkpt>
      <trkpt lat="49.62614" lon="5.68943">
        <ele>326.309998</ele>
        <time>2021-02-20T14:51:17Z</time>
      </trkpt>
      <trkpt lat="49.62613" lon="5.68929">
        <ele>326.320007</ele>
        <time>2021-02-20T14:51:20Z</time>
      </trkpt>
      <trkpt lat="49.62611" lon="5.68913">
        <ele>326.320007</ele>
        <time>2021-02-20T14:51:24Z</time>
      </trkpt>
      <trkpt lat="49.62611" lon="5.68897">
        <ele>326.320007</ele>
        <time>2021-02-20T14:51:28Z</time>
      </trkpt>
      <trkpt lat="49.62614" lon="5.68883">
        <ele>326.320007</ele>
        <time>2021-02-20T14:51:30Z</time>
      </trkpt>
      <trkpt lat="49.62617" lon="5.68866">
        <ele>326.320007</ele>
        <time>2021-02-20T14:51:33Z</time>
      </trkpt>
      <trkpt lat="49.6262" lon="5.68851">
        <ele>326.320007</ele>
        <time>2021-02-20T14:51:36Z</time>
      </trkpt>
      <trkpt lat="49.62621" lon="5.68834">
        <ele>326.320007</ele>
        <time>2021-02-20T14:51:39Z</time>
      </trkpt>
      <trkpt lat="49.62624" lon="5.68818">
        <ele>326.320007</ele>
        <time>2021-02-20T14:51:42Z</time>
      </trkpt>
      <trkpt lat="49.62624" lon="5.68801">
        <ele>326.320007</ele>
        <time>2021-02-20T14:51:45Z</time>
      </trkpt>
      <trkpt lat="49.62626" lon="5.68786">
        <ele>326.320007</ele>
        <time>2021-02-20T14:51:48Z</time>
      </trkpt>
      <trkpt lat="49.62624" lon="5.68771">
        <ele>326.320007</ele>
        <time>2021-02-20T14:51:51Z</time>
      </trkpt>
      <trkpt lat="49.62623" lon="5.68756">
        <ele>326.320007</ele>
        <time>2021-02-20T14:51:55Z</time>
      </trkpt>
      <trkpt lat="49.62623" lon="5.68742">
        <ele>326.320007</ele>
        <time>2021-02-20T14:51:59Z</time>
      </trkpt>
      <trkpt lat="49.62625" lon="5.68728">
        <ele>326.320007</ele>
        <time>2021-02-20T14:52:02Z</time>
      </trkpt>
      <trkpt lat="49.62627" lon="5.68711">
        <ele>326.320007</ele>
        <time>2021-02-20T14:52:05Z</time>
      </trkpt>
      <trkpt lat="49.62633" lon="5.68697">
        <ele>326.320007</ele>
        <time>2021-02-20T14:52:09Z</time>
      </trkpt>
      <trkpt lat="49.6264" lon="5.68683">
        <ele>326.320007</ele>
        <time>2021-02-20T14:52:12Z</time>
      </trkpt>
      <trkpt lat="49.62645" lon="5.68667">
        <ele>326.320007</ele>
        <time>2021-02-20T14:52:15Z</time>
      </trkpt>
      <trkpt lat="49.62649" lon="5.68653">
        <ele>326.320007</ele>
        <time>2021-02-20T14:52:19Z</time>
      </trkpt>
      <trkpt lat="49.62653" lon="5.68638">
        <ele>326.320007</ele>
        <time>2021-02-20T14:52:21Z</time>
      </trkpt>
      <trkpt lat="49.62658" lon="5.68623">
        <ele>326.320007</ele>
        <time>2021-02-20T14:52:24Z</time>
      </trkpt>
      <trkpt lat="49.62663" lon="5.68609">
        <ele>326.320007</ele>
        <time>2021-02-20T14:52:27Z</time>
      </trkpt>
      <trkpt lat="49.62666" lon="5.68592">
        <ele>326.320007</ele>
        <time>2021-02-20T14:52:30Z</time>
      </trkpt>
      <trkpt lat="49.62669" lon="5.68578">
        <ele>326.320007</ele>
        <time>2021-02-20T14:52:33Z</time>
      </trkpt>
      <trkpt lat="49.62673" lon="5.68566">
        <ele>326.320007</ele>
        <time>2021-02-20T14:52:37Z</time>
      </trkpt>
      <trkpt lat="49.62673" lon="5.6855">
        <ele>326.320007</ele>
        <time>2021-02-20T14:52:40Z</time>
      </trkpt>
      <trkpt lat="49.62672" lon="5.68535">
        <ele>326.320007</ele>
        <time>2021-02-20T14:52:43Z</time>
      </trkpt>
      <trkpt lat="49.62669" lon="5.68522">
        <ele>326.320007</ele>
        <time>2021-02-20T14:52:46Z</time>
      </trkpt>
      <trkpt lat="49.62667" lon="5.68505">
        <ele>326.320007</ele>
        <time>2021-02-20T14:52:50Z</time>
      </trkpt>
      <trkpt lat="49.62666" lon="5.68487">
        <ele>326.320007</ele>
        <time>2021-02-20T14:52:53Z</time>
      </trkpt>
      <trkpt lat="49.62668" lon="5.68468">
        <ele>326.320007</ele>
        <time>2021-02-20T14:52:56Z</time>
      </trkpt>
      <trkpt lat="49.6267" lon="5.68448">
        <ele>326.320007</ele>
        <time>2021-02-20T14:52:59Z</time>
      </trkpt>
      <trkpt lat="49.62671" lon="5.68425">
        <ele>326.320007</ele>
        <time>2021-02-20T14:53:02Z</time>
      </trkpt>
      <trkpt lat="49.62671" lon="5.68407">
        <ele>326.320007</ele>
        <time>2021-02-20T14:53:04Z</time>
      </trkpt>
      <trkpt lat="49.62671" lon="5.68392">
        <ele>326.320007</ele>
        <time>2021-02-20T14:53:06Z</time>
      </trkpt>
      <trkpt lat="49.62671" lon="5.68377">
        <ele>326.320007</ele>
        <time>2021-02-20T14:53:08Z</time>
      </trkpt>
      <trkpt lat="49.6267" lon="5.68358">
        <ele>326.320007</ele>
        <time>2021-02-20T14:53:10Z</time>
      </trkpt>
      <trkpt lat="49.62668" lon="5.68337">
        <ele>326.320007</ele>
        <time>2021-02-20T14:53:12Z</time>
      </trkpt>
      <trkpt lat="49.62664" lon="5.68314">
        <ele>326.320007</ele>
        <time>2021-02-20T14:53:14Z</time>
      </trkpt>
      <trkpt lat="49.62666" lon="5.68291">
        <ele>326.320007</ele>
        <time>2021-02-20T14:53:16Z</time>
      </trkpt>
      <trkpt lat="49.62676" lon="5.68272">
        <ele>326.320007</ele>
        <time>2021-02-20T14:53:18Z</time>
      </trkpt>
      <trkpt lat="49.62682" lon="5.68259">
        <ele>326.320007</ele>
        <time>2021-02-20T14:53:19Z</time>
      </trkpt>
      <trkpt lat="49.62688" lon="5.68248">
        <ele>326.320007</ele>
        <time>2021-02-20T14:53:20Z</time>
      </trkpt>
      <trkpt lat="49.62695" lon="5.68237">
        <ele>326.320007</ele>
        <time>2021-02-20T14:53:21Z</time>
      </trkpt>
      <trkpt lat="49.62703" lon="5.68225">
        <ele>326.320007</ele>
        <time>2021-02-20T14:53:23Z</time>
      </trkpt>
      <trkpt lat="49.62709" lon="5.68205">
        <ele>326.320007</ele>
        <time>2021-02-20T14:53:26Z</time>
      </trkpt>
      <trkpt lat="49.62709" lon="5.68188">
        <ele>326.320007</ele>
        <time>2021-02-20T14:53:28Z</time>
      </trkpt>
      <trkpt lat="49.62701" lon="5.68178">
        <ele>326.320007</ele>
        <time>2021-02-20T14:53:30Z</time>
      </trkpt>
      <trkpt lat="49.62692" lon="5.68181">
        <ele>326.320007</ele>
        <time>2021-02-20T14:53:34Z</time>
      </trkpt>
      <trkpt lat="49.62682" lon="5.68179">
        <ele>326.320007</ele>
        <time>2021-02-20T14:53:36Z</time>
      </trkpt>
      <trkpt lat="49.62671" lon="5.68182">
        <ele>326.320007</ele>
        <time>2021-02-20T14:53:41Z</time>
      </trkpt>
      <trkpt lat="49.62661" lon="5.68181">
        <ele>326.320007</ele>
        <time>2021-02-20T14:53:43Z</time>
      </trkpt>
      <trkpt lat="49.62649" lon="5.6818">
        <ele>326.320007</ele>
        <time>2021-02-20T14:53:45Z</time>
      </trkpt>
      <trkpt lat="49.62639" lon="5.68179">
        <ele>326.320007</ele>
        <time>2021-02-20T14:53:47Z</time>
      </trkpt>
      <trkpt lat="49.62629" lon="5.68177">
        <ele>326.320007</ele>
        <time>2021-02-20T14:53:49Z</time>
      </trkpt>
      <trkpt lat="49.62618" lon="5.68174">
        <ele>326.320007</ele>
        <time>2021-02-20T14:53:51Z</time>
      </trkpt>
      <trkpt lat="49.62608" lon="5.68173">
        <ele>326.320007</ele>
        <time>2021-02-20T14:53:53Z</time>
      </trkpt>
      <trkpt lat="49.62598" lon="5.68172">
        <ele>326.320007</ele>
        <time>2021-02-20T14:53:55Z</time>
      </trkpt>
      <trkpt lat="49.62586" lon="5.68172">
        <ele>326.320007</ele>
        <time>2021-02-20T14:53:58Z</time>
      </trkpt>
      <trkpt lat="49.62573" lon="5.68172">
        <ele>326.320007</ele>
        <time>2021-02-20T14:54:01Z</time>
      </trkpt>
      <trkpt lat="49.6256" lon="5.68173">
        <ele>321.01001</ele>
        <time>2021-02-20T14:54:05Z</time>
      </trkpt>
      <trkpt lat="49.62548" lon="5.68167">
        <ele>316.100006</ele>
        <time>2021-02-20T14:54:08Z</time>
      </trkpt>
      <trkpt lat="49.62552" lon="5.68156">
        <ele>312.26001</ele>
        <time>2021-02-20T14:54:13Z</time>
      </trkpt>
      <trkpt lat="49.6256" lon="5.68149">
        <ele>309.98999</ele>
        <time>2021-02-20T14:54:18Z</time>
      </trkpt>
      <trkpt lat="49.62567" lon="5.6814">
        <ele>308.869995</ele>
        <time>2021-02-20T14:54:22Z</time>
      </trkpt>
      <trkpt lat="49.62576" lon="5.68131">
        <ele>307.98999</ele>
        <time>2021-02-20T14:54:27Z</time>
      </trkpt>
      <trkpt lat="49.62583" lon="5.68121">
        <ele>307.549988</ele>
        <time>2021-02-20T14:54:31Z</time>
      </trkpt>
      <trkpt lat="49.6259" lon="5.68108">
        <ele>307.160004</ele>
        <time>2021-02-20T14:54:36Z</time>
      </trkpt>
      <trkpt lat="49.62594" lon="5.68095">
        <ele>306.980011</ele>
        <time>2021-02-20T14:54:41Z</time>
      </trkpt>
      <trkpt lat="49.626" lon="5.68082">
        <ele>306.880005</ele>
        <time>2021-02-20T14:54:46Z</time>
      </trkpt>
      <trkpt lat="49.62604" lon="5.68069">
        <ele>306.809998</ele>
        <time>2021-02-20T14:54:50Z</time>
      </trkpt>
      <trkpt lat="49.62608" lon="5.68056">
        <ele>306.779999</ele>
        <time>2021-02-20T14:54:54Z</time>
      </trkpt>
      <trkpt lat="49.62614" lon="5.68044">
        <ele>306.76001</ele>
        <time>2021-02-20T14:54:58Z</time>
      </trkpt>
      <trkpt lat="49.62617" lon="5.6803">
        <ele>306.75</ele>
        <time>2021-02-20T14:55:02Z</time>
      </trkpt>
      <trkpt lat="49.62621" lon="5.68014">
        <ele>306.73999</ele>
        <time>2021-02-20T14:55:06Z</time>
      </trkpt>
      <trkpt lat="49.62624" lon="5.67998">
        <ele>306.730011</ele>
        <time>2021-02-20T14:55:11Z</time>
      </trkpt>
      <trkpt lat="49.62627" lon="5.67982">
        <ele>306.730011</ele>
        <time>2021-02-20T14:55:16Z</time>
      </trkpt>
      <trkpt lat="49.6263" lon="5.67973">
        <ele>306.730011</ele>
        <time>2021-02-20T14:55:21Z</time>
      </trkpt>
      <trkpt lat="49.62635" lon="5.67958">
        <ele>306.730011</ele>
        <time>2021-02-20T14:55:25Z</time>
      </trkpt>
      <trkpt lat="49.62641" lon="5.67946">
        <ele>306.730011</ele>
        <time>2021-02-20T14:55:30Z</time>
      </trkpt>
      <trkpt lat="49.62651" lon="5.67937">
        <ele>306.720001</ele>
        <time>2021-02-20T14:55:35Z</time>
      </trkpt>
      <trkpt lat="49.62657" lon="5.67926">
        <ele>306.720001</ele>
        <time>2021-02-20T14:55:39Z</time>
      </trkpt>
      <trkpt lat="49.62665" lon="5.67917">
        <ele>306.720001</ele>
        <time>2021-02-20T14:55:43Z</time>
      </trkpt>
      <trkpt lat="49.62674" lon="5.67905">
        <ele>306.720001</ele>
        <time>2021-02-20T14:55:47Z</time>
      </trkpt>
      <trkpt lat="49.62681" lon="5.67896">
        <ele>306.720001</ele>
        <time>2021-02-20T14:55:50Z</time>
      </trkpt>
      <trkpt lat="49.6269" lon="5.67883">
        <ele>306.720001</ele>
        <time>2021-02-20T14:55:54Z</time>
      </trkpt>
      <trkpt lat="49.62698" lon="5.67876">
        <ele>306.720001</ele>
        <time>2021-02-20T14:55:57Z</time>
      </trkpt>
      <trkpt lat="49.62705" lon="5.67865">
        <ele>306.720001</ele>
        <time>2021-02-20T14:56:00Z</time>
      </trkpt>
      <trkpt lat="49.62712" lon="5.67855">
        <ele>306.720001</ele>
        <time>2021-02-20T14:56:03Z</time>
      </trkpt>
      <trkpt lat="49.62719" lon="5.67844">
        <ele>306.720001</ele>
        <time>2021-02-20T14:56:06Z</time>
      </trkpt>
      <trkpt lat="49.62727" lon="5.67832">
        <ele>306.720001</ele>
        <time>2021-02-20T14:56:09Z</time>
      </trkpt>
      <trkpt lat="49.62735" lon="5.67823">
        <ele>306.720001</ele>
        <time>2021-02-20T14:56:11Z</time>
      </trkpt>
      <trkpt lat="49.62744" lon="5.67815">
        <ele>306.720001</ele>
        <time>2021-02-20T14:56:13Z</time>
      </trkpt>
      <trkpt lat="49.62751" lon="5.67806">
        <ele>306.720001</ele>
        <time>2021-02-20T14:56:15Z</time>
      </trkpt>
      <trkpt lat="49.62758" lon="5.67795">
        <ele>306.730011</ele>
        <time>2021-02-20T14:56:19Z</time>
      </trkpt>
      <trkpt lat="49.62767" lon="5.67782">
        <ele>306.730011</ele>
        <time>2021-02-20T14:56:22Z</time>
      </trkpt>
      <trkpt lat="49.62777" lon="5.67771">
        <ele>306.730011</ele>
        <time>2021-02-20T14:56:25Z</time>
      </trkpt>
      <trkpt lat="49.62785" lon="5.6776">
        <ele>306.730011</ele>
        <time>2021-02-20T14:56:28Z</time>
      </trkpt>
      <trkpt lat="49.62795" lon="5.67746">
        <ele>306.730011</ele>
        <time>2021-02-20T14:56:31Z</time>
      </trkpt>
      <trkpt lat="49.62802" lon="5.67737">
        <ele>306.730011</ele>
        <time>2021-02-20T14:56:33Z</time>
      </trkpt>
      <trkpt lat="49.62809" lon="5.67723">
        <ele>306.730011</ele>
        <time>2021-02-20T14:56:36Z</time>
      </trkpt>
      <trkpt lat="49.62815" lon="5.6771">
        <ele>306.730011</ele>
        <time>2021-02-20T14:56:39Z</time>
      </trkpt>
      <trkpt lat="49.62821" lon="5.67695">
        <ele>306.730011</ele>
        <time>2021-02-20T14:56:43Z</time>
      </trkpt>
      <trkpt lat="49.62828" lon="5.67685">
        <ele>306.730011</ele>
        <time>2021-02-20T14:56:46Z</time>
      </trkpt>
      <trkpt lat="49.62835" lon="5.67678">
        <ele>306.730011</ele>
        <time>2021-02-20T14:56:50Z</time>
      </trkpt>
      <trkpt lat="49.6284" lon="5.67664">
        <ele>306.730011</ele>
        <time>2021-02-20T14:56:54Z</time>
      </trkpt>
      <trkpt lat="49.6284" lon="5.67648">
        <ele>306.730011</ele>
        <time>2021-02-20T14:56:59Z</time>
      </trkpt>
      <trkpt lat="49.62839" lon="5.67634">
        <ele>306.730011</ele>
        <time>2021-02-20T14:57:02Z</time>
      </trkpt>
      <trkpt lat="49.62837" lon="5.67619">
        <ele>306.730011</ele>
        <time>2021-02-20T14:57:04Z</time>
      </trkpt>
      <trkpt lat="49.62835" lon="5.67603">
        <ele>306.730011</ele>
        <time>2021-02-20T14:57:07Z</time>
      </trkpt>
      <trkpt lat="49.62833" lon="5.67589">
        <ele>306.730011</ele>
        <time>2021-02-20T14:57:10Z</time>
      </trkpt>
      <trkpt lat="49.62831" lon="5.67572">
        <ele>306.730011</ele>
        <time>2021-02-20T14:57:13Z</time>
      </trkpt>
      <trkpt lat="49.62829" lon="5.67558">
        <ele>306.730011</ele>
        <time>2021-02-20T14:57:15Z</time>
      </trkpt>
      <trkpt lat="49.62827" lon="5.67544">
        <ele>306.730011</ele>
        <time>2021-02-20T14:57:20Z</time>
      </trkpt>
      <trkpt lat="49.62826" lon="5.67529">
        <ele>306.730011</ele>
        <time>2021-02-20T14:57:23Z</time>
      </trkpt>
      <trkpt lat="49.62825" lon="5.67509">
        <ele>306.730011</ele>
        <time>2021-02-20T14:57:27Z</time>
      </trkpt>
      <trkpt lat="49.62824" lon="5.67494">
        <ele>306.730011</ele>
        <time>2021-02-20T14:57:31Z</time>
      </trkpt>
      <trkpt lat="49.62822" lon="5.67481">
        <ele>306.730011</ele>
        <time>2021-02-20T14:57:33Z</time>
      </trkpt>
      <trkpt lat="49.62821" lon="5.67465">
        <ele>306.730011</ele>
        <time>2021-02-20T14:57:35Z</time>
      </trkpt>
      <trkpt lat="49.62821" lon="5.67449">
        <ele>306.730011</ele>
        <time>2021-02-20T14:57:38Z</time>
      </trkpt>
      <trkpt lat="49.6282" lon="5.67432">
        <ele>306.730011</ele>
        <time>2021-02-20T14:57:41Z</time>
      </trkpt>
      <trkpt lat="49.6282" lon="5.67417">
        <ele>306.730011</ele>
        <time>2021-02-20T14:57:44Z</time>
      </trkpt>
      <trkpt lat="49.62818" lon="5.67402">
        <ele>306.730011</ele>
        <time>2021-02-20T14:57:46Z</time>
      </trkpt>
      <trkpt lat="49.62817" lon="5.67386">
        <ele>306.730011</ele>
        <time>2021-02-20T14:57:49Z</time>
      </trkpt>
      <trkpt lat="49.62816" lon="5.67365">
        <ele>306.730011</ele>
        <time>2021-02-20T14:57:53Z</time>
      </trkpt>
      <trkpt lat="49.62816" lon="5.67349">
        <ele>306.730011</ele>
        <time>2021-02-20T14:57:56Z</time>
      </trkpt>
      <trkpt lat="49.62817" lon="5.67334">
        <ele>306.730011</ele>
        <time>2021-02-20T14:57:57Z</time>
      </trkpt>
      <trkpt lat="49.6282" lon="5.67315">
        <ele>306.730011</ele>
        <time>2021-02-20T14:58:00Z</time>
      </trkpt>
      <trkpt lat="49.6282" lon="5.67299">
        <ele>306.730011</ele>
        <time>2021-02-20T14:58:03Z</time>
      </trkpt>
      <trkpt lat="49.62821" lon="5.67283">
        <ele>306.730011</ele>
        <time>2021-02-20T14:58:06Z</time>
      </trkpt>
      <trkpt lat="49.62824" lon="5.67265">
        <ele>306.730011</ele>
        <time>2021-02-20T14:58:09Z</time>
      </trkpt>
      <trkpt lat="49.62827" lon="5.67249">
        <ele>306.730011</ele>
        <time>2021-02-20T14:58:12Z</time>
      </trkpt>
      <trkpt lat="49.6283" lon="5.67231">
        <ele>306.730011</ele>
        <time>2021-02-20T14:58:15Z</time>
      </trkpt>
      <trkpt lat="49.62835" lon="5.67219">
        <ele>306.730011</ele>
        <time>2021-02-20T14:58:19Z</time>
      </trkpt>
      <trkpt lat="49.62841" lon="5.67208">
        <ele>306.730011</ele>
        <time>2021-02-20T14:58:22Z</time>
      </trkpt>
      <trkpt lat="49.6285" lon="5.67202">
        <ele>306.730011</ele>
        <time>2021-02-20T14:58:25Z</time>
      </trkpt>
      <trkpt lat="49.62859" lon="5.67194">
        <ele>306.730011</ele>
        <time>2021-02-20T14:58:28Z</time>
      </trkpt>
      <trkpt lat="49.62869" lon="5.67188">
        <ele>306.730011</ele>
        <time>2021-02-20T14:58:31Z</time>
      </trkpt>
      <trkpt lat="49.62875" lon="5.67177">
        <ele>306.730011</ele>
        <time>2021-02-20T14:58:34Z</time>
      </trkpt>
      <trkpt lat="49.62883" lon="5.67162">
        <ele>306.730011</ele>
        <time>2021-02-20T14:58:37Z</time>
      </trkpt>
      <trkpt lat="49.62895" lon="5.6715">
        <ele>306.730011</ele>
        <time>2021-02-20T14:58:40Z</time>
      </trkpt>
      <trkpt lat="49.62903" lon="5.67141">
        <ele>306.730011</ele>
        <time>2021-02-20T14:58:42Z</time>
      </trkpt>
      <trkpt lat="49.62907" lon="5.67129">
        <ele>306.730011</ele>
        <time>2021-02-20T14:58:44Z</time>
      </trkpt>
      <trkpt lat="49.62913" lon="5.67111">
        <ele>306.730011</ele>
        <time>2021-02-20T14:58:46Z</time>
      </trkpt>
      <trkpt lat="49.62917" lon="5.67097">
        <ele>306.730011</ele>
        <time>2021-02-20T14:58:47Z</time>
      </trkpt>
      <trkpt lat="49.62923" lon="5.67081">
        <ele>306.730011</ele>
        <time>2021-02-20T14:58:50Z</time>
      </trkpt>
      <trkpt lat="49.62928" lon="5.67065">
        <ele>306.730011</ele>
        <time>2021-02-20T14:58:52Z</time>
      </trkpt>
      <trkpt lat="49.62933" lon="5.67052">
        <ele>306.730011</ele>
        <time>2021-02-20T14:58:53Z</time>
      </trkpt>
      <trkpt lat="49.62938" lon="5.67039">
        <ele>306.730011</ele>
        <time>2021-02-20T14:58:55Z</time>
      </trkpt>
      <trkpt lat="49.62941" lon="5.6702">
        <ele>306.730011</ele>
        <time>2021-02-20T14:58:58Z</time>
      </trkpt>
      <trkpt lat="49.62943" lon="5.67002">
        <ele>306.730011</ele>
        <time>2021-02-20T14:59:00Z</time>
      </trkpt>
      <trkpt lat="49.62946" lon="5.66981">
        <ele>306.730011</ele>
        <time>2021-02-20T14:59:03Z</time>
      </trkpt>
      <trkpt lat="49.62948" lon="5.66966">
        <ele>306.730011</ele>
        <time>2021-02-20T14:59:05Z</time>
      </trkpt>
      <trkpt lat="49.62949" lon="5.66952">
        <ele>306.730011</ele>
        <time>2021-02-20T14:59:07Z</time>
      </trkpt>
      <trkpt lat="49.62949" lon="5.66937">
        <ele>306.730011</ele>
        <time>2021-02-20T14:59:09Z</time>
      </trkpt>
      <trkpt lat="49.62949" lon="5.66918">
        <ele>306.730011</ele>
        <time>2021-02-20T14:59:12Z</time>
      </trkpt>
      <trkpt lat="49.62951" lon="5.66902">
        <ele>306.730011</ele>
        <time>2021-02-20T14:59:15Z</time>
      </trkpt>
      <trkpt lat="49.62951" lon="5.66883">
        <ele>306.730011</ele>
        <time>2021-02-20T14:59:18Z</time>
      </trkpt>
      <trkpt lat="49.62952" lon="5.66867">
        <ele>306.730011</ele>
        <time>2021-02-20T14:59:23Z</time>
      </trkpt>
      <trkpt lat="49.62948" lon="5.66862">
        <ele>306.730011</ele>
        <time>2021-02-20T14:59:27Z</time>
      </trkpt>
      <trkpt lat="49.62946" lon="5.6686">
        <ele>306.730011</ele>
        <time>2021-02-20T14:59:33Z</time>
      </trkpt>
      <trkpt lat="49.6294" lon="5.66872">
        <ele>306.730011</ele>
        <time>2021-02-20T14:59:36Z</time>
      </trkpt>
      <trkpt lat="49.62931" lon="5.66884">
        <ele>306.730011</ele>
        <time>2021-02-20T14:59:39Z</time>
      </trkpt>
      <trkpt lat="49.62925" lon="5.66897">
        <ele>306.730011</ele>
        <time>2021-02-20T14:59:41Z</time>
      </trkpt>
      <trkpt lat="49.62917" lon="5.66912">
        <ele>306.730011</ele>
        <time>2021-02-20T14:59:43Z</time>
      </trkpt>
      <trkpt lat="49.62906" lon="5.66938">
        <ele>306.730011</ele>
        <time>2021-02-20T14:59:45Z</time>
      </trkpt>
      <trkpt lat="49.629" lon="5.66954">
        <ele>306.730011</ele>
        <time>2021-02-20T14:59:46Z</time>
      </trkpt>
      <trkpt lat="49.62893" lon="5.66963">
        <ele>306.730011</ele>
        <time>2021-02-20T14:59:47Z</time>
      </trkpt>
      <trkpt lat="49.62883" lon="5.66971">
        <ele>306.730011</ele>
        <time>2021-02-20T14:59:49Z</time>
      </trkpt>
      <trkpt lat="49.62868" lon="5.66978">
        <ele>306.730011</ele>
        <time>2021-02-20T14:59:53Z</time>
      </trkpt>
      <trkpt lat="49.62858" lon="5.66978">
        <ele>306.730011</ele>
        <time>2021-02-20T14:59:55Z</time>
      </trkpt>
      <trkpt lat="49.62848" lon="5.66976">
        <ele>306.730011</ele>
        <time>2021-02-20T14:59:59Z</time>
      </trkpt>
      <trkpt lat="49.62837" lon="5.66982">
        <ele>306.730011</ele>
        <time>2021-02-20T15:00:01Z</time>
      </trkpt>
      <trkpt lat="49.62825" lon="5.66985">
        <ele>306.730011</ele>
        <time>2021-02-20T15:00:03Z</time>
      </trkpt>
      <trkpt lat="49.62819" lon="5.66974">
        <ele>306.730011</ele>
        <time>2021-02-20T15:00:07Z</time>
      </trkpt>
      <trkpt lat="49.62814" lon="5.6697">
        <ele>306.730011</ele>
        <time>2021-02-20T15:00:11Z</time>
      </trkpt>
      <trkpt lat="49.62809" lon="5.66965">
        <ele>306.730011</ele>
        <time>2021-02-20T15:00:16Z</time>
      </trkpt>
      <trkpt lat="49.62807" lon="5.66954">
        <ele>306.730011</ele>
        <time>2021-02-20T15:00:20Z</time>
      </trkpt>
      <trkpt lat="49.62807" lon="5.66947">
        <ele>306.730011</ele>
        <time>2021-02-20T15:00:24Z</time>
      </trkpt>
      <trkpt lat="49.62805" lon="5.66942">
        <ele>306.730011</ele>
        <time>2021-02-20T15:00:29Z</time>
      </trkpt>
      <trkpt lat="49.62804" lon="5.66934">
        <ele>306.730011</ele>
        <time>2021-02-20T15:00:33Z</time>
      </trkpt>
      <trkpt lat="49.62806" lon="5.66926">
        <ele>306.730011</ele>
        <time>2021-02-20T15:00:37Z</time>
      </trkpt>
      <trkpt lat="49.62808" lon="5.66916">
        <ele>306.730011</ele>
        <time>2021-02-20T15:00:41Z</time>
      </trkpt>
      <trkpt lat="49.62808" lon="5.6691">
        <ele>306.730011</ele>
        <time>2021-02-20T15:00:45Z</time>
      </trkpt>
      <trkpt lat="49.62808" lon="5.66904">
        <ele>306.730011</ele>
        <time>2021-02-20T15:00:50Z</time>
      </trkpt>
      <trkpt lat="49.6281" lon="5.66895">
        <ele>306.730011</ele>
        <time>2021-02-20T15:00:54Z</time>
      </trkpt>
      <trkpt lat="49.62811" lon="5.66888">
        <ele>306.730011</ele>
        <time>2021-02-20T15:00:59Z</time>
      </trkpt>
      <trkpt lat="49.62812" lon="5.66878">
        <ele>306.730011</ele>
        <time>2021-02-20T15:01:03Z</time>
      </trkpt>
      <trkpt lat="49.62813" lon="5.6687">
        <ele>306.730011</ele>
        <time>2021-02-20T15:01:07Z</time>
      </trkpt>
      <trkpt lat="49.62813" lon="5.66863">
        <ele>306.730011</ele>
        <time>2021-02-20T15:01:12Z</time>
      </trkpt>
      <trkpt lat="49.62811" lon="5.66848">
        <ele>306.730011</ele>
        <time>2021-02-20T15:01:17Z</time>
      </trkpt>
      <trkpt lat="49.62812" lon="5.66834">
        <ele>306.730011</ele>
        <time>2021-02-20T15:01:21Z</time>
      </trkpt>
      <trkpt lat="49.62813" lon="5.6682">
        <ele>306.730011</ele>
        <time>2021-02-20T15:01:24Z</time>
      </trkpt>
      <trkpt lat="49.62812" lon="5.66811">
        <ele>306.730011</ele>
        <time>2021-02-20T15:01:28Z</time>
      </trkpt>
      <trkpt lat="49.62811" lon="5.66802">
        <ele>306.730011</ele>
        <time>2021-02-20T15:01:34Z</time>
      </trkpt>
      <trkpt lat="49.62812" lon="5.6679">
        <ele>306.730011</ele>
        <time>2021-02-20T15:01:38Z</time>
      </trkpt>
      <trkpt lat="49.62813" lon="5.66775">
        <ele>306.730011</ele>
        <time>2021-02-20T15:01:43Z</time>
      </trkpt>
      <trkpt lat="49.62816" lon="5.66758">
        <ele>306.730011</ele>
        <time>2021-02-20T15:01:47Z</time>
      </trkpt>
      <trkpt lat="49.62818" lon="5.66742">
        <ele>306.730011</ele>
        <time>2021-02-20T15:01:51Z</time>
      </trkpt>
      <trkpt lat="49.62822" lon="5.66727">
        <ele>306.730011</ele>
        <time>2021-02-20T15:01:55Z</time>
      </trkpt>
      <trkpt lat="49.62824" lon="5.66721">
        <ele>306.730011</ele>
        <time>2021-02-20T15:02:00Z</time>
      </trkpt>
      <trkpt lat="49.62824" lon="5.6671">
        <ele>306.730011</ele>
        <time>2021-02-20T15:02:04Z</time>
      </trkpt>
      <trkpt lat="49.62822" lon="5.66699">
        <ele>306.730011</ele>
        <time>2021-02-20T15:02:08Z</time>
      </trkpt>
      <trkpt lat="49.62819" lon="5.66685">
        <ele>306.73999</ele>
        <time>2021-02-20T15:02:12Z</time>
      </trkpt>
      <trkpt lat="49.62816" lon="5.6667">
        <ele>306.73999</ele>
        <time>2021-02-20T15:02:15Z</time>
      </trkpt>
      <trkpt lat="49.62811" lon="5.66661">
        <ele>306.73999</ele>
        <time>2021-02-20T15:02:20Z</time>
      </trkpt>
      <trkpt lat="49.62801" lon="5.66651">
        <ele>306.73999</ele>
        <time>2021-02-20T15:02:23Z</time>
      </trkpt>
      <trkpt lat="49.62791" lon="5.66641">
        <ele>306.73999</ele>
        <time>2021-02-20T15:02:27Z</time>
      </trkpt>
      <trkpt lat="49.62782" lon="5.66631">
        <ele>306.73999</ele>
        <time>2021-02-20T15:02:31Z</time>
      </trkpt>
      <trkpt lat="49.62773" lon="5.6662">
        <ele>306.73999</ele>
        <time>2021-02-20T15:02:34Z</time>
      </trkpt>
      <trkpt lat="49.62763" lon="5.6661">
        <ele>306.73999</ele>
        <time>2021-02-20T15:02:37Z</time>
      </trkpt>
      <trkpt lat="49.62755" lon="5.66597">
        <ele>306.73999</ele>
        <time>2021-02-20T15:02:40Z</time>
      </trkpt>
      <trkpt lat="49.62748" lon="5.66583">
        <ele>306.73999</ele>
        <time>2021-02-20T15:02:43Z</time>
      </trkpt>
      <trkpt lat="49.62738" lon="5.66572">
        <ele>306.73999</ele>
        <time>2021-02-20T15:02:45Z</time>
      </trkpt>
      <trkpt lat="49.62728" lon="5.66564">
        <ele>306.73999</ele>
        <time>2021-02-20T15:02:47Z</time>
      </trkpt>
      <trkpt lat="49.6272" lon="5.66555">
        <ele>306.73999</ele>
        <time>2021-02-20T15:02:48Z</time>
      </trkpt>
      <trkpt lat="49.62711" lon="5.66541">
        <ele>306.73999</ele>
        <time>2021-02-20T15:02:51Z</time>
      </trkpt>
      <trkpt lat="49.62701" lon="5.66534">
        <ele>306.73999</ele>
        <time>2021-02-20T15:02:53Z</time>
      </trkpt>
      <trkpt lat="49.62691" lon="5.66525">
        <ele>306.73999</ele>
        <time>2021-02-20T15:02:55Z</time>
      </trkpt>
      <trkpt lat="49.62679" lon="5.6651">
        <ele>306.73999</ele>
        <time>2021-02-20T15:02:57Z</time>
      </trkpt>
      <trkpt lat="49.62669" lon="5.66496">
        <ele>306.73999</ele>
        <time>2021-02-20T15:02:59Z</time>
      </trkpt>
      <trkpt lat="49.62659" lon="5.66483">
        <ele>306.73999</ele>
        <time>2021-02-20T15:03:01Z</time>
      </trkpt>
      <trkpt lat="49.62651" lon="5.66474">
        <ele>306.73999</ele>
        <time>2021-02-20T15:03:03Z</time>
      </trkpt>
      <trkpt lat="49.62643" lon="5.66465">
        <ele>306.73999</ele>
        <time>2021-02-20T15:03:06Z</time>
      </trkpt>
      <trkpt lat="49.62634" lon="5.66459">
        <ele>306.73999</ele>
        <time>2021-02-20T15:03:08Z</time>
      </trkpt>
      <trkpt lat="49.62626" lon="5.66452">
        <ele>306.73999</ele>
        <time>2021-02-20T15:03:11Z</time>
      </trkpt>
      <trkpt lat="49.62615" lon="5.66441">
        <ele>306.73999</ele>
        <time>2021-02-20T15:03:14Z</time>
      </trkpt>
      <trkpt lat="49.62606" lon="5.66435">
        <ele>306.73999</ele>
        <time>2021-02-20T15:03:17Z</time>
      </trkpt>
      <trkpt lat="49.62595" lon="5.66432">
        <ele>306.73999</ele>
        <time>2021-02-20T15:03:20Z</time>
      </trkpt>
      <trkpt lat="49.62585" lon="5.6643">
        <ele>306.73999</ele>
        <time>2021-02-20T15:03:23Z</time>
      </trkpt>
      <trkpt lat="49.62576" lon="5.66428">
        <ele>306.73999</ele>
        <time>2021-02-20T15:03:25Z</time>
      </trkpt>
      <trkpt lat="49.62565" lon="5.66427">
        <ele>306.73999</ele>
        <time>2021-02-20T15:03:28Z</time>
      </trkpt>
      <trkpt lat="49.62555" lon="5.66425">
        <ele>306.73999</ele>
        <time>2021-02-20T15:03:32Z</time>
      </trkpt>
      <trkpt lat="49.62545" lon="5.66423">
        <ele>306.73999</ele>
        <time>2021-02-20T15:03:34Z</time>
      </trkpt>
      <trkpt lat="49.62536" lon="5.66422">
        <ele>306.73999</ele>
        <time>2021-02-20T15:03:37Z</time>
      </trkpt>
      <trkpt lat="49.62526" lon="5.66425">
        <ele>306.73999</ele>
        <time>2021-02-20T15:03:40Z</time>
      </trkpt>
      <trkpt lat="49.62515" lon="5.66424">
        <ele>306.73999</ele>
        <time>2021-02-20T15:03:43Z</time>
      </trkpt>
      <trkpt lat="49.62505" lon="5.6642">
        <ele>306.73999</ele>
        <time>2021-02-20T15:03:45Z</time>
      </trkpt>
      <trkpt lat="49.62497" lon="5.66414">
        <ele>306.73999</ele>
        <time>2021-02-20T15:03:46Z</time>
      </trkpt>
      <trkpt lat="49.62485" lon="5.66406">
        <ele>306.73999</ele>
        <time>2021-02-20T15:03:49Z</time>
      </trkpt>
      <trkpt lat="49.62475" lon="5.664">
        <ele>306.73999</ele>
        <time>2021-02-20T15:03:51Z</time>
      </trkpt>
      <trkpt lat="49.62468" lon="5.6639">
        <ele>306.73999</ele>
        <time>2021-02-20T15:03:54Z</time>
      </trkpt>
      <trkpt lat="49.62458" lon="5.66379">
        <ele>306.73999</ele>
        <time>2021-02-20T15:03:56Z</time>
      </trkpt>
      <trkpt lat="49.6245" lon="5.6637">
        <ele>306.73999</ele>
        <time>2021-02-20T15:03:59Z</time>
      </trkpt>
      <trkpt lat="49.62441" lon="5.6636">
        <ele>306.73999</ele>
        <time>2021-02-20T15:04:01Z</time>
      </trkpt>
      <trkpt lat="49.62431" lon="5.66356">
        <ele>306.73999</ele>
        <time>2021-02-20T15:04:04Z</time>
      </trkpt>
      <trkpt lat="49.62424" lon="5.66346">
        <ele>306.73999</ele>
        <time>2021-02-20T15:04:06Z</time>
      </trkpt>
      <trkpt lat="49.62417" lon="5.66336">
        <ele>306.73999</ele>
        <time>2021-02-20T15:04:09Z</time>
      </trkpt>
      <trkpt lat="49.62409" lon="5.66326">
        <ele>306.73999</ele>
        <time>2021-02-20T15:04:12Z</time>
      </trkpt>
      <trkpt lat="49.62402" lon="5.66318">
        <ele>306.73999</ele>
        <time>2021-02-20T15:04:15Z</time>
      </trkpt>
      <trkpt lat="49.62395" lon="5.66307">
        <ele>306.73999</ele>
        <time>2021-02-20T15:04:18Z</time>
      </trkpt>
      <trkpt lat="49.62387" lon="5.66298">
        <ele>306.73999</ele>
        <time>2021-02-20T15:04:21Z</time>
      </trkpt>
      <trkpt lat="49.62378" lon="5.66296">
        <ele>306.73999</ele>
        <time>2021-02-20T15:04:26Z</time>
      </trkpt>
      <trkpt lat="49.62377" lon="5.66297">
        <ele>306.73999</ele>
        <time>2021-02-20T15:04:31Z</time>
      </trkpt>
      <trkpt lat="49.62377" lon="5.66298">
        <ele>306.73999</ele>
        <time>2021-02-20T15:04:36Z</time>
      </trkpt>
      <trkpt lat="49.62377" lon="5.66298">
        <ele>306.73999</ele>
        <time>2021-02-20T15:04:41Z</time>
      </trkpt>
      <trkpt lat="49.62376" lon="5.66299">
        <ele>306.73999</ele>
        <time>2021-02-20T15:04:46Z</time>
      </trkpt>
      <trkpt lat="49.62376" lon="5.663">
        <ele>306.73999</ele>
        <time>2021-02-20T15:04:51Z</time>
      </trkpt>
      <trkpt lat="49.62376" lon="5.663">
        <ele>306.73999</ele>
        <time>2021-02-20T15:04:56Z</time>
      </trkpt>
      <trkpt lat="49.62376" lon="5.663">
        <ele>306.73999</ele>
        <time>2021-02-20T15:05:01Z</time>
      </trkpt>
      <trkpt lat="49.62376" lon="5.663">
        <ele>306.73999</ele>
        <time>2021-02-20T15:05:06Z</time>
      </trkpt>
      <trkpt lat="49.62376" lon="5.663">
        <ele>306.73999</ele>
        <time>2021-02-20T15:05:11Z</time>
      </trkpt>
      <trkpt lat="49.62376" lon="5.663">
        <ele>306.73999</ele>
        <time>2021-02-20T15:05:16Z</time>
      </trkpt>
      <trkpt lat="49.62376" lon="5.66301">
        <ele>306.73999</ele>
        <time>2021-02-20T15:05:21Z</time>
      </trkpt>
      <trkpt lat="49.62376" lon="5.66301">
        <ele>306.73999</ele>
        <time>2021-02-20T15:05:26Z</time>
      </trkpt>
      <trkpt lat="49.62376" lon="5.66301">
        <ele>306.73999</ele>
        <time>2021-02-20T15:05:31Z</time>
      </trkpt>
      <trkpt lat="49.62376" lon="5.66301">
        <ele>306.73999</ele>
        <time>2021-02-20T15:05:36Z</time>
      </trkpt>
      <trkpt lat="49.62376" lon="5.66301">
        <ele>306.73999</ele>
        <time>2021-02-20T15:05:41Z</time>
      </trkpt>
      <trkpt lat="49.62375" lon="5.66301">
        <ele>306.73999</ele>
        <time>2021-02-20T15:05:46Z</time>
      </trkpt>
      <trkpt lat="49.62375" lon="5.66301">
        <ele>306.73999</ele>
        <time>2021-02-20T15:05:51Z</time>
      </trkpt>
      <trkpt lat="49.62375" lon="5.66301">
        <ele>306.73999</ele>
        <time>2021-02-20T15:05:56Z</time>
      </trkpt>
      <trkpt lat="49.62375" lon="5.66301">
        <ele>306.73999</ele>
        <time>2021-02-20T15:06:01Z</time>
      </trkpt>
      <trkpt lat="49.62373" lon="5.66297">
        <ele>306.73999</ele>
        <time>2021-02-20T15:06:05Z</time>
      </trkpt>
      <trkpt lat="49.62363" lon="5.66293">
        <ele>306.73999</ele>
        <time>2021-02-20T15:06:08Z</time>
      </trkpt>
      <trkpt lat="49.62354" lon="5.66287">
        <ele>306.73999</ele>
        <time>2021-02-20T15:06:10Z</time>
      </trkpt>
      <trkpt lat="49.62345" lon="5.66282">
        <ele>306.73999</ele>
        <time>2021-02-20T15:06:12Z</time>
      </trkpt>
      <trkpt lat="49.62336" lon="5.66279">
        <ele>306.73999</ele>
        <time>2021-02-20T15:06:15Z</time>
      </trkpt>
      <trkpt lat="49.62328" lon="5.66272">
        <ele>306.73999</ele>
        <time>2021-02-20T15:06:18Z</time>
      </trkpt>
      <trkpt lat="49.62319" lon="5.66265">
        <ele>306.73999</ele>
        <time>2021-02-20T15:06:21Z</time>
      </trkpt>
      <trkpt lat="49.6231" lon="5.66258">
        <ele>306.73999</ele>
        <time>2021-02-20T15:06:23Z</time>
      </trkpt>
      <trkpt lat="49.62298" lon="5.66252">
        <ele>306.73999</ele>
        <time>2021-02-20T15:06:25Z</time>
      </trkpt>
      <trkpt lat="49.62286" lon="5.66242">
        <ele>306.73999</ele>
        <time>2021-02-20T15:06:27Z</time>
      </trkpt>
      <trkpt lat="49.62275" lon="5.66232">
        <ele>306.73999</ele>
        <time>2021-02-20T15:06:29Z</time>
      </trkpt>
      <trkpt lat="49.62266" lon="5.66227">
        <ele>306.73999</ele>
        <time>2021-02-20T15:06:30Z</time>
      </trkpt>
      <trkpt lat="49.62258" lon="5.6622">
        <ele>306.73999</ele>
        <time>2021-02-20T15:06:32Z</time>
      </trkpt>
      <trkpt lat="49.62249" lon="5.66217">
        <ele>306.73999</ele>
        <time>2021-02-20T15:06:36Z</time>
      </trkpt>
      <trkpt lat="49.62242" lon="5.66207">
        <ele>306.73999</ele>
        <time>2021-02-20T15:06:41Z</time>
      </trkpt>
      <trkpt lat="49.62235" lon="5.66209">
        <ele>306.73999</ele>
        <time>2021-02-20T15:06:46Z</time>
      </trkpt>
      <trkpt lat="49.62231" lon="5.66203">
        <ele>306.73999</ele>
        <time>2021-02-20T15:06:51Z</time>
      </trkpt>
      <trkpt lat="49.62225" lon="5.66195">
        <ele>306.73999</ele>
        <time>2021-02-20T15:06:56Z</time>
      </trkpt>
      <trkpt lat="49.62217" lon="5.66185">
        <ele>306.73999</ele>
        <time>2021-02-20T15:06:58Z</time>
      </trkpt>
      <trkpt lat="49.6221" lon="5.66174">
        <ele>306.73999</ele>
        <time>2021-02-20T15:07:01Z</time>
      </trkpt>
      <trkpt lat="49.62203" lon="5.66166">
        <ele>306.73999</ele>
        <time>2021-02-20T15:07:04Z</time>
      </trkpt>
      <trkpt lat="49.62194" lon="5.66159">
        <ele>306.73999</ele>
        <time>2021-02-20T15:07:07Z</time>
      </trkpt>
      <trkpt lat="49.62185" lon="5.66156">
        <ele>306.73999</ele>
        <time>2021-02-20T15:07:10Z</time>
      </trkpt>
      <trkpt lat="49.62176" lon="5.66152">
        <ele>306.73999</ele>
        <time>2021-02-20T15:07:13Z</time>
      </trkpt>
      <trkpt lat="49.62165" lon="5.66146">
        <ele>306.73999</ele>
        <time>2021-02-20T15:07:17Z</time>
      </trkpt>
      <trkpt lat="49.62156" lon="5.66142">
        <ele>306.73999</ele>
        <time>2021-02-20T15:07:20Z</time>
      </trkpt>
      <trkpt lat="49.62148" lon="5.66135">
        <ele>306.73999</ele>
        <time>2021-02-20T15:07:23Z</time>
      </trkpt>
      <trkpt lat="49.62138" lon="5.66125">
        <ele>306.73999</ele>
        <time>2021-02-20T15:07:27Z</time>
      </trkpt>
      <trkpt lat="49.62129" lon="5.66115">
        <ele>306.73999</ele>
        <time>2021-02-20T15:07:30Z</time>
      </trkpt>
      <trkpt lat="49.62124" lon="5.66109">
        <ele>306.73999</ele>
        <time>2021-02-20T15:07:35Z</time>
      </trkpt>
      <trkpt lat="49.62128" lon="5.66101">
        <ele>306.73999</ele>
        <time>2021-02-20T15:07:40Z</time>
      </trkpt>
      <trkpt lat="49.6213" lon="5.66089">
        <ele>306.73999</ele>
        <time>2021-02-20T15:07:44Z</time>
      </trkpt>
      <trkpt lat="49.62131" lon="5.66079">
        <ele>306.73999</ele>
        <time>2021-02-20T15:07:48Z</time>
      </trkpt>
      <trkpt lat="49.62126" lon="5.66068">
        <ele>306.73999</ele>
        <time>2021-02-20T15:07:53Z</time>
      </trkpt>
      <trkpt lat="49.62121" lon="5.66052">
        <ele>306.73999</ele>
        <time>2021-02-20T15:07:56Z</time>
      </trkpt>
      <trkpt lat="49.62119" lon="5.66037">
        <ele>306.73999</ele>
        <time>2021-02-20T15:07:58Z</time>
      </trkpt>
      <trkpt lat="49.62118" lon="5.66021">
        <ele>306.73999</ele>
        <time>2021-02-20T15:07:59Z</time>
      </trkpt>
      <trkpt lat="49.62116" lon="5.66005">
        <ele>306.73999</ele>
        <time>2021-02-20T15:08:00Z</time>
      </trkpt>
      <trkpt lat="49.62114" lon="5.65991">
        <ele>306.73999</ele>
        <time>2021-02-20T15:08:01Z</time>
      </trkpt>
      <trkpt lat="49.62111" lon="5.65977">
        <ele>306.73999</ele>
        <time>2021-02-20T15:08:02Z</time>
      </trkpt>
      <trkpt lat="49.62109" lon="5.65963">
        <ele>306.73999</ele>
        <time>2021-02-20T15:08:03Z</time>
      </trkpt>
      <trkpt lat="49.62112" lon="5.65941">
        <ele>306.73999</ele>
        <time>2021-02-20T15:08:05Z</time>
      </trkpt>
      <trkpt lat="49.62119" lon="5.6592">
        <ele>306.73999</ele>
        <time>2021-02-20T15:08:07Z</time>
      </trkpt>
      <trkpt lat="49.62124" lon="5.65896">
        <ele>306.73999</ele>
        <time>2021-02-20T15:08:09Z</time>
      </trkpt>
      <trkpt lat="49.62128" lon="5.65872">
        <ele>306.73999</ele>
        <time>2021-02-20T15:08:11Z</time>
      </trkpt>
      <trkpt lat="49.62132" lon="5.65851">
        <ele>306.73999</ele>
        <time>2021-02-20T15:08:13Z</time>
      </trkpt>
      <trkpt lat="49.62135" lon="5.65829">
        <ele>306.73999</ele>
        <time>2021-02-20T15:08:15Z</time>
      </trkpt>
      <trkpt lat="49.62139" lon="5.65812">
        <ele>306.75</ele>
        <time>2021-02-20T15:08:17Z</time>
      </trkpt>
      <trkpt lat="49.62143" lon="5.65797">
        <ele>306.75</ele>
        <time>2021-02-20T15:08:20Z</time>
      </trkpt>
      <trkpt lat="49.62142" lon="5.65779">
        <ele>306.75</ele>
        <time>2021-02-20T15:08:23Z</time>
      </trkpt>
      <trkpt lat="49.62146" lon="5.65765">
        <ele>306.75</ele>
        <time>2021-02-20T15:08:28Z</time>
      </trkpt>
      <trkpt lat="49.62148" lon="5.65749">
        <ele>306.75</ele>
        <time>2021-02-20T15:08:32Z</time>
      </trkpt>
      <trkpt lat="49.62152" lon="5.65734">
        <ele>306.75</ele>
        <time>2021-02-20T15:08:37Z</time>
      </trkpt>
      <trkpt lat="49.62155" lon="5.6572">
        <ele>306.75</ele>
        <time>2021-02-20T15:08:41Z</time>
      </trkpt>
      <trkpt lat="49.62159" lon="5.65704">
        <ele>306.75</ele>
        <time>2021-02-20T15:08:45Z</time>
      </trkpt>
      <trkpt lat="49.62162" lon="5.6569">
        <ele>306.75</ele>
        <time>2021-02-20T15:08:49Z</time>
      </trkpt>
      <trkpt lat="49.62167" lon="5.65676">
        <ele>306.75</ele>
        <time>2021-02-20T15:08:52Z</time>
      </trkpt>
      <trkpt lat="49.62169" lon="5.65662">
        <ele>306.75</ele>
        <time>2021-02-20T15:08:56Z</time>
      </trkpt>
      <trkpt lat="49.62172" lon="5.65645">
        <ele>306.75</ele>
        <time>2021-02-20T15:09:01Z</time>
      </trkpt>
      <trkpt lat="49.62166" lon="5.65633">
        <ele>306.75</ele>
        <time>2021-02-20T15:09:06Z</time>
      </trkpt>
      <trkpt lat="49.6216" lon="5.65629">
        <ele>306.75</ele>
        <time>2021-02-20T15:09:10Z</time>
      </trkpt>
      <trkpt lat="49.62159" lon="5.65624">
        <ele>306.75</ele>
        <time>2021-02-20T15:09:15Z</time>
      </trkpt>
      <trkpt lat="49.6216" lon="5.65621">
        <ele>306.75</ele>
        <time>2021-02-20T15:09:20Z</time>
      </trkpt>
      <trkpt lat="49.6216" lon="5.6562">
        <ele>306.75</ele>
        <time>2021-02-20T15:09:25Z</time>
      </trkpt>
      <trkpt lat="49.6216" lon="5.65618">
        <ele>306.75</ele>
        <time>2021-02-20T15:09:30Z</time>
      </trkpt>
      <trkpt lat="49.62162" lon="5.65615">
        <ele>306.75</ele>
        <time>2021-02-20T15:09:35Z</time>
      </trkpt>
      <trkpt lat="49.62162" lon="5.65613">
        <ele>306.75</ele>
        <time>2021-02-20T15:09:40Z</time>
      </trkpt>
      <trkpt lat="49.62163" lon="5.65613">
        <ele>306.75</ele>
        <time>2021-02-20T15:09:45Z</time>
      </trkpt>
      <trkpt lat="49.62163" lon="5.65613">
        <ele>306.75</ele>
        <time>2021-02-20T15:09:50Z</time>
      </trkpt>
      <trkpt lat="49.62162" lon="5.65612">
        <ele>306.75</ele>
        <time>2021-02-20T15:09:55Z</time>
      </trkpt>
      <trkpt lat="49.62162" lon="5.65611">
        <ele>306.75</ele>
        <time>2021-02-20T15:10:00Z</time>
      </trkpt>
      <trkpt lat="49.62162" lon="5.65611">
        <ele>306.75</ele>
        <time>2021-02-20T15:10:05Z</time>
      </trkpt>
      <trkpt lat="49.62162" lon="5.65611">
        <ele>306.75</ele>
        <time>2021-02-20T15:10:10Z</time>
      </trkpt>
      <trkpt lat="49.62162" lon="5.65611">
        <ele>306.75</ele>
        <time>2021-02-20T15:10:15Z</time>
      </trkpt>
      <trkpt lat="49.62162" lon="5.65611">
        <ele>306.75</ele>
        <time>2021-02-20T15:10:20Z</time>
      </trkpt>
      <trkpt lat="49.62162" lon="5.65611">
        <ele>306.75</ele>
        <time>2021-02-20T15:10:25Z</time>
      </trkpt>
      <trkpt lat="49.62162" lon="5.65611">
        <ele>306.75</ele>
        <time>2021-02-20T15:10:30Z</time>
      </trkpt>
      <trkpt lat="49.62162" lon="5.65611">
        <ele>306.75</ele>
        <time>2021-02-20T15:10:35Z</time>
      </trkpt>
      <trkpt lat="49.62161" lon="5.65611">
        <ele>306.75</ele>
        <time>2021-02-20T15:10:40Z</time>
      </trkpt>
      <trkpt lat="49.62161" lon="5.65611">
        <ele>306.75</ele>
        <time>2021-02-20T15:10:45Z</time>
      </trkpt>
      <trkpt lat="49.62162" lon="5.65611">
        <ele>306.75</ele>
        <time>2021-02-20T15:10:50Z</time>
      </trkpt>
      <trkpt lat="49.62161" lon="5.6561">
        <ele>306.75</ele>
        <time>2021-02-20T15:10:55Z</time>
      </trkpt>
      <trkpt lat="49.6216" lon="5.65606">
        <ele>306.75</ele>
        <time>2021-02-20T15:10:59Z</time>
      </trkpt>
      <trkpt lat="49.62152" lon="5.65602">
        <ele>306.75</ele>
        <time>2021-02-20T15:11:04Z</time>
      </trkpt>
      <trkpt lat="49.62143" lon="5.65596">
        <ele>306.75</ele>
        <time>2021-02-20T15:11:06Z</time>
      </trkpt>
      <trkpt lat="49.62133" lon="5.6559">
        <ele>306.75</ele>
        <time>2021-02-20T15:11:10Z</time>
      </trkpt>
      <trkpt lat="49.62126" lon="5.65576">
        <ele>306.75</ele>
        <time>2021-02-20T15:11:13Z</time>
      </trkpt>
      <trkpt lat="49.62117" lon="5.65568">
        <ele>306.75</ele>
        <time>2021-02-20T15:11:17Z</time>
      </trkpt>
      <trkpt lat="49.62109" lon="5.65558">
        <ele>306.75</ele>
        <time>2021-02-20T15:11:22Z</time>
      </trkpt>
      <trkpt lat="49.62102" lon="5.65541">
        <ele>306.75</ele>
        <time>2021-02-20T15:11:25Z</time>
      </trkpt>
      <trkpt lat="49.62096" lon="5.65529">
        <ele>306.75</ele>
        <time>2021-02-20T15:11:28Z</time>
      </trkpt>
      <trkpt lat="49.62092" lon="5.65517">
        <ele>306.75</ele>
        <time>2021-02-20T15:11:31Z</time>
      </trkpt>
      <trkpt lat="49.62088" lon="5.65503">
        <ele>306.75</ele>
        <time>2021-02-20T15:11:34Z</time>
      </trkpt>
      <trkpt lat="49.62082" lon="5.65486">
        <ele>306.75</ele>
        <time>2021-02-20T15:11:37Z</time>
      </trkpt>
      <trkpt lat="49.62077" lon="5.6547">
        <ele>306.75</ele>
        <time>2021-02-20T15:11:39Z</time>
      </trkpt>
      <trkpt lat="49.62072" lon="5.65452">
        <ele>306.75</ele>
        <time>2021-02-20T15:11:41Z</time>
      </trkpt>
      <trkpt lat="49.62067" lon="5.65434">
        <ele>306.75</ele>
        <time>2021-02-20T15:11:43Z</time>
      </trkpt>
      <trkpt lat="49.62062" lon="5.65422">
        <ele>306.75</ele>
        <time>2021-02-20T15:11:45Z</time>
      </trkpt>
      <trkpt lat="49.62059" lon="5.65408">
        <ele>306.75</ele>
        <time>2021-02-20T15:11:47Z</time>
      </trkpt>
      <trkpt lat="49.62048" lon="5.65396">
        <ele>306.75</ele>
        <time>2021-02-20T15:11:50Z</time>
      </trkpt>
      <trkpt lat="49.6204" lon="5.65392">
        <ele>306.75</ele>
        <time>2021-02-20T15:11:52Z</time>
      </trkpt>
      <trkpt lat="49.62031" lon="5.65389">
        <ele>306.75</ele>
        <time>2021-02-20T15:11:54Z</time>
      </trkpt>
      <trkpt lat="49.62021" lon="5.65388">
        <ele>306.75</ele>
        <time>2021-02-20T15:11:57Z</time>
      </trkpt>
      <trkpt lat="49.62009" lon="5.65392">
        <ele>306.75</ele>
        <time>2021-02-20T15:12:00Z</time>
      </trkpt>
      <trkpt lat="49.61996" lon="5.65399">
        <ele>306.75</ele>
        <time>2021-02-20T15:12:02Z</time>
      </trkpt>
      <trkpt lat="49.61984" lon="5.65398">
        <ele>306.75</ele>
        <time>2021-02-20T15:12:04Z</time>
      </trkpt>
      <trkpt lat="49.61971" lon="5.65394">
        <ele>306.75</ele>
        <time>2021-02-20T15:12:06Z</time>
      </trkpt>
      <trkpt lat="49.61957" lon="5.6539">
        <ele>306.75</ele>
        <time>2021-02-20T15:12:08Z</time>
      </trkpt>
      <trkpt lat="49.61936" lon="5.6539">
        <ele>306.75</ele>
        <time>2021-02-20T15:12:10Z</time>
      </trkpt>
      <trkpt lat="49.61926" lon="5.65391">
        <ele>306.75</ele>
        <time>2021-02-20T15:12:11Z</time>
      </trkpt>
      <trkpt lat="49.61909" lon="5.65394">
        <ele>306.75</ele>
        <time>2021-02-20T15:12:13Z</time>
      </trkpt>
      <trkpt lat="49.61895" lon="5.65397">
        <ele>306.75</ele>
        <time>2021-02-20T15:12:15Z</time>
      </trkpt>
      <trkpt lat="49.61881" lon="5.65399">
        <ele>306.75</ele>
        <time>2021-02-20T15:12:17Z</time>
      </trkpt>
      <trkpt lat="49.61869" lon="5.65402">
        <ele>306.75</ele>
        <time>2021-02-20T15:12:19Z</time>
      </trkpt>
      <trkpt lat="49.61857" lon="5.65404">
        <ele>306.75</ele>
        <time>2021-02-20T15:12:21Z</time>
      </trkpt>
      <trkpt lat="49.61846" lon="5.65406">
        <ele>306.75</ele>
        <time>2021-02-20T15:12:23Z</time>
      </trkpt>
      <trkpt lat="49.61835" lon="5.65407">
        <ele>306.75</ele>
        <time>2021-02-20T15:12:25Z</time>
      </trkpt>
      <trkpt lat="49.61823" lon="5.65409">
        <ele>306.75</ele>
        <time>2021-02-20T15:12:27Z</time>
      </trkpt>
      <trkpt lat="49.61812" lon="5.65411">
        <ele>306.75</ele>
        <time>2021-02-20T15:12:29Z</time>
      </trkpt>
      <trkpt lat="49.61801" lon="5.65411">
        <ele>306.75</ele>
        <time>2021-02-20T15:12:31Z</time>
      </trkpt>
      <trkpt lat="49.61788" lon="5.65412">
        <ele>306.75</ele>
        <time>2021-02-20T15:12:33Z</time>
      </trkpt>
      <trkpt lat="49.61776" lon="5.65411">
        <ele>306.75</ele>
        <time>2021-02-20T15:12:35Z</time>
      </trkpt>
      <trkpt lat="49.61765" lon="5.65408">
        <ele>306.75</ele>
        <time>2021-02-20T15:12:37Z</time>
      </trkpt>
      <trkpt lat="49.61755" lon="5.65407">
        <ele>306.75</ele>
        <time>2021-02-20T15:12:39Z</time>
      </trkpt>
      <trkpt lat="49.61746" lon="5.65405">
        <ele>306.75</ele>
        <time>2021-02-20T15:12:41Z</time>
      </trkpt>
      <trkpt lat="49.61736" lon="5.65403">
        <ele>306.75</ele>
        <time>2021-02-20T15:12:43Z</time>
      </trkpt>
      <trkpt lat="49.61724" lon="5.65403">
        <ele>306.75</ele>
        <time>2021-02-20T15:12:45Z</time>
      </trkpt>
      <trkpt lat="49.61713" lon="5.65403">
        <ele>306.75</ele>
        <time>2021-02-20T15:12:47Z</time>
      </trkpt>
      <trkpt lat="49.61699" lon="5.65403">
        <ele>306.75</ele>
        <time>2021-02-20T15:12:50Z</time>
      </trkpt>
      <trkpt lat="49.61688" lon="5.65403">
        <ele>306.75</ele>
        <time>2021-02-20T15:12:52Z</time>
      </trkpt>
      <trkpt lat="49.61678" lon="5.65402">
        <ele>306.75</ele>
        <time>2021-02-20T15:12:54Z</time>
      </trkpt>
      <trkpt lat="49.61667" lon="5.65403">
        <ele>306.75</ele>
        <time>2021-02-20T15:12:56Z</time>
      </trkpt>
      <trkpt lat="49.61657" lon="5.65405">
        <ele>306.75</ele>
        <time>2021-02-20T15:12:58Z</time>
      </trkpt>
      <trkpt lat="49.61647" lon="5.65406">
        <ele>306.75</ele>
        <time>2021-02-20T15:13:00Z</time>
      </trkpt>
      <trkpt lat="49.61635" lon="5.65409">
        <ele>306.75</ele>
        <time>2021-02-20T15:13:03Z</time>
      </trkpt>
      <trkpt lat="49.61626" lon="5.65412">
        <ele>306.75</ele>
        <time>2021-02-20T15:13:05Z</time>
      </trkpt>
      <trkpt lat="49.61615" lon="5.65417">
        <ele>306.75</ele>
        <time>2021-02-20T15:13:07Z</time>
      </trkpt>
      <trkpt lat="49.61605" lon="5.6542">
        <ele>306.75</ele>
        <time>2021-02-20T15:13:09Z</time>
      </trkpt>
      <trkpt lat="49.61594" lon="5.65423">
        <ele>306.75</ele>
        <time>2021-02-20T15:13:11Z</time>
      </trkpt>
      <trkpt lat="49.61584" lon="5.65429">
        <ele>306.75</ele>
        <time>2021-02-20T15:13:13Z</time>
      </trkpt>
      <trkpt lat="49.61573" lon="5.65434">
        <ele>306.75</ele>
        <time>2021-02-20T15:13:15Z</time>
      </trkpt>
      <trkpt lat="49.61562" lon="5.65436">
        <ele>306.75</ele>
        <time>2021-02-20T15:13:17Z</time>
      </trkpt>
      <trkpt lat="49.61551" lon="5.65438">
        <ele>306.75</ele>
        <time>2021-02-20T15:13:19Z</time>
      </trkpt>
      <trkpt lat="49.61541" lon="5.65438">
        <ele>306.75</ele>
        <time>2021-02-20T15:13:21Z</time>
      </trkpt>
      <trkpt lat="49.61532" lon="5.65439">
        <ele>306.75</ele>
        <time>2021-02-20T15:13:23Z</time>
      </trkpt>
      <trkpt lat="49.6152" lon="5.6544">
        <ele>306.75</ele>
        <time>2021-02-20T15:13:26Z</time>
      </trkpt>
      <trkpt lat="49.61511" lon="5.6544">
        <ele>306.75</ele>
        <time>2021-02-20T15:13:28Z</time>
      </trkpt>
      <trkpt lat="49.61499" lon="5.65442">
        <ele>306.75</ele>
        <time>2021-02-20T15:13:31Z</time>
      </trkpt>
      <trkpt lat="49.6149" lon="5.65445">
        <ele>302.380005</ele>
        <time>2021-02-20T15:13:33Z</time>
      </trkpt>
      <trkpt lat="49.61481" lon="5.65449">
        <ele>295.970001</ele>
        <time>2021-02-20T15:13:36Z</time>
      </trkpt>
      <trkpt lat="49.61467" lon="5.65453">
        <ele>291.769989</ele>
        <time>2021-02-20T15:13:38Z</time>
      </trkpt>
      <trkpt lat="49.61458" lon="5.65457">
        <ele>289.600006</ele>
        <time>2021-02-20T15:13:41Z</time>
      </trkpt>
      <trkpt lat="49.61449" lon="5.65459">
        <ele>288.48999</ele>
        <time>2021-02-20T15:13:43Z</time>
      </trkpt>
      <trkpt lat="49.6144" lon="5.65461">
        <ele>287.589996</ele>
        <time>2021-02-20T15:13:45Z</time>
      </trkpt>
      <trkpt lat="49.61427" lon="5.65461">
        <ele>286.269989</ele>
        <time>2021-02-20T15:13:48Z</time>
      </trkpt>
      <trkpt lat="49.61416" lon="5.65464">
        <ele>285.589996</ele>
        <time>2021-02-20T15:13:50Z</time>
      </trkpt>
      <trkpt lat="49.61406" lon="5.65466">
        <ele>285.23999</ele>
        <time>2021-02-20T15:13:52Z</time>
      </trkpt>
      <trkpt lat="49.61392" lon="5.65466">
        <ele>284.839996</ele>
        <time>2021-02-20T15:13:55Z</time>
      </trkpt>
      <trkpt lat="49.61381" lon="5.65471">
        <ele>284.540009</ele>
        <time>2021-02-20T15:13:57Z</time>
      </trkpt>
      <trkpt lat="49.61371" lon="5.65474">
        <ele>284.329987</ele>
        <time>2021-02-20T15:14:00Z</time>
      </trkpt>
      <trkpt lat="49.61363" lon="5.6548">
        <ele>284.220001</ele>
        <time>2021-02-20T15:14:01Z</time>
      </trkpt>
      <trkpt lat="49.61354" lon="5.65475">
        <ele>284.029999</ele>
        <time>2021-02-20T15:14:05Z</time>
      </trkpt>
      <trkpt lat="49.61357" lon="5.65458">
        <ele>283.950012</ele>
        <time>2021-02-20T15:14:09Z</time>
      </trkpt>
      <trkpt lat="49.61358" lon="5.65442">
        <ele>283.880005</ele>
        <time>2021-02-20T15:14:13Z</time>
      </trkpt>
      <trkpt lat="49.6136" lon="5.65428">
        <ele>283.839996</ele>
        <time>2021-02-20T15:14:17Z</time>
      </trkpt>
      <trkpt lat="49.61354" lon="5.65416">
        <ele>283.820007</ele>
        <time>2021-02-20T15:14:19Z</time>
      </trkpt>
      <trkpt lat="49.61345" lon="5.65415">
        <ele>283.799988</ele>
        <time>2021-02-20T15:14:22Z</time>
      </trkpt>
      <trkpt lat="49.61335" lon="5.65409">
        <ele>283.790009</ele>
        <time>2021-02-20T15:14:25Z</time>
      </trkpt>
      <trkpt lat="49.61327" lon="5.65404">
        <ele>283.769989</ele>
        <time>2021-02-20T15:14:29Z</time>
      </trkpt>
      <trkpt lat="49.61319" lon="5.65394">
        <ele>283.769989</ele>
        <time>2021-02-20T15:14:32Z</time>
      </trkpt>
      <trkpt lat="49.61307" lon="5.65382">
        <ele>283.76001</ele>
        <time>2021-02-20T15:14:35Z</time>
      </trkpt>
      <trkpt lat="49.61295" lon="5.65372">
        <ele>283.76001</ele>
        <time>2021-02-20T15:14:37Z</time>
      </trkpt>
      <trkpt lat="49.61282" lon="5.65362">
        <ele>283.76001</ele>
        <time>2021-02-20T15:14:39Z</time>
      </trkpt>
      <trkpt lat="49.6127" lon="5.65353">
        <ele>283.76001</ele>
        <time>2021-02-20T15:14:41Z</time>
      </trkpt>
      <trkpt lat="49.61257" lon="5.65346">
        <ele>283.76001</ele>
        <time>2021-02-20T15:14:43Z</time>
      </trkpt>
      <trkpt lat="49.61245" lon="5.65339">
        <ele>283.76001</ele>
        <time>2021-02-20T15:14:45Z</time>
      </trkpt>
      <trkpt lat="49.61234" lon="5.65332">
        <ele>283.76001</ele>
        <time>2021-02-20T15:14:47Z</time>
      </trkpt>
      <trkpt lat="49.61223" lon="5.65325">
        <ele>283.76001</ele>
        <time>2021-02-20T15:14:49Z</time>
      </trkpt>
      <trkpt lat="49.61211" lon="5.65321">
        <ele>283.76001</ele>
        <time>2021-02-20T15:14:51Z</time>
      </trkpt>
      <trkpt lat="49.61199" lon="5.65306">
        <ele>283.76001</ele>
        <time>2021-02-20T15:14:53Z</time>
      </trkpt>
      <trkpt lat="49.61186" lon="5.65287">
        <ele>283.76001</ele>
        <time>2021-02-20T15:14:55Z</time>
      </trkpt>
      <trkpt lat="49.61179" lon="5.65275">
        <ele>283.76001</ele>
        <time>2021-02-20T15:14:56Z</time>
      </trkpt>
      <trkpt lat="49.61174" lon="5.6526">
        <ele>283.75</ele>
        <time>2021-02-20T15:14:57Z</time>
      </trkpt>
      <trkpt lat="49.6117" lon="5.65244">
        <ele>283.75</ele>
        <time>2021-02-20T15:14:58Z</time>
      </trkpt>
      <trkpt lat="49.61166" lon="5.65228">
        <ele>283.75</ele>
        <time>2021-02-20T15:14:59Z</time>
      </trkpt>
      <trkpt lat="49.61161" lon="5.65213">
        <ele>283.75</ele>
        <time>2021-02-20T15:15:00Z</time>
      </trkpt>
      <trkpt lat="49.61158" lon="5.65199">
        <ele>283.75</ele>
        <time>2021-02-20T15:15:01Z</time>
      </trkpt>
      <trkpt lat="49.61151" lon="5.65174">
        <ele>283.76001</ele>
        <time>2021-02-20T15:15:03Z</time>
      </trkpt>
      <trkpt lat="49.61148" lon="5.65161">
        <ele>283.76001</ele>
        <time>2021-02-20T15:15:04Z</time>
      </trkpt>
      <trkpt lat="49.61144" lon="5.65144">
        <ele>283.76001</ele>
        <time>2021-02-20T15:15:06Z</time>
      </trkpt>
      <trkpt lat="49.61141" lon="5.65128">
        <ele>283.76001</ele>
        <time>2021-02-20T15:15:08Z</time>
      </trkpt>
      <trkpt lat="49.61139" lon="5.65113">
        <ele>283.76001</ele>
        <time>2021-02-20T15:15:10Z</time>
      </trkpt>
      <trkpt lat="49.61139" lon="5.65098">
        <ele>283.76001</ele>
        <time>2021-02-20T15:15:12Z</time>
      </trkpt>
      <trkpt lat="49.61139" lon="5.65083">
        <ele>283.76001</ele>
        <time>2021-02-20T15:15:14Z</time>
      </trkpt>
      <trkpt lat="49.61139" lon="5.65066">
        <ele>283.76001</ele>
        <time>2021-02-20T15:15:16Z</time>
      </trkpt>
      <trkpt lat="49.6114" lon="5.6505">
        <ele>283.76001</ele>
        <time>2021-02-20T15:15:18Z</time>
      </trkpt>
      <trkpt lat="49.6114" lon="5.65032">
        <ele>283.76001</ele>
        <time>2021-02-20T15:15:21Z</time>
      </trkpt>
      <trkpt lat="49.61142" lon="5.65014">
        <ele>283.76001</ele>
        <time>2021-02-20T15:15:24Z</time>
      </trkpt>
      <trkpt lat="49.61144" lon="5.64998">
        <ele>276.179993</ele>
        <time>2021-02-20T15:15:27Z</time>
      </trkpt>
      <trkpt lat="49.61145" lon="5.64982">
        <ele>274.109985</ele>
        <time>2021-02-20T15:15:30Z</time>
      </trkpt>
      <trkpt lat="49.61148" lon="5.64965">
        <ele>271.059998</ele>
        <time>2021-02-20T15:15:33Z</time>
      </trkpt>
      <trkpt lat="49.61151" lon="5.64947">
        <ele>269.48999</ele>
        <time>2021-02-20T15:15:35Z</time>
      </trkpt>
      <trkpt lat="49.61153" lon="5.64931">
        <ele>268.339996</ele>
        <time>2021-02-20T15:15:38Z</time>
      </trkpt>
      <trkpt lat="49.61154" lon="5.64915">
        <ele>267.51001</ele>
        <time>2021-02-20T15:15:41Z</time>
      </trkpt>
      <trkpt lat="49.61153" lon="5.649">
        <ele>266.730011</ele>
        <time>2021-02-20T15:15:45Z</time>
      </trkpt>
      <trkpt lat="49.6115" lon="5.64885">
        <ele>266.130005</ele>
        <time>2021-02-20T15:15:50Z</time>
      </trkpt>
      <trkpt lat="49.61147" lon="5.64868">
        <ele>265.829987</ele>
        <time>2021-02-20T15:15:54Z</time>
      </trkpt>
      <trkpt lat="49.61144" lon="5.64854">
        <ele>265.670013</ele>
        <time>2021-02-20T15:15:56Z</time>
      </trkpt>
      <trkpt lat="49.61141" lon="5.6484">
        <ele>265.559998</ele>
        <time>2021-02-20T15:15:59Z</time>
      </trkpt>
      <trkpt lat="49.61139" lon="5.64822">
        <ele>265.459991</ele>
        <time>2021-02-20T15:16:04Z</time>
      </trkpt>
      <trkpt lat="49.61141" lon="5.64808">
        <ele>265.399994</ele>
        <time>2021-02-20T15:16:07Z</time>
      </trkpt>
      <trkpt lat="49.6114" lon="5.64791">
        <ele>265.359985</ele>
        <time>2021-02-20T15:16:09Z</time>
      </trkpt>
      <trkpt lat="49.61139" lon="5.64775">
        <ele>265.339996</ele>
        <time>2021-02-20T15:16:12Z</time>
      </trkpt>
      <trkpt lat="49.61138" lon="5.6476">
        <ele>265.320007</ele>
        <time>2021-02-20T15:16:15Z</time>
      </trkpt>
      <trkpt lat="49.61138" lon="5.64742">
        <ele>265.299988</ele>
        <time>2021-02-20T15:16:18Z</time>
      </trkpt>
      <trkpt lat="49.61138" lon="5.64726">
        <ele>265.290009</ele>
        <time>2021-02-20T15:16:21Z</time>
      </trkpt>
      <trkpt lat="49.61137" lon="5.6471">
        <ele>265.279999</ele>
        <time>2021-02-20T15:16:24Z</time>
      </trkpt>
      <trkpt lat="49.61137" lon="5.64695">
        <ele>265.279999</ele>
        <time>2021-02-20T15:16:27Z</time>
      </trkpt>
      <trkpt lat="49.61137" lon="5.64678">
        <ele>265.269989</ele>
        <time>2021-02-20T15:16:30Z</time>
      </trkpt>
      <trkpt lat="49.61136" lon="5.64663">
        <ele>265.269989</ele>
        <time>2021-02-20T15:16:33Z</time>
      </trkpt>
      <trkpt lat="49.61136" lon="5.64645">
        <ele>265.269989</ele>
        <time>2021-02-20T15:16:37Z</time>
      </trkpt>
      <trkpt lat="49.61136" lon="5.6463">
        <ele>265.26001</ele>
        <time>2021-02-20T15:16:40Z</time>
      </trkpt>
      <trkpt lat="49.61136" lon="5.64615">
        <ele>265.26001</ele>
        <time>2021-02-20T15:16:43Z</time>
      </trkpt>
      <trkpt lat="49.61137" lon="5.64601">
        <ele>265.26001</ele>
        <time>2021-02-20T15:16:46Z</time>
      </trkpt>
      <trkpt lat="49.61138" lon="5.64584">
        <ele>265.26001</ele>
        <time>2021-02-20T15:16:50Z</time>
      </trkpt>
      <trkpt lat="49.61138" lon="5.6457">
        <ele>265.26001</ele>
        <time>2021-02-20T15:16:53Z</time>
      </trkpt>
      <trkpt lat="49.61139" lon="5.64552">
        <ele>265.26001</ele>
        <time>2021-02-20T15:16:57Z</time>
      </trkpt>
      <trkpt lat="49.6114" lon="5.64537">
        <ele>265.26001</ele>
        <time>2021-02-20T15:17:01Z</time>
      </trkpt>
      <trkpt lat="49.61143" lon="5.64524">
        <ele>265.26001</ele>
        <time>2021-02-20T15:17:05Z</time>
      </trkpt>
      <trkpt lat="49.61146" lon="5.64509">
        <ele>265.26001</ele>
        <time>2021-02-20T15:17:10Z</time>
      </trkpt>
      <trkpt lat="49.61148" lon="5.64491">
        <ele>265.26001</ele>
        <time>2021-02-20T15:17:15Z</time>
      </trkpt>
      <trkpt lat="49.61147" lon="5.64474">
        <ele>265.26001</ele>
        <time>2021-02-20T15:17:19Z</time>
      </trkpt>
      <trkpt lat="49.61143" lon="5.64458">
        <ele>265.26001</ele>
        <time>2021-02-20T15:17:22Z</time>
      </trkpt>
      <trkpt lat="49.61139" lon="5.64444">
        <ele>265.26001</ele>
        <time>2021-02-20T15:17:25Z</time>
      </trkpt>
      <trkpt lat="49.61133" lon="5.6443">
        <ele>265.26001</ele>
        <time>2021-02-20T15:17:29Z</time>
      </trkpt>
      <trkpt lat="49.61128" lon="5.64416">
        <ele>265.26001</ele>
        <time>2021-02-20T15:17:32Z</time>
      </trkpt>
      <trkpt lat="49.61123" lon="5.64403">
        <ele>265.26001</ele>
        <time>2021-02-20T15:17:34Z</time>
      </trkpt>
      <trkpt lat="49.61118" lon="5.6439">
        <ele>265.26001</ele>
        <time>2021-02-20T15:17:37Z</time>
      </trkpt>
      <trkpt lat="49.61114" lon="5.64377">
        <ele>265.26001</ele>
        <time>2021-02-20T15:17:40Z</time>
      </trkpt>
      <trkpt lat="49.61114" lon="5.64361">
        <ele>265.26001</ele>
        <time>2021-02-20T15:17:44Z</time>
      </trkpt>
      <trkpt lat="49.61117" lon="5.64348">
        <ele>265.26001</ele>
        <time>2021-02-20T15:17:48Z</time>
      </trkpt>
      <trkpt lat="49.6112" lon="5.64334">
        <ele>265.26001</ele>
        <time>2021-02-20T15:17:52Z</time>
      </trkpt>
      <trkpt lat="49.61126" lon="5.64323">
        <ele>265.26001</ele>
        <time>2021-02-20T15:17:56Z</time>
      </trkpt>
      <trkpt lat="49.61131" lon="5.64311">
        <ele>265.26001</ele>
        <time>2021-02-20T15:18:01Z</time>
      </trkpt>
      <trkpt lat="49.61138" lon="5.64301">
        <ele>265.26001</ele>
        <time>2021-02-20T15:18:06Z</time>
      </trkpt>
      <trkpt lat="49.61145" lon="5.64288">
        <ele>265.26001</ele>
        <time>2021-02-20T15:18:10Z</time>
      </trkpt>
      <trkpt lat="49.61152" lon="5.64276">
        <ele>265.26001</ele>
        <time>2021-02-20T15:18:14Z</time>
      </trkpt>
      <trkpt lat="49.61157" lon="5.64267">
        <ele>265.26001</ele>
        <time>2021-02-20T15:18:18Z</time>
      </trkpt>
      <trkpt lat="49.61162" lon="5.64255">
        <ele>265.26001</ele>
        <time>2021-02-20T15:18:22Z</time>
      </trkpt>
      <trkpt lat="49.61165" lon="5.64247">
        <ele>265.26001</ele>
        <time>2021-02-20T15:18:26Z</time>
      </trkpt>
      <trkpt lat="49.61157" lon="5.64237">
        <ele>265.26001</ele>
        <time>2021-02-20T15:18:31Z</time>
      </trkpt>
      <trkpt lat="49.6115" lon="5.64233">
        <ele>265.26001</ele>
        <time>2021-02-20T15:18:36Z</time>
      </trkpt>
      <trkpt lat="49.61145" lon="5.64217">
        <ele>265.26001</ele>
        <time>2021-02-20T15:18:40Z</time>
      </trkpt>
      <trkpt lat="49.61138" lon="5.64207">
        <ele>265.26001</ele>
        <time>2021-02-20T15:18:44Z</time>
      </trkpt>
      <trkpt lat="49.61131" lon="5.64195">
        <ele>265.26001</ele>
        <time>2021-02-20T15:18:49Z</time>
      </trkpt>
      <trkpt lat="49.61124" lon="5.64181">
        <ele>265.26001</ele>
        <time>2021-02-20T15:18:53Z</time>
      </trkpt>
      <trkpt lat="49.61119" lon="5.64168">
        <ele>265.26001</ele>
        <time>2021-02-20T15:18:57Z</time>
      </trkpt>
      <trkpt lat="49.61107" lon="5.64156">
        <ele>265.26001</ele>
        <time>2021-02-20T15:19:02Z</time>
      </trkpt>
      <trkpt lat="49.61099" lon="5.64145">
        <ele>265.26001</ele>
        <time>2021-02-20T15:19:07Z</time>
      </trkpt>
      <trkpt lat="49.61095" lon="5.64138">
        <ele>265.26001</ele>
        <time>2021-02-20T15:19:11Z</time>
      </trkpt>
      <trkpt lat="49.6109" lon="5.64123">
        <ele>265.26001</ele>
        <time>2021-02-20T15:19:15Z</time>
      </trkpt>
      <trkpt lat="49.61084" lon="5.64108">
        <ele>265.26001</ele>
        <time>2021-02-20T15:19:19Z</time>
      </trkpt>
      <trkpt lat="49.61079" lon="5.64093">
        <ele>265.269989</ele>
        <time>2021-02-20T15:19:22Z</time>
      </trkpt>
      <trkpt lat="49.61072" lon="5.64081">
        <ele>265.269989</ele>
        <time>2021-02-20T15:19:27Z</time>
      </trkpt>
      <trkpt lat="49.61066" lon="5.64069">
        <ele>265.269989</ele>
        <time>2021-02-20T15:19:31Z</time>
      </trkpt>
      <trkpt lat="49.61062" lon="5.64056">
        <ele>265.269989</ele>
        <time>2021-02-20T15:19:34Z</time>
      </trkpt>
      <trkpt lat="49.61056" lon="5.64037">
        <ele>265.269989</ele>
        <time>2021-02-20T15:19:37Z</time>
      </trkpt>
      <trkpt lat="49.6105" lon="5.64021">
        <ele>265.269989</ele>
        <time>2021-02-20T15:19:40Z</time>
      </trkpt>
      <trkpt lat="49.61045" lon="5.64008">
        <ele>265.269989</ele>
        <time>2021-02-20T15:19:43Z</time>
      </trkpt>
      <trkpt lat="49.61044" lon="5.63995">
        <ele>265.269989</ele>
        <time>2021-02-20T15:19:45Z</time>
      </trkpt>
      <trkpt lat="49.61042" lon="5.63979">
        <ele>265.269989</ele>
        <time>2021-02-20T15:19:48Z</time>
      </trkpt>
      <trkpt lat="49.6104" lon="5.6396">
        <ele>265.269989</ele>
        <time>2021-02-20T15:19:50Z</time>
      </trkpt>
      <trkpt lat="49.61039" lon="5.63944">
        <ele>265.269989</ele>
        <time>2021-02-20T15:19:53Z</time>
      </trkpt>
      <trkpt lat="49.61026" lon="5.63945">
        <ele>265.269989</ele>
        <time>2021-02-20T15:19:57Z</time>
      </trkpt>
      <trkpt lat="49.61023" lon="5.63931">
        <ele>265.269989</ele>
        <time>2021-02-20T15:20:02Z</time>
      </trkpt>
      <trkpt lat="49.61019" lon="5.63921">
        <ele>265.269989</ele>
        <time>2021-02-20T15:20:07Z</time>
      </trkpt>
      <trkpt lat="49.6101" lon="5.63918">
        <ele>265.269989</ele>
        <time>2021-02-20T15:20:11Z</time>
      </trkpt>
      <trkpt lat="49.61" lon="5.63919">
        <ele>265.269989</ele>
        <time>2021-02-20T15:20:15Z</time>
      </trkpt>
      <trkpt lat="49.60992" lon="5.63918">
        <ele>265.269989</ele>
        <time>2021-02-20T15:20:19Z</time>
      </trkpt>
      <trkpt lat="49.60984" lon="5.63919">
        <ele>265.269989</ele>
        <time>2021-02-20T15:20:23Z</time>
      </trkpt>
      <trkpt lat="49.60972" lon="5.63918">
        <ele>265.269989</ele>
        <time>2021-02-20T15:20:27Z</time>
      </trkpt>
      <trkpt lat="49.60964" lon="5.63907">
        <ele>265.269989</ele>
        <time>2021-02-20T15:20:31Z</time>
      </trkpt>
      <trkpt lat="49.60957" lon="5.63893">
        <ele>265.269989</ele>
        <time>2021-02-20T15:20:34Z</time>
      </trkpt>
      <trkpt lat="49.60952" lon="5.6388">
        <ele>265.269989</ele>
        <time>2021-02-20T15:20:36Z</time>
      </trkpt>
      <trkpt lat="49.60947" lon="5.63861">
        <ele>265.269989</ele>
        <time>2021-02-20T15:20:39Z</time>
      </trkpt>
      <trkpt lat="49.60948" lon="5.63841">
        <ele>265.269989</ele>
        <time>2021-02-20T15:20:42Z</time>
      </trkpt>
      <trkpt lat="49.60946" lon="5.63825">
        <ele>265.269989</ele>
        <time>2021-02-20T15:20:45Z</time>
      </trkpt>
      <trkpt lat="49.60944" lon="5.63807">
        <ele>265.269989</ele>
        <time>2021-02-20T15:20:49Z</time>
      </trkpt>
      <trkpt lat="49.60948" lon="5.6379">
        <ele>265.269989</ele>
        <time>2021-02-20T15:20:52Z</time>
      </trkpt>
      <trkpt lat="49.6095" lon="5.63777">
        <ele>265.269989</ele>
        <time>2021-02-20T15:20:55Z</time>
      </trkpt>
      <trkpt lat="49.6095" lon="5.6376">
        <ele>265.269989</ele>
        <time>2021-02-20T15:20:58Z</time>
      </trkpt>
      <trkpt lat="49.6095" lon="5.63745">
        <ele>265.269989</ele>
        <time>2021-02-20T15:21:01Z</time>
      </trkpt>
      <trkpt lat="49.60951" lon="5.63729">
        <ele>265.269989</ele>
        <time>2021-02-20T15:21:04Z</time>
      </trkpt>
      <trkpt lat="49.60951" lon="5.63713">
        <ele>265.269989</ele>
        <time>2021-02-20T15:21:07Z</time>
      </trkpt>
      <trkpt lat="49.60952" lon="5.63696">
        <ele>265.269989</ele>
        <time>2021-02-20T15:21:10Z</time>
      </trkpt>
      <trkpt lat="49.60953" lon="5.63679">
        <ele>265.269989</ele>
        <time>2021-02-20T15:21:13Z</time>
      </trkpt>
      <trkpt lat="49.60954" lon="5.63661">
        <ele>265.269989</ele>
        <time>2021-02-20T15:21:16Z</time>
      </trkpt>
      <trkpt lat="49.60954" lon="5.63643">
        <ele>265.269989</ele>
        <time>2021-02-20T15:21:19Z</time>
      </trkpt>
      <trkpt lat="49.60959" lon="5.63628">
        <ele>265.269989</ele>
        <time>2021-02-20T15:21:21Z</time>
      </trkpt>
      <trkpt lat="49.60967" lon="5.63617">
        <ele>265.269989</ele>
        <time>2021-02-20T15:21:25Z</time>
      </trkpt>
      <trkpt lat="49.60974" lon="5.63608">
        <ele>265.269989</ele>
        <time>2021-02-20T15:21:29Z</time>
      </trkpt>
      <trkpt lat="49.60983" lon="5.63601">
        <ele>265.269989</ele>
        <time>2021-02-20T15:21:34Z</time>
      </trkpt>
      <trkpt lat="49.60992" lon="5.6359">
        <ele>265.269989</ele>
        <time>2021-02-20T15:21:37Z</time>
      </trkpt>
      <trkpt lat="49.60998" lon="5.63578">
        <ele>265.269989</ele>
        <time>2021-02-20T15:21:41Z</time>
      </trkpt>
      <trkpt lat="49.61004" lon="5.63569">
        <ele>265.269989</ele>
        <time>2021-02-20T15:21:46Z</time>
      </trkpt>
      <trkpt lat="49.61009" lon="5.63559">
        <ele>265.269989</ele>
        <time>2021-02-20T15:21:51Z</time>
      </trkpt>
      <trkpt lat="49.61015" lon="5.63548">
        <ele>265.269989</ele>
        <time>2021-02-20T15:21:55Z</time>
      </trkpt>
      <trkpt lat="49.61024" lon="5.63536">
        <ele>265.269989</ele>
        <time>2021-02-20T15:22:00Z</time>
      </trkpt>
      <trkpt lat="49.61032" lon="5.63526">
        <ele>265.269989</ele>
        <time>2021-02-20T15:22:04Z</time>
      </trkpt>
      <trkpt lat="49.61041" lon="5.63514">
        <ele>265.269989</ele>
        <time>2021-02-20T15:22:08Z</time>
      </trkpt>
      <trkpt lat="49.61049" lon="5.63504">
        <ele>265.269989</ele>
        <time>2021-02-20T15:22:12Z</time>
      </trkpt>
      <trkpt lat="49.61057" lon="5.63497">
        <ele>265.269989</ele>
        <time>2021-02-20T15:22:16Z</time>
      </trkpt>
      <trkpt lat="49.61065" lon="5.63487">
        <ele>265.269989</ele>
        <time>2021-02-20T15:22:21Z</time>
      </trkpt>
      <trkpt lat="49.61073" lon="5.63477">
        <ele>265.269989</ele>
        <time>2021-02-20T15:22:26Z</time>
      </trkpt>
      <trkpt lat="49.61079" lon="5.6347">
        <ele>265.269989</ele>
        <time>2021-02-20T15:22:30Z</time>
      </trkpt>
      <trkpt lat="49.61087" lon="5.63459">
        <ele>265.269989</ele>
        <time>2021-02-20T15:22:35Z</time>
      </trkpt>
      <trkpt lat="49.61095" lon="5.63451">
        <ele>265.269989</ele>
        <time>2021-02-20T15:22:37Z</time>
      </trkpt>
      <trkpt lat="49.61102" lon="5.63447">
        <ele>265.269989</ele>
        <time>2021-02-20T15:22:42Z</time>
      </trkpt>
      <trkpt lat="49.61108" lon="5.63439">
        <ele>265.269989</ele>
        <time>2021-02-20T15:22:47Z</time>
      </trkpt>
      <trkpt lat="49.61117" lon="5.63438">
        <ele>265.269989</ele>
        <time>2021-02-20T15:22:51Z</time>
      </trkpt>
      <trkpt lat="49.61126" lon="5.63439">
        <ele>265.269989</ele>
        <time>2021-02-20T15:22:54Z</time>
      </trkpt>
      <trkpt lat="49.61131" lon="5.6344">
        <ele>265.269989</ele>
        <time>2021-02-20T15:22:58Z</time>
      </trkpt>
      <trkpt lat="49.61138" lon="5.63441">
        <ele>265.269989</ele>
        <time>2021-02-20T15:23:02Z</time>
      </trkpt>
      <trkpt lat="49.61147" lon="5.63444">
        <ele>265.269989</ele>
        <time>2021-02-20T15:23:08Z</time>
      </trkpt>
      <trkpt lat="49.61156" lon="5.63448">
        <ele>265.269989</ele>
        <time>2021-02-20T15:23:11Z</time>
      </trkpt>
      <trkpt lat="49.61165" lon="5.63453">
        <ele>265.269989</ele>
        <time>2021-02-20T15:23:15Z</time>
      </trkpt>
      <trkpt lat="49.61176" lon="5.63457">
        <ele>265.269989</ele>
        <time>2021-02-20T15:23:20Z</time>
      </trkpt>
      <trkpt lat="49.61183" lon="5.6346">
        <ele>265.269989</ele>
        <time>2021-02-20T15:23:25Z</time>
      </trkpt>
      <trkpt lat="49.6119" lon="5.63464">
        <ele>265.269989</ele>
        <time>2021-02-20T15:23:29Z</time>
      </trkpt>
      <trkpt lat="49.61198" lon="5.63468">
        <ele>265.269989</ele>
        <time>2021-02-20T15:23:33Z</time>
      </trkpt>
      <trkpt lat="49.61208" lon="5.63467">
        <ele>265.269989</ele>
        <time>2021-02-20T15:23:37Z</time>
      </trkpt>
      <trkpt lat="49.61215" lon="5.63466">
        <ele>265.269989</ele>
        <time>2021-02-20T15:23:42Z</time>
      </trkpt>
      <trkpt lat="49.61224" lon="5.63462">
        <ele>265.269989</ele>
        <time>2021-02-20T15:23:46Z</time>
      </trkpt>
      <trkpt lat="49.6123" lon="5.63457">
        <ele>265.269989</ele>
        <time>2021-02-20T15:23:50Z</time>
      </trkpt>
      <trkpt lat="49.61237" lon="5.63453">
        <ele>265.269989</ele>
        <time>2021-02-20T15:23:55Z</time>
      </trkpt>
      <trkpt lat="49.61243" lon="5.63449">
        <ele>265.269989</ele>
        <time>2021-02-20T15:23:59Z</time>
      </trkpt>
      <trkpt lat="49.61249" lon="5.63444">
        <ele>265.269989</ele>
        <time>2021-02-20T15:24:04Z</time>
      </trkpt>
      <trkpt lat="49.61257" lon="5.63434">
        <ele>265.269989</ele>
        <time>2021-02-20T15:24:08Z</time>
      </trkpt>
      <trkpt lat="49.61264" lon="5.63425">
        <ele>265.269989</ele>
        <time>2021-02-20T15:24:12Z</time>
      </trkpt>
      <trkpt lat="49.61271" lon="5.63419">
        <ele>265.269989</ele>
        <time>2021-02-20T15:24:16Z</time>
      </trkpt>
      <trkpt lat="49.61278" lon="5.63415">
        <ele>265.269989</ele>
        <time>2021-02-20T15:24:21Z</time>
      </trkpt>
      <trkpt lat="49.61282" lon="5.63411">
        <ele>265.269989</ele>
        <time>2021-02-20T15:24:25Z</time>
      </trkpt>
      <trkpt lat="49.61287" lon="5.63403">
        <ele>265.269989</ele>
        <time>2021-02-20T15:24:29Z</time>
      </trkpt>
      <trkpt lat="49.61293" lon="5.63398">
        <ele>265.269989</ele>
        <time>2021-02-20T15:24:34Z</time>
      </trkpt>
      <trkpt lat="49.61299" lon="5.63394">
        <ele>265.269989</ele>
        <time>2021-02-20T15:24:38Z</time>
      </trkpt>
      <trkpt lat="49.61304" lon="5.63391">
        <ele>265.269989</ele>
        <time>2021-02-20T15:24:43Z</time>
      </trkpt>
      <trkpt lat="49.61313" lon="5.63389">
        <ele>265.269989</ele>
        <time>2021-02-20T15:24:48Z</time>
      </trkpt>
      <trkpt lat="49.61323" lon="5.63383">
        <ele>265.269989</ele>
        <time>2021-02-20T15:24:51Z</time>
      </trkpt>
      <trkpt lat="49.61334" lon="5.6338">
        <ele>265.269989</ele>
        <time>2021-02-20T15:24:55Z</time>
      </trkpt>
      <trkpt lat="49.61343" lon="5.63376">
        <ele>265.269989</ele>
        <time>2021-02-20T15:25:00Z</time>
      </trkpt>
      <trkpt lat="49.6135" lon="5.6337">
        <ele>265.269989</ele>
        <time>2021-02-20T15:25:04Z</time>
      </trkpt>
      <trkpt lat="49.61355" lon="5.63365">
        <ele>265.269989</ele>
        <time>2021-02-20T15:25:09Z</time>
      </trkpt>
      <trkpt lat="49.61361" lon="5.63365">
        <ele>265.269989</ele>
        <time>2021-02-20T15:25:14Z</time>
      </trkpt>
      <trkpt lat="49.61361" lon="5.63366">
        <ele>265.269989</ele>
        <time>2021-02-20T15:25:19Z</time>
      </trkpt>
      <trkpt lat="49.61362" lon="5.63366">
        <ele>265.269989</ele>
        <time>2021-02-20T15:25:24Z</time>
      </trkpt>
      <trkpt lat="49.61363" lon="5.63365">
        <ele>265.269989</ele>
        <time>2021-02-20T15:25:28Z</time>
      </trkpt>
      <trkpt lat="49.61366" lon="5.63361">
        <ele>265.269989</ele>
        <time>2021-02-20T15:25:33Z</time>
      </trkpt>
      <trkpt lat="49.6137" lon="5.63362">
        <ele>265.269989</ele>
        <time>2021-02-20T15:25:37Z</time>
      </trkpt>
      <trkpt lat="49.61367" lon="5.63357">
        <ele>265.269989</ele>
        <time>2021-02-20T15:25:41Z</time>
      </trkpt>
      <trkpt lat="49.61364" lon="5.63356">
        <ele>265.269989</ele>
        <time>2021-02-20T15:25:47Z</time>
      </trkpt>
      <trkpt lat="49.61363" lon="5.63357">
        <ele>265.269989</ele>
        <time>2021-02-20T15:25:52Z</time>
      </trkpt>
      <trkpt lat="49.61362" lon="5.63358">
        <ele>265.269989</ele>
        <time>2021-02-20T15:25:57Z</time>
      </trkpt>
      <trkpt lat="49.61361" lon="5.63358">
        <ele>265.269989</ele>
        <time>2021-02-20T15:26:02Z</time>
      </trkpt>
      <trkpt lat="49.61361" lon="5.63359">
        <ele>265.269989</ele>
        <time>2021-02-20T15:26:07Z</time>
      </trkpt>
      <trkpt lat="49.6136" lon="5.63359">
        <ele>265.269989</ele>
        <time>2021-02-20T15:26:12Z</time>
      </trkpt>
      <trkpt lat="49.6136" lon="5.63358">
        <ele>265.269989</ele>
        <time>2021-02-20T15:26:17Z</time>
      </trkpt>
      <trkpt lat="49.61359" lon="5.63349">
        <ele>265.269989</ele>
        <time>2021-02-20T15:26:21Z</time>
      </trkpt>
      <trkpt lat="49.61353" lon="5.63338">
        <ele>265.269989</ele>
        <time>2021-02-20T15:26:26Z</time>
      </trkpt>
      <trkpt lat="49.61348" lon="5.63338">
        <ele>265.269989</ele>
        <time>2021-02-20T15:26:31Z</time>
      </trkpt>
      <trkpt lat="49.61348" lon="5.63337">
        <ele>265.269989</ele>
        <time>2021-02-20T15:26:36Z</time>
      </trkpt>
      <trkpt lat="49.61348" lon="5.63331">
        <ele>265.269989</ele>
        <time>2021-02-20T15:26:41Z</time>
      </trkpt>
      <trkpt lat="49.6135" lon="5.63325">
        <ele>265.269989</ele>
        <time>2021-02-20T15:26:46Z</time>
      </trkpt>
      <trkpt lat="49.6135" lon="5.63322">
        <ele>265.269989</ele>
        <time>2021-02-20T15:26:50Z</time>
      </trkpt>
      <trkpt lat="49.6135" lon="5.63314">
        <ele>265.269989</ele>
        <time>2021-02-20T15:26:55Z</time>
      </trkpt>
      <trkpt lat="49.61343" lon="5.63303">
        <ele>265.269989</ele>
        <time>2021-02-20T15:26:59Z</time>
      </trkpt>
      <trkpt lat="49.61335" lon="5.63293">
        <ele>265.269989</ele>
        <time>2021-02-20T15:27:03Z</time>
      </trkpt>
      <trkpt lat="49.61329" lon="5.63282">
        <ele>265.269989</ele>
        <time>2021-02-20T15:27:05Z</time>
      </trkpt>
      <trkpt lat="49.61321" lon="5.63268">
        <ele>265.269989</ele>
        <time>2021-02-20T15:27:07Z</time>
      </trkpt>
      <trkpt lat="49.61311" lon="5.63253">
        <ele>265.269989</ele>
        <time>2021-02-20T15:27:08Z</time>
      </trkpt>
      <trkpt lat="49.61305" lon="5.63242">
        <ele>265.269989</ele>
        <time>2021-02-20T15:27:10Z</time>
      </trkpt>
      <trkpt lat="49.61297" lon="5.63223">
        <ele>265.269989</ele>
        <time>2021-02-20T15:27:13Z</time>
      </trkpt>
      <trkpt lat="49.6129" lon="5.6321">
        <ele>265.269989</ele>
        <time>2021-02-20T15:27:16Z</time>
      </trkpt>
      <trkpt lat="49.61282" lon="5.632">
        <ele>265.269989</ele>
        <time>2021-02-20T15:27:18Z</time>
      </trkpt>
      <trkpt lat="49.61272" lon="5.63192">
        <ele>265.269989</ele>
        <time>2021-02-20T15:27:21Z</time>
      </trkpt>
      <trkpt lat="49.61262" lon="5.6319">
        <ele>265.269989</ele>
        <time>2021-02-20T15:27:24Z</time>
      </trkpt>
      <trkpt lat="49.6125" lon="5.63185">
        <ele>265.269989</ele>
        <time>2021-02-20T15:27:26Z</time>
      </trkpt>
      <trkpt lat="49.61238" lon="5.63176">
        <ele>265.269989</ele>
        <time>2021-02-20T15:27:28Z</time>
      </trkpt>
      <trkpt lat="49.61227" lon="5.6317">
        <ele>265.269989</ele>
        <time>2021-02-20T15:27:30Z</time>
      </trkpt>
      <trkpt lat="49.61218" lon="5.63164">
        <ele>265.269989</ele>
        <time>2021-02-20T15:27:31Z</time>
      </trkpt>
      <trkpt lat="49.6121" lon="5.63153">
        <ele>265.269989</ele>
        <time>2021-02-20T15:27:34Z</time>
      </trkpt>
      <trkpt lat="49.61201" lon="5.63142">
        <ele>265.269989</ele>
        <time>2021-02-20T15:27:36Z</time>
      </trkpt>
      <trkpt lat="49.61192" lon="5.63134">
        <ele>265.269989</ele>
        <time>2021-02-20T15:27:38Z</time>
      </trkpt>
      <trkpt lat="49.61182" lon="5.63125">
        <ele>265.269989</ele>
        <time>2021-02-20T15:27:40Z</time>
      </trkpt>
      <trkpt lat="49.61173" lon="5.63117">
        <ele>265.269989</ele>
        <time>2021-02-20T15:27:42Z</time>
      </trkpt>
      <trkpt lat="49.6116" lon="5.6311">
        <ele>265.269989</ele>
        <time>2021-02-20T15:27:44Z</time>
      </trkpt>
      <trkpt lat="49.6115" lon="5.63107">
        <ele>265.269989</ele>
        <time>2021-02-20T15:27:46Z</time>
      </trkpt>
      <trkpt lat="49.6114" lon="5.6311">
        <ele>265.269989</ele>
        <time>2021-02-20T15:27:48Z</time>
      </trkpt>
      <trkpt lat="49.6113" lon="5.63111">
        <ele>265.269989</ele>
        <time>2021-02-20T15:27:50Z</time>
      </trkpt>
      <trkpt lat="49.61112" lon="5.63116">
        <ele>265.269989</ele>
        <time>2021-02-20T15:27:53Z</time>
      </trkpt>
      <trkpt lat="49.61101" lon="5.63117">
        <ele>265.269989</ele>
        <time>2021-02-20T15:27:55Z</time>
      </trkpt>
      <trkpt lat="49.61087" lon="5.63119">
        <ele>265.269989</ele>
        <time>2021-02-20T15:27:58Z</time>
      </trkpt>
      <trkpt lat="49.61075" lon="5.63119">
        <ele>265.269989</ele>
        <time>2021-02-20T15:28:00Z</time>
      </trkpt>
      <trkpt lat="49.61066" lon="5.63124">
        <ele>265.269989</ele>
        <time>2021-02-20T15:28:02Z</time>
      </trkpt>
      <trkpt lat="49.61055" lon="5.63124">
        <ele>265.269989</ele>
        <time>2021-02-20T15:28:04Z</time>
      </trkpt>
      <trkpt lat="49.61044" lon="5.63123">
        <ele>265.269989</ele>
        <time>2021-02-20T15:28:07Z</time>
      </trkpt>
      <trkpt lat="49.61033" lon="5.63125">
        <ele>265.269989</ele>
        <time>2021-02-20T15:28:09Z</time>
      </trkpt>
      <trkpt lat="49.61023" lon="5.63122">
        <ele>265.269989</ele>
        <time>2021-02-20T15:28:10Z</time>
      </trkpt>
      <trkpt lat="49.61011" lon="5.63122">
        <ele>265.269989</ele>
        <time>2021-02-20T15:28:13Z</time>
      </trkpt>
      <trkpt lat="49.61" lon="5.63123">
        <ele>265.269989</ele>
        <time>2021-02-20T15:28:16Z</time>
      </trkpt>
      <trkpt lat="49.6099" lon="5.63119">
        <ele>265.269989</ele>
        <time>2021-02-20T15:28:17Z</time>
      </trkpt>
      <trkpt lat="49.60978" lon="5.63112">
        <ele>265.269989</ele>
        <time>2021-02-20T15:28:19Z</time>
      </trkpt>
      <trkpt lat="49.60969" lon="5.63104">
        <ele>265.269989</ele>
        <time>2021-02-20T15:28:21Z</time>
      </trkpt>
      <trkpt lat="49.60956" lon="5.63093">
        <ele>265.269989</ele>
        <time>2021-02-20T15:28:23Z</time>
      </trkpt>
      <trkpt lat="49.60946" lon="5.63084">
        <ele>265.269989</ele>
        <time>2021-02-20T15:28:25Z</time>
      </trkpt>
      <trkpt lat="49.60935" lon="5.63071">
        <ele>265.269989</ele>
        <time>2021-02-20T15:28:27Z</time>
      </trkpt>
      <trkpt lat="49.60926" lon="5.63064">
        <ele>265.269989</ele>
        <time>2021-02-20T15:28:28Z</time>
      </trkpt>
      <trkpt lat="49.60914" lon="5.63057">
        <ele>265.269989</ele>
        <time>2021-02-20T15:28:31Z</time>
      </trkpt>
      <trkpt lat="49.60904" lon="5.63051">
        <ele>265.269989</ele>
        <time>2021-02-20T15:28:33Z</time>
      </trkpt>
      <trkpt lat="49.60893" lon="5.63051">
        <ele>265.269989</ele>
        <time>2021-02-20T15:28:35Z</time>
      </trkpt>
      <trkpt lat="49.60883" lon="5.63051">
        <ele>265.279999</ele>
        <time>2021-02-20T15:28:37Z</time>
      </trkpt>
      <trkpt lat="49.60874" lon="5.63052">
        <ele>265.279999</ele>
        <time>2021-02-20T15:28:39Z</time>
      </trkpt>
      <trkpt lat="49.60863" lon="5.63051">
        <ele>265.279999</ele>
        <time>2021-02-20T15:28:42Z</time>
      </trkpt>
      <trkpt lat="49.60851" lon="5.63046">
        <ele>265.279999</ele>
        <time>2021-02-20T15:28:45Z</time>
      </trkpt>
      <trkpt lat="49.60839" lon="5.63041">
        <ele>265.279999</ele>
        <time>2021-02-20T15:28:48Z</time>
      </trkpt>
      <trkpt lat="49.60827" lon="5.63034">
        <ele>265.279999</ele>
        <time>2021-02-20T15:28:51Z</time>
      </trkpt>
      <trkpt lat="49.60819" lon="5.63029">
        <ele>265.279999</ele>
        <time>2021-02-20T15:28:53Z</time>
      </trkpt>
      <trkpt lat="49.6081" lon="5.63025">
        <ele>265.279999</ele>
        <time>2021-02-20T15:28:55Z</time>
      </trkpt>
      <trkpt lat="49.60801" lon="5.63017">
        <ele>265.279999</ele>
        <time>2021-02-20T15:28:58Z</time>
      </trkpt>
      <trkpt lat="49.60796" lon="5.63005">
        <ele>265.279999</ele>
        <time>2021-02-20T15:29:01Z</time>
      </trkpt>
      <trkpt lat="49.6079" lon="5.62994">
        <ele>265.279999</ele>
        <time>2021-02-20T15:29:05Z</time>
      </trkpt>
      <trkpt lat="49.60785" lon="5.62983">
        <ele>265.279999</ele>
        <time>2021-02-20T15:29:10Z</time>
      </trkpt>
      <trkpt lat="49.60779" lon="5.6297">
        <ele>265.279999</ele>
        <time>2021-02-20T15:29:15Z</time>
      </trkpt>
      <trkpt lat="49.60771" lon="5.62955">
        <ele>265.279999</ele>
        <time>2021-02-20T15:29:19Z</time>
      </trkpt>
      <trkpt lat="49.60765" lon="5.62936">
        <ele>265.279999</ele>
        <time>2021-02-20T15:29:24Z</time>
      </trkpt>
      <trkpt lat="49.60759" lon="5.62924">
        <ele>265.279999</ele>
        <time>2021-02-20T15:29:26Z</time>
      </trkpt>
      <trkpt lat="49.60752" lon="5.62913">
        <ele>265.279999</ele>
        <time>2021-02-20T15:29:29Z</time>
      </trkpt>
      <trkpt lat="49.60748" lon="5.62897">
        <ele>265.279999</ele>
        <time>2021-02-20T15:29:31Z</time>
      </trkpt>
      <trkpt lat="49.60745" lon="5.62884">
        <ele>265.279999</ele>
        <time>2021-02-20T15:29:33Z</time>
      </trkpt>
      <trkpt lat="49.60739" lon="5.62871">
        <ele>265.279999</ele>
        <time>2021-02-20T15:29:36Z</time>
      </trkpt>
      <trkpt lat="49.60735" lon="5.62851">
        <ele>265.279999</ele>
        <time>2021-02-20T15:29:38Z</time>
      </trkpt>
      <trkpt lat="49.60728" lon="5.62838">
        <ele>265.279999</ele>
        <time>2021-02-20T15:29:41Z</time>
      </trkpt>
      <trkpt lat="49.60722" lon="5.62828">
        <ele>265.279999</ele>
        <time>2021-02-20T15:29:43Z</time>
      </trkpt>
      <trkpt lat="49.60715" lon="5.62816">
        <ele>265.279999</ele>
        <time>2021-02-20T15:29:46Z</time>
      </trkpt>
      <trkpt lat="49.60707" lon="5.62808">
        <ele>265.279999</ele>
        <time>2021-02-20T15:29:49Z</time>
      </trkpt>
      <trkpt lat="49.60699" lon="5.62794">
        <ele>265.279999</ele>
        <time>2021-02-20T15:29:51Z</time>
      </trkpt>
      <trkpt lat="49.6069" lon="5.62781">
        <ele>265.279999</ele>
        <time>2021-02-20T15:29:53Z</time>
      </trkpt>
      <trkpt lat="49.60682" lon="5.62762">
        <ele>265.279999</ele>
        <time>2021-02-20T15:29:56Z</time>
      </trkpt>
      <trkpt lat="49.60674" lon="5.62749">
        <ele>265.279999</ele>
        <time>2021-02-20T15:29:58Z</time>
      </trkpt>
      <trkpt lat="49.60664" lon="5.62737">
        <ele>265.279999</ele>
        <time>2021-02-20T15:30:01Z</time>
      </trkpt>
      <trkpt lat="49.60656" lon="5.62726">
        <ele>265.279999</ele>
        <time>2021-02-20T15:30:03Z</time>
      </trkpt>
      <trkpt lat="49.60646" lon="5.62716">
        <ele>265.279999</ele>
        <time>2021-02-20T15:30:06Z</time>
      </trkpt>
      <trkpt lat="49.60638" lon="5.62706">
        <ele>265.279999</ele>
        <time>2021-02-20T15:30:09Z</time>
      </trkpt>
      <trkpt lat="49.60631" lon="5.62696">
        <ele>265.279999</ele>
        <time>2021-02-20T15:30:11Z</time>
      </trkpt>
      <trkpt lat="49.60622" lon="5.62688">
        <ele>265.279999</ele>
        <time>2021-02-20T15:30:14Z</time>
      </trkpt>
      <trkpt lat="49.60614" lon="5.62683">
        <ele>265.279999</ele>
        <time>2021-02-20T15:30:18Z</time>
      </trkpt>
      <trkpt lat="49.60608" lon="5.6267">
        <ele>265.279999</ele>
        <time>2021-02-20T15:30:23Z</time>
      </trkpt>
      <trkpt lat="49.60616" lon="5.62662">
        <ele>265.279999</ele>
        <time>2021-02-20T15:30:26Z</time>
      </trkpt>
      <trkpt lat="49.60613" lon="5.62666">
        <ele>265.279999</ele>
        <time>2021-02-20T15:30:31Z</time>
      </trkpt>
      <trkpt lat="49.6061" lon="5.62667">
        <ele>265.279999</ele>
        <time>2021-02-20T15:30:35Z</time>
      </trkpt>
      <trkpt lat="49.60609" lon="5.62665">
        <ele>265.279999</ele>
        <time>2021-02-20T15:30:40Z</time>
      </trkpt>
      <trkpt lat="49.60608" lon="5.62665">
        <ele>265.279999</ele>
        <time>2021-02-20T15:30:45Z</time>
      </trkpt>
      <trkpt lat="49.60608" lon="5.62665">
        <ele>265.279999</ele>
        <time>2021-02-20T15:30:50Z</time>
      </trkpt>
      <trkpt lat="49.60606" lon="5.62666">
        <ele>265.279999</ele>
        <time>2021-02-20T15:30:55Z</time>
      </trkpt>
      <trkpt lat="49.60606" lon="5.62666">
        <ele>265.279999</ele>
        <time>2021-02-20T15:31:00Z</time>
      </trkpt>
      <trkpt lat="49.60606" lon="5.62666">
        <ele>265.279999</ele>
        <time>2021-02-20T15:31:05Z</time>
      </trkpt>
      <trkpt lat="49.60606" lon="5.62666">
        <ele>265.279999</ele>
        <time>2021-02-20T15:31:10Z</time>
      </trkpt>
      <trkpt lat="49.60606" lon="5.62666">
        <ele>265.279999</ele>
        <time>2021-02-20T15:31:15Z</time>
      </trkpt>
      <trkpt lat="49.60606" lon="5.62666">
        <ele>265.279999</ele>
        <time>2021-02-20T15:31:20Z</time>
      </trkpt>
      <trkpt lat="49.60606" lon="5.62666">
        <ele>265.279999</ele>
        <time>2021-02-20T15:31:25Z</time>
      </trkpt>
      <trkpt lat="49.60606" lon="5.62666">
        <ele>265.279999</ele>
        <time>2021-02-20T15:31:30Z</time>
      </trkpt>
      <trkpt lat="49.60606" lon="5.62666">
        <ele>265.279999</ele>
        <time>2021-02-20T15:31:35Z</time>
      </trkpt>
      <trkpt lat="49.60607" lon="5.62668">
        <ele>265.279999</ele>
        <time>2021-02-20T15:31:40Z</time>
      </trkpt>
      <trkpt lat="49.60603" lon="5.62674">
        <ele>265.279999</ele>
        <time>2021-02-20T15:31:45Z</time>
      </trkpt>
      <trkpt lat="49.60602" lon="5.62682">
        <ele>265.279999</ele>
        <time>2021-02-20T15:31:49Z</time>
      </trkpt>
      <trkpt lat="49.606" lon="5.62697">
        <ele>265.279999</ele>
        <time>2021-02-20T15:31:52Z</time>
      </trkpt>
      <trkpt lat="49.60598" lon="5.62712">
        <ele>265.279999</ele>
        <time>2021-02-20T15:31:56Z</time>
      </trkpt>
      <trkpt lat="49.60595" lon="5.62734">
        <ele>265.279999</ele>
        <time>2021-02-20T15:31:58Z</time>
      </trkpt>
      <trkpt lat="49.60589" lon="5.62756">
        <ele>265.279999</ele>
        <time>2021-02-20T15:32:00Z</time>
      </trkpt>
      <trkpt lat="49.60585" lon="5.62781">
        <ele>265.279999</ele>
        <time>2021-02-20T15:32:02Z</time>
      </trkpt>
      <trkpt lat="49.60583" lon="5.62799">
        <ele>265.279999</ele>
        <time>2021-02-20T15:32:03Z</time>
      </trkpt>
      <trkpt lat="49.6058" lon="5.62812">
        <ele>265.279999</ele>
        <time>2021-02-20T15:32:04Z</time>
      </trkpt>
      <trkpt lat="49.60571" lon="5.62819">
        <ele>265.279999</ele>
        <time>2021-02-20T15:32:09Z</time>
      </trkpt>
      <trkpt lat="49.60576" lon="5.62825">
        <ele>265.279999</ele>
        <time>2021-02-20T15:32:14Z</time>
      </trkpt>
      <trkpt lat="49.60576" lon="5.62828">
        <ele>265.279999</ele>
        <time>2021-02-20T15:32:19Z</time>
      </trkpt>
      <trkpt lat="49.60575" lon="5.62833">
        <ele>265.279999</ele>
        <time>2021-02-20T15:32:24Z</time>
      </trkpt>
      <trkpt lat="49.60572" lon="5.62837">
        <ele>265.279999</ele>
        <time>2021-02-20T15:32:28Z</time>
      </trkpt>
      <trkpt lat="49.60571" lon="5.62839">
        <ele>265.279999</ele>
        <time>2021-02-20T15:32:33Z</time>
      </trkpt>
      <trkpt lat="49.60571" lon="5.62842">
        <ele>265.279999</ele>
        <time>2021-02-20T15:32:38Z</time>
      </trkpt>
      <trkpt lat="49.6057" lon="5.62843">
        <ele>265.279999</ele>
        <time>2021-02-20T15:32:43Z</time>
      </trkpt>
      <trkpt lat="49.6057" lon="5.62843">
        <ele>265.279999</ele>
        <time>2021-02-20T15:32:48Z</time>
      </trkpt>
      <trkpt lat="49.60571" lon="5.62844">
        <ele>265.279999</ele>
        <time>2021-02-20T15:32:53Z</time>
      </trkpt>
      <trkpt lat="49.60569" lon="5.62846">
        <ele>265.279999</ele>
        <time>2021-02-20T15:32:58Z</time>
      </trkpt>
      <trkpt lat="49.60571" lon="5.62848">
        <ele>265.279999</ele>
        <time>2021-02-20T15:33:03Z</time>
      </trkpt>
      <trkpt lat="49.6057" lon="5.62849">
        <ele>265.279999</ele>
        <time>2021-02-20T15:33:08Z</time>
      </trkpt>
      <trkpt lat="49.60562" lon="5.62857">
        <ele>265.279999</ele>
        <time>2021-02-20T15:33:11Z</time>
      </trkpt>
      <trkpt lat="49.60556" lon="5.62873">
        <ele>265.279999</ele>
        <time>2021-02-20T15:33:14Z</time>
      </trkpt>
      <trkpt lat="49.60548" lon="5.62888">
        <ele>265.279999</ele>
        <time>2021-02-20T15:33:17Z</time>
      </trkpt>
      <trkpt lat="49.60538" lon="5.62899">
        <ele>265.279999</ele>
        <time>2021-02-20T15:33:20Z</time>
      </trkpt>
      <trkpt lat="49.60531" lon="5.62913">
        <ele>265.279999</ele>
        <time>2021-02-20T15:33:23Z</time>
      </trkpt>
      <trkpt lat="49.60524" lon="5.62926">
        <ele>265.279999</ele>
        <time>2021-02-20T15:33:25Z</time>
      </trkpt>
      <trkpt lat="49.60518" lon="5.62938">
        <ele>265.279999</ele>
        <time>2021-02-20T15:33:27Z</time>
      </trkpt>
      <trkpt lat="49.6051" lon="5.62954">
        <ele>265.279999</ele>
        <time>2021-02-20T15:33:29Z</time>
      </trkpt>
      <trkpt lat="49.60499" lon="5.62967">
        <ele>265.279999</ele>
        <time>2021-02-20T15:33:31Z</time>
      </trkpt>
      <trkpt lat="49.6049" lon="5.62981">
        <ele>265.279999</ele>
        <time>2021-02-20T15:33:33Z</time>
      </trkpt>
      <trkpt lat="49.60484" lon="5.63006">
        <ele>265.279999</ele>
        <time>2021-02-20T15:33:35Z</time>
      </trkpt>
      <trkpt lat="49.60476" lon="5.63027">
        <ele>265.279999</ele>
        <time>2021-02-20T15:33:37Z</time>
      </trkpt>
      <trkpt lat="49.60466" lon="5.63046">
        <ele>265.279999</ele>
        <time>2021-02-20T15:33:39Z</time>
      </trkpt>
      <trkpt lat="49.60457" lon="5.6306">
        <ele>265.279999</ele>
        <time>2021-02-20T15:33:41Z</time>
      </trkpt>
      <trkpt lat="49.6045" lon="5.63072">
        <ele>265.279999</ele>
        <time>2021-02-20T15:33:44Z</time>
      </trkpt>
      <trkpt lat="49.60441" lon="5.63082">
        <ele>265.279999</ele>
        <time>2021-02-20T15:33:46Z</time>
      </trkpt>
      <trkpt lat="49.60434" lon="5.63094">
        <ele>265.279999</ele>
        <time>2021-02-20T15:33:49Z</time>
      </trkpt>
      <trkpt lat="49.60428" lon="5.63107">
        <ele>265.279999</ele>
        <time>2021-02-20T15:33:51Z</time>
      </trkpt>
      <trkpt lat="49.60417" lon="5.63125">
        <ele>265.279999</ele>
        <time>2021-02-20T15:33:53Z</time>
      </trkpt>
      <trkpt lat="49.60407" lon="5.63141">
        <ele>265.279999</ele>
        <time>2021-02-20T15:33:55Z</time>
      </trkpt>
      <trkpt lat="49.60395" lon="5.63151">
        <ele>265.279999</ele>
        <time>2021-02-20T15:33:57Z</time>
      </trkpt>
      <trkpt lat="49.60383" lon="5.63159">
        <ele>265.279999</ele>
        <time>2021-02-20T15:33:59Z</time>
      </trkpt>
      <trkpt lat="49.60366" lon="5.6317">
        <ele>265.279999</ele>
        <time>2021-02-20T15:34:01Z</time>
      </trkpt>
      <trkpt lat="49.60351" lon="5.63179">
        <ele>265.279999</ele>
        <time>2021-02-20T15:34:03Z</time>
      </trkpt>
      <trkpt lat="49.60338" lon="5.63186">
        <ele>265.279999</ele>
        <time>2021-02-20T15:34:05Z</time>
      </trkpt>
      <trkpt lat="49.60329" lon="5.63192">
        <ele>265.279999</ele>
        <time>2021-02-20T15:34:06Z</time>
      </trkpt>
      <trkpt lat="49.60321" lon="5.63198">
        <ele>265.279999</ele>
        <time>2021-02-20T15:34:09Z</time>
      </trkpt>
      <trkpt lat="49.60315" lon="5.63209">
        <ele>265.279999</ele>
        <time>2021-02-20T15:34:13Z</time>
      </trkpt>
      <trkpt lat="49.60307" lon="5.63217">
        <ele>265.279999</ele>
        <time>2021-02-20T15:34:18Z</time>
      </trkpt>
      <trkpt lat="49.60297" lon="5.63218">
        <ele>265.279999</ele>
        <time>2021-02-20T15:34:22Z</time>
      </trkpt>
      <trkpt lat="49.60288" lon="5.63223">
        <ele>265.279999</ele>
        <time>2021-02-20T15:34:26Z</time>
      </trkpt>
      <trkpt lat="49.60279" lon="5.63227">
        <ele>265.279999</ele>
        <time>2021-02-20T15:34:29Z</time>
      </trkpt>
      <trkpt lat="49.60267" lon="5.63231">
        <ele>265.279999</ele>
        <time>2021-02-20T15:34:33Z</time>
      </trkpt>
      <trkpt lat="49.60259" lon="5.6324">
        <ele>265.279999</ele>
        <time>2021-02-20T15:34:37Z</time>
      </trkpt>
      <trkpt lat="49.60251" lon="5.63249">
        <ele>265.279999</ele>
        <time>2021-02-20T15:34:41Z</time>
      </trkpt>
      <trkpt lat="49.60243" lon="5.63258">
        <ele>265.279999</ele>
        <time>2021-02-20T15:34:45Z</time>
      </trkpt>
      <trkpt lat="49.60235" lon="5.63269">
        <ele>265.279999</ele>
        <time>2021-02-20T15:34:50Z</time>
      </trkpt>
      <trkpt lat="49.60226" lon="5.63275">
        <ele>265.279999</ele>
        <time>2021-02-20T15:34:54Z</time>
      </trkpt>
      <trkpt lat="49.60216" lon="5.6328">
        <ele>265.279999</ele>
        <time>2021-02-20T15:34:59Z</time>
      </trkpt>
      <trkpt lat="49.60207" lon="5.63283">
        <ele>265.279999</ele>
        <time>2021-02-20T15:35:03Z</time>
      </trkpt>
      <trkpt lat="49.60198" lon="5.63283">
        <ele>265.279999</ele>
        <time>2021-02-20T15:35:08Z</time>
      </trkpt>
      <trkpt lat="49.60191" lon="5.63284">
        <ele>265.279999</ele>
        <time>2021-02-20T15:35:13Z</time>
      </trkpt>
      <trkpt lat="49.60184" lon="5.63283">
        <ele>265.279999</ele>
        <time>2021-02-20T15:35:17Z</time>
      </trkpt>
      <trkpt lat="49.60175" lon="5.63285">
        <ele>265.279999</ele>
        <time>2021-02-20T15:35:22Z</time>
      </trkpt>
      <trkpt lat="49.60169" lon="5.63282">
        <ele>265.279999</ele>
        <time>2021-02-20T15:35:27Z</time>
      </trkpt>
      <trkpt lat="49.60164" lon="5.63278">
        <ele>265.279999</ele>
        <time>2021-02-20T15:35:32Z</time>
      </trkpt>
      <trkpt lat="49.60159" lon="5.63268">
        <ele>265.279999</ele>
        <time>2021-02-20T15:35:37Z</time>
      </trkpt>
      <trkpt lat="49.60152" lon="5.63258">
        <ele>265.279999</ele>
        <time>2021-02-20T15:35:42Z</time>
      </trkpt>
      <trkpt lat="49.60146" lon="5.63255">
        <ele>265.279999</ele>
        <time>2021-02-20T15:35:47Z</time>
      </trkpt>
      <trkpt lat="49.60141" lon="5.63253">
        <ele>265.279999</ele>
        <time>2021-02-20T15:35:52Z</time>
      </trkpt>
      <trkpt lat="49.60135" lon="5.6325">
        <ele>265.279999</ele>
        <time>2021-02-20T15:35:57Z</time>
      </trkpt>
      <trkpt lat="49.60124" lon="5.63244">
        <ele>265.279999</ele>
        <time>2021-02-20T15:36:02Z</time>
      </trkpt>
      <trkpt lat="49.60115" lon="5.63241">
        <ele>265.279999</ele>
        <time>2021-02-20T15:36:07Z</time>
      </trkpt>
      <trkpt lat="49.60107" lon="5.63234">
        <ele>265.279999</ele>
        <time>2021-02-20T15:36:11Z</time>
      </trkpt>
      <trkpt lat="49.60098" lon="5.63226">
        <ele>265.279999</ele>
        <time>2021-02-20T15:36:14Z</time>
      </trkpt>
      <trkpt lat="49.60092" lon="5.63217">
        <ele>265.279999</ele>
        <time>2021-02-20T15:36:19Z</time>
      </trkpt>
      <trkpt lat="49.60081" lon="5.63211">
        <ele>265.279999</ele>
        <time>2021-02-20T15:36:22Z</time>
      </trkpt>
      <trkpt lat="49.60072" lon="5.63207">
        <ele>265.279999</ele>
        <time>2021-02-20T15:36:26Z</time>
      </trkpt>
      <trkpt lat="49.60065" lon="5.63198">
        <ele>265.279999</ele>
        <time>2021-02-20T15:36:29Z</time>
      </trkpt>
      <trkpt lat="49.60056" lon="5.63184">
        <ele>265.279999</ele>
        <time>2021-02-20T15:36:32Z</time>
      </trkpt>
      <trkpt lat="49.60048" lon="5.6318">
        <ele>265.279999</ele>
        <time>2021-02-20T15:36:35Z</time>
      </trkpt>
      <trkpt lat="49.60037" lon="5.63175">
        <ele>265.279999</ele>
        <time>2021-02-20T15:36:39Z</time>
      </trkpt>
      <trkpt lat="49.60027" lon="5.63167">
        <ele>265.279999</ele>
        <time>2021-02-20T15:36:42Z</time>
      </trkpt>
      <trkpt lat="49.60017" lon="5.6316">
        <ele>265.279999</ele>
        <time>2021-02-20T15:36:45Z</time>
      </trkpt>
      <trkpt lat="49.60008" lon="5.63152">
        <ele>265.279999</ele>
        <time>2021-02-20T15:36:47Z</time>
      </trkpt>
      <trkpt lat="49.59996" lon="5.63146">
        <ele>265.279999</ele>
        <time>2021-02-20T15:36:50Z</time>
      </trkpt>
      <trkpt lat="49.59984" lon="5.63141">
        <ele>265.279999</ele>
        <time>2021-02-20T15:36:53Z</time>
      </trkpt>
      <trkpt lat="49.59973" lon="5.63136">
        <ele>265.279999</ele>
        <time>2021-02-20T15:36:57Z</time>
      </trkpt>
      <trkpt lat="49.59961" lon="5.63132">
        <ele>265.279999</ele>
        <time>2021-02-20T15:37:01Z</time>
      </trkpt>
      <trkpt lat="49.59952" lon="5.63126">
        <ele>265.279999</ele>
        <time>2021-02-20T15:37:03Z</time>
      </trkpt>
      <trkpt lat="49.59943" lon="5.63125">
        <ele>265.279999</ele>
        <time>2021-02-20T15:37:06Z</time>
      </trkpt>
      <trkpt lat="49.59935" lon="5.63121">
        <ele>265.279999</ele>
        <time>2021-02-20T15:37:10Z</time>
      </trkpt>
      <trkpt lat="49.59926" lon="5.63115">
        <ele>265.279999</ele>
        <time>2021-02-20T15:37:14Z</time>
      </trkpt>
      <trkpt lat="49.59916" lon="5.63108">
        <ele>265.279999</ele>
        <time>2021-02-20T15:37:16Z</time>
      </trkpt>
      <trkpt lat="49.59903" lon="5.63098">
        <ele>265.279999</ele>
        <time>2021-02-20T15:37:18Z</time>
      </trkpt>
      <trkpt lat="49.59893" lon="5.6309">
        <ele>265.279999</ele>
        <time>2021-02-20T15:37:20Z</time>
      </trkpt>
      <trkpt lat="49.59881" lon="5.63085">
        <ele>265.279999</ele>
        <time>2021-02-20T15:37:22Z</time>
      </trkpt>
      <trkpt lat="49.59868" lon="5.6308">
        <ele>265.279999</ele>
        <time>2021-02-20T15:37:24Z</time>
      </trkpt>
      <trkpt lat="49.59856" lon="5.63075">
        <ele>265.279999</ele>
        <time>2021-02-20T15:37:26Z</time>
      </trkpt>
      <trkpt lat="49.59845" lon="5.63068">
        <ele>265.279999</ele>
        <time>2021-02-20T15:37:28Z</time>
      </trkpt>
      <trkpt lat="49.59834" lon="5.63063">
        <ele>265.279999</ele>
        <time>2021-02-20T15:37:30Z</time>
      </trkpt>
      <trkpt lat="49.59825" lon="5.63052">
        <ele>265.279999</ele>
        <time>2021-02-20T15:37:33Z</time>
      </trkpt>
      <trkpt lat="49.59811" lon="5.63054">
        <ele>265.279999</ele>
        <time>2021-02-20T15:37:34Z</time>
      </trkpt>
      <trkpt lat="49.59801" lon="5.63055">
        <ele>265.279999</ele>
        <time>2021-02-20T15:37:35Z</time>
      </trkpt>
      <trkpt lat="49.59785" lon="5.63059">
        <ele>265.279999</ele>
        <time>2021-02-20T15:37:37Z</time>
      </trkpt>
      <trkpt lat="49.59772" lon="5.63064">
        <ele>265.279999</ele>
        <time>2021-02-20T15:37:39Z</time>
      </trkpt>
      <trkpt lat="49.59759" lon="5.63072">
        <ele>265.279999</ele>
        <time>2021-02-20T15:37:41Z</time>
      </trkpt>
      <trkpt lat="49.59744" lon="5.63079">
        <ele>265.279999</ele>
        <time>2021-02-20T15:37:43Z</time>
      </trkpt>
      <trkpt lat="49.59729" lon="5.63089">
        <ele>265.279999</ele>
        <time>2021-02-20T15:37:45Z</time>
      </trkpt>
      <trkpt lat="49.59721" lon="5.63095">
        <ele>265.279999</ele>
        <time>2021-02-20T15:37:46Z</time>
      </trkpt>
      <trkpt lat="49.59711" lon="5.63102">
        <ele>265.279999</ele>
        <time>2021-02-20T15:37:47Z</time>
      </trkpt>
      <trkpt lat="49.59702" lon="5.63111">
        <ele>265.279999</ele>
        <time>2021-02-20T15:37:48Z</time>
      </trkpt>
      <trkpt lat="49.59692" lon="5.63118">
        <ele>265.279999</ele>
        <time>2021-02-20T15:37:49Z</time>
      </trkpt>
      <trkpt lat="49.59684" lon="5.63125">
        <ele>265.279999</ele>
        <time>2021-02-20T15:37:50Z</time>
      </trkpt>
      <trkpt lat="49.59669" lon="5.63133">
        <ele>265.279999</ele>
        <time>2021-02-20T15:37:52Z</time>
      </trkpt>
      <trkpt lat="49.59656" lon="5.63136">
        <ele>265.279999</ele>
        <time>2021-02-20T15:37:54Z</time>
      </trkpt>
      <trkpt lat="49.59646" lon="5.63137">
        <ele>265.279999</ele>
        <time>2021-02-20T15:37:56Z</time>
      </trkpt>
      <trkpt lat="49.59638" lon="5.63142">
        <ele>265.279999</ele>
        <time>2021-02-20T15:38:00Z</time>
      </trkpt>
      <trkpt lat="49.59627" lon="5.63144">
        <ele>265.279999</ele>
        <time>2021-02-20T15:38:02Z</time>
      </trkpt>
      <trkpt lat="49.59617" lon="5.63146">
        <ele>265.279999</ele>
        <time>2021-02-20T15:38:05Z</time>
      </trkpt>
      <trkpt lat="49.59603" lon="5.63151">
        <ele>265.279999</ele>
        <time>2021-02-20T15:38:08Z</time>
      </trkpt>
      <trkpt lat="49.59594" lon="5.63153">
        <ele>265.279999</ele>
        <time>2021-02-20T15:38:10Z</time>
      </trkpt>
      <trkpt lat="49.59586" lon="5.6316">
        <ele>265.279999</ele>
        <time>2021-02-20T15:38:13Z</time>
      </trkpt>
      <trkpt lat="49.59576" lon="5.63165">
        <ele>265.279999</ele>
        <time>2021-02-20T15:38:17Z</time>
      </trkpt>
      <trkpt lat="49.59564" lon="5.63163">
        <ele>265.279999</ele>
        <time>2021-02-20T15:38:21Z</time>
      </trkpt>
      <trkpt lat="49.59546" lon="5.63162">
        <ele>265.279999</ele>
        <time>2021-02-20T15:38:23Z</time>
      </trkpt>
      <trkpt lat="49.59534" lon="5.63165">
        <ele>265.279999</ele>
        <time>2021-02-20T15:38:25Z</time>
      </trkpt>
      <trkpt lat="49.59521" lon="5.63164">
        <ele>265.279999</ele>
        <time>2021-02-20T15:38:28Z</time>
      </trkpt>
      <trkpt lat="49.59512" lon="5.63162">
        <ele>265.279999</ele>
        <time>2021-02-20T15:38:32Z</time>
      </trkpt>
      <trkpt lat="49.59508" lon="5.63157">
        <ele>265.279999</ele>
        <time>2021-02-20T15:38:36Z</time>
      </trkpt>
      <trkpt lat="49.59513" lon="5.63157">
        <ele>265.279999</ele>
        <time>2021-02-20T15:38:40Z</time>
      </trkpt>
      <trkpt lat="49.59517" lon="5.63151">
        <ele>265.279999</ele>
        <time>2021-02-20T15:38:45Z</time>
      </trkpt>
      <trkpt lat="49.59522" lon="5.63144">
        <ele>265.279999</ele>
        <time>2021-02-20T15:38:50Z</time>
      </trkpt>
      <trkpt lat="49.59525" lon="5.63136">
        <ele>265.279999</ele>
        <time>2021-02-20T15:38:54Z</time>
      </trkpt>
      <trkpt lat="49.59526" lon="5.63135">
        <ele>265.279999</ele>
        <time>2021-02-20T15:38:59Z</time>
      </trkpt>
      <trkpt lat="49.59527" lon="5.63133">
        <ele>265.279999</ele>
        <time>2021-02-20T15:39:04Z</time>
      </trkpt>
      <trkpt lat="49.59528" lon="5.63132">
        <ele>265.279999</ele>
        <time>2021-02-20T15:39:09Z</time>
      </trkpt>
      <trkpt lat="49.5953" lon="5.63131">
        <ele>265.279999</ele>
        <time>2021-02-20T15:39:14Z</time>
      </trkpt>
      <trkpt lat="49.59531" lon="5.63132">
        <ele>265.279999</ele>
        <time>2021-02-20T15:39:19Z</time>
      </trkpt>
      <trkpt lat="49.59531" lon="5.63132">
        <ele>265.279999</ele>
        <time>2021-02-20T15:39:24Z</time>
      </trkpt>
      <trkpt lat="49.59532" lon="5.63131">
        <ele>265.279999</ele>
        <time>2021-02-20T15:39:29Z</time>
      </trkpt>
      <trkpt lat="49.59538" lon="5.63119">
        <ele>265.279999</ele>
        <time>2021-02-20T15:39:34Z</time>
      </trkpt>
      <trkpt lat="49.59544" lon="5.63106">
        <ele>265.279999</ele>
        <time>2021-02-20T15:39:38Z</time>
      </trkpt>
      <trkpt lat="49.59549" lon="5.63099">
        <ele>265.279999</ele>
        <time>2021-02-20T15:39:42Z</time>
      </trkpt>
      <trkpt lat="49.59557" lon="5.63094">
        <ele>265.279999</ele>
        <time>2021-02-20T15:39:47Z</time>
      </trkpt>
      <trkpt lat="49.59566" lon="5.63086">
        <ele>265.279999</ele>
        <time>2021-02-20T15:39:51Z</time>
      </trkpt>
      <trkpt lat="49.59572" lon="5.63077">
        <ele>265.279999</ele>
        <time>2021-02-20T15:39:55Z</time>
      </trkpt>
      <trkpt lat="49.59578" lon="5.63067">
        <ele>265.279999</ele>
        <time>2021-02-20T15:40:00Z</time>
      </trkpt>
      <trkpt lat="49.59586" lon="5.63057">
        <ele>265.279999</ele>
        <time>2021-02-20T15:40:03Z</time>
      </trkpt>
      <trkpt lat="49.59592" lon="5.63045">
        <ele>265.279999</ele>
        <time>2021-02-20T15:40:07Z</time>
      </trkpt>
      <trkpt lat="49.59594" lon="5.63036">
        <ele>265.279999</ele>
        <time>2021-02-20T15:40:11Z</time>
      </trkpt>
      <trkpt lat="49.59598" lon="5.63026">
        <ele>265.279999</ele>
        <time>2021-02-20T15:40:16Z</time>
      </trkpt>
      <trkpt lat="49.59601" lon="5.63011">
        <ele>265.279999</ele>
        <time>2021-02-20T15:40:19Z</time>
      </trkpt>
      <trkpt lat="49.59607" lon="5.62997">
        <ele>265.279999</ele>
        <time>2021-02-20T15:40:22Z</time>
      </trkpt>
      <trkpt lat="49.59612" lon="5.62984">
        <ele>265.279999</ele>
        <time>2021-02-20T15:40:25Z</time>
      </trkpt>
      <trkpt lat="49.59617" lon="5.6297">
        <ele>265.279999</ele>
        <time>2021-02-20T15:40:30Z</time>
      </trkpt>
      <trkpt lat="49.59622" lon="5.6296">
        <ele>265.279999</ele>
        <time>2021-02-20T15:40:34Z</time>
      </trkpt>
      <trkpt lat="49.59626" lon="5.62946">
        <ele>265.279999</ele>
        <time>2021-02-20T15:40:37Z</time>
      </trkpt>
      <trkpt lat="49.59632" lon="5.62934">
        <ele>265.279999</ele>
        <time>2021-02-20T15:40:41Z</time>
      </trkpt>
      <trkpt lat="49.59636" lon="5.62919">
        <ele>265.279999</ele>
        <time>2021-02-20T15:40:45Z</time>
      </trkpt>
      <trkpt lat="49.59641" lon="5.62906">
        <ele>265.279999</ele>
        <time>2021-02-20T15:40:48Z</time>
      </trkpt>
      <trkpt lat="49.59645" lon="5.62893">
        <ele>265.279999</ele>
        <time>2021-02-20T15:40:52Z</time>
      </trkpt>
      <trkpt lat="49.59649" lon="5.6288">
        <ele>265.279999</ele>
        <time>2021-02-20T15:40:57Z</time>
      </trkpt>
      <trkpt lat="49.59654" lon="5.62867">
        <ele>265.279999</ele>
        <time>2021-02-20T15:40:59Z</time>
      </trkpt>
      <trkpt lat="49.59658" lon="5.6285">
        <ele>265.279999</ele>
        <time>2021-02-20T15:41:04Z</time>
      </trkpt>
      <trkpt lat="49.5966" lon="5.62833">
        <ele>265.279999</ele>
        <time>2021-02-20T15:41:09Z</time>
      </trkpt>
      <trkpt lat="49.59662" lon="5.6282">
        <ele>265.279999</ele>
        <time>2021-02-20T15:41:14Z</time>
      </trkpt>
      <trkpt lat="49.59665" lon="5.6281">
        <ele>265.279999</ele>
        <time>2021-02-20T15:41:18Z</time>
      </trkpt>
      <trkpt lat="49.5967" lon="5.62803">
        <ele>265.279999</ele>
        <time>2021-02-20T15:41:23Z</time>
      </trkpt>
      <trkpt lat="49.5967" lon="5.62797">
        <ele>265.279999</ele>
        <time>2021-02-20T15:41:28Z</time>
      </trkpt>
      <trkpt lat="49.59675" lon="5.62783">
        <ele>265.279999</ele>
        <time>2021-02-20T15:41:32Z</time>
      </trkpt>
      <trkpt lat="49.59677" lon="5.62772">
        <ele>265.279999</ele>
        <time>2021-02-20T15:41:37Z</time>
      </trkpt>
      <trkpt lat="49.59679" lon="5.62756">
        <ele>265.279999</ele>
        <time>2021-02-20T15:41:40Z</time>
      </trkpt>
      <trkpt lat="49.59683" lon="5.62744">
        <ele>265.279999</ele>
        <time>2021-02-20T15:41:44Z</time>
      </trkpt>
      <trkpt lat="49.59689" lon="5.62729">
        <ele>265.279999</ele>
        <time>2021-02-20T15:41:48Z</time>
      </trkpt>
      <trkpt lat="49.59692" lon="5.62718">
        <ele>265.279999</ele>
        <time>2021-02-20T15:41:53Z</time>
      </trkpt>
      <trkpt lat="49.59696" lon="5.62706">
        <ele>265.279999</ele>
        <time>2021-02-20T15:41:57Z</time>
      </trkpt>
      <trkpt lat="49.59697" lon="5.62695">
        <ele>265.279999</ele>
        <time>2021-02-20T15:42:01Z</time>
      </trkpt>
      <trkpt lat="49.59699" lon="5.62689">
        <ele>265.279999</ele>
        <time>2021-02-20T15:42:06Z</time>
      </trkpt>
      <trkpt lat="49.597" lon="5.62682">
        <ele>265.279999</ele>
        <time>2021-02-20T15:42:11Z</time>
      </trkpt>
      <trkpt lat="49.59701" lon="5.62674">
        <ele>265.279999</ele>
        <time>2021-02-20T15:42:15Z</time>
      </trkpt>
      <trkpt lat="49.597" lon="5.62663">
        <ele>265.279999</ele>
        <time>2021-02-20T15:42:19Z</time>
      </trkpt>
      <trkpt lat="49.597" lon="5.62651">
        <ele>265.279999</ele>
        <time>2021-02-20T15:42:23Z</time>
      </trkpt>
      <trkpt lat="49.59701" lon="5.62641">
        <ele>265.279999</ele>
        <time>2021-02-20T15:42:27Z</time>
      </trkpt>
      <trkpt lat="49.59702" lon="5.62634">
        <ele>265.279999</ele>
        <time>2021-02-20T15:42:33Z</time>
      </trkpt>
      <trkpt lat="49.59702" lon="5.62618">
        <ele>265.279999</ele>
        <time>2021-02-20T15:42:36Z</time>
      </trkpt>
      <trkpt lat="49.59703" lon="5.62603">
        <ele>265.279999</ele>
        <time>2021-02-20T15:42:40Z</time>
      </trkpt>
      <trkpt lat="49.59706" lon="5.62591">
        <ele>265.279999</ele>
        <time>2021-02-20T15:42:45Z</time>
      </trkpt>
      <trkpt lat="49.59708" lon="5.62582">
        <ele>265.279999</ele>
        <time>2021-02-20T15:42:50Z</time>
      </trkpt>
      <trkpt lat="49.5971" lon="5.62571">
        <ele>265.279999</ele>
        <time>2021-02-20T15:42:54Z</time>
      </trkpt>
      <trkpt lat="49.59713" lon="5.62564">
        <ele>265.279999</ele>
        <time>2021-02-20T15:42:58Z</time>
      </trkpt>
      <trkpt lat="49.59715" lon="5.6256">
        <ele>265.279999</ele>
        <time>2021-02-20T15:43:03Z</time>
      </trkpt>
      <trkpt lat="49.59716" lon="5.62558">
        <ele>265.279999</ele>
        <time>2021-02-20T15:43:08Z</time>
      </trkpt>
      <trkpt lat="49.5972" lon="5.6255">
        <ele>265.279999</ele>
        <time>2021-02-20T15:43:13Z</time>
      </trkpt>
      <trkpt lat="49.59723" lon="5.62542">
        <ele>265.279999</ele>
        <time>2021-02-20T15:43:17Z</time>
      </trkpt>
      <trkpt lat="49.59725" lon="5.62535">
        <ele>265.279999</ele>
        <time>2021-02-20T15:43:22Z</time>
      </trkpt>
      <trkpt lat="49.59726" lon="5.62527">
        <ele>265.279999</ele>
        <time>2021-02-20T15:43:26Z</time>
      </trkpt>
      <trkpt lat="49.59728" lon="5.62522">
        <ele>265.279999</ele>
        <time>2021-02-20T15:43:30Z</time>
      </trkpt>
      <trkpt lat="49.59729" lon="5.6252">
        <ele>265.279999</ele>
        <time>2021-02-20T15:43:34Z</time>
      </trkpt>
      <trkpt lat="49.59729" lon="5.62518">
        <ele>265.279999</ele>
        <time>2021-02-20T15:43:39Z</time>
      </trkpt>
      <trkpt lat="49.5973" lon="5.62514">
        <ele>265.279999</ele>
        <time>2021-02-20T15:43:43Z</time>
      </trkpt>
      <trkpt lat="49.59732" lon="5.62506">
        <ele>265.279999</ele>
        <time>2021-02-20T15:43:48Z</time>
      </trkpt>
      <trkpt lat="49.59735" lon="5.62496">
        <ele>265.279999</ele>
        <time>2021-02-20T15:43:53Z</time>
      </trkpt>
      <trkpt lat="49.59735" lon="5.62489">
        <ele>265.279999</ele>
        <time>2021-02-20T15:43:58Z</time>
      </trkpt>
      <trkpt lat="49.59735" lon="5.6248">
        <ele>265.279999</ele>
        <time>2021-02-20T15:44:03Z</time>
      </trkpt>
      <trkpt lat="49.59736" lon="5.62476">
        <ele>265.279999</ele>
        <time>2021-02-20T15:44:08Z</time>
      </trkpt>
      <trkpt lat="49.59737" lon="5.62466">
        <ele>265.279999</ele>
        <time>2021-02-20T15:44:13Z</time>
      </trkpt>
      <trkpt lat="49.59737" lon="5.62456">
        <ele>265.279999</ele>
        <time>2021-02-20T15:44:18Z</time>
      </trkpt>
      <trkpt lat="49.59739" lon="5.62444">
        <ele>265.279999</ele>
        <time>2021-02-20T15:44:22Z</time>
      </trkpt>
      <trkpt lat="49.5974" lon="5.62433">
        <ele>265.279999</ele>
        <time>2021-02-20T15:44:26Z</time>
      </trkpt>
      <trkpt lat="49.59746" lon="5.62423">
        <ele>265.279999</ele>
        <time>2021-02-20T15:44:30Z</time>
      </trkpt>
      <trkpt lat="49.59749" lon="5.62412">
        <ele>265.279999</ele>
        <time>2021-02-20T15:44:34Z</time>
      </trkpt>
      <trkpt lat="49.59752" lon="5.62403">
        <ele>265.279999</ele>
        <time>2021-02-20T15:44:38Z</time>
      </trkpt>
      <trkpt lat="49.59755" lon="5.62397">
        <ele>265.279999</ele>
        <time>2021-02-20T15:44:43Z</time>
      </trkpt>
      <trkpt lat="49.59758" lon="5.62393">
        <ele>265.279999</ele>
        <time>2021-02-20T15:44:47Z</time>
      </trkpt>
      <trkpt lat="49.59758" lon="5.62386">
        <ele>265.279999</ele>
        <time>2021-02-20T15:44:51Z</time>
      </trkpt>
      <trkpt lat="49.59756" lon="5.62374">
        <ele>265.279999</ele>
        <time>2021-02-20T15:44:55Z</time>
      </trkpt>
      <trkpt lat="49.59753" lon="5.62358">
        <ele>265.279999</ele>
        <time>2021-02-20T15:44:59Z</time>
      </trkpt>
      <trkpt lat="49.59749" lon="5.62344">
        <ele>265.279999</ele>
        <time>2021-02-20T15:45:02Z</time>
      </trkpt>
      <trkpt lat="49.59745" lon="5.62328">
        <ele>265.290009</ele>
        <time>2021-02-20T15:45:06Z</time>
      </trkpt>
      <trkpt lat="49.59751" lon="5.62315">
        <ele>265.290009</ele>
        <time>2021-02-20T15:45:09Z</time>
      </trkpt>
      <trkpt lat="49.59755" lon="5.62303">
        <ele>265.290009</ele>
        <time>2021-02-20T15:45:13Z</time>
      </trkpt>
      <trkpt lat="49.59754" lon="5.62294">
        <ele>265.290009</ele>
        <time>2021-02-20T15:45:18Z</time>
      </trkpt>
      <trkpt lat="49.59753" lon="5.62294">
        <ele>265.290009</ele>
        <time>2021-02-20T15:45:23Z</time>
      </trkpt>
      <trkpt lat="49.59753" lon="5.62293">
        <ele>265.290009</ele>
        <time>2021-02-20T15:45:28Z</time>
      </trkpt>
      <trkpt lat="49.59753" lon="5.62293">
        <ele>265.290009</ele>
        <time>2021-02-20T15:45:33Z</time>
      </trkpt>
      <trkpt lat="49.59754" lon="5.62294">
        <ele>265.290009</ele>
        <time>2021-02-20T15:45:38Z</time>
      </trkpt>
      <trkpt lat="49.59754" lon="5.62294">
        <ele>265.290009</ele>
        <time>2021-02-20T15:45:43Z</time>
      </trkpt>
      <trkpt lat="49.59752" lon="5.62293">
        <ele>265.290009</ele>
        <time>2021-02-20T15:45:48Z</time>
      </trkpt>
      <trkpt lat="49.59751" lon="5.62293">
        <ele>265.290009</ele>
        <time>2021-02-20T15:45:53Z</time>
      </trkpt>
      <trkpt lat="49.59751" lon="5.62293">
        <ele>265.290009</ele>
        <time>2021-02-20T15:45:58Z</time>
      </trkpt>
      <trkpt lat="49.59751" lon="5.62293">
        <ele>265.290009</ele>
        <time>2021-02-20T15:46:03Z</time>
      </trkpt>
      <trkpt lat="49.59751" lon="5.62293">
        <ele>265.290009</ele>
        <time>2021-02-20T15:46:08Z</time>
      </trkpt>
      <trkpt lat="49.59751" lon="5.62293">
        <ele>265.290009</ele>
        <time>2021-02-20T15:46:13Z</time>
      </trkpt>
      <trkpt lat="49.59751" lon="5.62293">
        <ele>265.290009</ele>
        <time>2021-02-20T15:46:18Z</time>
      </trkpt>
      <trkpt lat="49.59751" lon="5.62293">
        <ele>265.290009</ele>
        <time>2021-02-20T15:46:23Z</time>
      </trkpt>
      <trkpt lat="49.59751" lon="5.62293">
        <ele>265.290009</ele>
        <time>2021-02-20T15:46:28Z</time>
      </trkpt>
      <trkpt lat="49.59751" lon="5.62293">
        <ele>265.290009</ele>
        <time>2021-02-20T15:46:33Z</time>
      </trkpt>
      <trkpt lat="49.59751" lon="5.62293">
        <ele>265.290009</ele>
        <time>2021-02-20T15:46:38Z</time>
      </trkpt>
      <trkpt lat="49.59751" lon="5.62292">
        <ele>265.290009</ele>
        <time>2021-02-20T15:46:43Z</time>
      </trkpt>
      <trkpt lat="49.59751" lon="5.62292">
        <ele>265.290009</ele>
        <time>2021-02-20T15:46:48Z</time>
      </trkpt>
      <trkpt lat="49.59751" lon="5.62292">
        <ele>265.290009</ele>
        <time>2021-02-20T15:46:53Z</time>
      </trkpt>
      <trkpt lat="49.59751" lon="5.62293">
        <ele>265.290009</ele>
        <time>2021-02-20T15:46:58Z</time>
      </trkpt>
      <trkpt lat="49.59751" lon="5.62293">
        <ele>265.290009</ele>
        <time>2021-02-20T15:47:03Z</time>
      </trkpt>
      <trkpt lat="49.59751" lon="5.62293">
        <ele>265.290009</ele>
        <time>2021-02-20T15:47:08Z</time>
      </trkpt>
      <trkpt lat="49.59751" lon="5.62293">
        <ele>265.290009</ele>
        <time>2021-02-20T15:47:13Z</time>
      </trkpt>
      <trkpt lat="49.59751" lon="5.62293">
        <ele>265.290009</ele>
        <time>2021-02-20T15:47:18Z</time>
      </trkpt>
      <trkpt lat="49.59752" lon="5.62293">
        <ele>265.290009</ele>
        <time>2021-02-20T15:47:23Z</time>
      </trkpt>
      <trkpt lat="49.59752" lon="5.62293">
        <ele>265.290009</ele>
        <time>2021-02-20T15:47:28Z</time>
      </trkpt>
      <trkpt lat="49.59752" lon="5.62293">
        <ele>265.290009</ele>
        <time>2021-02-20T15:47:33Z</time>
      </trkpt>
      <trkpt lat="49.59752" lon="5.62293">
        <ele>265.290009</ele>
        <time>2021-02-20T15:47:38Z</time>
      </trkpt>
      <trkpt lat="49.59753" lon="5.62293">
        <ele>265.290009</ele>
        <time>2021-02-20T15:47:43Z</time>
      </trkpt>
      <trkpt lat="49.59753" lon="5.62293">
        <ele>265.290009</ele>
        <time>2021-02-20T15:47:48Z</time>
      </trkpt>
      <trkpt lat="49.59753" lon="5.62293">
        <ele>265.290009</ele>
        <time>2021-02-20T15:47:53Z</time>
      </trkpt>
      <trkpt lat="49.59753" lon="5.62293">
        <ele>265.290009</ele>
        <time>2021-02-20T15:47:58Z</time>
      </trkpt>
      <trkpt lat="49.59753" lon="5.62293">
        <ele>265.290009</ele>
        <time>2021-02-20T15:48:03Z</time>
      </trkpt>
      <trkpt lat="49.59753" lon="5.62293">
        <ele>265.290009</ele>
        <time>2021-02-20T15:48:08Z</time>
      </trkpt>
      <trkpt lat="49.59753" lon="5.62294">
        <ele>265.290009</ele>
        <time>2021-02-20T15:48:13Z</time>
      </trkpt>
      <trkpt lat="49.59753" lon="5.62294">
        <ele>265.290009</ele>
        <time>2021-02-20T15:48:18Z</time>
      </trkpt>
      <trkpt lat="49.59753" lon="5.62294">
        <ele>265.290009</ele>
        <time>2021-02-20T15:48:23Z</time>
      </trkpt>
      <trkpt lat="49.59754" lon="5.62294">
        <ele>265.290009</ele>
        <time>2021-02-20T15:48:28Z</time>
      </trkpt>
      <trkpt lat="49.59757" lon="5.62288">
        <ele>265.290009</ele>
        <time>2021-02-20T15:48:33Z</time>
      </trkpt>
      <trkpt lat="49.59766" lon="5.62283">
        <ele>265.290009</ele>
        <time>2021-02-20T15:48:37Z</time>
      </trkpt>
      <trkpt lat="49.59772" lon="5.62279">
        <ele>265.290009</ele>
        <time>2021-02-20T15:48:42Z</time>
      </trkpt>
      <trkpt lat="49.59778" lon="5.62279">
        <ele>265.290009</ele>
        <time>2021-02-20T15:48:46Z</time>
      </trkpt>
      <trkpt lat="49.59784" lon="5.62274">
        <ele>265.290009</ele>
        <time>2021-02-20T15:48:51Z</time>
      </trkpt>
      <trkpt lat="49.5979" lon="5.62266">
        <ele>265.290009</ele>
        <time>2021-02-20T15:48:57Z</time>
      </trkpt>
      <trkpt lat="49.59797" lon="5.62262">
        <ele>265.290009</ele>
        <time>2021-02-20T15:49:02Z</time>
      </trkpt>
      <trkpt lat="49.59806" lon="5.6226">
        <ele>265.290009</ele>
        <time>2021-02-20T15:49:06Z</time>
      </trkpt>
      <trkpt lat="49.59816" lon="5.62255">
        <ele>265.290009</ele>
        <time>2021-02-20T15:49:11Z</time>
      </trkpt>
      <trkpt lat="49.59823" lon="5.62249">
        <ele>265.290009</ele>
        <time>2021-02-20T15:49:17Z</time>
      </trkpt>
      <trkpt lat="49.59827" lon="5.62244">
        <ele>265.290009</ele>
        <time>2021-02-20T15:49:21Z</time>
      </trkpt>
      <trkpt lat="49.59834" lon="5.62239">
        <ele>265.290009</ele>
        <time>2021-02-20T15:49:25Z</time>
      </trkpt>
      <trkpt lat="49.59843" lon="5.62236">
        <ele>265.290009</ele>
        <time>2021-02-20T15:49:29Z</time>
      </trkpt>
      <trkpt lat="49.59852" lon="5.62237">
        <ele>265.290009</ele>
        <time>2021-02-20T15:49:34Z</time>
      </trkpt>
      <trkpt lat="49.59861" lon="5.62235">
        <ele>265.290009</ele>
        <time>2021-02-20T15:49:39Z</time>
      </trkpt>
      <trkpt lat="49.59871" lon="5.6223">
        <ele>265.290009</ele>
        <time>2021-02-20T15:49:42Z</time>
      </trkpt>
      <trkpt lat="49.5988" lon="5.62226">
        <ele>265.290009</ele>
        <time>2021-02-20T15:49:45Z</time>
      </trkpt>
      <trkpt lat="49.59891" lon="5.62223">
        <ele>265.290009</ele>
        <time>2021-02-20T15:49:48Z</time>
      </trkpt>
      <trkpt lat="49.59901" lon="5.62219">
        <ele>265.290009</ele>
        <time>2021-02-20T15:49:51Z</time>
      </trkpt>
      <trkpt lat="49.5991" lon="5.62216">
        <ele>265.290009</ele>
        <time>2021-02-20T15:49:55Z</time>
      </trkpt>
      <trkpt lat="49.59919" lon="5.62213">
        <ele>265.290009</ele>
        <time>2021-02-20T15:49:59Z</time>
      </trkpt>
      <trkpt lat="49.59926" lon="5.62203">
        <ele>265.290009</ele>
        <time>2021-02-20T15:50:03Z</time>
      </trkpt>
      <trkpt lat="49.59936" lon="5.62205">
        <ele>265.290009</ele>
        <time>2021-02-20T15:50:07Z</time>
      </trkpt>
      <trkpt lat="49.59945" lon="5.62205">
        <ele>265.290009</ele>
        <time>2021-02-20T15:50:12Z</time>
      </trkpt>
      <trkpt lat="49.59954" lon="5.62201">
        <ele>265.290009</ele>
        <time>2021-02-20T15:50:16Z</time>
      </trkpt>
      <trkpt lat="49.59964" lon="5.62198">
        <ele>265.290009</ele>
        <time>2021-02-20T15:50:21Z</time>
      </trkpt>
      <trkpt lat="49.59974" lon="5.62198">
        <ele>265.290009</ele>
        <time>2021-02-20T15:50:24Z</time>
      </trkpt>
      <trkpt lat="49.59983" lon="5.62198">
        <ele>265.290009</ele>
        <time>2021-02-20T15:50:28Z</time>
      </trkpt>
      <trkpt lat="49.59992" lon="5.622">
        <ele>265.290009</ele>
        <time>2021-02-20T15:50:32Z</time>
      </trkpt>
      <trkpt lat="49.60002" lon="5.62207">
        <ele>265.290009</ele>
        <time>2021-02-20T15:50:37Z</time>
      </trkpt>
      <trkpt lat="49.60009" lon="5.62218">
        <ele>265.290009</ele>
        <time>2021-02-20T15:50:40Z</time>
      </trkpt>
      <trkpt lat="49.60017" lon="5.62227">
        <ele>265.290009</ele>
        <time>2021-02-20T15:50:44Z</time>
      </trkpt>
      <trkpt lat="49.60025" lon="5.6224">
        <ele>265.290009</ele>
        <time>2021-02-20T15:50:49Z</time>
      </trkpt>
      <trkpt lat="49.6003" lon="5.62252">
        <ele>265.290009</ele>
        <time>2021-02-20T15:50:53Z</time>
      </trkpt>
      <trkpt lat="49.60038" lon="5.62264">
        <ele>265.290009</ele>
        <time>2021-02-20T15:50:56Z</time>
      </trkpt>
      <trkpt lat="49.60043" lon="5.62278">
        <ele>265.290009</ele>
        <time>2021-02-20T15:50:59Z</time>
      </trkpt>
      <trkpt lat="49.6005" lon="5.62289">
        <ele>265.279999</ele>
        <time>2021-02-20T15:51:02Z</time>
      </trkpt>
      <trkpt lat="49.60058" lon="5.62299">
        <ele>265.279999</ele>
        <time>2021-02-20T15:51:05Z</time>
      </trkpt>
      <trkpt lat="49.60066" lon="5.62309">
        <ele>265.279999</ele>
        <time>2021-02-20T15:51:08Z</time>
      </trkpt>
      <trkpt lat="49.60073" lon="5.62317">
        <ele>265.279999</ele>
        <time>2021-02-20T15:51:11Z</time>
      </trkpt>
      <trkpt lat="49.60083" lon="5.62327">
        <ele>265.279999</ele>
        <time>2021-02-20T15:51:15Z</time>
      </trkpt>
      <trkpt lat="49.6009" lon="5.62341">
        <ele>265.279999</ele>
        <time>2021-02-20T15:51:19Z</time>
      </trkpt>
      <trkpt lat="49.60096" lon="5.62351">
        <ele>265.279999</ele>
        <time>2021-02-20T15:51:24Z</time>
      </trkpt>
      <trkpt lat="49.60099" lon="5.62357">
        <ele>265.279999</ele>
        <time>2021-02-20T15:51:29Z</time>
      </trkpt>
      <trkpt lat="49.60105" lon="5.62363">
        <ele>265.279999</ele>
        <time>2021-02-20T15:51:33Z</time>
      </trkpt>
      <trkpt lat="49.60111" lon="5.62372">
        <ele>265.279999</ele>
        <time>2021-02-20T15:51:37Z</time>
      </trkpt>
      <trkpt lat="49.60119" lon="5.62378">
        <ele>265.279999</ele>
        <time>2021-02-20T15:51:41Z</time>
      </trkpt>
      <trkpt lat="49.60129" lon="5.62383">
        <ele>265.279999</ele>
        <time>2021-02-20T15:51:45Z</time>
      </trkpt>
      <trkpt lat="49.60137" lon="5.62395">
        <ele>265.279999</ele>
        <time>2021-02-20T15:51:49Z</time>
      </trkpt>
      <trkpt lat="49.60144" lon="5.62401">
        <ele>265.279999</ele>
        <time>2021-02-20T15:51:54Z</time>
      </trkpt>
      <trkpt lat="49.60152" lon="5.62403">
        <ele>265.279999</ele>
        <time>2021-02-20T15:51:58Z</time>
      </trkpt>
      <trkpt lat="49.60162" lon="5.62403">
        <ele>265.279999</ele>
        <time>2021-02-20T15:52:02Z</time>
      </trkpt>
      <trkpt lat="49.60167" lon="5.62405">
        <ele>265.279999</ele>
        <time>2021-02-20T15:52:07Z</time>
      </trkpt>
      <trkpt lat="49.60173" lon="5.62414">
        <ele>265.279999</ele>
        <time>2021-02-20T15:52:11Z</time>
      </trkpt>
      <trkpt lat="49.6018" lon="5.62425">
        <ele>265.279999</ele>
        <time>2021-02-20T15:52:15Z</time>
      </trkpt>
      <trkpt lat="49.60189" lon="5.62435">
        <ele>265.279999</ele>
        <time>2021-02-20T15:52:19Z</time>
      </trkpt>
      <trkpt lat="49.60199" lon="5.62442">
        <ele>265.279999</ele>
        <time>2021-02-20T15:52:23Z</time>
      </trkpt>
      <trkpt lat="49.60209" lon="5.6245">
        <ele>265.279999</ele>
        <time>2021-02-20T15:52:27Z</time>
      </trkpt>
      <trkpt lat="49.60218" lon="5.62458">
        <ele>265.279999</ele>
        <time>2021-02-20T15:52:30Z</time>
      </trkpt>
      <trkpt lat="49.60226" lon="5.6246">
        <ele>265.279999</ele>
        <time>2021-02-20T15:52:35Z</time>
      </trkpt>
      <trkpt lat="49.60233" lon="5.62457">
        <ele>265.279999</ele>
        <time>2021-02-20T15:52:39Z</time>
      </trkpt>
      <trkpt lat="49.60241" lon="5.62455">
        <ele>265.279999</ele>
        <time>2021-02-20T15:52:43Z</time>
      </trkpt>
      <trkpt lat="49.60249" lon="5.62454">
        <ele>265.279999</ele>
        <time>2021-02-20T15:52:48Z</time>
      </trkpt>
      <trkpt lat="49.60256" lon="5.6245">
        <ele>265.279999</ele>
        <time>2021-02-20T15:52:53Z</time>
      </trkpt>
      <trkpt lat="49.60265" lon="5.62448">
        <ele>265.279999</ele>
        <time>2021-02-20T15:52:57Z</time>
      </trkpt>
      <trkpt lat="49.60275" lon="5.6244">
        <ele>265.279999</ele>
        <time>2021-02-20T15:53:02Z</time>
      </trkpt>
      <trkpt lat="49.60283" lon="5.62431">
        <ele>265.279999</ele>
        <time>2021-02-20T15:53:07Z</time>
      </trkpt>
      <trkpt lat="49.60291" lon="5.62424">
        <ele>265.279999</ele>
        <time>2021-02-20T15:53:10Z</time>
      </trkpt>
      <trkpt lat="49.603" lon="5.62415">
        <ele>265.279999</ele>
        <time>2021-02-20T15:53:14Z</time>
      </trkpt>
      <trkpt lat="49.60308" lon="5.62406">
        <ele>265.279999</ele>
        <time>2021-02-20T15:53:18Z</time>
      </trkpt>
      <trkpt lat="49.60315" lon="5.624">
        <ele>265.279999</ele>
        <time>2021-02-20T15:53:23Z</time>
      </trkpt>
      <trkpt lat="49.60321" lon="5.62395">
        <ele>265.279999</ele>
        <time>2021-02-20T15:53:27Z</time>
      </trkpt>
      <trkpt lat="49.60328" lon="5.62389">
        <ele>265.279999</ele>
        <time>2021-02-20T15:53:32Z</time>
      </trkpt>
      <trkpt lat="49.60336" lon="5.62379">
        <ele>265.279999</ele>
        <time>2021-02-20T15:53:35Z</time>
      </trkpt>
      <trkpt lat="49.60342" lon="5.62373">
        <ele>265.279999</ele>
        <time>2021-02-20T15:53:39Z</time>
      </trkpt>
      <trkpt lat="49.6035" lon="5.62369">
        <ele>265.279999</ele>
        <time>2021-02-20T15:53:44Z</time>
      </trkpt>
      <trkpt lat="49.60356" lon="5.62359">
        <ele>265.279999</ele>
        <time>2021-02-20T15:53:48Z</time>
      </trkpt>
      <trkpt lat="49.60361" lon="5.62346">
        <ele>265.279999</ele>
        <time>2021-02-20T15:53:51Z</time>
      </trkpt>
      <trkpt lat="49.60365" lon="5.62332">
        <ele>265.279999</ele>
        <time>2021-02-20T15:53:55Z</time>
      </trkpt>
      <trkpt lat="49.60365" lon="5.62317">
        <ele>265.279999</ele>
        <time>2021-02-20T15:54:00Z</time>
      </trkpt>
      <trkpt lat="49.60366" lon="5.62314">
        <ele>265.279999</ele>
        <time>2021-02-20T15:54:05Z</time>
      </trkpt>
      <trkpt lat="49.60368" lon="5.62313">
        <ele>265.279999</ele>
        <time>2021-02-20T15:54:10Z</time>
      </trkpt>
      <trkpt lat="49.60369" lon="5.62313">
        <ele>265.279999</ele>
        <time>2021-02-20T15:54:15Z</time>
      </trkpt>
      <trkpt lat="49.60369" lon="5.62312">
        <ele>265.279999</ele>
        <time>2021-02-20T15:54:20Z</time>
      </trkpt>
      <trkpt lat="49.6037" lon="5.62311">
        <ele>265.279999</ele>
        <time>2021-02-20T15:54:25Z</time>
      </trkpt>
      <trkpt lat="49.6037" lon="5.62311">
        <ele>265.279999</ele>
        <time>2021-02-20T15:54:30Z</time>
      </trkpt>
      <trkpt lat="49.6037" lon="5.62311">
        <ele>265.279999</ele>
        <time>2021-02-20T15:54:35Z</time>
      </trkpt>
      <trkpt lat="49.6037" lon="5.6231">
        <ele>265.279999</ele>
        <time>2021-02-20T15:54:40Z</time>
      </trkpt>
      <trkpt lat="49.6037" lon="5.6231">
        <ele>265.279999</ele>
        <time>2021-02-20T15:54:45Z</time>
      </trkpt>
      <trkpt lat="49.6037" lon="5.6231">
        <ele>265.279999</ele>
        <time>2021-02-20T15:54:50Z</time>
      </trkpt>
      <trkpt lat="49.60371" lon="5.62308">
        <ele>265.279999</ele>
        <time>2021-02-20T15:54:55Z</time>
      </trkpt>
      <trkpt lat="49.60372" lon="5.62306">
        <ele>265.279999</ele>
        <time>2021-02-20T15:55:00Z</time>
      </trkpt>
      <trkpt lat="49.60372" lon="5.62306">
        <ele>265.279999</ele>
        <time>2021-02-20T15:55:05Z</time>
      </trkpt>
      <trkpt lat="49.60372" lon="5.62305">
        <ele>265.279999</ele>
        <time>2021-02-20T15:55:10Z</time>
      </trkpt>
      <trkpt lat="49.60373" lon="5.62303">
        <ele>265.279999</ele>
        <time>2021-02-20T15:55:15Z</time>
      </trkpt>
      <trkpt lat="49.60373" lon="5.62303">
        <ele>265.279999</ele>
        <time>2021-02-20T15:55:20Z</time>
      </trkpt>
      <trkpt lat="49.60373" lon="5.62301">
        <ele>265.279999</ele>
        <time>2021-02-20T15:55:25Z</time>
      </trkpt>
      <trkpt lat="49.60373" lon="5.62301">
        <ele>265.279999</ele>
        <time>2021-02-20T15:55:30Z</time>
      </trkpt>
      <trkpt lat="49.60373" lon="5.62301">
        <ele>265.279999</ele>
        <time>2021-02-20T15:55:35Z</time>
      </trkpt>
      <trkpt lat="49.60373" lon="5.62301">
        <ele>265.279999</ele>
        <time>2021-02-20T15:55:40Z</time>
      </trkpt>
      <trkpt lat="49.60373" lon="5.62301">
        <ele>265.279999</ele>
        <time>2021-02-20T15:55:45Z</time>
      </trkpt>
      <trkpt lat="49.60373" lon="5.62301">
        <ele>265.279999</ele>
        <time>2021-02-20T15:55:50Z</time>
      </trkpt>
      <trkpt lat="49.60374" lon="5.62299">
        <ele>265.279999</ele>
        <time>2021-02-20T15:55:55Z</time>
      </trkpt>
      <trkpt lat="49.60374" lon="5.62299">
        <ele>265.279999</ele>
        <time>2021-02-20T15:56:00Z</time>
      </trkpt>
      <trkpt lat="49.60374" lon="5.62299">
        <ele>265.279999</ele>
        <time>2021-02-20T15:56:05Z</time>
      </trkpt>
      <trkpt lat="49.60374" lon="5.62299">
        <ele>265.279999</ele>
        <time>2021-02-20T15:56:10Z</time>
      </trkpt>
      <trkpt lat="49.60374" lon="5.62299">
        <ele>265.279999</ele>
        <time>2021-02-20T15:56:15Z</time>
      </trkpt>
      <trkpt lat="49.60374" lon="5.62299">
        <ele>265.279999</ele>
        <time>2021-02-20T15:56:20Z</time>
      </trkpt>
      <trkpt lat="49.60375" lon="5.62299">
        <ele>265.279999</ele>
        <time>2021-02-20T15:56:25Z</time>
      </trkpt>
      <trkpt lat="49.60375" lon="5.62296">
        <ele>265.279999</ele>
        <time>2021-02-20T15:56:30Z</time>
      </trkpt>
      <trkpt lat="49.60376" lon="5.62295">
        <ele>265.279999</ele>
        <time>2021-02-20T15:56:35Z</time>
      </trkpt>
      <trkpt lat="49.60376" lon="5.62295">
        <ele>265.279999</ele>
        <time>2021-02-20T15:56:40Z</time>
      </trkpt>
      <trkpt lat="49.60376" lon="5.62294">
        <ele>265.279999</ele>
        <time>2021-02-20T15:56:45Z</time>
      </trkpt>
      <trkpt lat="49.60376" lon="5.62293">
        <ele>265.279999</ele>
        <time>2021-02-20T15:56:50Z</time>
      </trkpt>
      <trkpt lat="49.60376" lon="5.62293">
        <ele>265.279999</ele>
        <time>2021-02-20T15:56:55Z</time>
      </trkpt>
      <trkpt lat="49.60377" lon="5.62292">
        <ele>265.279999</ele>
        <time>2021-02-20T15:57:00Z</time>
      </trkpt>
      <trkpt lat="49.60377" lon="5.62292">
        <ele>265.279999</ele>
        <time>2021-02-20T15:57:05Z</time>
      </trkpt>
      <trkpt lat="49.60377" lon="5.62291">
        <ele>265.279999</ele>
        <time>2021-02-20T15:57:10Z</time>
      </trkpt>
      <trkpt lat="49.60378" lon="5.62291">
        <ele>265.279999</ele>
        <time>2021-02-20T15:57:15Z</time>
      </trkpt>
      <trkpt lat="49.60378" lon="5.62291">
        <ele>265.279999</ele>
        <time>2021-02-20T15:57:20Z</time>
      </trkpt>
      <trkpt lat="49.60378" lon="5.62291">
        <ele>265.279999</ele>
        <time>2021-02-20T15:57:25Z</time>
      </trkpt>
      <trkpt lat="49.60378" lon="5.62289">
        <ele>265.279999</ele>
        <time>2021-02-20T15:57:30Z</time>
      </trkpt>
      <trkpt lat="49.60378" lon="5.62289">
        <ele>265.279999</ele>
        <time>2021-02-20T15:57:35Z</time>
      </trkpt>
      <trkpt lat="49.60378" lon="5.62289">
        <ele>265.279999</ele>
        <time>2021-02-20T15:57:40Z</time>
      </trkpt>
      <trkpt lat="49.60378" lon="5.62289">
        <ele>265.279999</ele>
        <time>2021-02-20T15:57:45Z</time>
      </trkpt>
      <trkpt lat="49.60381" lon="5.62295">
        <ele>265.279999</ele>
        <time>2021-02-20T15:57:50Z</time>
      </trkpt>
      <trkpt lat="49.60385" lon="5.62295">
        <ele>265.279999</ele>
        <time>2021-02-20T15:57:55Z</time>
      </trkpt>
      <trkpt lat="49.60395" lon="5.62292">
        <ele>265.279999</ele>
        <time>2021-02-20T15:58:00Z</time>
      </trkpt>
      <trkpt lat="49.60401" lon="5.62286">
        <ele>265.279999</ele>
        <time>2021-02-20T15:58:04Z</time>
      </trkpt>
      <trkpt lat="49.60404" lon="5.62281">
        <ele>265.279999</ele>
        <time>2021-02-20T15:58:08Z</time>
      </trkpt>
      <trkpt lat="49.6041" lon="5.62267">
        <ele>265.279999</ele>
        <time>2021-02-20T15:58:12Z</time>
      </trkpt>
      <trkpt lat="49.60415" lon="5.62254">
        <ele>265.279999</ele>
        <time>2021-02-20T15:58:15Z</time>
      </trkpt>
      <trkpt lat="49.60418" lon="5.62235">
        <ele>265.279999</ele>
        <time>2021-02-20T15:58:18Z</time>
      </trkpt>
      <trkpt lat="49.6042" lon="5.6222">
        <ele>265.279999</ele>
        <time>2021-02-20T15:58:21Z</time>
      </trkpt>
      <trkpt lat="49.60426" lon="5.622">
        <ele>265.279999</ele>
        <time>2021-02-20T15:58:24Z</time>
      </trkpt>
      <trkpt lat="49.60439" lon="5.62176">
        <ele>265.279999</ele>
        <time>2021-02-20T15:58:26Z</time>
      </trkpt>
      <trkpt lat="49.6045" lon="5.62168">
        <ele>265.279999</ele>
        <time>2021-02-20T15:58:28Z</time>
      </trkpt>
      <trkpt lat="49.60459" lon="5.62157">
        <ele>265.279999</ele>
        <time>2021-02-20T15:58:30Z</time>
      </trkpt>
      <trkpt lat="49.60473" lon="5.62149">
        <ele>265.279999</ele>
        <time>2021-02-20T15:58:32Z</time>
      </trkpt>
      <trkpt lat="49.60484" lon="5.62144">
        <ele>265.279999</ele>
        <time>2021-02-20T15:58:33Z</time>
      </trkpt>
      <trkpt lat="49.60495" lon="5.62139">
        <ele>265.279999</ele>
        <time>2021-02-20T15:58:36Z</time>
      </trkpt>
      <trkpt lat="49.60505" lon="5.62134">
        <ele>265.279999</ele>
        <time>2021-02-20T15:58:38Z</time>
      </trkpt>
      <trkpt lat="49.60515" lon="5.62129">
        <ele>265.279999</ele>
        <time>2021-02-20T15:58:40Z</time>
      </trkpt>
      <trkpt lat="49.60523" lon="5.62119">
        <ele>265.279999</ele>
        <time>2021-02-20T15:58:42Z</time>
      </trkpt>
      <trkpt lat="49.60533" lon="5.62104">
        <ele>265.279999</ele>
        <time>2021-02-20T15:58:45Z</time>
      </trkpt>
      <trkpt lat="49.60539" lon="5.62091">
        <ele>265.279999</ele>
        <time>2021-02-20T15:58:47Z</time>
      </trkpt>
      <trkpt lat="49.60547" lon="5.62081">
        <ele>265.279999</ele>
        <time>2021-02-20T15:58:50Z</time>
      </trkpt>
      <trkpt lat="49.60556" lon="5.62076">
        <ele>265.279999</ele>
        <time>2021-02-20T15:58:53Z</time>
      </trkpt>
      <trkpt lat="49.60563" lon="5.62069">
        <ele>265.279999</ele>
        <time>2021-02-20T15:58:56Z</time>
      </trkpt>
      <trkpt lat="49.60568" lon="5.62062">
        <ele>265.279999</ele>
        <time>2021-02-20T15:59:01Z</time>
      </trkpt>
      <trkpt lat="49.60572" lon="5.62053">
        <ele>265.290009</ele>
        <time>2021-02-20T15:59:05Z</time>
      </trkpt>
      <trkpt lat="49.6058" lon="5.62041">
        <ele>265.290009</ele>
        <time>2021-02-20T15:59:10Z</time>
      </trkpt>
      <trkpt lat="49.60581" lon="5.62028">
        <ele>265.290009</ele>
        <time>2021-02-20T15:59:15Z</time>
      </trkpt>
      <trkpt lat="49.6058" lon="5.62012">
        <ele>265.290009</ele>
        <time>2021-02-20T15:59:19Z</time>
      </trkpt>
      <trkpt lat="49.60583" lon="5.61999">
        <ele>265.290009</ele>
        <time>2021-02-20T15:59:23Z</time>
      </trkpt>
      <trkpt lat="49.60582" lon="5.61983">
        <ele>265.290009</ele>
        <time>2021-02-20T15:59:27Z</time>
      </trkpt>
      <trkpt lat="49.60576" lon="5.61969">
        <ele>265.290009</ele>
        <time>2021-02-20T15:59:30Z</time>
      </trkpt>
      <trkpt lat="49.60576" lon="5.61957">
        <ele>265.290009</ele>
        <time>2021-02-20T15:59:35Z</time>
      </trkpt>
      <trkpt lat="49.60577" lon="5.61952">
        <ele>265.290009</ele>
        <time>2021-02-20T15:59:39Z</time>
      </trkpt>
      <trkpt lat="49.60576" lon="5.61947">
        <ele>265.290009</ele>
        <time>2021-02-20T15:59:44Z</time>
      </trkpt>
      <trkpt lat="49.60576" lon="5.61949">
        <ele>265.290009</ele>
        <time>2021-02-20T15:59:49Z</time>
      </trkpt>
      <trkpt lat="49.60576" lon="5.6195">
        <ele>265.290009</ele>
        <time>2021-02-20T15:59:54Z</time>
      </trkpt>
      <trkpt lat="49.60574" lon="5.61949">
        <ele>265.290009</ele>
        <time>2021-02-20T15:59:59Z</time>
      </trkpt>
      <trkpt lat="49.60573" lon="5.61949">
        <ele>265.290009</ele>
        <time>2021-02-20T16:00:04Z</time>
      </trkpt>
      <trkpt lat="49.60571" lon="5.61948">
        <ele>265.290009</ele>
        <time>2021-02-20T16:00:09Z</time>
      </trkpt>
      <trkpt lat="49.60571" lon="5.61946">
        <ele>265.290009</ele>
        <time>2021-02-20T16:00:14Z</time>
      </trkpt>
      <trkpt lat="49.60572" lon="5.61946">
        <ele>265.290009</ele>
        <time>2021-02-20T16:00:18Z</time>
      </trkpt>
      <trkpt lat="49.60572" lon="5.61937">
        <ele>265.290009</ele>
        <time>2021-02-20T16:00:22Z</time>
      </trkpt>
      <trkpt lat="49.60573" lon="5.6193">
        <ele>265.290009</ele>
        <time>2021-02-20T16:00:27Z</time>
      </trkpt>
      <trkpt lat="49.60574" lon="5.61923">
        <ele>265.290009</ele>
        <time>2021-02-20T16:00:31Z</time>
      </trkpt>
      <trkpt lat="49.60576" lon="5.61914">
        <ele>265.290009</ele>
        <time>2021-02-20T16:00:35Z</time>
      </trkpt>
      <trkpt lat="49.60577" lon="5.61908">
        <ele>265.290009</ele>
        <time>2021-02-20T16:00:40Z</time>
      </trkpt>
      <trkpt lat="49.60577" lon="5.61904">
        <ele>265.290009</ele>
        <time>2021-02-20T16:00:45Z</time>
      </trkpt>
      <trkpt lat="49.60576" lon="5.61904">
        <ele>265.290009</ele>
        <time>2021-02-20T16:00:50Z</time>
      </trkpt>
      <trkpt lat="49.60576" lon="5.61902">
        <ele>265.290009</ele>
        <time>2021-02-20T16:00:55Z</time>
      </trkpt>
      <trkpt lat="49.60576" lon="5.61897">
        <ele>265.290009</ele>
        <time>2021-02-20T16:00:59Z</time>
      </trkpt>
      <trkpt lat="49.60577" lon="5.61895">
        <ele>265.290009</ele>
        <time>2021-02-20T16:01:04Z</time>
      </trkpt>
      <trkpt lat="49.60576" lon="5.61892">
        <ele>265.290009</ele>
        <time>2021-02-20T16:01:09Z</time>
      </trkpt>
      <trkpt lat="49.60575" lon="5.61889">
        <ele>265.290009</ele>
        <time>2021-02-20T16:01:14Z</time>
      </trkpt>
      <trkpt lat="49.60574" lon="5.61885">
        <ele>265.290009</ele>
        <time>2021-02-20T16:01:18Z</time>
      </trkpt>
      <trkpt lat="49.60574" lon="5.61877">
        <ele>265.290009</ele>
        <time>2021-02-20T16:01:22Z</time>
      </trkpt>
      <trkpt lat="49.60572" lon="5.61873">
        <ele>265.290009</ele>
        <time>2021-02-20T16:01:27Z</time>
      </trkpt>
      <trkpt lat="49.60574" lon="5.61868">
        <ele>265.290009</ele>
        <time>2021-02-20T16:01:31Z</time>
      </trkpt>
      <trkpt lat="49.60572" lon="5.61857">
        <ele>265.290009</ele>
        <time>2021-02-20T16:01:35Z</time>
      </trkpt>
      <trkpt lat="49.60569" lon="5.61844">
        <ele>265.290009</ele>
        <time>2021-02-20T16:01:40Z</time>
      </trkpt>
      <trkpt lat="49.60568" lon="5.61836">
        <ele>265.290009</ele>
        <time>2021-02-20T16:01:44Z</time>
      </trkpt>
      <trkpt lat="49.60567" lon="5.61824">
        <ele>265.290009</ele>
        <time>2021-02-20T16:01:49Z</time>
      </trkpt>
      <trkpt lat="49.60568" lon="5.61816">
        <ele>265.290009</ele>
        <time>2021-02-20T16:01:54Z</time>
      </trkpt>
      <trkpt lat="49.60569" lon="5.61809">
        <ele>265.290009</ele>
        <time>2021-02-20T16:01:59Z</time>
      </trkpt>
      <trkpt lat="49.60566" lon="5.61798">
        <ele>265.290009</ele>
        <time>2021-02-20T16:02:03Z</time>
      </trkpt>
      <trkpt lat="49.60563" lon="5.61789">
        <ele>265.290009</ele>
        <time>2021-02-20T16:02:07Z</time>
      </trkpt>
      <trkpt lat="49.60559" lon="5.61777">
        <ele>265.290009</ele>
        <time>2021-02-20T16:02:11Z</time>
      </trkpt>
      <trkpt lat="49.60557" lon="5.61768">
        <ele>265.290009</ele>
        <time>2021-02-20T16:02:15Z</time>
      </trkpt>
      <trkpt lat="49.60558" lon="5.6175">
        <ele>265.290009</ele>
        <time>2021-02-20T16:02:20Z</time>
      </trkpt>
      <trkpt lat="49.60562" lon="5.61738">
        <ele>265.290009</ele>
        <time>2021-02-20T16:02:24Z</time>
      </trkpt>
      <trkpt lat="49.60566" lon="5.61731">
        <ele>265.290009</ele>
        <time>2021-02-20T16:02:28Z</time>
      </trkpt>
      <trkpt lat="49.60572" lon="5.61721">
        <ele>265.290009</ele>
        <time>2021-02-20T16:02:32Z</time>
      </trkpt>
      <trkpt lat="49.60577" lon="5.61712">
        <ele>265.290009</ele>
        <time>2021-02-20T16:02:36Z</time>
      </trkpt>
      <trkpt lat="49.60584" lon="5.61702">
        <ele>265.290009</ele>
        <time>2021-02-20T16:02:41Z</time>
      </trkpt>
      <trkpt lat="49.60595" lon="5.61694">
        <ele>265.290009</ele>
        <time>2021-02-20T16:02:44Z</time>
      </trkpt>
      <trkpt lat="49.60601" lon="5.6168">
        <ele>265.290009</ele>
        <time>2021-02-20T16:02:47Z</time>
      </trkpt>
      <trkpt lat="49.60608" lon="5.61667">
        <ele>265.290009</ele>
        <time>2021-02-20T16:02:49Z</time>
      </trkpt>
      <trkpt lat="49.60616" lon="5.61652">
        <ele>265.290009</ele>
        <time>2021-02-20T16:02:52Z</time>
      </trkpt>
      <trkpt lat="49.60624" lon="5.61639">
        <ele>265.290009</ele>
        <time>2021-02-20T16:02:55Z</time>
      </trkpt>
      <trkpt lat="49.60632" lon="5.61628">
        <ele>265.290009</ele>
        <time>2021-02-20T16:02:58Z</time>
      </trkpt>
      <trkpt lat="49.6064" lon="5.61615">
        <ele>265.290009</ele>
        <time>2021-02-20T16:03:01Z</time>
      </trkpt>
      <trkpt lat="49.60643" lon="5.61604">
        <ele>265.290009</ele>
        <time>2021-02-20T16:03:05Z</time>
      </trkpt>
      <trkpt lat="49.60646" lon="5.61588">
        <ele>265.290009</ele>
        <time>2021-02-20T16:03:08Z</time>
      </trkpt>
      <trkpt lat="49.60648" lon="5.61571">
        <ele>265.290009</ele>
        <time>2021-02-20T16:03:12Z</time>
      </trkpt>
      <trkpt lat="49.60651" lon="5.61555">
        <ele>265.290009</ele>
        <time>2021-02-20T16:03:17Z</time>
      </trkpt>
      <trkpt lat="49.60651" lon="5.6154">
        <ele>265.290009</ele>
        <time>2021-02-20T16:03:19Z</time>
      </trkpt>
      <trkpt lat="49.60654" lon="5.61525">
        <ele>265.290009</ele>
        <time>2021-02-20T16:03:22Z</time>
      </trkpt>
      <trkpt lat="49.60657" lon="5.6151">
        <ele>265.290009</ele>
        <time>2021-02-20T16:03:25Z</time>
      </trkpt>
      <trkpt lat="49.60658" lon="5.61495">
        <ele>265.290009</ele>
        <time>2021-02-20T16:03:29Z</time>
      </trkpt>
      <trkpt lat="49.60656" lon="5.61477">
        <ele>265.290009</ele>
        <time>2021-02-20T16:03:32Z</time>
      </trkpt>
      <trkpt lat="49.60654" lon="5.61461">
        <ele>265.290009</ele>
        <time>2021-02-20T16:03:34Z</time>
      </trkpt>
      <trkpt lat="49.60651" lon="5.61444">
        <ele>265.290009</ele>
        <time>2021-02-20T16:03:36Z</time>
      </trkpt>
      <trkpt lat="49.6065" lon="5.61428">
        <ele>265.290009</ele>
        <time>2021-02-20T16:03:38Z</time>
      </trkpt>
      <trkpt lat="49.60657" lon="5.61419">
        <ele>265.290009</ele>
        <time>2021-02-20T16:03:41Z</time>
      </trkpt>
      <trkpt lat="49.60661" lon="5.61405">
        <ele>265.290009</ele>
        <time>2021-02-20T16:03:44Z</time>
      </trkpt>
      <trkpt lat="49.60668" lon="5.614">
        <ele>265.290009</ele>
        <time>2021-02-20T16:03:48Z</time>
      </trkpt>
      <trkpt lat="49.60679" lon="5.61392">
        <ele>265.290009</ele>
        <time>2021-02-20T16:03:52Z</time>
      </trkpt>
      <trkpt lat="49.6069" lon="5.61386">
        <ele>265.290009</ele>
        <time>2021-02-20T16:03:54Z</time>
      </trkpt>
      <trkpt lat="49.60702" lon="5.61382">
        <ele>265.290009</ele>
        <time>2021-02-20T16:03:56Z</time>
      </trkpt>
      <trkpt lat="49.60712" lon="5.6138">
        <ele>265.290009</ele>
        <time>2021-02-20T16:03:58Z</time>
      </trkpt>
      <trkpt lat="49.60723" lon="5.61379">
        <ele>265.290009</ele>
        <time>2021-02-20T16:04:00Z</time>
      </trkpt>
      <trkpt lat="49.60733" lon="5.61385">
        <ele>265.290009</ele>
        <time>2021-02-20T16:04:03Z</time>
      </trkpt>
      <trkpt lat="49.6074" lon="5.61392">
        <ele>265.290009</ele>
        <time>2021-02-20T16:04:07Z</time>
      </trkpt>
      <trkpt lat="49.60743" lon="5.614">
        <ele>265.290009</ele>
        <time>2021-02-20T16:04:11Z</time>
      </trkpt>
      <trkpt lat="49.60744" lon="5.61408">
        <ele>265.290009</ele>
        <time>2021-02-20T16:04:15Z</time>
      </trkpt>
      <trkpt lat="49.60745" lon="5.61416">
        <ele>265.290009</ele>
        <time>2021-02-20T16:04:19Z</time>
      </trkpt>
      <trkpt lat="49.60748" lon="5.6143">
        <ele>265.290009</ele>
        <time>2021-02-20T16:04:24Z</time>
      </trkpt>
      <trkpt lat="49.60751" lon="5.61441">
        <ele>265.290009</ele>
        <time>2021-02-20T16:04:28Z</time>
      </trkpt>
      <trkpt lat="49.60753" lon="5.61452">
        <ele>265.290009</ele>
        <time>2021-02-20T16:04:33Z</time>
      </trkpt>
      <trkpt lat="49.60753" lon="5.61463">
        <ele>265.290009</ele>
        <time>2021-02-20T16:04:38Z</time>
      </trkpt>
      <trkpt lat="49.60751" lon="5.61469">
        <ele>265.290009</ele>
        <time>2021-02-20T16:04:42Z</time>
      </trkpt>
      <trkpt lat="49.60749" lon="5.61477">
        <ele>265.290009</ele>
        <time>2021-02-20T16:04:46Z</time>
      </trkpt>
      <trkpt lat="49.60748" lon="5.61488">
        <ele>265.290009</ele>
        <time>2021-02-20T16:04:51Z</time>
      </trkpt>
      <trkpt lat="49.60748" lon="5.61497">
        <ele>265.290009</ele>
        <time>2021-02-20T16:04:55Z</time>
      </trkpt>
      <trkpt lat="49.60746" lon="5.61504">
        <ele>265.290009</ele>
        <time>2021-02-20T16:05:00Z</time>
      </trkpt>
      <trkpt lat="49.60745" lon="5.61517">
        <ele>265.290009</ele>
        <time>2021-02-20T16:05:04Z</time>
      </trkpt>
      <trkpt lat="49.60743" lon="5.61524">
        <ele>265.290009</ele>
        <time>2021-02-20T16:05:08Z</time>
      </trkpt>
      <trkpt lat="49.6074" lon="5.61537">
        <ele>265.290009</ele>
        <time>2021-02-20T16:05:13Z</time>
      </trkpt>
      <trkpt lat="49.60738" lon="5.61549">
        <ele>265.290009</ele>
        <time>2021-02-20T16:05:17Z</time>
      </trkpt>
      <trkpt lat="49.60737" lon="5.61565">
        <ele>265.290009</ele>
        <time>2021-02-20T16:05:21Z</time>
      </trkpt>
      <trkpt lat="49.60735" lon="5.61574">
        <ele>265.290009</ele>
        <time>2021-02-20T16:05:26Z</time>
      </trkpt>
      <trkpt lat="49.60732" lon="5.61589">
        <ele>265.290009</ele>
        <time>2021-02-20T16:05:31Z</time>
      </trkpt>
      <trkpt lat="49.6073" lon="5.61605">
        <ele>265.290009</ele>
        <time>2021-02-20T16:05:36Z</time>
      </trkpt>
      <trkpt lat="49.60727" lon="5.61615">
        <ele>265.290009</ele>
        <time>2021-02-20T16:05:41Z</time>
      </trkpt>
      <trkpt lat="49.6072" lon="5.61619">
        <ele>265.290009</ele>
        <time>2021-02-20T16:05:45Z</time>
      </trkpt>
      <trkpt lat="49.60717" lon="5.61627">
        <ele>265.290009</ele>
        <time>2021-02-20T16:05:50Z</time>
      </trkpt>
      <trkpt lat="49.60717" lon="5.61638">
        <ele>265.290009</ele>
        <time>2021-02-20T16:05:54Z</time>
      </trkpt>
      <trkpt lat="49.60716" lon="5.61651">
        <ele>265.290009</ele>
        <time>2021-02-20T16:05:58Z</time>
      </trkpt>
      <trkpt lat="49.60717" lon="5.61663">
        <ele>265.290009</ele>
        <time>2021-02-20T16:06:03Z</time>
      </trkpt>
      <trkpt lat="49.60715" lon="5.61677">
        <ele>265.290009</ele>
        <time>2021-02-20T16:06:07Z</time>
      </trkpt>
      <trkpt lat="49.60711" lon="5.61693">
        <ele>265.290009</ele>
        <time>2021-02-20T16:06:12Z</time>
      </trkpt>
      <trkpt lat="49.6071" lon="5.61706">
        <ele>265.290009</ele>
        <time>2021-02-20T16:06:16Z</time>
      </trkpt>
      <trkpt lat="49.60711" lon="5.61719">
        <ele>265.290009</ele>
        <time>2021-02-20T16:06:20Z</time>
      </trkpt>
      <trkpt lat="49.60712" lon="5.61732">
        <ele>265.290009</ele>
        <time>2021-02-20T16:06:25Z</time>
      </trkpt>
      <trkpt lat="49.60714" lon="5.61748">
        <ele>265.290009</ele>
        <time>2021-02-20T16:06:29Z</time>
      </trkpt>
      <trkpt lat="49.60717" lon="5.61762">
        <ele>265.290009</ele>
        <time>2021-02-20T16:06:33Z</time>
      </trkpt>
      <trkpt lat="49.60728" lon="5.61776">
        <ele>265.290009</ele>
        <time>2021-02-20T16:06:36Z</time>
      </trkpt>
      <trkpt lat="49.60735" lon="5.61784">
        <ele>265.290009</ele>
        <time>2021-02-20T16:06:41Z</time>
      </trkpt>
      <trkpt lat="49.60741" lon="5.61794">
        <ele>265.290009</ele>
        <time>2021-02-20T16:06:46Z</time>
      </trkpt>
      <trkpt lat="49.60748" lon="5.61806">
        <ele>265.290009</ele>
        <time>2021-02-20T16:06:48Z</time>
      </trkpt>
      <trkpt lat="49.60752" lon="5.61813">
        <ele>265.290009</ele>
        <time>2021-02-20T16:06:53Z</time>
      </trkpt>
      <trkpt lat="49.60758" lon="5.61823">
        <ele>265.290009</ele>
        <time>2021-02-20T16:06:57Z</time>
      </trkpt>
      <trkpt lat="49.60768" lon="5.61832">
        <ele>265.290009</ele>
        <time>2021-02-20T16:07:02Z</time>
      </trkpt>
      <trkpt lat="49.60775" lon="5.61841">
        <ele>265.290009</ele>
        <time>2021-02-20T16:07:06Z</time>
      </trkpt>
      <trkpt lat="49.60782" lon="5.61852">
        <ele>265.290009</ele>
        <time>2021-02-20T16:07:10Z</time>
      </trkpt>
      <trkpt lat="49.60787" lon="5.61864">
        <ele>265.290009</ele>
        <time>2021-02-20T16:07:15Z</time>
      </trkpt>
      <trkpt lat="49.60792" lon="5.61875">
        <ele>265.290009</ele>
        <time>2021-02-20T16:07:19Z</time>
      </trkpt>
      <trkpt lat="49.60794" lon="5.61886">
        <ele>265.290009</ele>
        <time>2021-02-20T16:07:23Z</time>
      </trkpt>
      <trkpt lat="49.60799" lon="5.61897">
        <ele>265.290009</ele>
        <time>2021-02-20T16:07:26Z</time>
      </trkpt>
      <trkpt lat="49.60806" lon="5.6191">
        <ele>265.290009</ele>
        <time>2021-02-20T16:07:30Z</time>
      </trkpt>
      <trkpt lat="49.60809" lon="5.61925">
        <ele>265.290009</ele>
        <time>2021-02-20T16:07:35Z</time>
      </trkpt>
      <trkpt lat="49.60812" lon="5.61942">
        <ele>265.290009</ele>
        <time>2021-02-20T16:07:38Z</time>
      </trkpt>
      <trkpt lat="49.60814" lon="5.61958">
        <ele>265.290009</ele>
        <time>2021-02-20T16:07:42Z</time>
      </trkpt>
      <trkpt lat="49.60816" lon="5.61972">
        <ele>265.290009</ele>
        <time>2021-02-20T16:07:45Z</time>
      </trkpt>
      <trkpt lat="49.60812" lon="5.6198">
        <ele>265.290009</ele>
        <time>2021-02-20T16:07:49Z</time>
      </trkpt>
      <trkpt lat="49.6081" lon="5.61997">
        <ele>265.290009</ele>
        <time>2021-02-20T16:07:53Z</time>
      </trkpt>
      <trkpt lat="49.60809" lon="5.62014">
        <ele>265.290009</ele>
        <time>2021-02-20T16:07:57Z</time>
      </trkpt>
      <trkpt lat="49.60808" lon="5.62029">
        <ele>265.279999</ele>
        <time>2021-02-20T16:07:58Z</time>
      </trkpt>
      <trkpt lat="49.60805" lon="5.62045">
        <ele>265.279999</ele>
        <time>2021-02-20T16:08:02Z</time>
      </trkpt>
      <trkpt lat="49.60802" lon="5.62064">
        <ele>265.279999</ele>
        <time>2021-02-20T16:08:04Z</time>
      </trkpt>
      <trkpt lat="49.60799" lon="5.62084">
        <ele>265.279999</ele>
        <time>2021-02-20T16:08:07Z</time>
      </trkpt>
      <trkpt lat="49.60797" lon="5.62102">
        <ele>265.279999</ele>
        <time>2021-02-20T16:08:11Z</time>
      </trkpt>
      <trkpt lat="49.60794" lon="5.62115">
        <ele>265.279999</ele>
        <time>2021-02-20T16:08:15Z</time>
      </trkpt>
      <trkpt lat="49.60791" lon="5.62131">
        <ele>265.279999</ele>
        <time>2021-02-20T16:08:18Z</time>
      </trkpt>
      <trkpt lat="49.6079" lon="5.62146">
        <ele>265.279999</ele>
        <time>2021-02-20T16:08:22Z</time>
      </trkpt>
      <trkpt lat="49.60792" lon="5.62164">
        <ele>265.279999</ele>
        <time>2021-02-20T16:08:24Z</time>
      </trkpt>
      <trkpt lat="49.60793" lon="5.6218">
        <ele>265.279999</ele>
        <time>2021-02-20T16:08:26Z</time>
      </trkpt>
      <trkpt lat="49.60793" lon="5.62197">
        <ele>265.279999</ele>
        <time>2021-02-20T16:08:28Z</time>
      </trkpt>
      <trkpt lat="49.6079" lon="5.62209">
        <ele>265.279999</ele>
        <time>2021-02-20T16:08:32Z</time>
      </trkpt>
      <trkpt lat="49.60786" lon="5.62223">
        <ele>265.279999</ele>
        <time>2021-02-20T16:08:35Z</time>
      </trkpt>
      <trkpt lat="49.60784" lon="5.62239">
        <ele>265.279999</ele>
        <time>2021-02-20T16:08:39Z</time>
      </trkpt>
      <trkpt lat="49.60782" lon="5.62253">
        <ele>265.279999</ele>
        <time>2021-02-20T16:08:41Z</time>
      </trkpt>
      <trkpt lat="49.6078" lon="5.62268">
        <ele>265.279999</ele>
        <time>2021-02-20T16:08:45Z</time>
      </trkpt>
      <trkpt lat="49.6078" lon="5.62282">
        <ele>265.279999</ele>
        <time>2021-02-20T16:08:48Z</time>
      </trkpt>
      <trkpt lat="49.60778" lon="5.62295">
        <ele>265.279999</ele>
        <time>2021-02-20T16:08:52Z</time>
      </trkpt>
      <trkpt lat="49.60775" lon="5.62313">
        <ele>265.279999</ele>
        <time>2021-02-20T16:08:55Z</time>
      </trkpt>
      <trkpt lat="49.60773" lon="5.62329">
        <ele>265.279999</ele>
        <time>2021-02-20T16:08:58Z</time>
      </trkpt>
      <trkpt lat="49.60773" lon="5.62345">
        <ele>265.279999</ele>
        <time>2021-02-20T16:09:00Z</time>
      </trkpt>
      <trkpt lat="49.60776" lon="5.62363">
        <ele>265.279999</ele>
        <time>2021-02-20T16:09:04Z</time>
      </trkpt>
      <trkpt lat="49.6078" lon="5.62379">
        <ele>265.279999</ele>
        <time>2021-02-20T16:09:05Z</time>
      </trkpt>
      <trkpt lat="49.60783" lon="5.62395">
        <ele>265.279999</ele>
        <time>2021-02-20T16:09:07Z</time>
      </trkpt>
      <trkpt lat="49.60788" lon="5.62413">
        <ele>265.279999</ele>
        <time>2021-02-20T16:09:10Z</time>
      </trkpt>
      <trkpt lat="49.60792" lon="5.62429">
        <ele>265.279999</ele>
        <time>2021-02-20T16:09:13Z</time>
      </trkpt>
      <trkpt lat="49.60797" lon="5.62454">
        <ele>265.279999</ele>
        <time>2021-02-20T16:09:15Z</time>
      </trkpt>
      <trkpt lat="49.60799" lon="5.62465">
        <ele>265.279999</ele>
        <time>2021-02-20T16:09:19Z</time>
      </trkpt>
      <trkpt lat="49.60803" lon="5.62472">
        <ele>265.279999</ele>
        <time>2021-02-20T16:09:25Z</time>
      </trkpt>
      <trkpt lat="49.60803" lon="5.62474">
        <ele>265.279999</ele>
        <time>2021-02-20T16:09:30Z</time>
      </trkpt>
      <trkpt lat="49.60802" lon="5.62476">
        <ele>265.279999</ele>
        <time>2021-02-20T16:09:35Z</time>
      </trkpt>
      <trkpt lat="49.60802" lon="5.62478">
        <ele>265.279999</ele>
        <time>2021-02-20T16:09:40Z</time>
      </trkpt>
      <trkpt lat="49.60802" lon="5.62478">
        <ele>265.279999</ele>
        <time>2021-02-20T16:09:45Z</time>
      </trkpt>
      <trkpt lat="49.60802" lon="5.62478">
        <ele>265.279999</ele>
        <time>2021-02-20T16:09:50Z</time>
      </trkpt>
      <trkpt lat="49.60802" lon="5.62478">
        <ele>265.279999</ele>
        <time>2021-02-20T16:09:55Z</time>
      </trkpt>
      <trkpt lat="49.60802" lon="5.62478">
        <ele>265.279999</ele>
        <time>2021-02-20T16:10:00Z</time>
      </trkpt>
      <trkpt lat="49.60802" lon="5.62479">
        <ele>265.279999</ele>
        <time>2021-02-20T16:10:05Z</time>
      </trkpt>
      <trkpt lat="49.60801" lon="5.62481">
        <ele>265.279999</ele>
        <time>2021-02-20T16:10:10Z</time>
      </trkpt>
      <trkpt lat="49.60804" lon="5.62481">
        <ele>265.279999</ele>
        <time>2021-02-20T16:10:15Z</time>
      </trkpt>
      <trkpt lat="49.60805" lon="5.62483">
        <ele>265.279999</ele>
        <time>2021-02-20T16:10:19Z</time>
      </trkpt>
      <trkpt lat="49.60809" lon="5.62497">
        <ele>265.279999</ele>
        <time>2021-02-20T16:10:23Z</time>
      </trkpt>
      <trkpt lat="49.60813" lon="5.62515">
        <ele>265.279999</ele>
        <time>2021-02-20T16:10:26Z</time>
      </trkpt>
      <trkpt lat="49.60816" lon="5.6253">
        <ele>265.279999</ele>
        <time>2021-02-20T16:10:28Z</time>
      </trkpt>
      <trkpt lat="49.60819" lon="5.62544">
        <ele>265.279999</ele>
        <time>2021-02-20T16:10:30Z</time>
      </trkpt>
      <trkpt lat="49.60823" lon="5.62561">
        <ele>265.279999</ele>
        <time>2021-02-20T16:10:33Z</time>
      </trkpt>
      <trkpt lat="49.60826" lon="5.62577">
        <ele>265.279999</ele>
        <time>2021-02-20T16:10:37Z</time>
      </trkpt>
      <trkpt lat="49.6083" lon="5.62589">
        <ele>265.279999</ele>
        <time>2021-02-20T16:10:42Z</time>
      </trkpt>
      <trkpt lat="49.60833" lon="5.62605">
        <ele>265.279999</ele>
        <time>2021-02-20T16:10:46Z</time>
      </trkpt>
      <trkpt lat="49.60835" lon="5.6262">
        <ele>265.279999</ele>
        <time>2021-02-20T16:10:49Z</time>
      </trkpt>
      <trkpt lat="49.60837" lon="5.62634">
        <ele>265.279999</ele>
        <time>2021-02-20T16:10:51Z</time>
      </trkpt>
      <trkpt lat="49.60838" lon="5.62648">
        <ele>265.279999</ele>
        <time>2021-02-20T16:10:55Z</time>
      </trkpt>
      <trkpt lat="49.60841" lon="5.62663">
        <ele>265.279999</ele>
        <time>2021-02-20T16:10:57Z</time>
      </trkpt>
      <trkpt lat="49.60848" lon="5.62677">
        <ele>265.279999</ele>
        <time>2021-02-20T16:11:00Z</time>
      </trkpt>
      <trkpt lat="49.60854" lon="5.62692">
        <ele>265.279999</ele>
        <time>2021-02-20T16:11:02Z</time>
      </trkpt>
      <trkpt lat="49.6086" lon="5.62705">
        <ele>265.279999</ele>
        <time>2021-02-20T16:11:05Z</time>
      </trkpt>
      <trkpt lat="49.60864" lon="5.62718">
        <ele>265.279999</ele>
        <time>2021-02-20T16:11:07Z</time>
      </trkpt>
      <trkpt lat="49.60867" lon="5.62736">
        <ele>265.279999</ele>
        <time>2021-02-20T16:11:11Z</time>
      </trkpt>
      <trkpt lat="49.60876" lon="5.62745">
        <ele>265.279999</ele>
        <time>2021-02-20T16:11:14Z</time>
      </trkpt>
      <trkpt lat="49.60884" lon="5.62754">
        <ele>265.279999</ele>
        <time>2021-02-20T16:11:17Z</time>
      </trkpt>
      <trkpt lat="49.60892" lon="5.62761">
        <ele>265.279999</ele>
        <time>2021-02-20T16:11:20Z</time>
      </trkpt>
      <trkpt lat="49.60901" lon="5.62765">
        <ele>265.279999</ele>
        <time>2021-02-20T16:11:22Z</time>
      </trkpt>
      <trkpt lat="49.60916" lon="5.62772">
        <ele>265.279999</ele>
        <time>2021-02-20T16:11:24Z</time>
      </trkpt>
      <trkpt lat="49.60926" lon="5.62778">
        <ele>265.279999</ele>
        <time>2021-02-20T16:11:26Z</time>
      </trkpt>
      <trkpt lat="49.60936" lon="5.62787">
        <ele>265.279999</ele>
        <time>2021-02-20T16:11:29Z</time>
      </trkpt>
      <trkpt lat="49.60947" lon="5.62797">
        <ele>265.279999</ele>
        <time>2021-02-20T16:11:32Z</time>
      </trkpt>
      <trkpt lat="49.60956" lon="5.62805">
        <ele>265.279999</ele>
        <time>2021-02-20T16:11:36Z</time>
      </trkpt>
      <trkpt lat="49.60966" lon="5.62811">
        <ele>265.279999</ele>
        <time>2021-02-20T16:11:39Z</time>
      </trkpt>
      <trkpt lat="49.60974" lon="5.62821">
        <ele>265.279999</ele>
        <time>2021-02-20T16:11:42Z</time>
      </trkpt>
      <trkpt lat="49.60982" lon="5.6283">
        <ele>265.279999</ele>
        <time>2021-02-20T16:11:45Z</time>
      </trkpt>
      <trkpt lat="49.60993" lon="5.62835">
        <ele>265.279999</ele>
        <time>2021-02-20T16:11:48Z</time>
      </trkpt>
      <trkpt lat="49.61002" lon="5.62841">
        <ele>265.279999</ele>
        <time>2021-02-20T16:11:51Z</time>
      </trkpt>
      <trkpt lat="49.61012" lon="5.62848">
        <ele>265.279999</ele>
        <time>2021-02-20T16:11:55Z</time>
      </trkpt>
      <trkpt lat="49.6102" lon="5.62856">
        <ele>265.279999</ele>
        <time>2021-02-20T16:12:00Z</time>
      </trkpt>
      <trkpt lat="49.61031" lon="5.62861">
        <ele>265.279999</ele>
        <time>2021-02-20T16:12:02Z</time>
      </trkpt>
      <trkpt lat="49.61042" lon="5.62865">
        <ele>265.279999</ele>
        <time>2021-02-20T16:12:05Z</time>
      </trkpt>
      <trkpt lat="49.61053" lon="5.62869">
        <ele>265.279999</ele>
        <time>2021-02-20T16:12:08Z</time>
      </trkpt>
      <trkpt lat="49.61064" lon="5.62871">
        <ele>265.279999</ele>
        <time>2021-02-20T16:12:11Z</time>
      </trkpt>
      <trkpt lat="49.61066" lon="5.62878">
        <ele>265.279999</ele>
        <time>2021-02-20T16:12:16Z</time>
      </trkpt>
      <trkpt lat="49.61076" lon="5.62885">
        <ele>265.279999</ele>
        <time>2021-02-20T16:12:19Z</time>
      </trkpt>
      <trkpt lat="49.61084" lon="5.62891">
        <ele>265.279999</ele>
        <time>2021-02-20T16:12:23Z</time>
      </trkpt>
      <trkpt lat="49.61091" lon="5.62901">
        <ele>265.279999</ele>
        <time>2021-02-20T16:12:26Z</time>
      </trkpt>
      <trkpt lat="49.61099" lon="5.62909">
        <ele>265.279999</ele>
        <time>2021-02-20T16:12:30Z</time>
      </trkpt>
      <trkpt lat="49.61107" lon="5.62915">
        <ele>265.279999</ele>
        <time>2021-02-20T16:12:34Z</time>
      </trkpt>
      <trkpt lat="49.61119" lon="5.62919">
        <ele>265.279999</ele>
        <time>2021-02-20T16:12:39Z</time>
      </trkpt>
      <trkpt lat="49.61128" lon="5.62917">
        <ele>265.279999</ele>
        <time>2021-02-20T16:12:40Z</time>
      </trkpt>
      <trkpt lat="49.61138" lon="5.62918">
        <ele>265.279999</ele>
        <time>2021-02-20T16:12:43Z</time>
      </trkpt>
      <trkpt lat="49.61149" lon="5.62917">
        <ele>265.279999</ele>
        <time>2021-02-20T16:12:47Z</time>
      </trkpt>
      <trkpt lat="49.61158" lon="5.62914">
        <ele>265.279999</ele>
        <time>2021-02-20T16:12:50Z</time>
      </trkpt>
      <trkpt lat="49.61166" lon="5.62909">
        <ele>265.279999</ele>
        <time>2021-02-20T16:12:54Z</time>
      </trkpt>
      <trkpt lat="49.61173" lon="5.62904">
        <ele>265.279999</ele>
        <time>2021-02-20T16:12:58Z</time>
      </trkpt>
      <trkpt lat="49.6118" lon="5.62895">
        <ele>265.279999</ele>
        <time>2021-02-20T16:13:01Z</time>
      </trkpt>
      <trkpt lat="49.61189" lon="5.62891">
        <ele>265.279999</ele>
        <time>2021-02-20T16:13:05Z</time>
      </trkpt>
      <trkpt lat="49.61198" lon="5.62885">
        <ele>265.279999</ele>
        <time>2021-02-20T16:13:08Z</time>
      </trkpt>
      <trkpt lat="49.61207" lon="5.62878">
        <ele>265.279999</ele>
        <time>2021-02-20T16:13:12Z</time>
      </trkpt>
      <trkpt lat="49.61215" lon="5.62871">
        <ele>265.279999</ele>
        <time>2021-02-20T16:13:16Z</time>
      </trkpt>
      <trkpt lat="49.61224" lon="5.62863">
        <ele>265.279999</ele>
        <time>2021-02-20T16:13:20Z</time>
      </trkpt>
      <trkpt lat="49.61232" lon="5.62857">
        <ele>265.279999</ele>
        <time>2021-02-20T16:13:23Z</time>
      </trkpt>
      <trkpt lat="49.61242" lon="5.62849">
        <ele>265.279999</ele>
        <time>2021-02-20T16:13:27Z</time>
      </trkpt>
      <trkpt lat="49.61251" lon="5.62845">
        <ele>265.279999</ele>
        <time>2021-02-20T16:13:30Z</time>
      </trkpt>
      <trkpt lat="49.61261" lon="5.6284">
        <ele>265.279999</ele>
        <time>2021-02-20T16:13:34Z</time>
      </trkpt>
      <trkpt lat="49.61268" lon="5.62825">
        <ele>265.279999</ele>
        <time>2021-02-20T16:13:38Z</time>
      </trkpt>
      <trkpt lat="49.61276" lon="5.62815">
        <ele>265.279999</ele>
        <time>2021-02-20T16:13:42Z</time>
      </trkpt>
      <trkpt lat="49.61283" lon="5.62815">
        <ele>265.279999</ele>
        <time>2021-02-20T16:13:46Z</time>
      </trkpt>
      <trkpt lat="49.61289" lon="5.62808">
        <ele>265.279999</ele>
        <time>2021-02-20T16:13:50Z</time>
      </trkpt>
      <trkpt lat="49.61295" lon="5.62801">
        <ele>265.279999</ele>
        <time>2021-02-20T16:13:54Z</time>
      </trkpt>
      <trkpt lat="49.613" lon="5.628">
        <ele>265.279999</ele>
        <time>2021-02-20T16:13:59Z</time>
      </trkpt>
      <trkpt lat="49.61307" lon="5.62799">
        <ele>265.279999</ele>
        <time>2021-02-20T16:14:04Z</time>
      </trkpt>
      <trkpt lat="49.61316" lon="5.62796">
        <ele>265.279999</ele>
        <time>2021-02-20T16:14:08Z</time>
      </trkpt>
      <trkpt lat="49.61322" lon="5.62793">
        <ele>265.279999</ele>
        <time>2021-02-20T16:14:12Z</time>
      </trkpt>
      <trkpt lat="49.6133" lon="5.62786">
        <ele>265.279999</ele>
        <time>2021-02-20T16:14:17Z</time>
      </trkpt>
      <trkpt lat="49.6134" lon="5.62781">
        <ele>265.279999</ele>
        <time>2021-02-20T16:14:22Z</time>
      </trkpt>
      <trkpt lat="49.61349" lon="5.62776">
        <ele>265.279999</ele>
        <time>2021-02-20T16:14:26Z</time>
      </trkpt>
      <trkpt lat="49.61354" lon="5.62773">
        <ele>265.279999</ele>
        <time>2021-02-20T16:14:31Z</time>
      </trkpt>
      <trkpt lat="49.61361" lon="5.62766">
        <ele>265.279999</ele>
        <time>2021-02-20T16:14:35Z</time>
      </trkpt>
      <trkpt lat="49.61371" lon="5.62758">
        <ele>265.279999</ele>
        <time>2021-02-20T16:14:40Z</time>
      </trkpt>
      <trkpt lat="49.61375" lon="5.62751">
        <ele>265.279999</ele>
        <time>2021-02-20T16:14:45Z</time>
      </trkpt>
      <trkpt lat="49.61382" lon="5.62743">
        <ele>265.279999</ele>
        <time>2021-02-20T16:14:49Z</time>
      </trkpt>
      <trkpt lat="49.6139" lon="5.62733">
        <ele>265.279999</ele>
        <time>2021-02-20T16:14:54Z</time>
      </trkpt>
      <trkpt lat="49.61395" lon="5.6273">
        <ele>265.279999</ele>
        <time>2021-02-20T16:14:59Z</time>
      </trkpt>
      <trkpt lat="49.614" lon="5.62727">
        <ele>265.279999</ele>
        <time>2021-02-20T16:15:03Z</time>
      </trkpt>
      <trkpt lat="49.61404" lon="5.62723">
        <ele>265.279999</ele>
        <time>2021-02-20T16:15:08Z</time>
      </trkpt>
      <trkpt lat="49.6141" lon="5.62721">
        <ele>265.279999</ele>
        <time>2021-02-20T16:15:12Z</time>
      </trkpt>
      <trkpt lat="49.61416" lon="5.62718">
        <ele>265.279999</ele>
        <time>2021-02-20T16:15:17Z</time>
      </trkpt>
      <trkpt lat="49.61422" lon="5.62714">
        <ele>265.279999</ele>
        <time>2021-02-20T16:15:22Z</time>
      </trkpt>
      <trkpt lat="49.61428" lon="5.62711">
        <ele>265.279999</ele>
        <time>2021-02-20T16:15:26Z</time>
      </trkpt>
      <trkpt lat="49.61433" lon="5.62704">
        <ele>265.279999</ele>
        <time>2021-02-20T16:15:31Z</time>
      </trkpt>
      <trkpt lat="49.61439" lon="5.62692">
        <ele>265.279999</ele>
        <time>2021-02-20T16:15:35Z</time>
      </trkpt>
      <trkpt lat="49.61444" lon="5.62684">
        <ele>265.279999</ele>
        <time>2021-02-20T16:15:40Z</time>
      </trkpt>
      <trkpt lat="49.61451" lon="5.62679">
        <ele>265.279999</ele>
        <time>2021-02-20T16:15:45Z</time>
      </trkpt>
      <trkpt lat="49.61458" lon="5.62674">
        <ele>265.279999</ele>
        <time>2021-02-20T16:15:49Z</time>
      </trkpt>
      <trkpt lat="49.61463" lon="5.62673">
        <ele>265.279999</ele>
        <time>2021-02-20T16:15:54Z</time>
      </trkpt>
      <trkpt lat="49.61467" lon="5.62672">
        <ele>265.279999</ele>
        <time>2021-02-20T16:15:58Z</time>
      </trkpt>
      <trkpt lat="49.6147" lon="5.62669">
        <ele>265.279999</ele>
        <time>2021-02-20T16:16:03Z</time>
      </trkpt>
      <trkpt lat="49.61476" lon="5.62665">
        <ele>265.279999</ele>
        <time>2021-02-20T16:16:07Z</time>
      </trkpt>
      <trkpt lat="49.61483" lon="5.62665">
        <ele>265.279999</ele>
        <time>2021-02-20T16:16:11Z</time>
      </trkpt>
      <trkpt lat="49.6149" lon="5.62666">
        <ele>265.279999</ele>
        <time>2021-02-20T16:16:16Z</time>
      </trkpt>
      <trkpt lat="49.61497" lon="5.6267">
        <ele>265.279999</ele>
        <time>2021-02-20T16:16:21Z</time>
      </trkpt>
      <trkpt lat="49.61503" lon="5.62674">
        <ele>265.279999</ele>
        <time>2021-02-20T16:16:25Z</time>
      </trkpt>
      <trkpt lat="49.61509" lon="5.62678">
        <ele>265.279999</ele>
        <time>2021-02-20T16:16:30Z</time>
      </trkpt>
      <trkpt lat="49.61516" lon="5.62674">
        <ele>265.279999</ele>
        <time>2021-02-20T16:16:35Z</time>
      </trkpt>
      <trkpt lat="49.61519" lon="5.62674">
        <ele>265.279999</ele>
        <time>2021-02-20T16:16:40Z</time>
      </trkpt>
      <trkpt lat="49.6152" lon="5.62674">
        <ele>265.279999</ele>
        <time>2021-02-20T16:16:44Z</time>
      </trkpt>
      <trkpt lat="49.6152" lon="5.62676">
        <ele>265.279999</ele>
        <time>2021-02-20T16:16:49Z</time>
      </trkpt>
      <trkpt lat="49.61522" lon="5.62675">
        <ele>265.279999</ele>
        <time>2021-02-20T16:16:54Z</time>
      </trkpt>
      <trkpt lat="49.61523" lon="5.62674">
        <ele>265.279999</ele>
        <time>2021-02-20T16:16:59Z</time>
      </trkpt>
      <trkpt lat="49.61523" lon="5.62675">
        <ele>265.279999</ele>
        <time>2021-02-20T16:17:04Z</time>
      </trkpt>
      <trkpt lat="49.61524" lon="5.62676">
        <ele>265.279999</ele>
        <time>2021-02-20T16:17:08Z</time>
      </trkpt>
      <trkpt lat="49.61523" lon="5.62681">
        <ele>265.279999</ele>
        <time>2021-02-20T16:17:13Z</time>
      </trkpt>
      <trkpt lat="49.61524" lon="5.62684">
        <ele>265.279999</ele>
        <time>2021-02-20T16:17:18Z</time>
      </trkpt>
      <trkpt lat="49.6153" lon="5.62689">
        <ele>265.279999</ele>
        <time>2021-02-20T16:17:23Z</time>
      </trkpt>
      <trkpt lat="49.61535" lon="5.62694">
        <ele>265.279999</ele>
        <time>2021-02-20T16:17:28Z</time>
      </trkpt>
      <trkpt lat="49.61543" lon="5.62701">
        <ele>265.279999</ele>
        <time>2021-02-20T16:17:32Z</time>
      </trkpt>
      <trkpt lat="49.61548" lon="5.62711">
        <ele>265.279999</ele>
        <time>2021-02-20T16:17:36Z</time>
      </trkpt>
      <trkpt lat="49.61552" lon="5.6272">
        <ele>265.279999</ele>
        <time>2021-02-20T16:17:40Z</time>
      </trkpt>
      <trkpt lat="49.61552" lon="5.62727">
        <ele>265.279999</ele>
        <time>2021-02-20T16:17:45Z</time>
      </trkpt>
      <trkpt lat="49.61556" lon="5.62742">
        <ele>265.279999</ele>
        <time>2021-02-20T16:17:49Z</time>
      </trkpt>
      <trkpt lat="49.6156" lon="5.62755">
        <ele>265.279999</ele>
        <time>2021-02-20T16:17:53Z</time>
      </trkpt>
      <trkpt lat="49.61566" lon="5.62765">
        <ele>265.279999</ele>
        <time>2021-02-20T16:17:55Z</time>
      </trkpt>
      <trkpt lat="49.61573" lon="5.62779">
        <ele>265.279999</ele>
        <time>2021-02-20T16:17:58Z</time>
      </trkpt>
      <trkpt lat="49.61579" lon="5.6279">
        <ele>265.279999</ele>
        <time>2021-02-20T16:18:00Z</time>
      </trkpt>
      <trkpt lat="49.61588" lon="5.62805">
        <ele>265.279999</ele>
        <time>2021-02-20T16:18:03Z</time>
      </trkpt>
      <trkpt lat="49.61596" lon="5.62816">
        <ele>265.279999</ele>
        <time>2021-02-20T16:18:07Z</time>
      </trkpt>
      <trkpt lat="49.61604" lon="5.62828">
        <ele>265.279999</ele>
        <time>2021-02-20T16:18:09Z</time>
      </trkpt>
      <trkpt lat="49.6161" lon="5.6284">
        <ele>265.279999</ele>
        <time>2021-02-20T16:18:12Z</time>
      </trkpt>
      <trkpt lat="49.61617" lon="5.62854">
        <ele>265.279999</ele>
        <time>2021-02-20T16:18:15Z</time>
      </trkpt>
      <trkpt lat="49.61622" lon="5.62869">
        <ele>265.269989</ele>
        <time>2021-02-20T16:18:18Z</time>
      </trkpt>
      <trkpt lat="49.61629" lon="5.62885">
        <ele>265.269989</ele>
        <time>2021-02-20T16:18:21Z</time>
      </trkpt>
      <trkpt lat="49.61636" lon="5.629">
        <ele>265.269989</ele>
        <time>2021-02-20T16:18:24Z</time>
      </trkpt>
      <trkpt lat="49.61641" lon="5.62917">
        <ele>265.269989</ele>
        <time>2021-02-20T16:18:28Z</time>
      </trkpt>
      <trkpt lat="49.61647" lon="5.62932">
        <ele>265.269989</ele>
        <time>2021-02-20T16:18:31Z</time>
      </trkpt>
      <trkpt lat="49.61656" lon="5.62945">
        <ele>265.269989</ele>
        <time>2021-02-20T16:18:34Z</time>
      </trkpt>
      <trkpt lat="49.61662" lon="5.6296">
        <ele>265.269989</ele>
        <time>2021-02-20T16:18:37Z</time>
      </trkpt>
      <trkpt lat="49.61671" lon="5.62973">
        <ele>265.269989</ele>
        <time>2021-02-20T16:18:40Z</time>
      </trkpt>
      <trkpt lat="49.61677" lon="5.62984">
        <ele>265.269989</ele>
        <time>2021-02-20T16:18:42Z</time>
      </trkpt>
      <trkpt lat="49.61682" lon="5.62998">
        <ele>265.269989</ele>
        <time>2021-02-20T16:18:45Z</time>
      </trkpt>
      <trkpt lat="49.61688" lon="5.63014">
        <ele>265.269989</ele>
        <time>2021-02-20T16:18:48Z</time>
      </trkpt>
      <trkpt lat="49.61694" lon="5.63028">
        <ele>265.269989</ele>
        <time>2021-02-20T16:18:50Z</time>
      </trkpt>
      <trkpt lat="49.61704" lon="5.63038">
        <ele>265.269989</ele>
        <time>2021-02-20T16:18:53Z</time>
      </trkpt>
      <trkpt lat="49.61714" lon="5.63049">
        <ele>265.269989</ele>
        <time>2021-02-20T16:18:56Z</time>
      </trkpt>
      <trkpt lat="49.61721" lon="5.63062">
        <ele>265.269989</ele>
        <time>2021-02-20T16:18:59Z</time>
      </trkpt>
      <trkpt lat="49.61729" lon="5.63068">
        <ele>265.269989</ele>
        <time>2021-02-20T16:19:00Z</time>
      </trkpt>
      <trkpt lat="49.61738" lon="5.63083">
        <ele>265.269989</ele>
        <time>2021-02-20T16:19:03Z</time>
      </trkpt>
      <trkpt lat="49.61743" lon="5.63096">
        <ele>265.269989</ele>
        <time>2021-02-20T16:19:05Z</time>
      </trkpt>
      <trkpt lat="49.61748" lon="5.63108">
        <ele>265.269989</ele>
        <time>2021-02-20T16:19:07Z</time>
      </trkpt>
      <trkpt lat="49.61754" lon="5.63121">
        <ele>265.269989</ele>
        <time>2021-02-20T16:19:09Z</time>
      </trkpt>
      <trkpt lat="49.6176" lon="5.63131">
        <ele>265.269989</ele>
        <time>2021-02-20T16:19:12Z</time>
      </trkpt>
      <trkpt lat="49.61767" lon="5.63142">
        <ele>265.269989</ele>
        <time>2021-02-20T16:19:13Z</time>
      </trkpt>
      <trkpt lat="49.61774" lon="5.63153">
        <ele>265.269989</ele>
        <time>2021-02-20T16:19:15Z</time>
      </trkpt>
      <trkpt lat="49.61781" lon="5.63163">
        <ele>265.269989</ele>
        <time>2021-02-20T16:19:17Z</time>
      </trkpt>
      <trkpt lat="49.61789" lon="5.63179">
        <ele>265.269989</ele>
        <time>2021-02-20T16:19:20Z</time>
      </trkpt>
      <trkpt lat="49.61798" lon="5.63192">
        <ele>265.269989</ele>
        <time>2021-02-20T16:19:22Z</time>
      </trkpt>
      <trkpt lat="49.61806" lon="5.63202">
        <ele>265.269989</ele>
        <time>2021-02-20T16:19:24Z</time>
      </trkpt>
      <trkpt lat="49.61818" lon="5.63214">
        <ele>265.269989</ele>
        <time>2021-02-20T16:19:26Z</time>
      </trkpt>
      <trkpt lat="49.61829" lon="5.63224">
        <ele>265.269989</ele>
        <time>2021-02-20T16:19:28Z</time>
      </trkpt>
      <trkpt lat="49.61837" lon="5.63231">
        <ele>265.269989</ele>
        <time>2021-02-20T16:19:29Z</time>
      </trkpt>
      <trkpt lat="49.61847" lon="5.63235">
        <ele>265.269989</ele>
        <time>2021-02-20T16:19:33Z</time>
      </trkpt>
      <trkpt lat="49.61858" lon="5.63238">
        <ele>265.269989</ele>
        <time>2021-02-20T16:19:36Z</time>
      </trkpt>
      <trkpt lat="49.6187" lon="5.63244">
        <ele>265.269989</ele>
        <time>2021-02-20T16:19:38Z</time>
      </trkpt>
      <trkpt lat="49.6188" lon="5.63248">
        <ele>265.269989</ele>
        <time>2021-02-20T16:19:40Z</time>
      </trkpt>
      <trkpt lat="49.6189" lon="5.63248">
        <ele>265.269989</ele>
        <time>2021-02-20T16:19:42Z</time>
      </trkpt>
      <trkpt lat="49.619" lon="5.63254">
        <ele>265.269989</ele>
        <time>2021-02-20T16:19:44Z</time>
      </trkpt>
      <trkpt lat="49.61909" lon="5.63261">
        <ele>265.269989</ele>
        <time>2021-02-20T16:19:46Z</time>
      </trkpt>
      <trkpt lat="49.61919" lon="5.63265">
        <ele>265.269989</ele>
        <time>2021-02-20T16:19:48Z</time>
      </trkpt>
      <trkpt lat="49.61928" lon="5.6327">
        <ele>265.269989</ele>
        <time>2021-02-20T16:19:49Z</time>
      </trkpt>
      <trkpt lat="49.61939" lon="5.63282">
        <ele>265.269989</ele>
        <time>2021-02-20T16:19:53Z</time>
      </trkpt>
      <trkpt lat="49.61948" lon="5.63289">
        <ele>265.269989</ele>
        <time>2021-02-20T16:19:55Z</time>
      </trkpt>
      <trkpt lat="49.61958" lon="5.63297">
        <ele>265.269989</ele>
        <time>2021-02-20T16:19:57Z</time>
      </trkpt>
      <trkpt lat="49.61968" lon="5.63306">
        <ele>265.269989</ele>
        <time>2021-02-20T16:19:59Z</time>
      </trkpt>
      <trkpt lat="49.61976" lon="5.63314">
        <ele>265.269989</ele>
        <time>2021-02-20T16:20:01Z</time>
      </trkpt>
      <trkpt lat="49.61986" lon="5.6332">
        <ele>265.269989</ele>
        <time>2021-02-20T16:20:03Z</time>
      </trkpt>
      <trkpt lat="49.61995" lon="5.63313">
        <ele>265.269989</ele>
        <time>2021-02-20T16:20:06Z</time>
      </trkpt>
      <trkpt lat="49.62002" lon="5.633">
        <ele>265.269989</ele>
        <time>2021-02-20T16:20:10Z</time>
      </trkpt>
      <trkpt lat="49.62011" lon="5.6329">
        <ele>265.269989</ele>
        <time>2021-02-20T16:20:14Z</time>
      </trkpt>
      <trkpt lat="49.6202" lon="5.6328">
        <ele>265.269989</ele>
        <time>2021-02-20T16:20:17Z</time>
      </trkpt>
      <trkpt lat="49.62028" lon="5.63274">
        <ele>265.269989</ele>
        <time>2021-02-20T16:20:19Z</time>
      </trkpt>
      <trkpt lat="49.62036" lon="5.63266">
        <ele>265.269989</ele>
        <time>2021-02-20T16:20:21Z</time>
      </trkpt>
      <trkpt lat="49.62043" lon="5.63257">
        <ele>265.269989</ele>
        <time>2021-02-20T16:20:23Z</time>
      </trkpt>
      <trkpt lat="49.62052" lon="5.6325">
        <ele>265.269989</ele>
        <time>2021-02-20T16:20:26Z</time>
      </trkpt>
      <trkpt lat="49.62061" lon="5.63243">
        <ele>265.269989</ele>
        <time>2021-02-20T16:20:30Z</time>
      </trkpt>
      <trkpt lat="49.62064" lon="5.63226">
        <ele>265.269989</ele>
        <time>2021-02-20T16:20:33Z</time>
      </trkpt>
      <trkpt lat="49.62072" lon="5.63213">
        <ele>265.269989</ele>
        <time>2021-02-20T16:20:36Z</time>
      </trkpt>
      <trkpt lat="49.62078" lon="5.632">
        <ele>265.269989</ele>
        <time>2021-02-20T16:20:38Z</time>
      </trkpt>
      <trkpt lat="49.62084" lon="5.63189">
        <ele>265.269989</ele>
        <time>2021-02-20T16:20:40Z</time>
      </trkpt>
      <trkpt lat="49.62091" lon="5.63176">
        <ele>265.269989</ele>
        <time>2021-02-20T16:20:43Z</time>
      </trkpt>
      <trkpt lat="49.621" lon="5.63168">
        <ele>265.269989</ele>
        <time>2021-02-20T16:20:45Z</time>
      </trkpt>
      <trkpt lat="49.62106" lon="5.63157">
        <ele>265.269989</ele>
        <time>2021-02-20T16:20:47Z</time>
      </trkpt>
      <trkpt lat="49.62114" lon="5.63145">
        <ele>265.269989</ele>
        <time>2021-02-20T16:20:49Z</time>
      </trkpt>
      <trkpt lat="49.62119" lon="5.63131">
        <ele>265.269989</ele>
        <time>2021-02-20T16:20:51Z</time>
      </trkpt>
      <trkpt lat="49.62127" lon="5.63116">
        <ele>265.269989</ele>
        <time>2021-02-20T16:20:53Z</time>
      </trkpt>
      <trkpt lat="49.62133" lon="5.63104">
        <ele>265.269989</ele>
        <time>2021-02-20T16:20:55Z</time>
      </trkpt>
      <trkpt lat="49.62139" lon="5.63092">
        <ele>265.269989</ele>
        <time>2021-02-20T16:20:57Z</time>
      </trkpt>
      <trkpt lat="49.62148" lon="5.63076">
        <ele>265.269989</ele>
        <time>2021-02-20T16:21:00Z</time>
      </trkpt>
      <trkpt lat="49.62152" lon="5.63063">
        <ele>265.269989</ele>
        <time>2021-02-20T16:21:02Z</time>
      </trkpt>
      <trkpt lat="49.62157" lon="5.63049">
        <ele>265.269989</ele>
        <time>2021-02-20T16:21:04Z</time>
      </trkpt>
      <trkpt lat="49.62161" lon="5.63038">
        <ele>265.269989</ele>
        <time>2021-02-20T16:21:06Z</time>
      </trkpt>
      <trkpt lat="49.62171" lon="5.63031">
        <ele>265.269989</ele>
        <time>2021-02-20T16:21:10Z</time>
      </trkpt>
      <trkpt lat="49.62178" lon="5.6302">
        <ele>265.269989</ele>
        <time>2021-02-20T16:21:14Z</time>
      </trkpt>
      <trkpt lat="49.62182" lon="5.63005">
        <ele>265.269989</ele>
        <time>2021-02-20T16:21:17Z</time>
      </trkpt>
      <trkpt lat="49.62187" lon="5.62993">
        <ele>265.269989</ele>
        <time>2021-02-20T16:21:20Z</time>
      </trkpt>
      <trkpt lat="49.62192" lon="5.62979">
        <ele>265.269989</ele>
        <time>2021-02-20T16:21:23Z</time>
      </trkpt>
      <trkpt lat="49.62197" lon="5.62966">
        <ele>265.269989</ele>
        <time>2021-02-20T16:21:27Z</time>
      </trkpt>
      <trkpt lat="49.62204" lon="5.62958">
        <ele>265.269989</ele>
        <time>2021-02-20T16:21:31Z</time>
      </trkpt>
      <trkpt lat="49.62206" lon="5.62943">
        <ele>265.269989</ele>
        <time>2021-02-20T16:21:34Z</time>
      </trkpt>
      <trkpt lat="49.62213" lon="5.62927">
        <ele>265.269989</ele>
        <time>2021-02-20T16:21:38Z</time>
      </trkpt>
      <trkpt lat="49.62217" lon="5.62914">
        <ele>265.269989</ele>
        <time>2021-02-20T16:21:40Z</time>
      </trkpt>
      <trkpt lat="49.62226" lon="5.62899">
        <ele>265.269989</ele>
        <time>2021-02-20T16:21:43Z</time>
      </trkpt>
      <trkpt lat="49.62235" lon="5.62886">
        <ele>265.269989</ele>
        <time>2021-02-20T16:21:46Z</time>
      </trkpt>
      <trkpt lat="49.62242" lon="5.62873">
        <ele>265.269989</ele>
        <time>2021-02-20T16:21:49Z</time>
      </trkpt>
      <trkpt lat="49.62251" lon="5.62861">
        <ele>265.269989</ele>
        <time>2021-02-20T16:21:52Z</time>
      </trkpt>
      <trkpt lat="49.62261" lon="5.62852">
        <ele>265.269989</ele>
        <time>2021-02-20T16:21:54Z</time>
      </trkpt>
      <trkpt lat="49.62269" lon="5.62839">
        <ele>265.269989</ele>
        <time>2021-02-20T16:21:56Z</time>
      </trkpt>
      <trkpt lat="49.62277" lon="5.62826">
        <ele>265.269989</ele>
        <time>2021-02-20T16:21:58Z</time>
      </trkpt>
      <trkpt lat="49.62287" lon="5.62815">
        <ele>265.269989</ele>
        <time>2021-02-20T16:22:01Z</time>
      </trkpt>
      <trkpt lat="49.62295" lon="5.62807">
        <ele>265.269989</ele>
        <time>2021-02-20T16:22:03Z</time>
      </trkpt>
      <trkpt lat="49.62305" lon="5.62795">
        <ele>265.269989</ele>
        <time>2021-02-20T16:22:06Z</time>
      </trkpt>
      <trkpt lat="49.62317" lon="5.62787">
        <ele>265.269989</ele>
        <time>2021-02-20T16:22:09Z</time>
      </trkpt>
      <trkpt lat="49.62323" lon="5.62774">
        <ele>265.269989</ele>
        <time>2021-02-20T16:22:13Z</time>
      </trkpt>
      <trkpt lat="49.62328" lon="5.62761">
        <ele>265.269989</ele>
        <time>2021-02-20T16:22:17Z</time>
      </trkpt>
      <trkpt lat="49.62336" lon="5.62748">
        <ele>265.269989</ele>
        <time>2021-02-20T16:22:20Z</time>
      </trkpt>
      <trkpt lat="49.62344" lon="5.62738">
        <ele>265.269989</ele>
        <time>2021-02-20T16:22:22Z</time>
      </trkpt>
      <trkpt lat="49.62354" lon="5.62726">
        <ele>265.269989</ele>
        <time>2021-02-20T16:22:25Z</time>
      </trkpt>
      <trkpt lat="49.62363" lon="5.62714">
        <ele>265.269989</ele>
        <time>2021-02-20T16:22:28Z</time>
      </trkpt>
      <trkpt lat="49.62371" lon="5.62703">
        <ele>265.269989</ele>
        <time>2021-02-20T16:22:31Z</time>
      </trkpt>
      <trkpt lat="49.6238" lon="5.62696">
        <ele>265.269989</ele>
        <time>2021-02-20T16:22:33Z</time>
      </trkpt>
      <trkpt lat="49.62399" lon="5.62693">
        <ele>265.269989</ele>
        <time>2021-02-20T16:22:35Z</time>
      </trkpt>
      <trkpt lat="49.6241" lon="5.62694">
        <ele>265.269989</ele>
        <time>2021-02-20T16:22:36Z</time>
      </trkpt>
      <trkpt lat="49.62421" lon="5.62695">
        <ele>265.269989</ele>
        <time>2021-02-20T16:22:37Z</time>
      </trkpt>
      <trkpt lat="49.62431" lon="5.62697">
        <ele>265.269989</ele>
        <time>2021-02-20T16:22:38Z</time>
      </trkpt>
      <trkpt lat="49.62444" lon="5.62701">
        <ele>265.269989</ele>
        <time>2021-02-20T16:22:39Z</time>
      </trkpt>
      <trkpt lat="49.62455" lon="5.62707">
        <ele>265.269989</ele>
        <time>2021-02-20T16:22:40Z</time>
      </trkpt>
      <trkpt lat="49.62465" lon="5.62714">
        <ele>265.269989</ele>
        <time>2021-02-20T16:22:41Z</time>
      </trkpt>
      <trkpt lat="49.62475" lon="5.62719">
        <ele>265.269989</ele>
        <time>2021-02-20T16:22:42Z</time>
      </trkpt>
      <trkpt lat="49.6249" lon="5.62726">
        <ele>265.269989</ele>
        <time>2021-02-20T16:22:44Z</time>
      </trkpt>
      <trkpt lat="49.62507" lon="5.62733">
        <ele>265.269989</ele>
        <time>2021-02-20T16:22:46Z</time>
      </trkpt>
      <trkpt lat="49.6252" lon="5.62741">
        <ele>265.269989</ele>
        <time>2021-02-20T16:22:48Z</time>
      </trkpt>
      <trkpt lat="49.62532" lon="5.6275">
        <ele>265.269989</ele>
        <time>2021-02-20T16:22:50Z</time>
      </trkpt>
      <trkpt lat="49.62544" lon="5.62757">
        <ele>265.269989</ele>
        <time>2021-02-20T16:22:52Z</time>
      </trkpt>
      <trkpt lat="49.62556" lon="5.6276">
        <ele>265.269989</ele>
        <time>2021-02-20T16:22:54Z</time>
      </trkpt>
      <trkpt lat="49.6257" lon="5.6277">
        <ele>265.269989</ele>
        <time>2021-02-20T16:22:56Z</time>
      </trkpt>
      <trkpt lat="49.62584" lon="5.62782">
        <ele>265.269989</ele>
        <time>2021-02-20T16:22:58Z</time>
      </trkpt>
      <trkpt lat="49.62598" lon="5.62794">
        <ele>265.269989</ele>
        <time>2021-02-20T16:23:00Z</time>
      </trkpt>
      <trkpt lat="49.62606" lon="5.62802">
        <ele>265.269989</ele>
        <time>2021-02-20T16:23:01Z</time>
      </trkpt>
      <trkpt lat="49.62619" lon="5.62814">
        <ele>265.269989</ele>
        <time>2021-02-20T16:23:03Z</time>
      </trkpt>
      <trkpt lat="49.62632" lon="5.62822">
        <ele>265.269989</ele>
        <time>2021-02-20T16:23:05Z</time>
      </trkpt>
      <trkpt lat="49.62646" lon="5.62831">
        <ele>265.269989</ele>
        <time>2021-02-20T16:23:07Z</time>
      </trkpt>
      <trkpt lat="49.62656" lon="5.62831">
        <ele>265.269989</ele>
        <time>2021-02-20T16:23:09Z</time>
      </trkpt>
      <trkpt lat="49.62667" lon="5.62829">
        <ele>265.269989</ele>
        <time>2021-02-20T16:23:11Z</time>
      </trkpt>
      <trkpt lat="49.62672" lon="5.62836">
        <ele>265.269989</ele>
        <time>2021-02-20T16:23:16Z</time>
      </trkpt>
      <trkpt lat="49.62671" lon="5.62838">
        <ele>265.269989</ele>
        <time>2021-02-20T16:23:21Z</time>
      </trkpt>
      <trkpt lat="49.6267" lon="5.62839">
        <ele>265.269989</ele>
        <time>2021-02-20T16:23:26Z</time>
      </trkpt>
      <trkpt lat="49.62672" lon="5.62854">
        <ele>265.269989</ele>
        <time>2021-02-20T16:23:30Z</time>
      </trkpt>
      <trkpt lat="49.62675" lon="5.62871">
        <ele>265.269989</ele>
        <time>2021-02-20T16:23:35Z</time>
      </trkpt>
      <trkpt lat="49.62681" lon="5.62883">
        <ele>265.269989</ele>
        <time>2021-02-20T16:23:39Z</time>
      </trkpt>
      <trkpt lat="49.6269" lon="5.62891">
        <ele>265.269989</ele>
        <time>2021-02-20T16:23:43Z</time>
      </trkpt>
      <trkpt lat="49.62701" lon="5.62896">
        <ele>265.269989</ele>
        <time>2021-02-20T16:23:48Z</time>
      </trkpt>
      <trkpt lat="49.62708" lon="5.62897">
        <ele>265.269989</ele>
        <time>2021-02-20T16:23:53Z</time>
      </trkpt>
      <trkpt lat="49.62716" lon="5.62903">
        <ele>265.269989</ele>
        <time>2021-02-20T16:23:57Z</time>
      </trkpt>
      <trkpt lat="49.6272" lon="5.62907">
        <ele>265.269989</ele>
        <time>2021-02-20T16:24:02Z</time>
      </trkpt>
      <trkpt lat="49.62722" lon="5.62907">
        <ele>265.269989</ele>
        <time>2021-02-20T16:24:07Z</time>
      </trkpt>
      <trkpt lat="49.62722" lon="5.62906">
        <ele>265.269989</ele>
        <time>2021-02-20T16:24:12Z</time>
      </trkpt>
      <trkpt lat="49.62725" lon="5.62904">
        <ele>265.269989</ele>
        <time>2021-02-20T16:24:17Z</time>
      </trkpt>
      <trkpt lat="49.62727" lon="5.62904">
        <ele>265.269989</ele>
        <time>2021-02-20T16:24:22Z</time>
      </trkpt>
      <trkpt lat="49.6273" lon="5.6291">
        <ele>265.269989</ele>
        <time>2021-02-20T16:24:27Z</time>
      </trkpt>
      <trkpt lat="49.62729" lon="5.62909">
        <ele>265.269989</ele>
        <time>2021-02-20T16:24:32Z</time>
      </trkpt>
      <trkpt lat="49.62728" lon="5.6291">
        <ele>265.269989</ele>
        <time>2021-02-20T16:24:37Z</time>
      </trkpt>
      <trkpt lat="49.62729" lon="5.62911">
        <ele>265.269989</ele>
        <time>2021-02-20T16:24:42Z</time>
      </trkpt>
      <trkpt lat="49.62729" lon="5.62912">
        <ele>265.269989</ele>
        <time>2021-02-20T16:24:47Z</time>
      </trkpt>
      <trkpt lat="49.62729" lon="5.62913">
        <ele>265.269989</ele>
        <time>2021-02-20T16:24:52Z</time>
      </trkpt>
      <trkpt lat="49.62729" lon="5.62911">
        <ele>265.269989</ele>
        <time>2021-02-20T16:24:57Z</time>
      </trkpt>
      <trkpt lat="49.62731" lon="5.62911">
        <ele>265.269989</ele>
        <time>2021-02-20T16:25:02Z</time>
      </trkpt>
      <trkpt lat="49.62731" lon="5.62913">
        <ele>265.269989</ele>
        <time>2021-02-20T16:25:07Z</time>
      </trkpt>
      <trkpt lat="49.6273" lon="5.62917">
        <ele>265.269989</ele>
        <time>2021-02-20T16:25:12Z</time>
      </trkpt>
      <trkpt lat="49.6273" lon="5.62916">
        <ele>265.269989</ele>
        <time>2021-02-20T16:25:17Z</time>
      </trkpt>
      <trkpt lat="49.62728" lon="5.62901">
        <ele>265.269989</ele>
        <time>2021-02-20T16:25:22Z</time>
      </trkpt>
      <trkpt lat="49.62726" lon="5.62883">
        <ele>265.269989</ele>
        <time>2021-02-20T16:25:26Z</time>
      </trkpt>
      <trkpt lat="49.62726" lon="5.62868">
        <ele>265.269989</ele>
        <time>2021-02-20T16:25:30Z</time>
      </trkpt>
      <trkpt lat="49.62725" lon="5.62854">
        <ele>265.269989</ele>
        <time>2021-02-20T16:25:33Z</time>
      </trkpt>
      <trkpt lat="49.62724" lon="5.62839">
        <ele>265.269989</ele>
        <time>2021-02-20T16:25:35Z</time>
      </trkpt>
      <trkpt lat="49.62725" lon="5.62822">
        <ele>265.269989</ele>
        <time>2021-02-20T16:25:39Z</time>
      </trkpt>
      <trkpt lat="49.62726" lon="5.62802">
        <ele>265.269989</ele>
        <time>2021-02-20T16:25:42Z</time>
      </trkpt>
      <trkpt lat="49.62729" lon="5.62788">
        <ele>265.269989</ele>
        <time>2021-02-20T16:25:44Z</time>
      </trkpt>
      <trkpt lat="49.62735" lon="5.62771">
        <ele>265.269989</ele>
        <time>2021-02-20T16:25:47Z</time>
      </trkpt>
      <trkpt lat="49.62741" lon="5.6276">
        <ele>265.269989</ele>
        <time>2021-02-20T16:25:48Z</time>
      </trkpt>
      <trkpt lat="49.6275" lon="5.62747">
        <ele>265.269989</ele>
        <time>2021-02-20T16:25:51Z</time>
      </trkpt>
      <trkpt lat="49.62757" lon="5.62738">
        <ele>265.269989</ele>
        <time>2021-02-20T16:25:54Z</time>
      </trkpt>
      <trkpt lat="49.62763" lon="5.62725">
        <ele>265.269989</ele>
        <time>2021-02-20T16:25:58Z</time>
      </trkpt>
      <trkpt lat="49.62763" lon="5.62718">
        <ele>265.269989</ele>
        <time>2021-02-20T16:26:02Z</time>
      </trkpt>
      <trkpt lat="49.62766" lon="5.62709">
        <ele>265.269989</ele>
        <time>2021-02-20T16:26:06Z</time>
      </trkpt>
      <trkpt lat="49.62766" lon="5.62701">
        <ele>265.269989</ele>
        <time>2021-02-20T16:26:11Z</time>
      </trkpt>
      <trkpt lat="49.62753" lon="5.62698">
        <ele>265.269989</ele>
        <time>2021-02-20T16:26:14Z</time>
      </trkpt>
      <trkpt lat="49.62737" lon="5.62697">
        <ele>265.269989</ele>
        <time>2021-02-20T16:26:17Z</time>
      </trkpt>
      <trkpt lat="49.62724" lon="5.62701">
        <ele>265.269989</ele>
        <time>2021-02-20T16:26:20Z</time>
      </trkpt>
      <trkpt lat="49.62713" lon="5.62703">
        <ele>265.269989</ele>
        <time>2021-02-20T16:26:23Z</time>
      </trkpt>
      <trkpt lat="49.627" lon="5.62705">
        <ele>265.269989</ele>
        <time>2021-02-20T16:26:26Z</time>
      </trkpt>
      <trkpt lat="49.62689" lon="5.62702">
        <ele>265.269989</ele>
        <time>2021-02-20T16:26:29Z</time>
      </trkpt>
      <trkpt lat="49.62681" lon="5.6269">
        <ele>265.269989</ele>
        <time>2021-02-20T16:26:33Z</time>
      </trkpt>
      <trkpt lat="49.62675" lon="5.62677">
        <ele>265.269989</ele>
        <time>2021-02-20T16:26:35Z</time>
      </trkpt>
      <trkpt lat="49.62668" lon="5.62665">
        <ele>265.269989</ele>
        <time>2021-02-20T16:26:37Z</time>
      </trkpt>
      <trkpt lat="49.62661" lon="5.6265">
        <ele>265.269989</ele>
        <time>2021-02-20T16:26:40Z</time>
      </trkpt>
      <trkpt lat="49.62654" lon="5.62635">
        <ele>265.269989</ele>
        <time>2021-02-20T16:26:42Z</time>
      </trkpt>
      <trkpt lat="49.62647" lon="5.62624">
        <ele>265.269989</ele>
        <time>2021-02-20T16:26:44Z</time>
      </trkpt>
      <trkpt lat="49.6264" lon="5.62604">
        <ele>265.269989</ele>
        <time>2021-02-20T16:26:47Z</time>
      </trkpt>
      <trkpt lat="49.6264" lon="5.62589">
        <ele>265.269989</ele>
        <time>2021-02-20T16:26:49Z</time>
      </trkpt>
      <trkpt lat="49.62637" lon="5.62574">
        <ele>265.269989</ele>
        <time>2021-02-20T16:26:52Z</time>
      </trkpt>
      <trkpt lat="49.62635" lon="5.62555">
        <ele>265.269989</ele>
        <time>2021-02-20T16:26:55Z</time>
      </trkpt>
      <trkpt lat="49.62633" lon="5.62541">
        <ele>265.269989</ele>
        <time>2021-02-20T16:26:57Z</time>
      </trkpt>
      <trkpt lat="49.62628" lon="5.62523">
        <ele>265.269989</ele>
        <time>2021-02-20T16:27:01Z</time>
      </trkpt>
      <trkpt lat="49.6262" lon="5.62513">
        <ele>265.269989</ele>
        <time>2021-02-20T16:27:04Z</time>
      </trkpt>
      <trkpt lat="49.6261" lon="5.62504">
        <ele>265.269989</ele>
        <time>2021-02-20T16:27:07Z</time>
      </trkpt>
      <trkpt lat="49.626" lon="5.62495">
        <ele>265.269989</ele>
        <time>2021-02-20T16:27:10Z</time>
      </trkpt>
      <trkpt lat="49.62592" lon="5.62486">
        <ele>265.269989</ele>
        <time>2021-02-20T16:27:13Z</time>
      </trkpt>
      <trkpt lat="49.62579" lon="5.62477">
        <ele>265.269989</ele>
        <time>2021-02-20T16:27:16Z</time>
      </trkpt>
      <trkpt lat="49.6257" lon="5.62474">
        <ele>265.269989</ele>
        <time>2021-02-20T16:27:19Z</time>
      </trkpt>
      <trkpt lat="49.62561" lon="5.62468">
        <ele>265.269989</ele>
        <time>2021-02-20T16:27:22Z</time>
      </trkpt>
      <trkpt lat="49.62552" lon="5.62459">
        <ele>265.269989</ele>
        <time>2021-02-20T16:27:25Z</time>
      </trkpt>
      <trkpt lat="49.62539" lon="5.6245">
        <ele>265.279999</ele>
        <time>2021-02-20T16:27:28Z</time>
      </trkpt>
      <trkpt lat="49.62531" lon="5.62442">
        <ele>265.279999</ele>
        <time>2021-02-20T16:27:30Z</time>
      </trkpt>
      <trkpt lat="49.62523" lon="5.62431">
        <ele>265.279999</ele>
        <time>2021-02-20T16:27:33Z</time>
      </trkpt>
      <trkpt lat="49.62516" lon="5.6242">
        <ele>265.279999</ele>
        <time>2021-02-20T16:27:35Z</time>
      </trkpt>
      <trkpt lat="49.62506" lon="5.62412">
        <ele>265.279999</ele>
        <time>2021-02-20T16:27:39Z</time>
      </trkpt>
      <trkpt lat="49.62499" lon="5.624">
        <ele>265.279999</ele>
        <time>2021-02-20T16:27:42Z</time>
      </trkpt>
      <trkpt lat="49.62492" lon="5.62386">
        <ele>265.279999</ele>
        <time>2021-02-20T16:27:45Z</time>
      </trkpt>
      <trkpt lat="49.62487" lon="5.6237">
        <ele>265.279999</ele>
        <time>2021-02-20T16:27:47Z</time>
      </trkpt>
      <trkpt lat="49.62478" lon="5.6236">
        <ele>265.279999</ele>
        <time>2021-02-20T16:27:51Z</time>
      </trkpt>
      <trkpt lat="49.6247" lon="5.62347">
        <ele>265.279999</ele>
        <time>2021-02-20T16:27:55Z</time>
      </trkpt>
      <trkpt lat="49.62464" lon="5.62333">
        <ele>265.279999</ele>
        <time>2021-02-20T16:27:58Z</time>
      </trkpt>
      <trkpt lat="49.62457" lon="5.62315">
        <ele>265.279999</ele>
        <time>2021-02-20T16:28:01Z</time>
      </trkpt>
      <trkpt lat="49.62454" lon="5.62295">
        <ele>265.279999</ele>
        <time>2021-02-20T16:28:03Z</time>
      </trkpt>
      <trkpt lat="49.62453" lon="5.62273">
        <ele>265.279999</ele>
        <time>2021-02-20T16:28:05Z</time>
      </trkpt>
      <trkpt lat="49.62452" lon="5.62254">
        <ele>265.279999</ele>
        <time>2021-02-20T16:28:07Z</time>
      </trkpt>
      <trkpt lat="49.62457" lon="5.62214">
        <ele>265.279999</ele>
        <time>2021-02-20T16:28:10Z</time>
      </trkpt>
      <trkpt lat="49.62462" lon="5.62192">
        <ele>265.279999</ele>
        <time>2021-02-20T16:28:11Z</time>
      </trkpt>
      <trkpt lat="49.62464" lon="5.62173">
        <ele>265.279999</ele>
        <time>2021-02-20T16:28:12Z</time>
      </trkpt>
      <trkpt lat="49.62465" lon="5.62157">
        <ele>265.279999</ele>
        <time>2021-02-20T16:28:13Z</time>
      </trkpt>
      <trkpt lat="49.62465" lon="5.62134">
        <ele>265.279999</ele>
        <time>2021-02-20T16:28:15Z</time>
      </trkpt>
      <trkpt lat="49.62467" lon="5.62115">
        <ele>265.279999</ele>
        <time>2021-02-20T16:28:17Z</time>
      </trkpt>
      <trkpt lat="49.6247" lon="5.621">
        <ele>265.279999</ele>
        <time>2021-02-20T16:28:19Z</time>
      </trkpt>
      <trkpt lat="49.62469" lon="5.62086">
        <ele>265.279999</ele>
        <time>2021-02-20T16:28:21Z</time>
      </trkpt>
      <trkpt lat="49.62473" lon="5.62068">
        <ele>265.279999</ele>
        <time>2021-02-20T16:28:24Z</time>
      </trkpt>
      <trkpt lat="49.62471" lon="5.62054">
        <ele>265.279999</ele>
        <time>2021-02-20T16:28:27Z</time>
      </trkpt>
      <trkpt lat="49.62477" lon="5.62038">
        <ele>265.279999</ele>
        <time>2021-02-20T16:28:31Z</time>
      </trkpt>
      <trkpt lat="49.62479" lon="5.62018">
        <ele>265.279999</ele>
        <time>2021-02-20T16:28:34Z</time>
      </trkpt>
      <trkpt lat="49.62478" lon="5.62002">
        <ele>265.279999</ele>
        <time>2021-02-20T16:28:36Z</time>
      </trkpt>
      <trkpt lat="49.62476" lon="5.61985">
        <ele>265.279999</ele>
        <time>2021-02-20T16:28:39Z</time>
      </trkpt>
      <trkpt lat="49.62474" lon="5.61971">
        <ele>265.279999</ele>
        <time>2021-02-20T16:28:41Z</time>
      </trkpt>
      <trkpt lat="49.62474" lon="5.61951">
        <ele>265.279999</ele>
        <time>2021-02-20T16:28:43Z</time>
      </trkpt>
      <trkpt lat="49.62476" lon="5.61937">
        <ele>265.279999</ele>
        <time>2021-02-20T16:28:44Z</time>
      </trkpt>
      <trkpt lat="49.62477" lon="5.61916">
        <ele>265.279999</ele>
        <time>2021-02-20T16:28:47Z</time>
      </trkpt>
      <trkpt lat="49.62476" lon="5.61899">
        <ele>265.279999</ele>
        <time>2021-02-20T16:28:51Z</time>
      </trkpt>
      <trkpt lat="49.62474" lon="5.61895">
        <ele>265.279999</ele>
        <time>2021-02-20T16:28:55Z</time>
      </trkpt>
      <trkpt lat="49.62473" lon="5.61895">
        <ele>265.279999</ele>
        <time>2021-02-20T16:29:00Z</time>
      </trkpt>
      <trkpt lat="49.62473" lon="5.61894">
        <ele>265.279999</ele>
        <time>2021-02-20T16:29:05Z</time>
      </trkpt>
      <trkpt lat="49.62474" lon="5.61893">
        <ele>265.279999</ele>
        <time>2021-02-20T16:29:10Z</time>
      </trkpt>
      <trkpt lat="49.62474" lon="5.61891">
        <ele>265.279999</ele>
        <time>2021-02-20T16:29:15Z</time>
      </trkpt>
      <trkpt lat="49.62478" lon="5.6188">
        <ele>265.279999</ele>
        <time>2021-02-20T16:29:20Z</time>
      </trkpt>
      <trkpt lat="49.62479" lon="5.61875">
        <ele>265.279999</ele>
        <time>2021-02-20T16:29:25Z</time>
      </trkpt>
      <trkpt lat="49.62479" lon="5.61874">
        <ele>265.279999</ele>
        <time>2021-02-20T16:29:30Z</time>
      </trkpt>
      <trkpt lat="49.62478" lon="5.61874">
        <ele>265.279999</ele>
        <time>2021-02-20T16:29:35Z</time>
      </trkpt>
      <trkpt lat="49.62478" lon="5.61873">
        <ele>265.279999</ele>
        <time>2021-02-20T16:29:40Z</time>
      </trkpt>
      <trkpt lat="49.62478" lon="5.61873">
        <ele>265.279999</ele>
        <time>2021-02-20T16:29:45Z</time>
      </trkpt>
      <trkpt lat="49.62477" lon="5.6187">
        <ele>265.279999</ele>
        <time>2021-02-20T16:29:50Z</time>
      </trkpt>
      <trkpt lat="49.62478" lon="5.6187">
        <ele>265.279999</ele>
        <time>2021-02-20T16:29:55Z</time>
      </trkpt>
      <trkpt lat="49.62478" lon="5.6187">
        <ele>265.279999</ele>
        <time>2021-02-20T16:30:00Z</time>
      </trkpt>
      <trkpt lat="49.62478" lon="5.6187">
        <ele>265.279999</ele>
        <time>2021-02-20T16:30:05Z</time>
      </trkpt>
      <trkpt lat="49.62478" lon="5.61869">
        <ele>265.279999</ele>
        <time>2021-02-20T16:30:10Z</time>
      </trkpt>
      <trkpt lat="49.62478" lon="5.6187">
        <ele>265.279999</ele>
        <time>2021-02-20T16:30:15Z</time>
      </trkpt>
      <trkpt lat="49.6248" lon="5.61871">
        <ele>265.279999</ele>
        <time>2021-02-20T16:30:20Z</time>
      </trkpt>
      <trkpt lat="49.62484" lon="5.61876">
        <ele>265.279999</ele>
        <time>2021-02-20T16:30:25Z</time>
      </trkpt>
      <trkpt lat="49.62486" lon="5.61878">
        <ele>265.279999</ele>
        <time>2021-02-20T16:30:30Z</time>
      </trkpt>
      <trkpt lat="49.62485" lon="5.61873">
        <ele>265.279999</ele>
        <time>2021-02-20T16:30:35Z</time>
      </trkpt>
      <trkpt lat="49.62483" lon="5.61873">
        <ele>265.279999</ele>
        <time>2021-02-20T16:30:40Z</time>
      </trkpt>
      <trkpt lat="49.62482" lon="5.6187">
        <ele>265.279999</ele>
        <time>2021-02-20T16:30:45Z</time>
      </trkpt>
      <trkpt lat="49.62481" lon="5.61869">
        <ele>265.279999</ele>
        <time>2021-02-20T16:30:50Z</time>
      </trkpt>
      <trkpt lat="49.62481" lon="5.61869">
        <ele>265.279999</ele>
        <time>2021-02-20T16:30:55Z</time>
      </trkpt>
      <trkpt lat="49.62481" lon="5.61869">
        <ele>265.279999</ele>
        <time>2021-02-20T16:31:00Z</time>
      </trkpt>
      <trkpt lat="49.62481" lon="5.61868">
        <ele>265.279999</ele>
        <time>2021-02-20T16:31:05Z</time>
      </trkpt>
      <trkpt lat="49.62481" lon="5.61868">
        <ele>265.279999</ele>
        <time>2021-02-20T16:31:10Z</time>
      </trkpt>
      <trkpt lat="49.62485" lon="5.61871">
        <ele>265.279999</ele>
        <time>2021-02-20T16:31:15Z</time>
      </trkpt>
      <trkpt lat="49.62482" lon="5.61869">
        <ele>265.279999</ele>
        <time>2021-02-20T16:31:20Z</time>
      </trkpt>
      <trkpt lat="49.62478" lon="5.61866">
        <ele>265.279999</ele>
        <time>2021-02-20T16:31:25Z</time>
      </trkpt>
      <trkpt lat="49.62476" lon="5.61866">
        <ele>265.279999</ele>
        <time>2021-02-20T16:31:30Z</time>
      </trkpt>
      <trkpt lat="49.62475" lon="5.61865">
        <ele>265.279999</ele>
        <time>2021-02-20T16:31:35Z</time>
      </trkpt>
      <trkpt lat="49.62475" lon="5.61865">
        <ele>265.279999</ele>
        <time>2021-02-20T16:31:40Z</time>
      </trkpt>
      <trkpt lat="49.62474" lon="5.61864">
        <ele>265.279999</ele>
        <time>2021-02-20T16:31:45Z</time>
      </trkpt>
      <trkpt lat="49.62479" lon="5.61865">
        <ele>265.279999</ele>
        <time>2021-02-20T16:31:50Z</time>
      </trkpt>
      <trkpt lat="49.62481" lon="5.61866">
        <ele>265.279999</ele>
        <time>2021-02-20T16:31:55Z</time>
      </trkpt>
      <trkpt lat="49.62483" lon="5.61864">
        <ele>265.279999</ele>
        <time>2021-02-20T16:32:00Z</time>
      </trkpt>
      <trkpt lat="49.62483" lon="5.61862">
        <ele>265.279999</ele>
        <time>2021-02-20T16:32:05Z</time>
      </trkpt>
      <trkpt lat="49.62482" lon="5.61862">
        <ele>265.279999</ele>
        <time>2021-02-20T16:32:10Z</time>
      </trkpt>
      <trkpt lat="49.62482" lon="5.61862">
        <ele>265.279999</ele>
        <time>2021-02-20T16:32:15Z</time>
      </trkpt>
      <trkpt lat="49.62482" lon="5.61863">
        <ele>265.279999</ele>
        <time>2021-02-20T16:32:20Z</time>
      </trkpt>
      <trkpt lat="49.62482" lon="5.61863">
        <ele>265.279999</ele>
        <time>2021-02-20T16:32:25Z</time>
      </trkpt>
      <trkpt lat="49.62482" lon="5.61863">
        <ele>265.279999</ele>
        <time>2021-02-20T16:32:30Z</time>
      </trkpt>
      <trkpt lat="49.6248" lon="5.61862">
        <ele>265.279999</ele>
        <time>2021-02-20T16:32:35Z</time>
      </trkpt>
      <trkpt lat="49.62477" lon="5.61857">
        <ele>265.279999</ele>
        <time>2021-02-20T16:32:39Z</time>
      </trkpt>
      <trkpt lat="49.62472" lon="5.61846">
        <ele>265.279999</ele>
        <time>2021-02-20T16:32:43Z</time>
      </trkpt>
      <trkpt lat="49.6247" lon="5.61827">
        <ele>265.279999</ele>
        <time>2021-02-20T16:32:47Z</time>
      </trkpt>
      <trkpt lat="49.62469" lon="5.61811">
        <ele>265.279999</ele>
        <time>2021-02-20T16:32:50Z</time>
      </trkpt>
      <trkpt lat="49.62466" lon="5.61793">
        <ele>265.279999</ele>
        <time>2021-02-20T16:32:54Z</time>
      </trkpt>
      <trkpt lat="49.62466" lon="5.61775">
        <ele>265.279999</ele>
        <time>2021-02-20T16:32:56Z</time>
      </trkpt>
      <trkpt lat="49.62468" lon="5.61755">
        <ele>265.279999</ele>
        <time>2021-02-20T16:32:58Z</time>
      </trkpt>
      <trkpt lat="49.62467" lon="5.61742">
        <ele>265.279999</ele>
        <time>2021-02-20T16:33:02Z</time>
      </trkpt>
      <trkpt lat="49.62462" lon="5.61726">
        <ele>265.279999</ele>
        <time>2021-02-20T16:33:05Z</time>
      </trkpt>
      <trkpt lat="49.62453" lon="5.61693">
        <ele>265.279999</ele>
        <time>2021-02-20T16:33:08Z</time>
      </trkpt>
      <trkpt lat="49.6245" lon="5.61669">
        <ele>265.279999</ele>
        <time>2021-02-20T16:33:10Z</time>
      </trkpt>
      <trkpt lat="49.62448" lon="5.61652">
        <ele>265.279999</ele>
        <time>2021-02-20T16:33:12Z</time>
      </trkpt>
      <trkpt lat="49.62446" lon="5.61634">
        <ele>265.279999</ele>
        <time>2021-02-20T16:33:14Z</time>
      </trkpt>
      <trkpt lat="49.62444" lon="5.61616">
        <ele>265.279999</ele>
        <time>2021-02-20T16:33:16Z</time>
      </trkpt>
      <trkpt lat="49.62443" lon="5.61599">
        <ele>265.279999</ele>
        <time>2021-02-20T16:33:20Z</time>
      </trkpt>
      <trkpt lat="49.62441" lon="5.61585">
        <ele>265.279999</ele>
        <time>2021-02-20T16:33:23Z</time>
      </trkpt>
      <trkpt lat="49.62436" lon="5.61568">
        <ele>265.279999</ele>
        <time>2021-02-20T16:33:26Z</time>
      </trkpt>
      <trkpt lat="49.62433" lon="5.61549">
        <ele>265.279999</ele>
        <time>2021-02-20T16:33:29Z</time>
      </trkpt>
      <trkpt lat="49.62431" lon="5.61535">
        <ele>265.279999</ele>
        <time>2021-02-20T16:33:31Z</time>
      </trkpt>
      <trkpt lat="49.62426" lon="5.61519">
        <ele>265.279999</ele>
        <time>2021-02-20T16:33:34Z</time>
      </trkpt>
      <trkpt lat="49.62422" lon="5.61503">
        <ele>265.279999</ele>
        <time>2021-02-20T16:33:38Z</time>
      </trkpt>
      <trkpt lat="49.62421" lon="5.61489">
        <ele>265.279999</ele>
        <time>2021-02-20T16:33:41Z</time>
      </trkpt>
      <trkpt lat="49.62417" lon="5.61472">
        <ele>265.279999</ele>
        <time>2021-02-20T16:33:44Z</time>
      </trkpt>
      <trkpt lat="49.62415" lon="5.61458">
        <ele>265.279999</ele>
        <time>2021-02-20T16:33:45Z</time>
      </trkpt>
      <trkpt lat="49.62414" lon="5.61442">
        <ele>265.279999</ele>
        <time>2021-02-20T16:33:47Z</time>
      </trkpt>
      <trkpt lat="49.62411" lon="5.61427">
        <ele>265.279999</ele>
        <time>2021-02-20T16:33:49Z</time>
      </trkpt>
      <trkpt lat="49.62406" lon="5.61409">
        <ele>265.279999</ele>
        <time>2021-02-20T16:33:53Z</time>
      </trkpt>
      <trkpt lat="49.62401" lon="5.61385">
        <ele>265.290009</ele>
        <time>2021-02-20T16:33:55Z</time>
      </trkpt>
      <trkpt lat="49.62398" lon="5.61363">
        <ele>265.290009</ele>
        <time>2021-02-20T16:33:57Z</time>
      </trkpt>
      <trkpt lat="49.62394" lon="5.61344">
        <ele>265.290009</ele>
        <time>2021-02-20T16:33:59Z</time>
      </trkpt>
      <trkpt lat="49.62392" lon="5.61325">
        <ele>265.290009</ele>
        <time>2021-02-20T16:34:01Z</time>
      </trkpt>
      <trkpt lat="49.62388" lon="5.61304">
        <ele>265.290009</ele>
        <time>2021-02-20T16:34:03Z</time>
      </trkpt>
      <trkpt lat="49.62388" lon="5.61286">
        <ele>265.290009</ele>
        <time>2021-02-20T16:34:05Z</time>
      </trkpt>
      <trkpt lat="49.62388" lon="5.61269">
        <ele>265.290009</ele>
        <time>2021-02-20T16:34:08Z</time>
      </trkpt>
      <trkpt lat="49.62384" lon="5.6125">
        <ele>265.290009</ele>
        <time>2021-02-20T16:34:12Z</time>
      </trkpt>
      <trkpt lat="49.62383" lon="5.61235">
        <ele>265.290009</ele>
        <time>2021-02-20T16:34:14Z</time>
      </trkpt>
      <trkpt lat="49.62386" lon="5.6122">
        <ele>265.290009</ele>
        <time>2021-02-20T16:34:16Z</time>
      </trkpt>
      <trkpt lat="49.62386" lon="5.61204">
        <ele>265.290009</ele>
        <time>2021-02-20T16:34:18Z</time>
      </trkpt>
      <trkpt lat="49.62385" lon="5.61184">
        <ele>265.290009</ele>
        <time>2021-02-20T16:34:21Z</time>
      </trkpt>
      <trkpt lat="49.62384" lon="5.61166">
        <ele>265.290009</ele>
        <time>2021-02-20T16:34:23Z</time>
      </trkpt>
      <trkpt lat="49.62387" lon="5.61151">
        <ele>265.290009</ele>
        <time>2021-02-20T16:34:25Z</time>
      </trkpt>
      <trkpt lat="49.62389" lon="5.61134">
        <ele>265.290009</ele>
        <time>2021-02-20T16:34:29Z</time>
      </trkpt>
      <trkpt lat="49.62388" lon="5.61116">
        <ele>265.290009</ele>
        <time>2021-02-20T16:34:33Z</time>
      </trkpt>
      <trkpt lat="49.62385" lon="5.61097">
        <ele>265.290009</ele>
        <time>2021-02-20T16:34:35Z</time>
      </trkpt>
      <trkpt lat="49.62385" lon="5.61078">
        <ele>265.290009</ele>
        <time>2021-02-20T16:34:37Z</time>
      </trkpt>
      <trkpt lat="49.62388" lon="5.61063">
        <ele>265.290009</ele>
        <time>2021-02-20T16:34:39Z</time>
      </trkpt>
      <trkpt lat="49.62388" lon="5.61045">
        <ele>265.290009</ele>
        <time>2021-02-20T16:34:42Z</time>
      </trkpt>
      <trkpt lat="49.62392" lon="5.61032">
        <ele>265.290009</ele>
        <time>2021-02-20T16:34:44Z</time>
      </trkpt>
      <trkpt lat="49.62397" lon="5.61017">
        <ele>265.290009</ele>
        <time>2021-02-20T16:34:47Z</time>
      </trkpt>
      <trkpt lat="49.62402" lon="5.61001">
        <ele>265.290009</ele>
        <time>2021-02-20T16:34:50Z</time>
      </trkpt>
      <trkpt lat="49.62405" lon="5.60985">
        <ele>265.290009</ele>
        <time>2021-02-20T16:34:53Z</time>
      </trkpt>
      <trkpt lat="49.62412" lon="5.60973">
        <ele>265.290009</ele>
        <time>2021-02-20T16:34:55Z</time>
      </trkpt>
      <trkpt lat="49.62423" lon="5.6096">
        <ele>265.290009</ele>
        <time>2021-02-20T16:34:57Z</time>
      </trkpt>
      <trkpt lat="49.62432" lon="5.60956">
        <ele>265.290009</ele>
        <time>2021-02-20T16:35:00Z</time>
      </trkpt>
      <trkpt lat="49.62441" lon="5.60945">
        <ele>265.290009</ele>
        <time>2021-02-20T16:35:05Z</time>
      </trkpt>
      <trkpt lat="49.6245" lon="5.60937">
        <ele>265.290009</ele>
        <time>2021-02-20T16:35:10Z</time>
      </trkpt>
      <trkpt lat="49.62459" lon="5.6093">
        <ele>265.290009</ele>
        <time>2021-02-20T16:35:13Z</time>
      </trkpt>
      <trkpt lat="49.62471" lon="5.60921">
        <ele>265.290009</ele>
        <time>2021-02-20T16:35:17Z</time>
      </trkpt>
      <trkpt lat="49.62483" lon="5.60912">
        <ele>265.290009</ele>
        <time>2021-02-20T16:35:20Z</time>
      </trkpt>
      <trkpt lat="49.62493" lon="5.60902">
        <ele>265.290009</ele>
        <time>2021-02-20T16:35:24Z</time>
      </trkpt>
      <trkpt lat="49.62502" lon="5.60891">
        <ele>265.290009</ele>
        <time>2021-02-20T16:35:26Z</time>
      </trkpt>
      <trkpt lat="49.6251" lon="5.60877">
        <ele>265.290009</ele>
        <time>2021-02-20T16:35:29Z</time>
      </trkpt>
      <trkpt lat="49.62519" lon="5.60864">
        <ele>265.290009</ele>
        <time>2021-02-20T16:35:32Z</time>
      </trkpt>
      <trkpt lat="49.62527" lon="5.60852">
        <ele>265.290009</ele>
        <time>2021-02-20T16:35:35Z</time>
      </trkpt>
      <trkpt lat="49.62536" lon="5.60839">
        <ele>265.290009</ele>
        <time>2021-02-20T16:35:38Z</time>
      </trkpt>
      <trkpt lat="49.62543" lon="5.60825">
        <ele>265.290009</ele>
        <time>2021-02-20T16:35:40Z</time>
      </trkpt>
      <trkpt lat="49.6255" lon="5.60809">
        <ele>265.290009</ele>
        <time>2021-02-20T16:35:42Z</time>
      </trkpt>
      <trkpt lat="49.62557" lon="5.60795">
        <ele>265.290009</ele>
        <time>2021-02-20T16:35:46Z</time>
      </trkpt>
      <trkpt lat="49.62564" lon="5.60783">
        <ele>265.290009</ele>
        <time>2021-02-20T16:35:50Z</time>
      </trkpt>
      <trkpt lat="49.62568" lon="5.60768">
        <ele>265.290009</ele>
        <time>2021-02-20T16:35:53Z</time>
      </trkpt>
      <trkpt lat="49.62574" lon="5.60753">
        <ele>265.290009</ele>
        <time>2021-02-20T16:35:56Z</time>
      </trkpt>
      <trkpt lat="49.62579" lon="5.60735">
        <ele>265.290009</ele>
        <time>2021-02-20T16:35:59Z</time>
      </trkpt>
      <trkpt lat="49.62587" lon="5.60717">
        <ele>265.290009</ele>
        <time>2021-02-20T16:36:02Z</time>
      </trkpt>
      <trkpt lat="49.62592" lon="5.60701">
        <ele>265.290009</ele>
        <time>2021-02-20T16:36:04Z</time>
      </trkpt>
      <trkpt lat="49.62595" lon="5.60687">
        <ele>265.290009</ele>
        <time>2021-02-20T16:36:06Z</time>
      </trkpt>
      <trkpt lat="49.62597" lon="5.60672">
        <ele>265.290009</ele>
        <time>2021-02-20T16:36:08Z</time>
      </trkpt>
      <trkpt lat="49.62599" lon="5.60653">
        <ele>265.290009</ele>
        <time>2021-02-20T16:36:10Z</time>
      </trkpt>
      <trkpt lat="49.62601" lon="5.60633">
        <ele>265.290009</ele>
        <time>2021-02-20T16:36:12Z</time>
      </trkpt>
      <trkpt lat="49.62602" lon="5.60618">
        <ele>265.290009</ele>
        <time>2021-02-20T16:36:14Z</time>
      </trkpt>
      <trkpt lat="49.62604" lon="5.60597">
        <ele>265.290009</ele>
        <time>2021-02-20T16:36:16Z</time>
      </trkpt>
      <trkpt lat="49.62605" lon="5.6058">
        <ele>265.290009</ele>
        <time>2021-02-20T16:36:18Z</time>
      </trkpt>
      <trkpt lat="49.62604" lon="5.60563">
        <ele>265.290009</ele>
        <time>2021-02-20T16:36:20Z</time>
      </trkpt>
      <trkpt lat="49.62604" lon="5.60548">
        <ele>265.290009</ele>
        <time>2021-02-20T16:36:22Z</time>
      </trkpt>
      <trkpt lat="49.62605" lon="5.60533">
        <ele>265.290009</ele>
        <time>2021-02-20T16:36:24Z</time>
      </trkpt>
      <trkpt lat="49.62606" lon="5.60517">
        <ele>265.290009</ele>
        <time>2021-02-20T16:36:25Z</time>
      </trkpt>
      <trkpt lat="49.62606" lon="5.605">
        <ele>265.290009</ele>
        <time>2021-02-20T16:36:27Z</time>
      </trkpt>
      <trkpt lat="49.62606" lon="5.60484">
        <ele>265.290009</ele>
        <time>2021-02-20T16:36:29Z</time>
      </trkpt>
      <trkpt lat="49.62608" lon="5.60466">
        <ele>265.290009</ele>
        <time>2021-02-20T16:36:33Z</time>
      </trkpt>
      <trkpt lat="49.62614" lon="5.60453">
        <ele>265.290009</ele>
        <time>2021-02-20T16:36:36Z</time>
      </trkpt>
      <trkpt lat="49.6262" lon="5.60422">
        <ele>265.290009</ele>
        <time>2021-02-20T16:36:40Z</time>
      </trkpt>
      <trkpt lat="49.62617" lon="5.60407">
        <ele>265.290009</ele>
        <time>2021-02-20T16:36:42Z</time>
      </trkpt>
      <trkpt lat="49.62625" lon="5.60392">
        <ele>265.290009</ele>
        <time>2021-02-20T16:36:46Z</time>
      </trkpt>
      <trkpt lat="49.62634" lon="5.60382">
        <ele>265.290009</ele>
        <time>2021-02-20T16:36:48Z</time>
      </trkpt>
      <trkpt lat="49.62639" lon="5.60371">
        <ele>265.290009</ele>
        <time>2021-02-20T16:36:51Z</time>
      </trkpt>
      <trkpt lat="49.62645" lon="5.6036">
        <ele>265.290009</ele>
        <time>2021-02-20T16:36:56Z</time>
      </trkpt>
      <trkpt lat="49.6265" lon="5.60357">
        <ele>265.290009</ele>
        <time>2021-02-20T16:37:00Z</time>
      </trkpt>
      <trkpt lat="49.62655" lon="5.60356">
        <ele>265.290009</ele>
        <time>2021-02-20T16:37:04Z</time>
      </trkpt>
      <trkpt lat="49.62663" lon="5.60355">
        <ele>265.290009</ele>
        <time>2021-02-20T16:37:09Z</time>
      </trkpt>
      <trkpt lat="49.62673" lon="5.60353">
        <ele>265.290009</ele>
        <time>2021-02-20T16:37:15Z</time>
      </trkpt>
      <trkpt lat="49.62682" lon="5.60351">
        <ele>265.290009</ele>
        <time>2021-02-20T16:37:19Z</time>
      </trkpt>
      <trkpt lat="49.62688" lon="5.60354">
        <ele>265.290009</ele>
        <time>2021-02-20T16:37:23Z</time>
      </trkpt>
      <trkpt lat="49.62694" lon="5.60359">
        <ele>265.290009</ele>
        <time>2021-02-20T16:37:28Z</time>
      </trkpt>
      <trkpt lat="49.62701" lon="5.60361">
        <ele>265.290009</ele>
        <time>2021-02-20T16:37:32Z</time>
      </trkpt>
      <trkpt lat="49.6271" lon="5.60356">
        <ele>265.290009</ele>
        <time>2021-02-20T16:37:36Z</time>
      </trkpt>
      <trkpt lat="49.6272" lon="5.60359">
        <ele>265.290009</ele>
        <time>2021-02-20T16:37:41Z</time>
      </trkpt>
      <trkpt lat="49.62731" lon="5.60359">
        <ele>265.290009</ele>
        <time>2021-02-20T16:37:45Z</time>
      </trkpt>
      <trkpt lat="49.62741" lon="5.60366">
        <ele>265.290009</ele>
        <time>2021-02-20T16:37:49Z</time>
      </trkpt>
      <trkpt lat="49.62748" lon="5.60371">
        <ele>265.290009</ele>
        <time>2021-02-20T16:37:53Z</time>
      </trkpt>
      <trkpt lat="49.62759" lon="5.60376">
        <ele>265.290009</ele>
        <time>2021-02-20T16:37:57Z</time>
      </trkpt>
      <trkpt lat="49.62765" lon="5.60378">
        <ele>265.290009</ele>
        <time>2021-02-20T16:38:02Z</time>
      </trkpt>
      <trkpt lat="49.62773" lon="5.60381">
        <ele>265.290009</ele>
        <time>2021-02-20T16:38:06Z</time>
      </trkpt>
      <trkpt lat="49.6278" lon="5.60383">
        <ele>265.290009</ele>
        <time>2021-02-20T16:38:11Z</time>
      </trkpt>
      <trkpt lat="49.6279" lon="5.60387">
        <ele>265.290009</ele>
        <time>2021-02-20T16:38:16Z</time>
      </trkpt>
      <trkpt lat="49.62798" lon="5.60389">
        <ele>265.290009</ele>
        <time>2021-02-20T16:38:20Z</time>
      </trkpt>
      <trkpt lat="49.6281" lon="5.60388">
        <ele>265.290009</ele>
        <time>2021-02-20T16:38:25Z</time>
      </trkpt>
      <trkpt lat="49.62819" lon="5.6039">
        <ele>265.290009</ele>
        <time>2021-02-20T16:38:28Z</time>
      </trkpt>
      <trkpt lat="49.62826" lon="5.60391">
        <ele>265.290009</ele>
        <time>2021-02-20T16:38:32Z</time>
      </trkpt>
      <trkpt lat="49.62831" lon="5.60389">
        <ele>265.290009</ele>
        <time>2021-02-20T16:38:36Z</time>
      </trkpt>
      <trkpt lat="49.62838" lon="5.60387">
        <ele>265.290009</ele>
        <time>2021-02-20T16:38:41Z</time>
      </trkpt>
      <trkpt lat="49.62848" lon="5.60384">
        <ele>265.290009</ele>
        <time>2021-02-20T16:38:45Z</time>
      </trkpt>
      <trkpt lat="49.62856" lon="5.60386">
        <ele>265.290009</ele>
        <time>2021-02-20T16:38:50Z</time>
      </trkpt>
      <trkpt lat="49.62866" lon="5.60387">
        <ele>265.290009</ele>
        <time>2021-02-20T16:38:53Z</time>
      </trkpt>
      <trkpt lat="49.6287" lon="5.6039">
        <ele>265.290009</ele>
        <time>2021-02-20T16:38:58Z</time>
      </trkpt>
      <trkpt lat="49.62874" lon="5.60396">
        <ele>265.290009</ele>
        <time>2021-02-20T16:39:02Z</time>
      </trkpt>
      <trkpt lat="49.62881" lon="5.60402">
        <ele>265.290009</ele>
        <time>2021-02-20T16:39:07Z</time>
      </trkpt>
      <trkpt lat="49.62887" lon="5.60407">
        <ele>265.290009</ele>
        <time>2021-02-20T16:39:12Z</time>
      </trkpt>
      <trkpt lat="49.62896" lon="5.60412">
        <ele>265.290009</ele>
        <time>2021-02-20T16:39:15Z</time>
      </trkpt>
      <trkpt lat="49.62906" lon="5.60417">
        <ele>265.290009</ele>
        <time>2021-02-20T16:39:19Z</time>
      </trkpt>
      <trkpt lat="49.62911" lon="5.60421">
        <ele>265.290009</ele>
        <time>2021-02-20T16:39:23Z</time>
      </trkpt>
      <trkpt lat="49.62917" lon="5.60428">
        <ele>265.290009</ele>
        <time>2021-02-20T16:39:28Z</time>
      </trkpt>
      <trkpt lat="49.62925" lon="5.60431">
        <ele>265.290009</ele>
        <time>2021-02-20T16:39:33Z</time>
      </trkpt>
      <trkpt lat="49.62935" lon="5.60434">
        <ele>265.290009</ele>
        <time>2021-02-20T16:39:38Z</time>
      </trkpt>
      <trkpt lat="49.62944" lon="5.60438">
        <ele>265.290009</ele>
        <time>2021-02-20T16:39:41Z</time>
      </trkpt>
      <trkpt lat="49.62953" lon="5.60443">
        <ele>265.290009</ele>
        <time>2021-02-20T16:39:45Z</time>
      </trkpt>
      <trkpt lat="49.62957" lon="5.60449">
        <ele>265.290009</ele>
        <time>2021-02-20T16:39:49Z</time>
      </trkpt>
      <trkpt lat="49.62961" lon="5.60454">
        <ele>265.290009</ele>
        <time>2021-02-20T16:39:54Z</time>
      </trkpt>
      <trkpt lat="49.62968" lon="5.60462">
        <ele>265.290009</ele>
        <time>2021-02-20T16:39:58Z</time>
      </trkpt>
      <trkpt lat="49.62973" lon="5.60471">
        <ele>265.290009</ele>
        <time>2021-02-20T16:40:03Z</time>
      </trkpt>
      <trkpt lat="49.62971" lon="5.60481">
        <ele>265.290009</ele>
        <time>2021-02-20T16:40:07Z</time>
      </trkpt>
      <trkpt lat="49.62977" lon="5.60485">
        <ele>265.290009</ele>
        <time>2021-02-20T16:40:12Z</time>
      </trkpt>
      <trkpt lat="49.62983" lon="5.60491">
        <ele>265.290009</ele>
        <time>2021-02-20T16:40:16Z</time>
      </trkpt>
      <trkpt lat="49.6299" lon="5.60491">
        <ele>265.290009</ele>
        <time>2021-02-20T16:40:21Z</time>
      </trkpt>
      <trkpt lat="49.62999" lon="5.60494">
        <ele>265.290009</ele>
        <time>2021-02-20T16:40:25Z</time>
      </trkpt>
      <trkpt lat="49.63005" lon="5.60496">
        <ele>265.290009</ele>
        <time>2021-02-20T16:40:30Z</time>
      </trkpt>
      <trkpt lat="49.63009" lon="5.60496">
        <ele>265.290009</ele>
        <time>2021-02-20T16:40:34Z</time>
      </trkpt>
      <trkpt lat="49.63011" lon="5.60498">
        <ele>265.290009</ele>
        <time>2021-02-20T16:40:39Z</time>
      </trkpt>
      <trkpt lat="49.63016" lon="5.60505">
        <ele>265.290009</ele>
        <time>2021-02-20T16:40:43Z</time>
      </trkpt>
      <trkpt lat="49.63025" lon="5.60516">
        <ele>265.290009</ele>
        <time>2021-02-20T16:40:48Z</time>
      </trkpt>
      <trkpt lat="49.63032" lon="5.60526">
        <ele>265.290009</ele>
        <time>2021-02-20T16:40:50Z</time>
      </trkpt>
      <trkpt lat="49.63037" lon="5.60536">
        <ele>265.290009</ele>
        <time>2021-02-20T16:40:55Z</time>
      </trkpt>
      <trkpt lat="49.63042" lon="5.60544">
        <ele>265.290009</ele>
        <time>2021-02-20T16:40:59Z</time>
      </trkpt>
      <trkpt lat="49.63049" lon="5.60551">
        <ele>265.290009</ele>
        <time>2021-02-20T16:41:04Z</time>
      </trkpt>
      <trkpt lat="49.63056" lon="5.60558">
        <ele>265.290009</ele>
        <time>2021-02-20T16:41:09Z</time>
      </trkpt>
      <trkpt lat="49.63065" lon="5.60563">
        <ele>265.290009</ele>
        <time>2021-02-20T16:41:12Z</time>
      </trkpt>
      <trkpt lat="49.63068" lon="5.60567">
        <ele>265.290009</ele>
        <time>2021-02-20T16:41:17Z</time>
      </trkpt>
      <trkpt lat="49.6307" lon="5.60573">
        <ele>265.290009</ele>
        <time>2021-02-20T16:41:21Z</time>
      </trkpt>
      <trkpt lat="49.63075" lon="5.6058">
        <ele>265.290009</ele>
        <time>2021-02-20T16:41:25Z</time>
      </trkpt>
      <trkpt lat="49.63082" lon="5.6059">
        <ele>265.290009</ele>
        <time>2021-02-20T16:41:30Z</time>
      </trkpt>
      <trkpt lat="49.63092" lon="5.60599">
        <ele>265.290009</ele>
        <time>2021-02-20T16:41:33Z</time>
      </trkpt>
      <trkpt lat="49.631" lon="5.60606">
        <ele>265.290009</ele>
        <time>2021-02-20T16:41:37Z</time>
      </trkpt>
      <trkpt lat="49.63107" lon="5.60611">
        <ele>265.290009</ele>
        <time>2021-02-20T16:41:42Z</time>
      </trkpt>
      <trkpt lat="49.63111" lon="5.6061">
        <ele>265.290009</ele>
        <time>2021-02-20T16:41:46Z</time>
      </trkpt>
      <trkpt lat="49.63107" lon="5.60601">
        <ele>265.290009</ele>
        <time>2021-02-20T16:41:50Z</time>
      </trkpt>
      <trkpt lat="49.63106" lon="5.60604">
        <ele>265.290009</ele>
        <time>2021-02-20T16:41:55Z</time>
      </trkpt>
      <trkpt lat="49.63112" lon="5.60616">
        <ele>265.290009</ele>
        <time>2021-02-20T16:41:59Z</time>
      </trkpt>
      <trkpt lat="49.63111" lon="5.60619">
        <ele>265.290009</ele>
        <time>2021-02-20T16:42:03Z</time>
      </trkpt>
      <trkpt lat="49.63118" lon="5.60629">
        <ele>265.290009</ele>
        <time>2021-02-20T16:42:07Z</time>
      </trkpt>
      <trkpt lat="49.63125" lon="5.60637">
        <ele>265.290009</ele>
        <time>2021-02-20T16:42:10Z</time>
      </trkpt>
      <trkpt lat="49.63137" lon="5.60646">
        <ele>265.290009</ele>
        <time>2021-02-20T16:42:12Z</time>
      </trkpt>
      <trkpt lat="49.63145" lon="5.60652">
        <ele>265.290009</ele>
        <time>2021-02-20T16:42:14Z</time>
      </trkpt>
      <trkpt lat="49.63154" lon="5.60658">
        <ele>265.290009</ele>
        <time>2021-02-20T16:42:16Z</time>
      </trkpt>
      <trkpt lat="49.63163" lon="5.60664">
        <ele>265.290009</ele>
        <time>2021-02-20T16:42:19Z</time>
      </trkpt>
      <trkpt lat="49.63173" lon="5.60669">
        <ele>265.290009</ele>
        <time>2021-02-20T16:42:21Z</time>
      </trkpt>
      <trkpt lat="49.63181" lon="5.60673">
        <ele>265.290009</ele>
        <time>2021-02-20T16:42:23Z</time>
      </trkpt>
      <trkpt lat="49.63191" lon="5.60679">
        <ele>265.290009</ele>
        <time>2021-02-20T16:42:26Z</time>
      </trkpt>
      <trkpt lat="49.63201" lon="5.60683">
        <ele>265.290009</ele>
        <time>2021-02-20T16:42:28Z</time>
      </trkpt>
      <trkpt lat="49.63209" lon="5.60691">
        <ele>265.290009</ele>
        <time>2021-02-20T16:42:32Z</time>
      </trkpt>
      <trkpt lat="49.63218" lon="5.60696">
        <ele>265.290009</ele>
        <time>2021-02-20T16:42:35Z</time>
      </trkpt>
      <trkpt lat="49.63227" lon="5.60702">
        <ele>265.290009</ele>
        <time>2021-02-20T16:42:37Z</time>
      </trkpt>
      <trkpt lat="49.63232" lon="5.60709">
        <ele>265.290009</ele>
        <time>2021-02-20T16:42:42Z</time>
      </trkpt>
      <trkpt lat="49.63239" lon="5.60714">
        <ele>265.290009</ele>
        <time>2021-02-20T16:42:47Z</time>
      </trkpt>
      <trkpt lat="49.63248" lon="5.60714">
        <ele>265.290009</ele>
        <time>2021-02-20T16:42:50Z</time>
      </trkpt>
      <trkpt lat="49.63255" lon="5.60718">
        <ele>265.290009</ele>
        <time>2021-02-20T16:42:54Z</time>
      </trkpt>
      <trkpt lat="49.63261" lon="5.60721">
        <ele>265.290009</ele>
        <time>2021-02-20T16:42:59Z</time>
      </trkpt>
      <trkpt lat="49.63271" lon="5.60727">
        <ele>265.290009</ele>
        <time>2021-02-20T16:43:03Z</time>
      </trkpt>
      <trkpt lat="49.6328" lon="5.60738">
        <ele>265.290009</ele>
        <time>2021-02-20T16:43:07Z</time>
      </trkpt>
      <trkpt lat="49.63289" lon="5.60745">
        <ele>265.290009</ele>
        <time>2021-02-20T16:43:10Z</time>
      </trkpt>
      <trkpt lat="49.63295" lon="5.60748">
        <ele>265.290009</ele>
        <time>2021-02-20T16:43:15Z</time>
      </trkpt>
      <trkpt lat="49.63304" lon="5.60753">
        <ele>265.290009</ele>
        <time>2021-02-20T16:43:20Z</time>
      </trkpt>
      <trkpt lat="49.63314" lon="5.60761">
        <ele>265.290009</ele>
        <time>2021-02-20T16:43:23Z</time>
      </trkpt>
      <trkpt lat="49.63322" lon="5.60769">
        <ele>265.290009</ele>
        <time>2021-02-20T16:43:26Z</time>
      </trkpt>
      <trkpt lat="49.63335" lon="5.60774">
        <ele>265.290009</ele>
        <time>2021-02-20T16:43:29Z</time>
      </trkpt>
      <trkpt lat="49.63348" lon="5.60779">
        <ele>265.290009</ele>
        <time>2021-02-20T16:43:31Z</time>
      </trkpt>
      <trkpt lat="49.63358" lon="5.60788">
        <ele>265.290009</ele>
        <time>2021-02-20T16:43:34Z</time>
      </trkpt>
      <trkpt lat="49.63367" lon="5.60792">
        <ele>265.290009</ele>
        <time>2021-02-20T16:43:37Z</time>
      </trkpt>
      <trkpt lat="49.63377" lon="5.60798">
        <ele>265.290009</ele>
        <time>2021-02-20T16:43:41Z</time>
      </trkpt>
      <trkpt lat="49.63389" lon="5.60807">
        <ele>265.290009</ele>
        <time>2021-02-20T16:43:45Z</time>
      </trkpt>
      <trkpt lat="49.63399" lon="5.60813">
        <ele>265.290009</ele>
        <time>2021-02-20T16:43:46Z</time>
      </trkpt>
      <trkpt lat="49.63411" lon="5.6082">
        <ele>265.290009</ele>
        <time>2021-02-20T16:43:49Z</time>
      </trkpt>
      <trkpt lat="49.6342" lon="5.60826">
        <ele>265.290009</ele>
        <time>2021-02-20T16:43:53Z</time>
      </trkpt>
      <trkpt lat="49.63431" lon="5.60838">
        <ele>265.290009</ele>
        <time>2021-02-20T16:43:58Z</time>
      </trkpt>
      <trkpt lat="49.6344" lon="5.60842">
        <ele>265.290009</ele>
        <time>2021-02-20T16:44:01Z</time>
      </trkpt>
      <trkpt lat="49.63446" lon="5.60838">
        <ele>265.290009</ele>
        <time>2021-02-20T16:44:06Z</time>
      </trkpt>
      <trkpt lat="49.63456" lon="5.60843">
        <ele>265.290009</ele>
        <time>2021-02-20T16:44:09Z</time>
      </trkpt>
      <trkpt lat="49.63466" lon="5.60847">
        <ele>265.290009</ele>
        <time>2021-02-20T16:44:13Z</time>
      </trkpt>
      <trkpt lat="49.63476" lon="5.60852">
        <ele>265.290009</ele>
        <time>2021-02-20T16:44:16Z</time>
      </trkpt>
      <trkpt lat="49.63486" lon="5.60853">
        <ele>265.290009</ele>
        <time>2021-02-20T16:44:22Z</time>
      </trkpt>
      <trkpt lat="49.63496" lon="5.6085">
        <ele>265.290009</ele>
        <time>2021-02-20T16:44:25Z</time>
      </trkpt>
      <trkpt lat="49.63505" lon="5.60848">
        <ele>265.290009</ele>
        <time>2021-02-20T16:44:30Z</time>
      </trkpt>
      <trkpt lat="49.63515" lon="5.60848">
        <ele>265.290009</ele>
        <time>2021-02-20T16:44:33Z</time>
      </trkpt>
      <trkpt lat="49.63519" lon="5.60852">
        <ele>265.290009</ele>
        <time>2021-02-20T16:44:37Z</time>
      </trkpt>
      <trkpt lat="49.63521" lon="5.60858">
        <ele>265.290009</ele>
        <time>2021-02-20T16:44:42Z</time>
      </trkpt>
      <trkpt lat="49.63525" lon="5.60861">
        <ele>265.290009</ele>
        <time>2021-02-20T16:44:46Z</time>
      </trkpt>
      <trkpt lat="49.6353" lon="5.60868">
        <ele>265.290009</ele>
        <time>2021-02-20T16:44:50Z</time>
      </trkpt>
      <trkpt lat="49.63535" lon="5.60878">
        <ele>265.290009</ele>
        <time>2021-02-20T16:44:55Z</time>
      </trkpt>
      <trkpt lat="49.63534" lon="5.60895">
        <ele>265.290009</ele>
        <time>2021-02-20T16:44:58Z</time>
      </trkpt>
      <trkpt lat="49.63536" lon="5.60904">
        <ele>265.290009</ele>
        <time>2021-02-20T16:45:03Z</time>
      </trkpt>
      <trkpt lat="49.63543" lon="5.60909">
        <ele>265.290009</ele>
        <time>2021-02-20T16:45:07Z</time>
      </trkpt>
      <trkpt lat="49.6355" lon="5.60911">
        <ele>265.290009</ele>
        <time>2021-02-20T16:45:12Z</time>
      </trkpt>
      <trkpt lat="49.63557" lon="5.60916">
        <ele>265.290009</ele>
        <time>2021-02-20T16:45:16Z</time>
      </trkpt>
      <trkpt lat="49.63559" lon="5.60919">
        <ele>265.290009</ele>
        <time>2021-02-20T16:45:20Z</time>
      </trkpt>
      <trkpt lat="49.63564" lon="5.60922">
        <ele>265.290009</ele>
        <time>2021-02-20T16:45:25Z</time>
      </trkpt>
      <trkpt lat="49.63573" lon="5.60929">
        <ele>265.290009</ele>
        <time>2021-02-20T16:45:29Z</time>
      </trkpt>
      <trkpt lat="49.63583" lon="5.60935">
        <ele>265.290009</ele>
        <time>2021-02-20T16:45:32Z</time>
      </trkpt>
      <trkpt lat="49.63589" lon="5.60941">
        <ele>265.290009</ele>
        <time>2021-02-20T16:45:37Z</time>
      </trkpt>
      <trkpt lat="49.63588" lon="5.60943">
        <ele>265.290009</ele>
        <time>2021-02-20T16:45:41Z</time>
      </trkpt>
      <trkpt lat="49.6359" lon="5.60949">
        <ele>265.290009</ele>
        <time>2021-02-20T16:45:45Z</time>
      </trkpt>
      <trkpt lat="49.63592" lon="5.60956">
        <ele>265.290009</ele>
        <time>2021-02-20T16:45:50Z</time>
      </trkpt>
      <trkpt lat="49.63598" lon="5.60963">
        <ele>265.290009</ele>
        <time>2021-02-20T16:45:54Z</time>
      </trkpt>
      <trkpt lat="49.63602" lon="5.60973">
        <ele>265.290009</ele>
        <time>2021-02-20T16:45:59Z</time>
      </trkpt>
      <trkpt lat="49.63611" lon="5.60985">
        <ele>265.290009</ele>
        <time>2021-02-20T16:46:01Z</time>
      </trkpt>
      <trkpt lat="49.63615" lon="5.60994">
        <ele>265.290009</ele>
        <time>2021-02-20T16:46:05Z</time>
      </trkpt>
      <trkpt lat="49.63619" lon="5.61013">
        <ele>265.290009</ele>
        <time>2021-02-20T16:46:10Z</time>
      </trkpt>
      <trkpt lat="49.63622" lon="5.61028">
        <ele>265.290009</ele>
        <time>2021-02-20T16:46:14Z</time>
      </trkpt>
      <trkpt lat="49.63623" lon="5.61039">
        <ele>265.290009</ele>
        <time>2021-02-20T16:46:18Z</time>
      </trkpt>
      <trkpt lat="49.63616" lon="5.61049">
        <ele>265.290009</ele>
        <time>2021-02-20T16:46:22Z</time>
      </trkpt>
      <trkpt lat="49.63616" lon="5.61064">
        <ele>265.290009</ele>
        <time>2021-02-20T16:46:27Z</time>
      </trkpt>
      <trkpt lat="49.63619" lon="5.61079">
        <ele>265.290009</ele>
        <time>2021-02-20T16:46:31Z</time>
      </trkpt>
      <trkpt lat="49.63619" lon="5.61093">
        <ele>265.279999</ele>
        <time>2021-02-20T16:46:35Z</time>
      </trkpt>
      <trkpt lat="49.63623" lon="5.61106">
        <ele>265.279999</ele>
        <time>2021-02-20T16:46:38Z</time>
      </trkpt>
      <trkpt lat="49.63628" lon="5.6112">
        <ele>265.279999</ele>
        <time>2021-02-20T16:46:42Z</time>
      </trkpt>
      <trkpt lat="49.63633" lon="5.6113">
        <ele>265.279999</ele>
        <time>2021-02-20T16:46:47Z</time>
      </trkpt>
      <trkpt lat="49.63636" lon="5.61147">
        <ele>265.279999</ele>
        <time>2021-02-20T16:46:52Z</time>
      </trkpt>
      <trkpt lat="49.63639" lon="5.61162">
        <ele>265.279999</ele>
        <time>2021-02-20T16:46:55Z</time>
      </trkpt>
      <trkpt lat="49.63646" lon="5.61176">
        <ele>265.279999</ele>
        <time>2021-02-20T16:46:57Z</time>
      </trkpt>
      <trkpt lat="49.63649" lon="5.6119">
        <ele>265.279999</ele>
        <time>2021-02-20T16:47:00Z</time>
      </trkpt>
      <trkpt lat="49.63654" lon="5.61205">
        <ele>265.279999</ele>
        <time>2021-02-20T16:47:04Z</time>
      </trkpt>
      <trkpt lat="49.63659" lon="5.61221">
        <ele>265.279999</ele>
        <time>2021-02-20T16:47:08Z</time>
      </trkpt>
      <trkpt lat="49.63663" lon="5.61234">
        <ele>265.279999</ele>
        <time>2021-02-20T16:47:13Z</time>
      </trkpt>
      <trkpt lat="49.63667" lon="5.61242">
        <ele>265.279999</ele>
        <time>2021-02-20T16:47:17Z</time>
      </trkpt>
      <trkpt lat="49.63672" lon="5.61246">
        <ele>265.279999</ele>
        <time>2021-02-20T16:47:21Z</time>
      </trkpt>
      <trkpt lat="49.63673" lon="5.61256">
        <ele>265.279999</ele>
        <time>2021-02-20T16:47:26Z</time>
      </trkpt>
      <trkpt lat="49.63675" lon="5.61269">
        <ele>265.279999</ele>
        <time>2021-02-20T16:47:30Z</time>
      </trkpt>
      <trkpt lat="49.63679" lon="5.61282">
        <ele>265.279999</ele>
        <time>2021-02-20T16:47:33Z</time>
      </trkpt>
      <trkpt lat="49.63685" lon="5.61297">
        <ele>265.279999</ele>
        <time>2021-02-20T16:47:36Z</time>
      </trkpt>
      <trkpt lat="49.63693" lon="5.61312">
        <ele>265.279999</ele>
        <time>2021-02-20T16:47:39Z</time>
      </trkpt>
      <trkpt lat="49.63699" lon="5.61326">
        <ele>265.279999</ele>
        <time>2021-02-20T16:47:42Z</time>
      </trkpt>
      <trkpt lat="49.63701" lon="5.6134">
        <ele>265.279999</ele>
        <time>2021-02-20T16:47:45Z</time>
      </trkpt>
      <trkpt lat="49.63704" lon="5.61354">
        <ele>265.279999</ele>
        <time>2021-02-20T16:47:49Z</time>
      </trkpt>
      <trkpt lat="49.63705" lon="5.61367">
        <ele>265.279999</ele>
        <time>2021-02-20T16:47:54Z</time>
      </trkpt>
      <trkpt lat="49.63707" lon="5.61375">
        <ele>265.279999</ele>
        <time>2021-02-20T16:47:58Z</time>
      </trkpt>
      <trkpt lat="49.63714" lon="5.61386">
        <ele>265.279999</ele>
        <time>2021-02-20T16:48:02Z</time>
      </trkpt>
      <trkpt lat="49.63718" lon="5.61399">
        <ele>265.279999</ele>
        <time>2021-02-20T16:48:05Z</time>
      </trkpt>
      <trkpt lat="49.63724" lon="5.61414">
        <ele>265.279999</ele>
        <time>2021-02-20T16:48:08Z</time>
      </trkpt>
      <trkpt lat="49.63721" lon="5.61427">
        <ele>265.279999</ele>
        <time>2021-02-20T16:48:13Z</time>
      </trkpt>
      <trkpt lat="49.63717" lon="5.61438">
        <ele>265.279999</ele>
        <time>2021-02-20T16:48:18Z</time>
      </trkpt>
      <trkpt lat="49.63718" lon="5.61451">
        <ele>265.279999</ele>
        <time>2021-02-20T16:48:23Z</time>
      </trkpt>
      <trkpt lat="49.6372" lon="5.61457">
        <ele>265.279999</ele>
        <time>2021-02-20T16:48:27Z</time>
      </trkpt>
      <trkpt lat="49.63725" lon="5.61456">
        <ele>265.279999</ele>
        <time>2021-02-20T16:48:32Z</time>
      </trkpt>
      <trkpt lat="49.6373" lon="5.61453">
        <ele>265.279999</ele>
        <time>2021-02-20T16:48:37Z</time>
      </trkpt>
      <trkpt lat="49.63734" lon="5.6144">
        <ele>265.279999</ele>
        <time>2021-02-20T16:48:42Z</time>
      </trkpt>
      <trkpt lat="49.63745" lon="5.61439">
        <ele>265.279999</ele>
        <time>2021-02-20T16:48:47Z</time>
      </trkpt>
      <trkpt lat="49.63753" lon="5.61439">
        <ele>265.279999</ele>
        <time>2021-02-20T16:48:51Z</time>
      </trkpt>
      <trkpt lat="49.63759" lon="5.61438">
        <ele>265.279999</ele>
        <time>2021-02-20T16:48:55Z</time>
      </trkpt>
      <trkpt lat="49.63765" lon="5.61434">
        <ele>265.279999</ele>
        <time>2021-02-20T16:49:00Z</time>
      </trkpt>
      <trkpt lat="49.63773" lon="5.61426">
        <ele>265.279999</ele>
        <time>2021-02-20T16:49:05Z</time>
      </trkpt>
      <trkpt lat="49.63778" lon="5.61413">
        <ele>265.279999</ele>
        <time>2021-02-20T16:49:08Z</time>
      </trkpt>
      <trkpt lat="49.63786" lon="5.61411">
        <ele>265.279999</ele>
        <time>2021-02-20T16:49:13Z</time>
      </trkpt>
      <trkpt lat="49.63796" lon="5.61408">
        <ele>265.279999</ele>
        <time>2021-02-20T16:49:16Z</time>
      </trkpt>
      <trkpt lat="49.63804" lon="5.61407">
        <ele>265.279999</ele>
        <time>2021-02-20T16:49:19Z</time>
      </trkpt>
      <trkpt lat="49.63814" lon="5.61405">
        <ele>265.279999</ele>
        <time>2021-02-20T16:49:22Z</time>
      </trkpt>
      <trkpt lat="49.63825" lon="5.61404">
        <ele>265.279999</ele>
        <time>2021-02-20T16:49:26Z</time>
      </trkpt>
      <trkpt lat="49.63833" lon="5.61399">
        <ele>265.279999</ele>
        <time>2021-02-20T16:49:28Z</time>
      </trkpt>
      <trkpt lat="49.63845" lon="5.61396">
        <ele>265.279999</ele>
        <time>2021-02-20T16:49:33Z</time>
      </trkpt>
      <trkpt lat="49.63854" lon="5.61396">
        <ele>265.279999</ele>
        <time>2021-02-20T16:49:37Z</time>
      </trkpt>
      <trkpt lat="49.63862" lon="5.61395">
        <ele>265.279999</ele>
        <time>2021-02-20T16:49:41Z</time>
      </trkpt>
      <trkpt lat="49.63869" lon="5.61389">
        <ele>265.279999</ele>
        <time>2021-02-20T16:49:45Z</time>
      </trkpt>
      <trkpt lat="49.63875" lon="5.61376">
        <ele>265.279999</ele>
        <time>2021-02-20T16:49:47Z</time>
      </trkpt>
      <trkpt lat="49.63882" lon="5.61367">
        <ele>265.279999</ele>
        <time>2021-02-20T16:49:51Z</time>
      </trkpt>
      <trkpt lat="49.63884" lon="5.61368">
        <ele>265.279999</ele>
        <time>2021-02-20T16:49:55Z</time>
      </trkpt>
      <trkpt lat="49.63884" lon="5.61366">
        <ele>265.279999</ele>
        <time>2021-02-20T16:50:00Z</time>
      </trkpt>
      <trkpt lat="49.63887" lon="5.61374">
        <ele>265.279999</ele>
        <time>2021-02-20T16:50:04Z</time>
      </trkpt>
      <trkpt lat="49.63897" lon="5.61379">
        <ele>265.279999</ele>
        <time>2021-02-20T16:50:08Z</time>
      </trkpt>
      <trkpt lat="49.63906" lon="5.61382">
        <ele>265.279999</ele>
        <time>2021-02-20T16:50:10Z</time>
      </trkpt>
      <trkpt lat="49.63912" lon="5.61391">
        <ele>265.279999</ele>
        <time>2021-02-20T16:50:14Z</time>
      </trkpt>
      <trkpt lat="49.63913" lon="5.61402">
        <ele>265.279999</ele>
        <time>2021-02-20T16:50:18Z</time>
      </trkpt>
      <trkpt lat="49.63909" lon="5.61405">
        <ele>265.279999</ele>
        <time>2021-02-20T16:50:23Z</time>
      </trkpt>
      <trkpt lat="49.63906" lon="5.6142">
        <ele>265.279999</ele>
        <time>2021-02-20T16:50:27Z</time>
      </trkpt>
      <trkpt lat="49.6391" lon="5.61441">
        <ele>265.279999</ele>
        <time>2021-02-20T16:50:31Z</time>
      </trkpt>
      <trkpt lat="49.63923" lon="5.61464">
        <ele>265.279999</ele>
        <time>2021-02-20T16:50:33Z</time>
      </trkpt>
      <trkpt lat="49.63928" lon="5.61477">
        <ele>265.279999</ele>
        <time>2021-02-20T16:50:34Z</time>
      </trkpt>
      <trkpt lat="49.63936" lon="5.61482">
        <ele>265.279999</ele>
        <time>2021-02-20T16:50:39Z</time>
      </trkpt>
      <trkpt lat="49.63939" lon="5.61496">
        <ele>265.279999</ele>
        <time>2021-02-20T16:50:41Z</time>
      </trkpt>
      <trkpt lat="49.63944" lon="5.61509">
        <ele>265.279999</ele>
        <time>2021-02-20T16:50:45Z</time>
      </trkpt>
      <trkpt lat="49.63943" lon="5.61526">
        <ele>265.279999</ele>
        <time>2021-02-20T16:50:48Z</time>
      </trkpt>
      <trkpt lat="49.6394" lon="5.61541">
        <ele>265.279999</ele>
        <time>2021-02-20T16:50:51Z</time>
      </trkpt>
      <trkpt lat="49.63937" lon="5.61557">
        <ele>265.279999</ele>
        <time>2021-02-20T16:50:54Z</time>
      </trkpt>
      <trkpt lat="49.63934" lon="5.61577">
        <ele>265.279999</ele>
        <time>2021-02-20T16:50:58Z</time>
      </trkpt>
      <trkpt lat="49.63938" lon="5.61592">
        <ele>265.279999</ele>
        <time>2021-02-20T16:50:59Z</time>
      </trkpt>
      <trkpt lat="49.63942" lon="5.61606">
        <ele>265.279999</ele>
        <time>2021-02-20T16:51:02Z</time>
      </trkpt>
      <trkpt lat="49.63951" lon="5.61625">
        <ele>265.279999</ele>
        <time>2021-02-20T16:51:05Z</time>
      </trkpt>
      <trkpt lat="49.63959" lon="5.61636">
        <ele>265.279999</ele>
        <time>2021-02-20T16:51:06Z</time>
      </trkpt>
      <trkpt lat="49.63968" lon="5.61648">
        <ele>265.279999</ele>
        <time>2021-02-20T16:51:08Z</time>
      </trkpt>
      <trkpt lat="49.63974" lon="5.61662">
        <ele>265.279999</ele>
        <time>2021-02-20T16:51:11Z</time>
      </trkpt>
      <trkpt lat="49.63979" lon="5.61676">
        <ele>265.279999</ele>
        <time>2021-02-20T16:51:14Z</time>
      </trkpt>
      <trkpt lat="49.63984" lon="5.61694">
        <ele>265.279999</ele>
        <time>2021-02-20T16:51:17Z</time>
      </trkpt>
      <trkpt lat="49.63991" lon="5.61706">
        <ele>265.279999</ele>
        <time>2021-02-20T16:51:19Z</time>
      </trkpt>
      <trkpt lat="49.63997" lon="5.61721">
        <ele>265.279999</ele>
        <time>2021-02-20T16:51:22Z</time>
      </trkpt>
      <trkpt lat="49.63995" lon="5.61739">
        <ele>265.279999</ele>
        <time>2021-02-20T16:51:25Z</time>
      </trkpt>
      <trkpt lat="49.63994" lon="5.61755">
        <ele>265.279999</ele>
        <time>2021-02-20T16:51:27Z</time>
      </trkpt>
      <trkpt lat="49.63987" lon="5.61778">
        <ele>265.279999</ele>
        <time>2021-02-20T16:51:30Z</time>
      </trkpt>
      <trkpt lat="49.63986" lon="5.61795">
        <ele>265.279999</ele>
        <time>2021-02-20T16:51:33Z</time>
      </trkpt>
      <trkpt lat="49.63991" lon="5.6181">
        <ele>265.279999</ele>
        <time>2021-02-20T16:51:36Z</time>
      </trkpt>
      <trkpt lat="49.63997" lon="5.61825">
        <ele>265.279999</ele>
        <time>2021-02-20T16:51:39Z</time>
      </trkpt>
      <trkpt lat="49.64002" lon="5.61841">
        <ele>265.279999</ele>
        <time>2021-02-20T16:51:42Z</time>
      </trkpt>
      <trkpt lat="49.64004" lon="5.61857">
        <ele>265.279999</ele>
        <time>2021-02-20T16:51:45Z</time>
      </trkpt>
      <trkpt lat="49.64007" lon="5.61876">
        <ele>265.279999</ele>
        <time>2021-02-20T16:51:48Z</time>
      </trkpt>
      <trkpt lat="49.64008" lon="5.61894">
        <ele>265.279999</ele>
        <time>2021-02-20T16:51:51Z</time>
      </trkpt>
      <trkpt lat="49.64004" lon="5.61913">
        <ele>265.279999</ele>
        <time>2021-02-20T16:51:54Z</time>
      </trkpt>
      <trkpt lat="49.64" lon="5.61929">
        <ele>265.279999</ele>
        <time>2021-02-20T16:51:58Z</time>
      </trkpt>
      <trkpt lat="49.64" lon="5.6194">
        <ele>265.279999</ele>
        <time>2021-02-20T16:52:02Z</time>
      </trkpt>
      <trkpt lat="49.63998" lon="5.61954">
        <ele>265.279999</ele>
        <time>2021-02-20T16:52:05Z</time>
      </trkpt>
      <trkpt lat="49.63994" lon="5.61969">
        <ele>265.279999</ele>
        <time>2021-02-20T16:52:09Z</time>
      </trkpt>
      <trkpt lat="49.6399" lon="5.61984">
        <ele>265.279999</ele>
        <time>2021-02-20T16:52:12Z</time>
      </trkpt>
      <trkpt lat="49.63983" lon="5.61998">
        <ele>265.279999</ele>
        <time>2021-02-20T16:52:16Z</time>
      </trkpt>
      <trkpt lat="49.63985" lon="5.62017">
        <ele>265.279999</ele>
        <time>2021-02-20T16:52:19Z</time>
      </trkpt>
      <trkpt lat="49.63991" lon="5.62037">
        <ele>265.279999</ele>
        <time>2021-02-20T16:52:22Z</time>
      </trkpt>
      <trkpt lat="49.63996" lon="5.62053">
        <ele>265.269989</ele>
        <time>2021-02-20T16:52:24Z</time>
      </trkpt>
      <trkpt lat="49.64" lon="5.62066">
        <ele>265.269989</ele>
        <time>2021-02-20T16:52:26Z</time>
      </trkpt>
      <trkpt lat="49.64004" lon="5.62083">
        <ele>265.269989</ele>
        <time>2021-02-20T16:52:29Z</time>
      </trkpt>
      <trkpt lat="49.64007" lon="5.62098">
        <ele>265.269989</ele>
        <time>2021-02-20T16:52:32Z</time>
      </trkpt>
      <trkpt lat="49.64008" lon="5.62114">
        <ele>265.269989</ele>
        <time>2021-02-20T16:52:35Z</time>
      </trkpt>
      <trkpt lat="49.64009" lon="5.6213">
        <ele>265.269989</ele>
        <time>2021-02-20T16:52:36Z</time>
      </trkpt>
      <trkpt lat="49.64012" lon="5.62145">
        <ele>265.269989</ele>
        <time>2021-02-20T16:52:38Z</time>
      </trkpt>
      <trkpt lat="49.64016" lon="5.62158">
        <ele>265.269989</ele>
        <time>2021-02-20T16:52:40Z</time>
      </trkpt>
      <trkpt lat="49.6402" lon="5.62176">
        <ele>265.269989</ele>
        <time>2021-02-20T16:52:43Z</time>
      </trkpt>
      <trkpt lat="49.64022" lon="5.6219">
        <ele>265.269989</ele>
        <time>2021-02-20T16:52:46Z</time>
      </trkpt>
      <trkpt lat="49.64025" lon="5.62204">
        <ele>265.269989</ele>
        <time>2021-02-20T16:52:50Z</time>
      </trkpt>
      <trkpt lat="49.64028" lon="5.62218">
        <ele>265.269989</ele>
        <time>2021-02-20T16:52:53Z</time>
      </trkpt>
      <trkpt lat="49.64032" lon="5.62238">
        <ele>265.269989</ele>
        <time>2021-02-20T16:52:57Z</time>
      </trkpt>
      <trkpt lat="49.64035" lon="5.62253">
        <ele>265.269989</ele>
        <time>2021-02-20T16:53:00Z</time>
      </trkpt>
      <trkpt lat="49.64037" lon="5.62272">
        <ele>265.269989</ele>
        <time>2021-02-20T16:53:01Z</time>
      </trkpt>
      <trkpt lat="49.64036" lon="5.62287">
        <ele>265.269989</ele>
        <time>2021-02-20T16:53:04Z</time>
      </trkpt>
      <trkpt lat="49.64034" lon="5.62304">
        <ele>265.269989</ele>
        <time>2021-02-20T16:53:08Z</time>
      </trkpt>
      <trkpt lat="49.64033" lon="5.62321">
        <ele>265.269989</ele>
        <time>2021-02-20T16:53:11Z</time>
      </trkpt>
      <trkpt lat="49.64031" lon="5.62335">
        <ele>265.269989</ele>
        <time>2021-02-20T16:53:13Z</time>
      </trkpt>
      <trkpt lat="49.64026" lon="5.62349">
        <ele>265.269989</ele>
        <time>2021-02-20T16:53:17Z</time>
      </trkpt>
      <trkpt lat="49.64022" lon="5.62363">
        <ele>265.269989</ele>
        <time>2021-02-20T16:53:20Z</time>
      </trkpt>
      <trkpt lat="49.64033" lon="5.62387">
        <ele>265.269989</ele>
        <time>2021-02-20T16:53:23Z</time>
      </trkpt>
      <trkpt lat="49.64039" lon="5.624">
        <ele>265.269989</ele>
        <time>2021-02-20T16:53:24Z</time>
      </trkpt>
      <trkpt lat="49.64045" lon="5.62412">
        <ele>265.269989</ele>
        <time>2021-02-20T16:53:25Z</time>
      </trkpt>
      <trkpt lat="49.6405" lon="5.62426">
        <ele>265.269989</ele>
        <time>2021-02-20T16:53:27Z</time>
      </trkpt>
      <trkpt lat="49.64062" lon="5.62442">
        <ele>265.269989</ele>
        <time>2021-02-20T16:53:29Z</time>
      </trkpt>
      <trkpt lat="49.64071" lon="5.62456">
        <ele>265.269989</ele>
        <time>2021-02-20T16:53:31Z</time>
      </trkpt>
      <trkpt lat="49.64066" lon="5.6247">
        <ele>265.269989</ele>
        <time>2021-02-20T16:53:34Z</time>
      </trkpt>
      <trkpt lat="49.64064" lon="5.62485">
        <ele>265.269989</ele>
        <time>2021-02-20T16:53:37Z</time>
      </trkpt>
      <trkpt lat="49.64064" lon="5.62502">
        <ele>265.269989</ele>
        <time>2021-02-20T16:53:38Z</time>
      </trkpt>
      <trkpt lat="49.64065" lon="5.62517">
        <ele>265.269989</ele>
        <time>2021-02-20T16:53:39Z</time>
      </trkpt>
      <trkpt lat="49.64068" lon="5.62531">
        <ele>265.269989</ele>
        <time>2021-02-20T16:53:40Z</time>
      </trkpt>
      <trkpt lat="49.64072" lon="5.62547">
        <ele>265.269989</ele>
        <time>2021-02-20T16:53:41Z</time>
      </trkpt>
      <trkpt lat="49.64077" lon="5.62561">
        <ele>265.269989</ele>
        <time>2021-02-20T16:53:42Z</time>
      </trkpt>
      <trkpt lat="49.64085" lon="5.62581">
        <ele>265.269989</ele>
        <time>2021-02-20T16:53:44Z</time>
      </trkpt>
      <trkpt lat="49.64097" lon="5.62602">
        <ele>265.269989</ele>
        <time>2021-02-20T16:53:46Z</time>
      </trkpt>
      <trkpt lat="49.64108" lon="5.6261">
        <ele>265.269989</ele>
        <time>2021-02-20T16:53:48Z</time>
      </trkpt>
      <trkpt lat="49.64118" lon="5.62602">
        <ele>265.269989</ele>
        <time>2021-02-20T16:53:51Z</time>
      </trkpt>
      <trkpt lat="49.64128" lon="5.626">
        <ele>265.269989</ele>
        <time>2021-02-20T16:53:54Z</time>
      </trkpt>
      <trkpt lat="49.64136" lon="5.62593">
        <ele>265.269989</ele>
        <time>2021-02-20T16:53:57Z</time>
      </trkpt>
      <trkpt lat="49.64145" lon="5.6259">
        <ele>265.269989</ele>
        <time>2021-02-20T16:54:00Z</time>
      </trkpt>
      <trkpt lat="49.64154" lon="5.62585">
        <ele>265.269989</ele>
        <time>2021-02-20T16:54:03Z</time>
      </trkpt>
      <trkpt lat="49.64165" lon="5.62579">
        <ele>265.269989</ele>
        <time>2021-02-20T16:54:05Z</time>
      </trkpt>
      <trkpt lat="49.64177" lon="5.62576">
        <ele>265.269989</ele>
        <time>2021-02-20T16:54:08Z</time>
      </trkpt>
      <trkpt lat="49.64188" lon="5.62577">
        <ele>265.269989</ele>
        <time>2021-02-20T16:54:12Z</time>
      </trkpt>
      <trkpt lat="49.64198" lon="5.62575">
        <ele>265.269989</ele>
        <time>2021-02-20T16:54:15Z</time>
      </trkpt>
      <trkpt lat="49.6421" lon="5.6257">
        <ele>265.269989</ele>
        <time>2021-02-20T16:54:18Z</time>
      </trkpt>
      <trkpt lat="49.6422" lon="5.62561">
        <ele>265.269989</ele>
        <time>2021-02-20T16:54:21Z</time>
      </trkpt>
      <trkpt lat="49.64227" lon="5.62552">
        <ele>265.269989</ele>
        <time>2021-02-20T16:54:24Z</time>
      </trkpt>
      <trkpt lat="49.64236" lon="5.6255">
        <ele>265.269989</ele>
        <time>2021-02-20T16:54:29Z</time>
      </trkpt>
      <trkpt lat="49.64245" lon="5.62545">
        <ele>265.269989</ele>
        <time>2021-02-20T16:54:33Z</time>
      </trkpt>
      <trkpt lat="49.64255" lon="5.62537">
        <ele>265.269989</ele>
        <time>2021-02-20T16:54:37Z</time>
      </trkpt>
      <trkpt lat="49.64261" lon="5.62527">
        <ele>265.269989</ele>
        <time>2021-02-20T16:54:41Z</time>
      </trkpt>
      <trkpt lat="49.64271" lon="5.62519">
        <ele>265.269989</ele>
        <time>2021-02-20T16:54:45Z</time>
      </trkpt>
      <trkpt lat="49.6428" lon="5.62519">
        <ele>265.269989</ele>
        <time>2021-02-20T16:54:49Z</time>
      </trkpt>
      <trkpt lat="49.64289" lon="5.6251">
        <ele>265.269989</ele>
        <time>2021-02-20T16:54:52Z</time>
      </trkpt>
      <trkpt lat="49.64301" lon="5.62506">
        <ele>265.269989</ele>
        <time>2021-02-20T16:54:56Z</time>
      </trkpt>
      <trkpt lat="49.64311" lon="5.62498">
        <ele>265.269989</ele>
        <time>2021-02-20T16:54:59Z</time>
      </trkpt>
      <trkpt lat="49.64322" lon="5.62491">
        <ele>265.269989</ele>
        <time>2021-02-20T16:55:01Z</time>
      </trkpt>
      <trkpt lat="49.64332" lon="5.62487">
        <ele>265.269989</ele>
        <time>2021-02-20T16:55:04Z</time>
      </trkpt>
      <trkpt lat="49.64341" lon="5.62477">
        <ele>265.269989</ele>
        <time>2021-02-20T16:55:08Z</time>
      </trkpt>
      <trkpt lat="49.64349" lon="5.62463">
        <ele>265.269989</ele>
        <time>2021-02-20T16:55:10Z</time>
      </trkpt>
      <trkpt lat="49.6436" lon="5.62453">
        <ele>265.269989</ele>
        <time>2021-02-20T16:55:13Z</time>
      </trkpt>
      <trkpt lat="49.64371" lon="5.62445">
        <ele>265.269989</ele>
        <time>2021-02-20T16:55:16Z</time>
      </trkpt>
      <trkpt lat="49.6438" lon="5.62436">
        <ele>265.269989</ele>
        <time>2021-02-20T16:55:19Z</time>
      </trkpt>
      <trkpt lat="49.64388" lon="5.62428">
        <ele>265.269989</ele>
        <time>2021-02-20T16:55:21Z</time>
      </trkpt>
      <trkpt lat="49.64399" lon="5.62418">
        <ele>265.269989</ele>
        <time>2021-02-20T16:55:24Z</time>
      </trkpt>
      <trkpt lat="49.64408" lon="5.62409">
        <ele>265.269989</ele>
        <time>2021-02-20T16:55:26Z</time>
      </trkpt>
      <trkpt lat="49.64418" lon="5.62399">
        <ele>265.269989</ele>
        <time>2021-02-20T16:55:28Z</time>
      </trkpt>
      <trkpt lat="49.64426" lon="5.62391">
        <ele>265.269989</ele>
        <time>2021-02-20T16:55:30Z</time>
      </trkpt>
      <trkpt lat="49.64435" lon="5.62384">
        <ele>265.269989</ele>
        <time>2021-02-20T16:55:32Z</time>
      </trkpt>
      <trkpt lat="49.64444" lon="5.62379">
        <ele>265.269989</ele>
        <time>2021-02-20T16:55:34Z</time>
      </trkpt>
      <trkpt lat="49.64455" lon="5.62371">
        <ele>265.269989</ele>
        <time>2021-02-20T16:55:36Z</time>
      </trkpt>
      <trkpt lat="49.64463" lon="5.62366">
        <ele>265.269989</ele>
        <time>2021-02-20T16:55:38Z</time>
      </trkpt>
      <trkpt lat="49.64473" lon="5.62363">
        <ele>265.269989</ele>
        <time>2021-02-20T16:55:40Z</time>
      </trkpt>
      <trkpt lat="49.64486" lon="5.62362">
        <ele>265.269989</ele>
        <time>2021-02-20T16:55:43Z</time>
      </trkpt>
      <trkpt lat="49.64497" lon="5.6236">
        <ele>265.269989</ele>
        <time>2021-02-20T16:55:46Z</time>
      </trkpt>
      <trkpt lat="49.64508" lon="5.62353">
        <ele>265.269989</ele>
        <time>2021-02-20T16:55:49Z</time>
      </trkpt>
      <trkpt lat="49.64517" lon="5.62343">
        <ele>265.269989</ele>
        <time>2021-02-20T16:55:52Z</time>
      </trkpt>
      <trkpt lat="49.64524" lon="5.6233">
        <ele>265.269989</ele>
        <time>2021-02-20T16:55:55Z</time>
      </trkpt>
      <trkpt lat="49.64531" lon="5.62317">
        <ele>265.269989</ele>
        <time>2021-02-20T16:55:58Z</time>
      </trkpt>
      <trkpt lat="49.64537" lon="5.62303">
        <ele>265.269989</ele>
        <time>2021-02-20T16:56:02Z</time>
      </trkpt>
      <trkpt lat="49.64542" lon="5.62288">
        <ele>265.269989</ele>
        <time>2021-02-20T16:56:05Z</time>
      </trkpt>
      <trkpt lat="49.64543" lon="5.62273">
        <ele>265.269989</ele>
        <time>2021-02-20T16:56:08Z</time>
      </trkpt>
      <trkpt lat="49.64546" lon="5.6226">
        <ele>265.269989</ele>
        <time>2021-02-20T16:56:11Z</time>
      </trkpt>
      <trkpt lat="49.64549" lon="5.62245">
        <ele>265.269989</ele>
        <time>2021-02-20T16:56:15Z</time>
      </trkpt>
      <trkpt lat="49.64553" lon="5.62231">
        <ele>265.269989</ele>
        <time>2021-02-20T16:56:18Z</time>
      </trkpt>
      <trkpt lat="49.6456" lon="5.62219">
        <ele>265.269989</ele>
        <time>2021-02-20T16:56:21Z</time>
      </trkpt>
      <trkpt lat="49.64568" lon="5.62211">
        <ele>265.269989</ele>
        <time>2021-02-20T16:56:25Z</time>
      </trkpt>
      <trkpt lat="49.64576" lon="5.622">
        <ele>265.269989</ele>
        <time>2021-02-20T16:56:29Z</time>
      </trkpt>
      <trkpt lat="49.64582" lon="5.62188">
        <ele>265.269989</ele>
        <time>2021-02-20T16:56:32Z</time>
      </trkpt>
      <trkpt lat="49.64588" lon="5.62176">
        <ele>265.269989</ele>
        <time>2021-02-20T16:56:35Z</time>
      </trkpt>
      <trkpt lat="49.64595" lon="5.62166">
        <ele>265.269989</ele>
        <time>2021-02-20T16:56:38Z</time>
      </trkpt>
      <trkpt lat="49.64607" lon="5.62156">
        <ele>265.269989</ele>
        <time>2021-02-20T16:56:41Z</time>
      </trkpt>
      <trkpt lat="49.64615" lon="5.62147">
        <ele>265.269989</ele>
        <time>2021-02-20T16:56:43Z</time>
      </trkpt>
      <trkpt lat="49.64624" lon="5.62139">
        <ele>265.269989</ele>
        <time>2021-02-20T16:56:45Z</time>
      </trkpt>
      <trkpt lat="49.64633" lon="5.6213">
        <ele>265.269989</ele>
        <time>2021-02-20T16:56:48Z</time>
      </trkpt>
      <trkpt lat="49.64641" lon="5.62119">
        <ele>265.269989</ele>
        <time>2021-02-20T16:56:50Z</time>
      </trkpt>
      <trkpt lat="49.6465" lon="5.62109">
        <ele>265.269989</ele>
        <time>2021-02-20T16:56:53Z</time>
      </trkpt>
      <trkpt lat="49.64659" lon="5.62098">
        <ele>265.269989</ele>
        <time>2021-02-20T16:56:56Z</time>
      </trkpt>
      <trkpt lat="49.64668" lon="5.62085">
        <ele>265.269989</ele>
        <time>2021-02-20T16:56:59Z</time>
      </trkpt>
      <trkpt lat="49.64676" lon="5.62075">
        <ele>265.269989</ele>
        <time>2021-02-20T16:57:03Z</time>
      </trkpt>
      <trkpt lat="49.64685" lon="5.62065">
        <ele>265.269989</ele>
        <time>2021-02-20T16:57:05Z</time>
      </trkpt>
      <trkpt lat="49.64694" lon="5.62054">
        <ele>265.269989</ele>
        <time>2021-02-20T16:57:08Z</time>
      </trkpt>
      <trkpt lat="49.647" lon="5.62041">
        <ele>265.269989</ele>
        <time>2021-02-20T16:57:11Z</time>
      </trkpt>
      <trkpt lat="49.64706" lon="5.62028">
        <ele>265.269989</ele>
        <time>2021-02-20T16:57:15Z</time>
      </trkpt>
      <trkpt lat="49.64713" lon="5.62018">
        <ele>265.269989</ele>
        <time>2021-02-20T16:57:18Z</time>
      </trkpt>
      <trkpt lat="49.64721" lon="5.62004">
        <ele>265.269989</ele>
        <time>2021-02-20T16:57:21Z</time>
      </trkpt>
      <trkpt lat="49.64727" lon="5.61989">
        <ele>265.269989</ele>
        <time>2021-02-20T16:57:24Z</time>
      </trkpt>
      <trkpt lat="49.64733" lon="5.61972">
        <ele>265.269989</ele>
        <time>2021-02-20T16:57:27Z</time>
      </trkpt>
      <trkpt lat="49.6474" lon="5.61958">
        <ele>265.269989</ele>
        <time>2021-02-20T16:57:29Z</time>
      </trkpt>
      <trkpt lat="49.64747" lon="5.61944">
        <ele>265.269989</ele>
        <time>2021-02-20T16:57:31Z</time>
      </trkpt>
      <trkpt lat="49.64756" lon="5.61933">
        <ele>265.269989</ele>
        <time>2021-02-20T16:57:34Z</time>
      </trkpt>
      <trkpt lat="49.64761" lon="5.61918">
        <ele>265.269989</ele>
        <time>2021-02-20T16:57:38Z</time>
      </trkpt>
      <trkpt lat="49.64767" lon="5.61906">
        <ele>265.269989</ele>
        <time>2021-02-20T16:57:42Z</time>
      </trkpt>
      <trkpt lat="49.64768" lon="5.61901">
        <ele>265.269989</ele>
        <time>2021-02-20T16:57:47Z</time>
      </trkpt>
      <trkpt lat="49.64768" lon="5.61898">
        <ele>265.269989</ele>
        <time>2021-02-20T16:57:52Z</time>
      </trkpt>
      <trkpt lat="49.64768" lon="5.61893">
        <ele>265.269989</ele>
        <time>2021-02-20T16:57:57Z</time>
      </trkpt>
      <trkpt lat="49.64768" lon="5.61889">
        <ele>265.269989</ele>
        <time>2021-02-20T16:58:02Z</time>
      </trkpt>
      <trkpt lat="49.64769" lon="5.61881">
        <ele>265.269989</ele>
        <time>2021-02-20T16:58:07Z</time>
      </trkpt>
      <trkpt lat="49.64769" lon="5.61881">
        <ele>265.269989</ele>
        <time>2021-02-20T16:58:12Z</time>
      </trkpt>
      <trkpt lat="49.64769" lon="5.61881">
        <ele>265.269989</ele>
        <time>2021-02-20T16:58:17Z</time>
      </trkpt>
      <trkpt lat="49.64769" lon="5.61881">
        <ele>265.269989</ele>
        <time>2021-02-20T16:58:22Z</time>
      </trkpt>
      <trkpt lat="49.64769" lon="5.6188">
        <ele>265.269989</ele>
        <time>2021-02-20T16:58:27Z</time>
      </trkpt>
      <trkpt lat="49.6477" lon="5.61881">
        <ele>265.269989</ele>
        <time>2021-02-20T16:58:32Z</time>
      </trkpt>
      <trkpt lat="49.6477" lon="5.6188">
        <ele>265.269989</ele>
        <time>2021-02-20T16:58:37Z</time>
      </trkpt>
      <trkpt lat="49.64776" lon="5.61876">
        <ele>265.269989</ele>
        <time>2021-02-20T16:58:42Z</time>
      </trkpt>
      <trkpt lat="49.64786" lon="5.61866">
        <ele>265.269989</ele>
        <time>2021-02-20T16:58:45Z</time>
      </trkpt>
      <trkpt lat="49.64787" lon="5.6185">
        <ele>265.269989</ele>
        <time>2021-02-20T16:58:47Z</time>
      </trkpt>
      <trkpt lat="49.64792" lon="5.61837">
        <ele>265.269989</ele>
        <time>2021-02-20T16:58:49Z</time>
      </trkpt>
      <trkpt lat="49.64798" lon="5.61821">
        <ele>265.269989</ele>
        <time>2021-02-20T16:58:52Z</time>
      </trkpt>
      <trkpt lat="49.64803" lon="5.61806">
        <ele>265.269989</ele>
        <time>2021-02-20T16:58:54Z</time>
      </trkpt>
      <trkpt lat="49.64807" lon="5.61792">
        <ele>265.269989</ele>
        <time>2021-02-20T16:58:56Z</time>
      </trkpt>
      <trkpt lat="49.64813" lon="5.61775">
        <ele>265.269989</ele>
        <time>2021-02-20T16:58:59Z</time>
      </trkpt>
      <trkpt lat="49.64818" lon="5.61763">
        <ele>265.269989</ele>
        <time>2021-02-20T16:59:03Z</time>
      </trkpt>
      <trkpt lat="49.64825" lon="5.6175">
        <ele>265.269989</ele>
        <time>2021-02-20T16:59:05Z</time>
      </trkpt>
      <trkpt lat="49.64834" lon="5.61735">
        <ele>265.269989</ele>
        <time>2021-02-20T16:59:08Z</time>
      </trkpt>
      <trkpt lat="49.64839" lon="5.61724">
        <ele>265.269989</ele>
        <time>2021-02-20T16:59:10Z</time>
      </trkpt>
      <trkpt lat="49.64846" lon="5.61707">
        <ele>265.269989</ele>
        <time>2021-02-20T16:59:13Z</time>
      </trkpt>
      <trkpt lat="49.64852" lon="5.61692">
        <ele>265.269989</ele>
        <time>2021-02-20T16:59:16Z</time>
      </trkpt>
      <trkpt lat="49.64859" lon="5.61677">
        <ele>265.279999</ele>
        <time>2021-02-20T16:59:19Z</time>
      </trkpt>
      <trkpt lat="49.64864" lon="5.61665">
        <ele>265.279999</ele>
        <time>2021-02-20T16:59:21Z</time>
      </trkpt>
      <trkpt lat="49.64871" lon="5.61649">
        <ele>265.279999</ele>
        <time>2021-02-20T16:59:24Z</time>
      </trkpt>
      <trkpt lat="49.64877" lon="5.61638">
        <ele>265.279999</ele>
        <time>2021-02-20T16:59:25Z</time>
      </trkpt>
      <trkpt lat="49.64885" lon="5.61626">
        <ele>265.279999</ele>
        <time>2021-02-20T16:59:27Z</time>
      </trkpt>
      <trkpt lat="49.64894" lon="5.61613">
        <ele>265.279999</ele>
        <time>2021-02-20T16:59:30Z</time>
      </trkpt>
      <trkpt lat="49.64905" lon="5.61608">
        <ele>265.279999</ele>
        <time>2021-02-20T16:59:33Z</time>
      </trkpt>
      <trkpt lat="49.64916" lon="5.61605">
        <ele>265.279999</ele>
        <time>2021-02-20T16:59:36Z</time>
      </trkpt>
      <trkpt lat="49.64925" lon="5.61592">
        <ele>265.279999</ele>
        <time>2021-02-20T16:59:39Z</time>
      </trkpt>
      <trkpt lat="49.64932" lon="5.61576">
        <ele>265.279999</ele>
        <time>2021-02-20T16:59:42Z</time>
      </trkpt>
      <trkpt lat="49.64938" lon="5.61561">
        <ele>265.279999</ele>
        <time>2021-02-20T16:59:45Z</time>
      </trkpt>
      <trkpt lat="49.64945" lon="5.61544">
        <ele>265.279999</ele>
        <time>2021-02-20T16:59:48Z</time>
      </trkpt>
      <trkpt lat="49.6495" lon="5.61531">
        <ele>265.279999</ele>
        <time>2021-02-20T16:59:50Z</time>
      </trkpt>
      <trkpt lat="49.64957" lon="5.61519">
        <ele>265.279999</ele>
        <time>2021-02-20T16:59:51Z</time>
      </trkpt>
      <trkpt lat="49.64964" lon="5.61506">
        <ele>265.279999</ele>
        <time>2021-02-20T16:59:53Z</time>
      </trkpt>
      <trkpt lat="49.64971" lon="5.61492">
        <ele>265.279999</ele>
        <time>2021-02-20T16:59:56Z</time>
      </trkpt>
      <trkpt lat="49.64979" lon="5.61477">
        <ele>265.279999</ele>
        <time>2021-02-20T16:59:59Z</time>
      </trkpt>
      <trkpt lat="49.64987" lon="5.61464">
        <ele>265.279999</ele>
        <time>2021-02-20T17:00:02Z</time>
      </trkpt>
      <trkpt lat="49.64992" lon="5.61451">
        <ele>265.279999</ele>
        <time>2021-02-20T17:00:04Z</time>
      </trkpt>
      <trkpt lat="49.64995" lon="5.61434">
        <ele>265.279999</ele>
        <time>2021-02-20T17:00:07Z</time>
      </trkpt>
      <trkpt lat="49.65" lon="5.61417">
        <ele>265.279999</ele>
        <time>2021-02-20T17:00:09Z</time>
      </trkpt>
      <trkpt lat="49.65005" lon="5.61402">
        <ele>265.279999</ele>
        <time>2021-02-20T17:00:11Z</time>
      </trkpt>
      <trkpt lat="49.65009" lon="5.61386">
        <ele>265.279999</ele>
        <time>2021-02-20T17:00:15Z</time>
      </trkpt>
      <trkpt lat="49.65017" lon="5.61378">
        <ele>265.279999</ele>
        <time>2021-02-20T17:00:17Z</time>
      </trkpt>
      <trkpt lat="49.65026" lon="5.61371">
        <ele>265.279999</ele>
        <time>2021-02-20T17:00:20Z</time>
      </trkpt>
      <trkpt lat="49.65036" lon="5.61359">
        <ele>265.279999</ele>
        <time>2021-02-20T17:00:22Z</time>
      </trkpt>
      <trkpt lat="49.65046" lon="5.6135">
        <ele>265.279999</ele>
        <time>2021-02-20T17:00:24Z</time>
      </trkpt>
      <trkpt lat="49.65057" lon="5.61342">
        <ele>265.279999</ele>
        <time>2021-02-20T17:00:26Z</time>
      </trkpt>
      <trkpt lat="49.65067" lon="5.61335">
        <ele>265.279999</ele>
        <time>2021-02-20T17:00:28Z</time>
      </trkpt>
      <trkpt lat="49.65077" lon="5.61328">
        <ele>265.279999</ele>
        <time>2021-02-20T17:00:30Z</time>
      </trkpt>
      <trkpt lat="49.65088" lon="5.6132">
        <ele>265.279999</ele>
        <time>2021-02-20T17:00:32Z</time>
      </trkpt>
      <trkpt lat="49.65098" lon="5.61313">
        <ele>265.279999</ele>
        <time>2021-02-20T17:00:34Z</time>
      </trkpt>
      <trkpt lat="49.6511" lon="5.61304">
        <ele>265.279999</ele>
        <time>2021-02-20T17:00:36Z</time>
      </trkpt>
      <trkpt lat="49.6512" lon="5.61295">
        <ele>265.279999</ele>
        <time>2021-02-20T17:00:38Z</time>
      </trkpt>
      <trkpt lat="49.65132" lon="5.61283">
        <ele>265.279999</ele>
        <time>2021-02-20T17:00:40Z</time>
      </trkpt>
      <trkpt lat="49.65143" lon="5.61271">
        <ele>265.279999</ele>
        <time>2021-02-20T17:00:42Z</time>
      </trkpt>
      <trkpt lat="49.65153" lon="5.61262">
        <ele>265.279999</ele>
        <time>2021-02-20T17:00:44Z</time>
      </trkpt>
      <trkpt lat="49.65163" lon="5.61254">
        <ele>265.279999</ele>
        <time>2021-02-20T17:00:46Z</time>
      </trkpt>
      <trkpt lat="49.65173" lon="5.61246">
        <ele>265.279999</ele>
        <time>2021-02-20T17:00:48Z</time>
      </trkpt>
      <trkpt lat="49.65181" lon="5.61235">
        <ele>265.279999</ele>
        <time>2021-02-20T17:00:50Z</time>
      </trkpt>
      <trkpt lat="49.6519" lon="5.61226">
        <ele>265.279999</ele>
        <time>2021-02-20T17:00:52Z</time>
      </trkpt>
      <trkpt lat="49.652" lon="5.61217">
        <ele>265.279999</ele>
        <time>2021-02-20T17:00:54Z</time>
      </trkpt>
      <trkpt lat="49.65207" lon="5.61207">
        <ele>265.279999</ele>
        <time>2021-02-20T17:00:56Z</time>
      </trkpt>
      <trkpt lat="49.65207" lon="5.61193">
        <ele>265.279999</ele>
        <time>2021-02-20T17:00:59Z</time>
      </trkpt>
      <trkpt lat="49.65219" lon="5.61205">
        <ele>265.279999</ele>
        <time>2021-02-20T17:01:02Z</time>
      </trkpt>
      <trkpt lat="49.65228" lon="5.6121">
        <ele>265.279999</ele>
        <time>2021-02-20T17:01:06Z</time>
      </trkpt>
      <trkpt lat="49.65226" lon="5.61218">
        <ele>265.279999</ele>
        <time>2021-02-20T17:01:10Z</time>
      </trkpt>
      <trkpt lat="49.65235" lon="5.61232">
        <ele>265.279999</ele>
        <time>2021-02-20T17:01:13Z</time>
      </trkpt>
      <trkpt lat="49.65239" lon="5.61245">
        <ele>265.279999</ele>
        <time>2021-02-20T17:01:16Z</time>
      </trkpt>
      <trkpt lat="49.65251" lon="5.61265">
        <ele>265.279999</ele>
        <time>2021-02-20T17:01:18Z</time>
      </trkpt>
      <trkpt lat="49.65261" lon="5.61278">
        <ele>265.279999</ele>
        <time>2021-02-20T17:01:21Z</time>
      </trkpt>
      <trkpt lat="49.65268" lon="5.61288">
        <ele>265.279999</ele>
        <time>2021-02-20T17:01:25Z</time>
      </trkpt>
      <trkpt lat="49.65279" lon="5.61308">
        <ele>265.279999</ele>
        <time>2021-02-20T17:01:30Z</time>
      </trkpt>
      <trkpt lat="49.65286" lon="5.61323">
        <ele>265.279999</ele>
        <time>2021-02-20T17:01:31Z</time>
      </trkpt>
      <trkpt lat="49.65292" lon="5.61334">
        <ele>265.279999</ele>
        <time>2021-02-20T17:01:34Z</time>
      </trkpt>
      <trkpt lat="49.6531" lon="5.61357">
        <ele>265.279999</ele>
        <time>2021-02-20T17:01:39Z</time>
      </trkpt>
      <trkpt lat="49.65316" lon="5.61371">
        <ele>265.279999</ele>
        <time>2021-02-20T17:01:43Z</time>
      </trkpt>
      <trkpt lat="49.65321" lon="5.61384">
        <ele>265.279999</ele>
        <time>2021-02-20T17:01:46Z</time>
      </trkpt>
      <trkpt lat="49.65324" lon="5.61397">
        <ele>265.279999</ele>
        <time>2021-02-20T17:01:49Z</time>
      </trkpt>
      <trkpt lat="49.65327" lon="5.61412">
        <ele>265.279999</ele>
        <time>2021-02-20T17:01:52Z</time>
      </trkpt>
      <trkpt lat="49.65328" lon="5.61428">
        <ele>265.279999</ele>
        <time>2021-02-20T17:01:54Z</time>
      </trkpt>
      <trkpt lat="49.65331" lon="5.61444">
        <ele>265.279999</ele>
        <time>2021-02-20T17:01:57Z</time>
      </trkpt>
      <trkpt lat="49.65334" lon="5.61464">
        <ele>265.279999</ele>
        <time>2021-02-20T17:01:59Z</time>
      </trkpt>
      <trkpt lat="49.65337" lon="5.6148">
        <ele>265.279999</ele>
        <time>2021-02-20T17:02:00Z</time>
      </trkpt>
      <trkpt lat="49.6534" lon="5.61495">
        <ele>265.279999</ele>
        <time>2021-02-20T17:02:01Z</time>
      </trkpt>
      <trkpt lat="49.65342" lon="5.61515">
        <ele>265.279999</ele>
        <time>2021-02-20T17:02:03Z</time>
      </trkpt>
      <trkpt lat="49.65344" lon="5.61531">
        <ele>265.279999</ele>
        <time>2021-02-20T17:02:05Z</time>
      </trkpt>
      <trkpt lat="49.65352" lon="5.61542">
        <ele>265.279999</ele>
        <time>2021-02-20T17:02:08Z</time>
      </trkpt>
      <trkpt lat="49.65359" lon="5.61551">
        <ele>265.279999</ele>
        <time>2021-02-20T17:02:11Z</time>
      </trkpt>
      <trkpt lat="49.65368" lon="5.61561">
        <ele>265.279999</ele>
        <time>2021-02-20T17:02:14Z</time>
      </trkpt>
      <trkpt lat="49.65379" lon="5.61562">
        <ele>265.279999</ele>
        <time>2021-02-20T17:02:19Z</time>
      </trkpt>
      <trkpt lat="49.65385" lon="5.61556">
        <ele>265.279999</ele>
        <time>2021-02-20T17:02:24Z</time>
      </trkpt>
      <trkpt lat="49.65396" lon="5.61548">
        <ele>265.279999</ele>
        <time>2021-02-20T17:02:28Z</time>
      </trkpt>
      <trkpt lat="49.65403" lon="5.61532">
        <ele>265.279999</ele>
        <time>2021-02-20T17:02:31Z</time>
      </trkpt>
      <trkpt lat="49.65412" lon="5.6152">
        <ele>265.279999</ele>
        <time>2021-02-20T17:02:34Z</time>
      </trkpt>
      <trkpt lat="49.65421" lon="5.61511">
        <ele>265.279999</ele>
        <time>2021-02-20T17:02:38Z</time>
      </trkpt>
      <trkpt lat="49.65429" lon="5.61502">
        <ele>265.279999</ele>
        <time>2021-02-20T17:02:42Z</time>
      </trkpt>
      <trkpt lat="49.65437" lon="5.61489">
        <ele>265.279999</ele>
        <time>2021-02-20T17:02:45Z</time>
      </trkpt>
      <trkpt lat="49.65444" lon="5.61478">
        <ele>265.279999</ele>
        <time>2021-02-20T17:02:48Z</time>
      </trkpt>
      <trkpt lat="49.65452" lon="5.61466">
        <ele>265.279999</ele>
        <time>2021-02-20T17:02:52Z</time>
      </trkpt>
      <trkpt lat="49.65458" lon="5.61453">
        <ele>265.279999</ele>
        <time>2021-02-20T17:02:55Z</time>
      </trkpt>
      <trkpt lat="49.65461" lon="5.61438">
        <ele>265.279999</ele>
        <time>2021-02-20T17:02:58Z</time>
      </trkpt>
      <trkpt lat="49.65463" lon="5.6142">
        <ele>265.279999</ele>
        <time>2021-02-20T17:03:01Z</time>
      </trkpt>
      <trkpt lat="49.65464" lon="5.61405">
        <ele>265.279999</ele>
        <time>2021-02-20T17:03:05Z</time>
      </trkpt>
      <trkpt lat="49.6547" lon="5.61391">
        <ele>265.279999</ele>
        <time>2021-02-20T17:03:08Z</time>
      </trkpt>
      <trkpt lat="49.65477" lon="5.61378">
        <ele>265.279999</ele>
        <time>2021-02-20T17:03:11Z</time>
      </trkpt>
      <trkpt lat="49.65481" lon="5.61364">
        <ele>265.279999</ele>
        <time>2021-02-20T17:03:14Z</time>
      </trkpt>
      <trkpt lat="49.65488" lon="5.61351">
        <ele>265.279999</ele>
        <time>2021-02-20T17:03:17Z</time>
      </trkpt>
      <trkpt lat="49.65498" lon="5.6134">
        <ele>265.279999</ele>
        <time>2021-02-20T17:03:20Z</time>
      </trkpt>
      <trkpt lat="49.65506" lon="5.61329">
        <ele>265.279999</ele>
        <time>2021-02-20T17:03:23Z</time>
      </trkpt>
      <trkpt lat="49.65513" lon="5.61318">
        <ele>265.279999</ele>
        <time>2021-02-20T17:03:25Z</time>
      </trkpt>
      <trkpt lat="49.65521" lon="5.6131">
        <ele>265.279999</ele>
        <time>2021-02-20T17:03:27Z</time>
      </trkpt>
      <trkpt lat="49.65527" lon="5.61294">
        <ele>265.279999</ele>
        <time>2021-02-20T17:03:28Z</time>
      </trkpt>
      <trkpt lat="49.6554" lon="5.61292">
        <ele>265.279999</ele>
        <time>2021-02-20T17:03:30Z</time>
      </trkpt>
      <trkpt lat="49.65548" lon="5.61286">
        <ele>265.279999</ele>
        <time>2021-02-20T17:03:33Z</time>
      </trkpt>
      <trkpt lat="49.65558" lon="5.61278">
        <ele>265.279999</ele>
        <time>2021-02-20T17:03:35Z</time>
      </trkpt>
      <trkpt lat="49.65567" lon="5.61275">
        <ele>265.279999</ele>
        <time>2021-02-20T17:03:37Z</time>
      </trkpt>
      <trkpt lat="49.65575" lon="5.6127">
        <ele>265.279999</ele>
        <time>2021-02-20T17:03:39Z</time>
      </trkpt>
      <trkpt lat="49.65586" lon="5.61266">
        <ele>265.279999</ele>
        <time>2021-02-20T17:03:42Z</time>
      </trkpt>
      <trkpt lat="49.65595" lon="5.6126">
        <ele>265.279999</ele>
        <time>2021-02-20T17:03:45Z</time>
      </trkpt>
      <trkpt lat="49.65608" lon="5.6127">
        <ele>265.279999</ele>
        <time>2021-02-20T17:03:48Z</time>
      </trkpt>
      <trkpt lat="49.65621" lon="5.61278">
        <ele>265.279999</ele>
        <time>2021-02-20T17:03:49Z</time>
      </trkpt>
      <trkpt lat="49.65632" lon="5.61289">
        <ele>265.279999</ele>
        <time>2021-02-20T17:03:52Z</time>
      </trkpt>
      <trkpt lat="49.65642" lon="5.61301">
        <ele>265.279999</ele>
        <time>2021-02-20T17:03:55Z</time>
      </trkpt>
      <trkpt lat="49.65646" lon="5.61314">
        <ele>265.279999</ele>
        <time>2021-02-20T17:03:58Z</time>
      </trkpt>
      <trkpt lat="49.65645" lon="5.6133">
        <ele>265.279999</ele>
        <time>2021-02-20T17:04:02Z</time>
      </trkpt>
      <trkpt lat="49.65648" lon="5.61346">
        <ele>265.279999</ele>
        <time>2021-02-20T17:04:06Z</time>
      </trkpt>
      <trkpt lat="49.65652" lon="5.61361">
        <ele>265.279999</ele>
        <time>2021-02-20T17:04:09Z</time>
      </trkpt>
      <trkpt lat="49.65649" lon="5.61378">
        <ele>265.279999</ele>
        <time>2021-02-20T17:04:12Z</time>
      </trkpt>
      <trkpt lat="49.65651" lon="5.61397">
        <ele>265.279999</ele>
        <time>2021-02-20T17:04:15Z</time>
      </trkpt>
      <trkpt lat="49.65656" lon="5.61413">
        <ele>265.279999</ele>
        <time>2021-02-20T17:04:17Z</time>
      </trkpt>
      <trkpt lat="49.65659" lon="5.61429">
        <ele>265.279999</ele>
        <time>2021-02-20T17:04:19Z</time>
      </trkpt>
      <trkpt lat="49.65665" lon="5.6145">
        <ele>265.279999</ele>
        <time>2021-02-20T17:04:21Z</time>
      </trkpt>
      <trkpt lat="49.65669" lon="5.61476">
        <ele>265.279999</ele>
        <time>2021-02-20T17:04:23Z</time>
      </trkpt>
      <trkpt lat="49.65669" lon="5.6149">
        <ele>265.279999</ele>
        <time>2021-02-20T17:04:27Z</time>
      </trkpt>
      <trkpt lat="49.65678" lon="5.61493">
        <ele>265.279999</ele>
        <time>2021-02-20T17:04:30Z</time>
      </trkpt>
      <trkpt lat="49.65687" lon="5.61492">
        <ele>265.269989</ele>
        <time>2021-02-20T17:04:34Z</time>
      </trkpt>
      <trkpt lat="49.65697" lon="5.61483">
        <ele>265.269989</ele>
        <time>2021-02-20T17:04:38Z</time>
      </trkpt>
      <trkpt lat="49.65706" lon="5.61475">
        <ele>265.269989</ele>
        <time>2021-02-20T17:04:41Z</time>
      </trkpt>
      <trkpt lat="49.65715" lon="5.61469">
        <ele>265.269989</ele>
        <time>2021-02-20T17:04:43Z</time>
      </trkpt>
      <trkpt lat="49.65728" lon="5.61466">
        <ele>265.269989</ele>
        <time>2021-02-20T17:04:46Z</time>
      </trkpt>
      <trkpt lat="49.65736" lon="5.61459">
        <ele>265.269989</ele>
        <time>2021-02-20T17:04:48Z</time>
      </trkpt>
      <trkpt lat="49.65745" lon="5.6145">
        <ele>265.269989</ele>
        <time>2021-02-20T17:04:50Z</time>
      </trkpt>
      <trkpt lat="49.65759" lon="5.61438">
        <ele>265.269989</ele>
        <time>2021-02-20T17:04:52Z</time>
      </trkpt>
      <trkpt lat="49.65766" lon="5.61427">
        <ele>265.269989</ele>
        <time>2021-02-20T17:04:54Z</time>
      </trkpt>
      <trkpt lat="49.65774" lon="5.61411">
        <ele>265.269989</ele>
        <time>2021-02-20T17:04:56Z</time>
      </trkpt>
      <trkpt lat="49.65786" lon="5.61396">
        <ele>265.279999</ele>
        <time>2021-02-20T17:04:58Z</time>
      </trkpt>
      <trkpt lat="49.65796" lon="5.61385">
        <ele>265.279999</ele>
        <time>2021-02-20T17:05:00Z</time>
      </trkpt>
      <trkpt lat="49.65805" lon="5.61371">
        <ele>265.279999</ele>
        <time>2021-02-20T17:05:02Z</time>
      </trkpt>
      <trkpt lat="49.65815" lon="5.61357">
        <ele>265.279999</ele>
        <time>2021-02-20T17:05:04Z</time>
      </trkpt>
      <trkpt lat="49.65822" lon="5.61339">
        <ele>265.279999</ele>
        <time>2021-02-20T17:05:06Z</time>
      </trkpt>
      <trkpt lat="49.65826" lon="5.61326">
        <ele>265.279999</ele>
        <time>2021-02-20T17:05:08Z</time>
      </trkpt>
      <trkpt lat="49.65835" lon="5.61315">
        <ele>265.279999</ele>
        <time>2021-02-20T17:05:11Z</time>
      </trkpt>
      <trkpt lat="49.65842" lon="5.61303">
        <ele>265.279999</ele>
        <time>2021-02-20T17:05:13Z</time>
      </trkpt>
      <trkpt lat="49.65849" lon="5.61288">
        <ele>265.279999</ele>
        <time>2021-02-20T17:05:16Z</time>
      </trkpt>
      <trkpt lat="49.65855" lon="5.61277">
        <ele>265.279999</ele>
        <time>2021-02-20T17:05:18Z</time>
      </trkpt>
      <trkpt lat="49.65862" lon="5.61257">
        <ele>265.279999</ele>
        <time>2021-02-20T17:05:21Z</time>
      </trkpt>
      <trkpt lat="49.65871" lon="5.61237">
        <ele>265.279999</ele>
        <time>2021-02-20T17:05:23Z</time>
      </trkpt>
      <trkpt lat="49.65876" lon="5.61224">
        <ele>265.279999</ele>
        <time>2021-02-20T17:05:24Z</time>
      </trkpt>
      <trkpt lat="49.65883" lon="5.61212">
        <ele>265.279999</ele>
        <time>2021-02-20T17:05:25Z</time>
      </trkpt>
      <trkpt lat="49.65887" lon="5.61205">
        <ele>265.279999</ele>
        <time>2021-02-20T17:05:29Z</time>
      </trkpt>
      <trkpt lat="49.65891" lon="5.61208">
        <ele>265.279999</ele>
        <time>2021-02-20T17:05:33Z</time>
      </trkpt>
      <trkpt lat="49.65889" lon="5.61226">
        <ele>265.279999</ele>
        <time>2021-02-20T17:05:37Z</time>
      </trkpt>
      <trkpt lat="49.65887" lon="5.61242">
        <ele>265.279999</ele>
        <time>2021-02-20T17:05:40Z</time>
      </trkpt>
      <trkpt lat="49.65888" lon="5.61256">
        <ele>265.279999</ele>
        <time>2021-02-20T17:05:41Z</time>
      </trkpt>
      <trkpt lat="49.65888" lon="5.61274">
        <ele>265.279999</ele>
        <time>2021-02-20T17:05:45Z</time>
      </trkpt>
      <trkpt lat="49.65891" lon="5.6129">
        <ele>265.279999</ele>
        <time>2021-02-20T17:05:49Z</time>
      </trkpt>
      <trkpt lat="49.65893" lon="5.61305">
        <ele>265.279999</ele>
        <time>2021-02-20T17:05:54Z</time>
      </trkpt>
      <trkpt lat="49.65897" lon="5.61317">
        <ele>265.279999</ele>
        <time>2021-02-20T17:05:58Z</time>
      </trkpt>
      <trkpt lat="49.65905" lon="5.61329">
        <ele>265.279999</ele>
        <time>2021-02-20T17:06:02Z</time>
      </trkpt>
      <trkpt lat="49.65915" lon="5.6134">
        <ele>265.279999</ele>
        <time>2021-02-20T17:06:05Z</time>
      </trkpt>
      <trkpt lat="49.65926" lon="5.61354">
        <ele>265.279999</ele>
        <time>2021-02-20T17:06:08Z</time>
      </trkpt>
      <trkpt lat="49.65935" lon="5.61364">
        <ele>265.279999</ele>
        <time>2021-02-20T17:06:10Z</time>
      </trkpt>
      <trkpt lat="49.65946" lon="5.6137">
        <ele>265.279999</ele>
        <time>2021-02-20T17:06:13Z</time>
      </trkpt>
      <trkpt lat="49.65957" lon="5.61376">
        <ele>265.279999</ele>
        <time>2021-02-20T17:06:16Z</time>
      </trkpt>
      <trkpt lat="49.65969" lon="5.61383">
        <ele>265.279999</ele>
        <time>2021-02-20T17:06:19Z</time>
      </trkpt>
      <trkpt lat="49.65979" lon="5.61394">
        <ele>265.279999</ele>
        <time>2021-02-20T17:06:22Z</time>
      </trkpt>
      <trkpt lat="49.6599" lon="5.61404">
        <ele>265.279999</ele>
        <time>2021-02-20T17:06:25Z</time>
      </trkpt>
      <trkpt lat="49.65998" lon="5.61412">
        <ele>265.269989</ele>
        <time>2021-02-20T17:06:28Z</time>
      </trkpt>
      <trkpt lat="49.66007" lon="5.61426">
        <ele>265.269989</ele>
        <time>2021-02-20T17:06:31Z</time>
      </trkpt>
      <trkpt lat="49.66013" lon="5.61435">
        <ele>265.269989</ele>
        <time>2021-02-20T17:06:33Z</time>
      </trkpt>
      <trkpt lat="49.66019" lon="5.61448">
        <ele>265.269989</ele>
        <time>2021-02-20T17:06:37Z</time>
      </trkpt>
      <trkpt lat="49.66026" lon="5.6146">
        <ele>265.269989</ele>
        <time>2021-02-20T17:06:39Z</time>
      </trkpt>
      <trkpt lat="49.66031" lon="5.61478">
        <ele>265.269989</ele>
        <time>2021-02-20T17:06:41Z</time>
      </trkpt>
      <trkpt lat="49.66033" lon="5.61492">
        <ele>265.269989</ele>
        <time>2021-02-20T17:06:44Z</time>
      </trkpt>
      <trkpt lat="49.66031" lon="5.6151">
        <ele>265.269989</ele>
        <time>2021-02-20T17:06:46Z</time>
      </trkpt>
      <trkpt lat="49.66028" lon="5.61528">
        <ele>265.269989</ele>
        <time>2021-02-20T17:06:49Z</time>
      </trkpt>
      <trkpt lat="49.66028" lon="5.61548">
        <ele>265.269989</ele>
        <time>2021-02-20T17:06:52Z</time>
      </trkpt>
      <trkpt lat="49.66028" lon="5.61567">
        <ele>265.269989</ele>
        <time>2021-02-20T17:06:55Z</time>
      </trkpt>
      <trkpt lat="49.66032" lon="5.61587">
        <ele>265.269989</ele>
        <time>2021-02-20T17:06:57Z</time>
      </trkpt>
      <trkpt lat="49.66038" lon="5.61604">
        <ele>265.269989</ele>
        <time>2021-02-20T17:06:59Z</time>
      </trkpt>
      <trkpt lat="49.66042" lon="5.61619">
        <ele>265.269989</ele>
        <time>2021-02-20T17:07:01Z</time>
      </trkpt>
      <trkpt lat="49.66042" lon="5.6163">
        <ele>265.269989</ele>
        <time>2021-02-20T17:07:05Z</time>
      </trkpt>
      <trkpt lat="49.66048" lon="5.61646">
        <ele>265.269989</ele>
        <time>2021-02-20T17:07:10Z</time>
      </trkpt>
      <trkpt lat="49.66054" lon="5.61657">
        <ele>265.269989</ele>
        <time>2021-02-20T17:07:12Z</time>
      </trkpt>
      <trkpt lat="49.6606" lon="5.61673">
        <ele>265.269989</ele>
        <time>2021-02-20T17:07:15Z</time>
      </trkpt>
      <trkpt lat="49.66066" lon="5.61691">
        <ele>265.269989</ele>
        <time>2021-02-20T17:07:18Z</time>
      </trkpt>
      <trkpt lat="49.66071" lon="5.61706">
        <ele>265.269989</ele>
        <time>2021-02-20T17:07:20Z</time>
      </trkpt>
      <trkpt lat="49.66079" lon="5.6172">
        <ele>265.269989</ele>
        <time>2021-02-20T17:07:23Z</time>
      </trkpt>
      <trkpt lat="49.66086" lon="5.61734">
        <ele>265.269989</ele>
        <time>2021-02-20T17:07:27Z</time>
      </trkpt>
      <trkpt lat="49.66091" lon="5.61747">
        <ele>265.269989</ele>
        <time>2021-02-20T17:07:30Z</time>
      </trkpt>
      <trkpt lat="49.66094" lon="5.61764">
        <ele>265.269989</ele>
        <time>2021-02-20T17:07:32Z</time>
      </trkpt>
      <trkpt lat="49.66097" lon="5.6178">
        <ele>265.269989</ele>
        <time>2021-02-20T17:07:34Z</time>
      </trkpt>
      <trkpt lat="49.66098" lon="5.61794">
        <ele>265.269989</ele>
        <time>2021-02-20T17:07:38Z</time>
      </trkpt>
      <trkpt lat="49.66104" lon="5.61806">
        <ele>265.269989</ele>
        <time>2021-02-20T17:07:41Z</time>
      </trkpt>
      <trkpt lat="49.66112" lon="5.61814">
        <ele>265.269989</ele>
        <time>2021-02-20T17:07:44Z</time>
      </trkpt>
      <trkpt lat="49.66119" lon="5.61827">
        <ele>265.269989</ele>
        <time>2021-02-20T17:07:47Z</time>
      </trkpt>
      <trkpt lat="49.66127" lon="5.61841">
        <ele>265.269989</ele>
        <time>2021-02-20T17:07:50Z</time>
      </trkpt>
      <trkpt lat="49.66137" lon="5.61859">
        <ele>265.269989</ele>
        <time>2021-02-20T17:07:52Z</time>
      </trkpt>
      <trkpt lat="49.66144" lon="5.61875">
        <ele>265.269989</ele>
        <time>2021-02-20T17:07:53Z</time>
      </trkpt>
      <trkpt lat="49.66152" lon="5.6189">
        <ele>265.269989</ele>
        <time>2021-02-20T17:07:56Z</time>
      </trkpt>
      <trkpt lat="49.66159" lon="5.61902">
        <ele>265.269989</ele>
        <time>2021-02-20T17:07:59Z</time>
      </trkpt>
      <trkpt lat="49.66164" lon="5.61913">
        <ele>265.269989</ele>
        <time>2021-02-20T17:08:02Z</time>
      </trkpt>
      <trkpt lat="49.66168" lon="5.61928">
        <ele>265.269989</ele>
        <time>2021-02-20T17:08:06Z</time>
      </trkpt>
      <trkpt lat="49.66174" lon="5.61941">
        <ele>265.269989</ele>
        <time>2021-02-20T17:08:08Z</time>
      </trkpt>
      <trkpt lat="49.6618" lon="5.61955">
        <ele>265.269989</ele>
        <time>2021-02-20T17:08:10Z</time>
      </trkpt>
      <trkpt lat="49.6619" lon="5.6197">
        <ele>265.269989</ele>
        <time>2021-02-20T17:08:12Z</time>
      </trkpt>
      <trkpt lat="49.66198" lon="5.61983">
        <ele>265.269989</ele>
        <time>2021-02-20T17:08:14Z</time>
      </trkpt>
      <trkpt lat="49.66206" lon="5.61995">
        <ele>265.269989</ele>
        <time>2021-02-20T17:08:17Z</time>
      </trkpt>
      <trkpt lat="49.66214" lon="5.62002">
        <ele>265.269989</ele>
        <time>2021-02-20T17:08:21Z</time>
      </trkpt>
      <trkpt lat="49.66221" lon="5.62015">
        <ele>265.269989</ele>
        <time>2021-02-20T17:08:25Z</time>
      </trkpt>
      <trkpt lat="49.66225" lon="5.62028">
        <ele>265.269989</ele>
        <time>2021-02-20T17:08:28Z</time>
      </trkpt>
      <trkpt lat="49.6623" lon="5.62043">
        <ele>265.269989</ele>
        <time>2021-02-20T17:08:31Z</time>
      </trkpt>
      <trkpt lat="49.66237" lon="5.62053">
        <ele>265.269989</ele>
        <time>2021-02-20T17:08:33Z</time>
      </trkpt>
      <trkpt lat="49.66243" lon="5.62065">
        <ele>265.269989</ele>
        <time>2021-02-20T17:08:35Z</time>
      </trkpt>
      <trkpt lat="49.66248" lon="5.62077">
        <ele>265.269989</ele>
        <time>2021-02-20T17:08:37Z</time>
      </trkpt>
      <trkpt lat="49.66254" lon="5.62092">
        <ele>265.269989</ele>
        <time>2021-02-20T17:08:40Z</time>
      </trkpt>
      <trkpt lat="49.66259" lon="5.62111">
        <ele>265.269989</ele>
        <time>2021-02-20T17:08:43Z</time>
      </trkpt>
      <trkpt lat="49.66263" lon="5.62127">
        <ele>265.269989</ele>
        <time>2021-02-20T17:08:46Z</time>
      </trkpt>
      <trkpt lat="49.66265" lon="5.62143">
        <ele>265.269989</ele>
        <time>2021-02-20T17:08:50Z</time>
      </trkpt>
      <trkpt lat="49.66274" lon="5.62149">
        <ele>265.269989</ele>
        <time>2021-02-20T17:08:55Z</time>
      </trkpt>
      <trkpt lat="49.66285" lon="5.62154">
        <ele>265.269989</ele>
        <time>2021-02-20T17:08:57Z</time>
      </trkpt>
      <trkpt lat="49.66296" lon="5.62157">
        <ele>265.269989</ele>
        <time>2021-02-20T17:09:00Z</time>
      </trkpt>
      <trkpt lat="49.66307" lon="5.62158">
        <ele>265.269989</ele>
        <time>2021-02-20T17:09:03Z</time>
      </trkpt>
      <trkpt lat="49.66319" lon="5.62163">
        <ele>265.269989</ele>
        <time>2021-02-20T17:09:08Z</time>
      </trkpt>
      <trkpt lat="49.66328" lon="5.62167">
        <ele>265.269989</ele>
        <time>2021-02-20T17:09:09Z</time>
      </trkpt>
      <trkpt lat="49.66341" lon="5.62171">
        <ele>265.269989</ele>
        <time>2021-02-20T17:09:12Z</time>
      </trkpt>
      <trkpt lat="49.66353" lon="5.62176">
        <ele>265.269989</ele>
        <time>2021-02-20T17:09:15Z</time>
      </trkpt>
      <trkpt lat="49.66363" lon="5.62179">
        <ele>265.269989</ele>
        <time>2021-02-20T17:09:18Z</time>
      </trkpt>
      <trkpt lat="49.66374" lon="5.6218">
        <ele>265.269989</ele>
        <time>2021-02-20T17:09:21Z</time>
      </trkpt>
      <trkpt lat="49.66383" lon="5.62183">
        <ele>265.269989</ele>
        <time>2021-02-20T17:09:24Z</time>
      </trkpt>
      <trkpt lat="49.66392" lon="5.62185">
        <ele>265.269989</ele>
        <time>2021-02-20T17:09:26Z</time>
      </trkpt>
      <trkpt lat="49.66401" lon="5.62185">
        <ele>265.269989</ele>
        <time>2021-02-20T17:09:27Z</time>
      </trkpt>
      <trkpt lat="49.6641" lon="5.62185">
        <ele>265.269989</ele>
        <time>2021-02-20T17:09:29Z</time>
      </trkpt>
      <trkpt lat="49.66422" lon="5.62187">
        <ele>265.269989</ele>
        <time>2021-02-20T17:09:32Z</time>
      </trkpt>
      <trkpt lat="49.66432" lon="5.62189">
        <ele>265.269989</ele>
        <time>2021-02-20T17:09:34Z</time>
      </trkpt>
      <trkpt lat="49.66444" lon="5.62192">
        <ele>265.269989</ele>
        <time>2021-02-20T17:09:36Z</time>
      </trkpt>
      <trkpt lat="49.66457" lon="5.62198">
        <ele>265.269989</ele>
        <time>2021-02-20T17:09:38Z</time>
      </trkpt>
      <trkpt lat="49.6647" lon="5.62203">
        <ele>265.269989</ele>
        <time>2021-02-20T17:09:40Z</time>
      </trkpt>
      <trkpt lat="49.66481" lon="5.62206">
        <ele>265.269989</ele>
        <time>2021-02-20T17:09:42Z</time>
      </trkpt>
      <trkpt lat="49.66493" lon="5.62204">
        <ele>265.269989</ele>
        <time>2021-02-20T17:09:44Z</time>
      </trkpt>
      <trkpt lat="49.66508" lon="5.62197">
        <ele>265.269989</ele>
        <time>2021-02-20T17:09:46Z</time>
      </trkpt>
      <trkpt lat="49.66518" lon="5.62186">
        <ele>265.269989</ele>
        <time>2021-02-20T17:09:48Z</time>
      </trkpt>
      <trkpt lat="49.6653" lon="5.62175">
        <ele>265.269989</ele>
        <time>2021-02-20T17:09:50Z</time>
      </trkpt>
      <trkpt lat="49.6654" lon="5.62164">
        <ele>265.269989</ele>
        <time>2021-02-20T17:09:52Z</time>
      </trkpt>
      <trkpt lat="49.66549" lon="5.62154">
        <ele>265.269989</ele>
        <time>2021-02-20T17:09:54Z</time>
      </trkpt>
      <trkpt lat="49.66559" lon="5.62143">
        <ele>265.269989</ele>
        <time>2021-02-20T17:09:56Z</time>
      </trkpt>
      <trkpt lat="49.6657" lon="5.62131">
        <ele>265.269989</ele>
        <time>2021-02-20T17:09:58Z</time>
      </trkpt>
      <trkpt lat="49.66579" lon="5.62119">
        <ele>265.269989</ele>
        <time>2021-02-20T17:10:00Z</time>
      </trkpt>
      <trkpt lat="49.66591" lon="5.6211">
        <ele>265.269989</ele>
        <time>2021-02-20T17:10:02Z</time>
      </trkpt>
      <trkpt lat="49.66603" lon="5.621">
        <ele>265.269989</ele>
        <time>2021-02-20T17:10:04Z</time>
      </trkpt>
      <trkpt lat="49.66615" lon="5.62092">
        <ele>265.269989</ele>
        <time>2021-02-20T17:10:06Z</time>
      </trkpt>
      <trkpt lat="49.66629" lon="5.62087">
        <ele>265.269989</ele>
        <time>2021-02-20T17:10:08Z</time>
      </trkpt>
      <trkpt lat="49.66643" lon="5.62083">
        <ele>265.269989</ele>
        <time>2021-02-20T17:10:10Z</time>
      </trkpt>
      <trkpt lat="49.66656" lon="5.6208">
        <ele>265.269989</ele>
        <time>2021-02-20T17:10:12Z</time>
      </trkpt>
      <trkpt lat="49.66668" lon="5.62078">
        <ele>265.269989</ele>
        <time>2021-02-20T17:10:14Z</time>
      </trkpt>
      <trkpt lat="49.6668" lon="5.62077">
        <ele>265.269989</ele>
        <time>2021-02-20T17:10:16Z</time>
      </trkpt>
      <trkpt lat="49.66692" lon="5.62076">
        <ele>265.269989</ele>
        <time>2021-02-20T17:10:18Z</time>
      </trkpt>
      <trkpt lat="49.66704" lon="5.62078">
        <ele>265.269989</ele>
        <time>2021-02-20T17:10:20Z</time>
      </trkpt>
      <trkpt lat="49.66716" lon="5.62082">
        <ele>265.269989</ele>
        <time>2021-02-20T17:10:22Z</time>
      </trkpt>
      <trkpt lat="49.66727" lon="5.62086">
        <ele>265.269989</ele>
        <time>2021-02-20T17:10:24Z</time>
      </trkpt>
      <trkpt lat="49.66739" lon="5.6209">
        <ele>265.269989</ele>
        <time>2021-02-20T17:10:26Z</time>
      </trkpt>
      <trkpt lat="49.66749" lon="5.62098">
        <ele>265.269989</ele>
        <time>2021-02-20T17:10:28Z</time>
      </trkpt>
      <trkpt lat="49.66761" lon="5.62107">
        <ele>265.269989</ele>
        <time>2021-02-20T17:10:30Z</time>
      </trkpt>
      <trkpt lat="49.66773" lon="5.62116">
        <ele>265.269989</ele>
        <time>2021-02-20T17:10:32Z</time>
      </trkpt>
      <trkpt lat="49.66784" lon="5.62126">
        <ele>265.269989</ele>
        <time>2021-02-20T17:10:34Z</time>
      </trkpt>
      <trkpt lat="49.66795" lon="5.62134">
        <ele>265.269989</ele>
        <time>2021-02-20T17:10:36Z</time>
      </trkpt>
      <trkpt lat="49.66805" lon="5.62144">
        <ele>265.269989</ele>
        <time>2021-02-20T17:10:38Z</time>
      </trkpt>
      <trkpt lat="49.66814" lon="5.62154">
        <ele>265.269989</ele>
        <time>2021-02-20T17:10:40Z</time>
      </trkpt>
      <trkpt lat="49.66823" lon="5.62165">
        <ele>265.269989</ele>
        <time>2021-02-20T17:10:42Z</time>
      </trkpt>
      <trkpt lat="49.66832" lon="5.62177">
        <ele>265.26001</ele>
        <time>2021-02-20T17:10:44Z</time>
      </trkpt>
      <trkpt lat="49.6684" lon="5.62189">
        <ele>265.26001</ele>
        <time>2021-02-20T17:10:46Z</time>
      </trkpt>
      <trkpt lat="49.66848" lon="5.62198">
        <ele>265.26001</ele>
        <time>2021-02-20T17:10:48Z</time>
      </trkpt>
      <trkpt lat="49.66855" lon="5.62209">
        <ele>265.26001</ele>
        <time>2021-02-20T17:10:50Z</time>
      </trkpt>
      <trkpt lat="49.66864" lon="5.62203">
        <ele>265.26001</ele>
        <time>2021-02-20T17:10:55Z</time>
      </trkpt>
      <trkpt lat="49.66869" lon="5.62189">
        <ele>283.880005</ele>
        <time>2021-02-20T17:10:57Z</time>
      </trkpt>
      <trkpt lat="49.66875" lon="5.62169">
        <ele>301.109985</ele>
        <time>2021-02-20T17:11:01Z</time>
      </trkpt>
      <trkpt lat="49.66882" lon="5.62152">
        <ele>307.350006</ele>
        <time>2021-02-20T17:11:03Z</time>
      </trkpt>
      <trkpt lat="49.66891" lon="5.62139">
        <ele>312.410004</ele>
        <time>2021-02-20T17:11:05Z</time>
      </trkpt>
      <trkpt lat="49.66901" lon="5.62131">
        <ele>316.5</ele>
        <time>2021-02-20T17:11:07Z</time>
      </trkpt>
      <trkpt lat="49.66909" lon="5.62124">
        <ele>319.820007</ele>
        <time>2021-02-20T17:11:09Z</time>
      </trkpt>
      <trkpt lat="49.66921" lon="5.6212">
        <ele>324.679993</ele>
        <time>2021-02-20T17:11:12Z</time>
      </trkpt>
      <trkpt lat="49.6693" lon="5.62115">
        <ele>327.880005</ele>
        <time>2021-02-20T17:11:14Z</time>
      </trkpt>
      <trkpt lat="49.6694" lon="5.62115">
        <ele>329.970001</ele>
        <time>2021-02-20T17:11:16Z</time>
      </trkpt>
      <trkpt lat="49.66949" lon="5.62112">
        <ele>331.609985</ele>
        <time>2021-02-20T17:11:19Z</time>
      </trkpt>
      <trkpt lat="49.6696" lon="5.6211">
        <ele>332.570007</ele>
        <time>2021-02-20T17:11:22Z</time>
      </trkpt>
      <trkpt lat="49.66969" lon="5.62107">
        <ele>333.049988</ele>
        <time>2021-02-20T17:11:23Z</time>
      </trkpt>
      <trkpt lat="49.6698" lon="5.62104">
        <ele>333.369995</ele>
        <time>2021-02-20T17:11:26Z</time>
      </trkpt>
      <trkpt lat="49.6699" lon="5.62103">
        <ele>333.609985</ele>
        <time>2021-02-20T17:11:29Z</time>
      </trkpt>
      <trkpt lat="49.67" lon="5.62096">
        <ele>333.76001</ele>
        <time>2021-02-20T17:11:33Z</time>
      </trkpt>
      <trkpt lat="49.6701" lon="5.62091">
        <ele>333.839996</ele>
        <time>2021-02-20T17:11:35Z</time>
      </trkpt>
      <trkpt lat="49.67022" lon="5.62086">
        <ele>333.899994</ele>
        <time>2021-02-20T17:11:38Z</time>
      </trkpt>
      <trkpt lat="49.67032" lon="5.62085">
        <ele>333.920013</ele>
        <time>2021-02-20T17:11:42Z</time>
      </trkpt>
      <trkpt lat="49.67041" lon="5.6208">
        <ele>333.940002</ele>
        <time>2021-02-20T17:11:45Z</time>
      </trkpt>
      <trkpt lat="49.67052" lon="5.6208">
        <ele>333.950012</ele>
        <time>2021-02-20T17:11:47Z</time>
      </trkpt>
      <trkpt lat="49.67062" lon="5.62083">
        <ele>333.959991</ele>
        <time>2021-02-20T17:11:51Z</time>
      </trkpt>
      <trkpt lat="49.67072" lon="5.62088">
        <ele>333.959991</ele>
        <time>2021-02-20T17:11:55Z</time>
      </trkpt>
      <trkpt lat="49.6708" lon="5.62092">
        <ele>333.959991</ele>
        <time>2021-02-20T17:11:59Z</time>
      </trkpt>
      <trkpt lat="49.6709" lon="5.62095">
        <ele>333.959991</ele>
        <time>2021-02-20T17:12:03Z</time>
      </trkpt>
      <trkpt lat="49.67099" lon="5.62101">
        <ele>333.959991</ele>
        <time>2021-02-20T17:12:07Z</time>
      </trkpt>
      <trkpt lat="49.67109" lon="5.62113">
        <ele>333.959991</ele>
        <time>2021-02-20T17:12:12Z</time>
      </trkpt>
      <trkpt lat="49.67114" lon="5.62125">
        <ele>333.959991</ele>
        <time>2021-02-20T17:12:14Z</time>
      </trkpt>
      <trkpt lat="49.67122" lon="5.62133">
        <ele>333.959991</ele>
        <time>2021-02-20T17:12:18Z</time>
      </trkpt>
      <trkpt lat="49.6713" lon="5.62146">
        <ele>333.959991</ele>
        <time>2021-02-20T17:12:22Z</time>
      </trkpt>
      <trkpt lat="49.67138" lon="5.62158">
        <ele>333.959991</ele>
        <time>2021-02-20T17:12:27Z</time>
      </trkpt>
      <trkpt lat="49.67148" lon="5.62162">
        <ele>333.959991</ele>
        <time>2021-02-20T17:12:32Z</time>
      </trkpt>
      <trkpt lat="49.67157" lon="5.62151">
        <ele>333.959991</ele>
        <time>2021-02-20T17:12:36Z</time>
      </trkpt>
      <trkpt lat="49.67165" lon="5.62141">
        <ele>333.959991</ele>
        <time>2021-02-20T17:12:40Z</time>
      </trkpt>
      <trkpt lat="49.67173" lon="5.62133">
        <ele>333.959991</ele>
        <time>2021-02-20T17:12:43Z</time>
      </trkpt>
      <trkpt lat="49.67183" lon="5.6212">
        <ele>333.959991</ele>
        <time>2021-02-20T17:12:47Z</time>
      </trkpt>
      <trkpt lat="49.67192" lon="5.62109">
        <ele>333.959991</ele>
        <time>2021-02-20T17:12:51Z</time>
      </trkpt>
      <trkpt lat="49.67199" lon="5.621">
        <ele>333.959991</ele>
        <time>2021-02-20T17:12:54Z</time>
      </trkpt>
      <trkpt lat="49.67208" lon="5.62086">
        <ele>333.959991</ele>
        <time>2021-02-20T17:12:58Z</time>
      </trkpt>
      <trkpt lat="49.67214" lon="5.62077">
        <ele>333.959991</ele>
        <time>2021-02-20T17:13:00Z</time>
      </trkpt>
      <trkpt lat="49.67222" lon="5.62065">
        <ele>333.959991</ele>
        <time>2021-02-20T17:13:03Z</time>
      </trkpt>
      <trkpt lat="49.6723" lon="5.62053">
        <ele>333.959991</ele>
        <time>2021-02-20T17:13:06Z</time>
      </trkpt>
      <trkpt lat="49.67238" lon="5.62039">
        <ele>333.959991</ele>
        <time>2021-02-20T17:13:09Z</time>
      </trkpt>
      <trkpt lat="49.67245" lon="5.62028">
        <ele>333.959991</ele>
        <time>2021-02-20T17:13:12Z</time>
      </trkpt>
      <trkpt lat="49.67251" lon="5.62018">
        <ele>333.959991</ele>
        <time>2021-02-20T17:13:15Z</time>
      </trkpt>
      <trkpt lat="49.67259" lon="5.62007">
        <ele>333.959991</ele>
        <time>2021-02-20T17:13:18Z</time>
      </trkpt>
      <trkpt lat="49.67267" lon="5.61996">
        <ele>333.959991</ele>
        <time>2021-02-20T17:13:21Z</time>
      </trkpt>
      <trkpt lat="49.67271" lon="5.61983">
        <ele>333.959991</ele>
        <time>2021-02-20T17:13:24Z</time>
      </trkpt>
      <trkpt lat="49.6728" lon="5.61969">
        <ele>333.959991</ele>
        <time>2021-02-20T17:13:27Z</time>
      </trkpt>
      <trkpt lat="49.67289" lon="5.61963">
        <ele>333.959991</ele>
        <time>2021-02-20T17:13:29Z</time>
      </trkpt>
      <trkpt lat="49.67298" lon="5.61953">
        <ele>333.970001</ele>
        <time>2021-02-20T17:13:32Z</time>
      </trkpt>
      <trkpt lat="49.67309" lon="5.61943">
        <ele>333.970001</ele>
        <time>2021-02-20T17:13:35Z</time>
      </trkpt>
      <trkpt lat="49.67317" lon="5.61936">
        <ele>333.970001</ele>
        <time>2021-02-20T17:13:37Z</time>
      </trkpt>
      <trkpt lat="49.67329" lon="5.61928">
        <ele>333.970001</ele>
        <time>2021-02-20T17:13:39Z</time>
      </trkpt>
      <trkpt lat="49.67339" lon="5.61922">
        <ele>333.970001</ele>
        <time>2021-02-20T17:13:41Z</time>
      </trkpt>
      <trkpt lat="49.67349" lon="5.61917">
        <ele>333.970001</ele>
        <time>2021-02-20T17:13:44Z</time>
      </trkpt>
      <trkpt lat="49.67359" lon="5.61913">
        <ele>333.970001</ele>
        <time>2021-02-20T17:13:46Z</time>
      </trkpt>
      <trkpt lat="49.67369" lon="5.61911">
        <ele>333.970001</ele>
        <time>2021-02-20T17:13:48Z</time>
      </trkpt>
      <trkpt lat="49.67379" lon="5.61909">
        <ele>333.970001</ele>
        <time>2021-02-20T17:13:50Z</time>
      </trkpt>
      <trkpt lat="49.6739" lon="5.61908">
        <ele>333.970001</ele>
        <time>2021-02-20T17:13:52Z</time>
      </trkpt>
      <trkpt lat="49.674" lon="5.61907">
        <ele>333.970001</ele>
        <time>2021-02-20T17:13:54Z</time>
      </trkpt>
      <trkpt lat="49.6741" lon="5.61906">
        <ele>333.970001</ele>
        <time>2021-02-20T17:13:56Z</time>
      </trkpt>
      <trkpt lat="49.6742" lon="5.61907">
        <ele>333.970001</ele>
        <time>2021-02-20T17:13:58Z</time>
      </trkpt>
      <trkpt lat="49.6743" lon="5.61908">
        <ele>333.970001</ele>
        <time>2021-02-20T17:14:00Z</time>
      </trkpt>
      <trkpt lat="49.67439" lon="5.61908">
        <ele>333.970001</ele>
        <time>2021-02-20T17:14:02Z</time>
      </trkpt>
      <trkpt lat="49.6745" lon="5.6191">
        <ele>333.970001</ele>
        <time>2021-02-20T17:14:04Z</time>
      </trkpt>
      <trkpt lat="49.6746" lon="5.61912">
        <ele>333.970001</ele>
        <time>2021-02-20T17:14:06Z</time>
      </trkpt>
      <trkpt lat="49.6747" lon="5.61914">
        <ele>333.970001</ele>
        <time>2021-02-20T17:14:09Z</time>
      </trkpt>
      <trkpt lat="49.67485" lon="5.61917">
        <ele>333.970001</ele>
        <time>2021-02-20T17:14:12Z</time>
      </trkpt>
      <trkpt lat="49.67496" lon="5.61918">
        <ele>333.970001</ele>
        <time>2021-02-20T17:14:14Z</time>
      </trkpt>
      <trkpt lat="49.67507" lon="5.6192">
        <ele>333.970001</ele>
        <time>2021-02-20T17:14:16Z</time>
      </trkpt>
      <trkpt lat="49.67517" lon="5.6192">
        <ele>333.970001</ele>
        <time>2021-02-20T17:14:18Z</time>
      </trkpt>
      <trkpt lat="49.67527" lon="5.61919">
        <ele>333.959991</ele>
        <time>2021-02-20T17:14:20Z</time>
      </trkpt>
      <trkpt lat="49.67538" lon="5.61917">
        <ele>333.959991</ele>
        <time>2021-02-20T17:14:22Z</time>
      </trkpt>
      <trkpt lat="49.67547" lon="5.61915">
        <ele>333.959991</ele>
        <time>2021-02-20T17:14:24Z</time>
      </trkpt>
      <trkpt lat="49.67558" lon="5.61913">
        <ele>333.959991</ele>
        <time>2021-02-20T17:14:27Z</time>
      </trkpt>
      <trkpt lat="49.67569" lon="5.61912">
        <ele>333.959991</ele>
        <time>2021-02-20T17:14:31Z</time>
      </trkpt>
      <trkpt lat="49.6758" lon="5.61912">
        <ele>333.959991</ele>
        <time>2021-02-20T17:14:34Z</time>
      </trkpt>
      <trkpt lat="49.67579" lon="5.61912">
        <ele>333.959991</ele>
        <time>2021-02-20T17:14:39Z</time>
      </trkpt>
      <trkpt lat="49.67579" lon="5.61912">
        <ele>333.959991</ele>
        <time>2021-02-20T17:14:44Z</time>
      </trkpt>
      <trkpt lat="49.67579" lon="5.61912">
        <ele>333.959991</ele>
        <time>2021-02-20T17:14:49Z</time>
      </trkpt>
      <trkpt lat="49.67579" lon="5.61908">
        <ele>333.959991</ele>
        <time>2021-02-20T17:14:54Z</time>
      </trkpt>
      <trkpt lat="49.6759" lon="5.61908">
        <ele>333.959991</ele>
        <time>2021-02-20T17:14:57Z</time>
      </trkpt>
      <trkpt lat="49.67599" lon="5.61913">
        <ele>333.959991</ele>
        <time>2021-02-20T17:15:00Z</time>
      </trkpt>
      <trkpt lat="49.67604" lon="5.61923">
        <ele>333.959991</ele>
        <time>2021-02-20T17:15:05Z</time>
      </trkpt>
      <trkpt lat="49.67609" lon="5.61935">
        <ele>333.959991</ele>
        <time>2021-02-20T17:15:07Z</time>
      </trkpt>
      <trkpt lat="49.67614" lon="5.61951">
        <ele>333.959991</ele>
        <time>2021-02-20T17:15:10Z</time>
      </trkpt>
      <trkpt lat="49.67613" lon="5.61967">
        <ele>333.959991</ele>
        <time>2021-02-20T17:15:12Z</time>
      </trkpt>
      <trkpt lat="49.67613" lon="5.61986">
        <ele>333.959991</ele>
        <time>2021-02-20T17:15:14Z</time>
      </trkpt>
      <trkpt lat="49.67614" lon="5.62001">
        <ele>333.959991</ele>
        <time>2021-02-20T17:15:16Z</time>
      </trkpt>
      <trkpt lat="49.67616" lon="5.62017">
        <ele>333.959991</ele>
        <time>2021-02-20T17:15:18Z</time>
      </trkpt>
      <trkpt lat="49.67617" lon="5.62033">
        <ele>333.959991</ele>
        <time>2021-02-20T17:15:20Z</time>
      </trkpt>
      <trkpt lat="49.67619" lon="5.62052">
        <ele>333.959991</ele>
        <time>2021-02-20T17:15:22Z</time>
      </trkpt>
      <trkpt lat="49.67622" lon="5.6207">
        <ele>333.959991</ele>
        <time>2021-02-20T17:15:24Z</time>
      </trkpt>
      <trkpt lat="49.67624" lon="5.62088">
        <ele>333.959991</ele>
        <time>2021-02-20T17:15:26Z</time>
      </trkpt>
      <trkpt lat="49.67626" lon="5.62107">
        <ele>333.959991</ele>
        <time>2021-02-20T17:15:28Z</time>
      </trkpt>
      <trkpt lat="49.67627" lon="5.62125">
        <ele>333.959991</ele>
        <time>2021-02-20T17:15:30Z</time>
      </trkpt>
      <trkpt lat="49.67629" lon="5.62144">
        <ele>333.959991</ele>
        <time>2021-02-20T17:15:32Z</time>
      </trkpt>
      <trkpt lat="49.67628" lon="5.6216">
        <ele>333.959991</ele>
        <time>2021-02-20T17:15:34Z</time>
      </trkpt>
      <trkpt lat="49.6763" lon="5.62179">
        <ele>333.959991</ele>
        <time>2021-02-20T17:15:36Z</time>
      </trkpt>
      <trkpt lat="49.67632" lon="5.62197">
        <ele>333.959991</ele>
        <time>2021-02-20T17:15:38Z</time>
      </trkpt>
      <trkpt lat="49.67633" lon="5.62215">
        <ele>333.959991</ele>
        <time>2021-02-20T17:15:40Z</time>
      </trkpt>
      <trkpt lat="49.67635" lon="5.62235">
        <ele>333.959991</ele>
        <time>2021-02-20T17:15:42Z</time>
      </trkpt>
      <trkpt lat="49.67636" lon="5.62254">
        <ele>333.959991</ele>
        <time>2021-02-20T17:15:44Z</time>
      </trkpt>
      <trkpt lat="49.67637" lon="5.62274">
        <ele>333.959991</ele>
        <time>2021-02-20T17:15:46Z</time>
      </trkpt>
      <trkpt lat="49.6764" lon="5.62293">
        <ele>333.959991</ele>
        <time>2021-02-20T17:15:48Z</time>
      </trkpt>
      <trkpt lat="49.67642" lon="5.62309">
        <ele>333.959991</ele>
        <time>2021-02-20T17:15:51Z</time>
      </trkpt>
      <trkpt lat="49.67644" lon="5.62334">
        <ele>333.959991</ele>
        <time>2021-02-20T17:15:53Z</time>
      </trkpt>
      <trkpt lat="49.67645" lon="5.62349">
        <ele>333.959991</ele>
        <time>2021-02-20T17:15:54Z</time>
      </trkpt>
      <trkpt lat="49.67643" lon="5.62372">
        <ele>333.959991</ele>
        <time>2021-02-20T17:15:56Z</time>
      </trkpt>
      <trkpt lat="49.67644" lon="5.62389">
        <ele>333.959991</ele>
        <time>2021-02-20T17:15:58Z</time>
      </trkpt>
      <trkpt lat="49.67646" lon="5.6241">
        <ele>333.959991</ele>
        <time>2021-02-20T17:16:00Z</time>
      </trkpt>
      <trkpt lat="49.67649" lon="5.62428">
        <ele>333.959991</ele>
        <time>2021-02-20T17:16:02Z</time>
      </trkpt>
      <trkpt lat="49.67654" lon="5.62445">
        <ele>333.959991</ele>
        <time>2021-02-20T17:16:04Z</time>
      </trkpt>
      <trkpt lat="49.67661" lon="5.6246">
        <ele>333.959991</ele>
        <time>2021-02-20T17:16:06Z</time>
      </trkpt>
      <trkpt lat="49.67666" lon="5.62476">
        <ele>333.959991</ele>
        <time>2021-02-20T17:16:08Z</time>
      </trkpt>
      <trkpt lat="49.67673" lon="5.62492">
        <ele>333.959991</ele>
        <time>2021-02-20T17:16:10Z</time>
      </trkpt>
      <trkpt lat="49.67679" lon="5.62508">
        <ele>333.959991</ele>
        <time>2021-02-20T17:16:12Z</time>
      </trkpt>
      <trkpt lat="49.67684" lon="5.62524">
        <ele>333.959991</ele>
        <time>2021-02-20T17:16:14Z</time>
      </trkpt>
      <trkpt lat="49.67688" lon="5.62541">
        <ele>333.959991</ele>
        <time>2021-02-20T17:16:16Z</time>
      </trkpt>
      <trkpt lat="49.67689" lon="5.62563">
        <ele>333.959991</ele>
        <time>2021-02-20T17:16:19Z</time>
      </trkpt>
      <trkpt lat="49.6769" lon="5.62584">
        <ele>333.959991</ele>
        <time>2021-02-20T17:16:21Z</time>
      </trkpt>
      <trkpt lat="49.67691" lon="5.62599">
        <ele>333.959991</ele>
        <time>2021-02-20T17:16:23Z</time>
      </trkpt>
      <trkpt lat="49.67691" lon="5.62615">
        <ele>333.959991</ele>
        <time>2021-02-20T17:16:25Z</time>
      </trkpt>
      <trkpt lat="49.6769" lon="5.62636">
        <ele>333.959991</ele>
        <time>2021-02-20T17:16:28Z</time>
      </trkpt>
      <trkpt lat="49.6769" lon="5.62653">
        <ele>333.959991</ele>
        <time>2021-02-20T17:16:31Z</time>
      </trkpt>
      <trkpt lat="49.67691" lon="5.62671">
        <ele>333.959991</ele>
        <time>2021-02-20T17:16:33Z</time>
      </trkpt>
      <trkpt lat="49.67695" lon="5.62693">
        <ele>333.959991</ele>
        <time>2021-02-20T17:16:35Z</time>
      </trkpt>
      <trkpt lat="49.67697" lon="5.62715">
        <ele>333.959991</ele>
        <time>2021-02-20T17:16:37Z</time>
      </trkpt>
      <trkpt lat="49.67698" lon="5.62734">
        <ele>333.959991</ele>
        <time>2021-02-20T17:16:39Z</time>
      </trkpt>
      <trkpt lat="49.67699" lon="5.62752">
        <ele>333.959991</ele>
        <time>2021-02-20T17:16:41Z</time>
      </trkpt>
      <trkpt lat="49.677" lon="5.62771">
        <ele>333.959991</ele>
        <time>2021-02-20T17:16:43Z</time>
      </trkpt>
      <trkpt lat="49.67701" lon="5.6279">
        <ele>333.959991</ele>
        <time>2021-02-20T17:16:45Z</time>
      </trkpt>
      <trkpt lat="49.67703" lon="5.62807">
        <ele>333.959991</ele>
        <time>2021-02-20T17:16:47Z</time>
      </trkpt>
      <trkpt lat="49.67704" lon="5.62824">
        <ele>333.959991</ele>
        <time>2021-02-20T17:16:49Z</time>
      </trkpt>
      <trkpt lat="49.67706" lon="5.62843">
        <ele>333.959991</ele>
        <time>2021-02-20T17:16:51Z</time>
      </trkpt>
      <trkpt lat="49.67708" lon="5.6286">
        <ele>333.959991</ele>
        <time>2021-02-20T17:16:53Z</time>
      </trkpt>
      <trkpt lat="49.67709" lon="5.62877">
        <ele>333.959991</ele>
        <time>2021-02-20T17:16:55Z</time>
      </trkpt>
      <trkpt lat="49.67711" lon="5.62896">
        <ele>333.959991</ele>
        <time>2021-02-20T17:16:57Z</time>
      </trkpt>
      <trkpt lat="49.67714" lon="5.62912">
        <ele>333.950012</ele>
        <time>2021-02-20T17:16:59Z</time>
      </trkpt>
      <trkpt lat="49.67715" lon="5.62929">
        <ele>333.950012</ele>
        <time>2021-02-20T17:17:01Z</time>
      </trkpt>
      <trkpt lat="49.67716" lon="5.62945">
        <ele>333.950012</ele>
        <time>2021-02-20T17:17:03Z</time>
      </trkpt>
      <trkpt lat="49.67717" lon="5.62961">
        <ele>333.950012</ele>
        <time>2021-02-20T17:17:05Z</time>
      </trkpt>
      <trkpt lat="49.67719" lon="5.62977">
        <ele>333.950012</ele>
        <time>2021-02-20T17:17:07Z</time>
      </trkpt>
      <trkpt lat="49.6772" lon="5.62992">
        <ele>333.950012</ele>
        <time>2021-02-20T17:17:09Z</time>
      </trkpt>
      <trkpt lat="49.67721" lon="5.63008">
        <ele>333.950012</ele>
        <time>2021-02-20T17:17:11Z</time>
      </trkpt>
      <trkpt lat="49.67722" lon="5.63023">
        <ele>333.950012</ele>
        <time>2021-02-20T17:17:13Z</time>
      </trkpt>
      <trkpt lat="49.67724" lon="5.63037">
        <ele>333.950012</ele>
        <time>2021-02-20T17:17:15Z</time>
      </trkpt>
      <trkpt lat="49.67727" lon="5.63053">
        <ele>333.950012</ele>
        <time>2021-02-20T17:17:17Z</time>
      </trkpt>
      <trkpt lat="49.67729" lon="5.63071">
        <ele>333.950012</ele>
        <time>2021-02-20T17:17:19Z</time>
      </trkpt>
      <trkpt lat="49.67732" lon="5.6309">
        <ele>333.950012</ele>
        <time>2021-02-20T17:17:21Z</time>
      </trkpt>
      <trkpt lat="49.67736" lon="5.63108">
        <ele>333.950012</ele>
        <time>2021-02-20T17:17:23Z</time>
      </trkpt>
      <trkpt lat="49.67739" lon="5.63128">
        <ele>333.950012</ele>
        <time>2021-02-20T17:17:25Z</time>
      </trkpt>
      <trkpt lat="49.67743" lon="5.63147">
        <ele>333.950012</ele>
        <time>2021-02-20T17:17:27Z</time>
      </trkpt>
      <trkpt lat="49.67747" lon="5.63166">
        <ele>333.950012</ele>
        <time>2021-02-20T17:17:29Z</time>
      </trkpt>
      <trkpt lat="49.67751" lon="5.63187">
        <ele>333.950012</ele>
        <time>2021-02-20T17:17:31Z</time>
      </trkpt>
      <trkpt lat="49.67755" lon="5.63208">
        <ele>333.950012</ele>
        <time>2021-02-20T17:17:33Z</time>
      </trkpt>
      <trkpt lat="49.67757" lon="5.63232">
        <ele>333.950012</ele>
        <time>2021-02-20T17:17:35Z</time>
      </trkpt>
      <trkpt lat="49.6776" lon="5.63255">
        <ele>333.950012</ele>
        <time>2021-02-20T17:17:37Z</time>
      </trkpt>
      <trkpt lat="49.6776" lon="5.63279">
        <ele>333.950012</ele>
        <time>2021-02-20T17:17:39Z</time>
      </trkpt>
      <trkpt lat="49.67759" lon="5.63303">
        <ele>333.950012</ele>
        <time>2021-02-20T17:17:41Z</time>
      </trkpt>
      <trkpt lat="49.67757" lon="5.63327">
        <ele>333.950012</ele>
        <time>2021-02-20T17:17:43Z</time>
      </trkpt>
      <trkpt lat="49.67755" lon="5.63351">
        <ele>333.950012</ele>
        <time>2021-02-20T17:17:45Z</time>
      </trkpt>
      <trkpt lat="49.67753" lon="5.63374">
        <ele>333.950012</ele>
        <time>2021-02-20T17:17:47Z</time>
      </trkpt>
      <trkpt lat="49.67753" lon="5.63398">
        <ele>333.950012</ele>
        <time>2021-02-20T17:17:49Z</time>
      </trkpt>
      <trkpt lat="49.67754" lon="5.6342">
        <ele>333.950012</ele>
        <time>2021-02-20T17:17:51Z</time>
      </trkpt>
      <trkpt lat="49.67759" lon="5.63442">
        <ele>333.950012</ele>
        <time>2021-02-20T17:17:53Z</time>
      </trkpt>
      <trkpt lat="49.67761" lon="5.6346">
        <ele>333.950012</ele>
        <time>2021-02-20T17:17:55Z</time>
      </trkpt>
      <trkpt lat="49.67763" lon="5.63481">
        <ele>333.950012</ele>
        <time>2021-02-20T17:17:57Z</time>
      </trkpt>
      <trkpt lat="49.67766" lon="5.63498">
        <ele>333.950012</ele>
        <time>2021-02-20T17:17:59Z</time>
      </trkpt>
      <trkpt lat="49.67769" lon="5.63516">
        <ele>333.950012</ele>
        <time>2021-02-20T17:18:01Z</time>
      </trkpt>
      <trkpt lat="49.67773" lon="5.63532">
        <ele>333.950012</ele>
        <time>2021-02-20T17:18:03Z</time>
      </trkpt>
      <trkpt lat="49.67777" lon="5.63548">
        <ele>333.950012</ele>
        <time>2021-02-20T17:18:05Z</time>
      </trkpt>
      <trkpt lat="49.6778" lon="5.63562">
        <ele>333.950012</ele>
        <time>2021-02-20T17:18:07Z</time>
      </trkpt>
      <trkpt lat="49.67784" lon="5.63576">
        <ele>333.950012</ele>
        <time>2021-02-20T17:18:09Z</time>
      </trkpt>
      <trkpt lat="49.67788" lon="5.6359">
        <ele>333.950012</ele>
        <time>2021-02-20T17:18:11Z</time>
      </trkpt>
      <trkpt lat="49.67792" lon="5.63605">
        <ele>333.950012</ele>
        <time>2021-02-20T17:18:13Z</time>
      </trkpt>
      <trkpt lat="49.67794" lon="5.63619">
        <ele>333.950012</ele>
        <time>2021-02-20T17:18:15Z</time>
      </trkpt>
      <trkpt lat="49.67797" lon="5.63635">
        <ele>333.950012</ele>
        <time>2021-02-20T17:18:18Z</time>
      </trkpt>
      <trkpt lat="49.67801" lon="5.63654">
        <ele>333.950012</ele>
        <time>2021-02-20T17:18:21Z</time>
      </trkpt>
      <trkpt lat="49.67804" lon="5.6367">
        <ele>333.950012</ele>
        <time>2021-02-20T17:18:25Z</time>
      </trkpt>
      <trkpt lat="49.67807" lon="5.6369">
        <ele>333.950012</ele>
        <time>2021-02-20T17:18:27Z</time>
      </trkpt>
      <trkpt lat="49.6781" lon="5.63708">
        <ele>333.950012</ele>
        <time>2021-02-20T17:18:30Z</time>
      </trkpt>
      <trkpt lat="49.67811" lon="5.63723">
        <ele>333.950012</ele>
        <time>2021-02-20T17:18:32Z</time>
      </trkpt>
      <trkpt lat="49.67814" lon="5.63737">
        <ele>333.950012</ele>
        <time>2021-02-20T17:18:34Z</time>
      </trkpt>
      <trkpt lat="49.67819" lon="5.63754">
        <ele>333.950012</ele>
        <time>2021-02-20T17:18:37Z</time>
      </trkpt>
      <trkpt lat="49.6782" lon="5.63769">
        <ele>333.950012</ele>
        <time>2021-02-20T17:18:40Z</time>
      </trkpt>
      <trkpt lat="49.67825" lon="5.63789">
        <ele>333.950012</ele>
        <time>2021-02-20T17:18:43Z</time>
      </trkpt>
      <trkpt lat="49.67827" lon="5.63807">
        <ele>333.950012</ele>
        <time>2021-02-20T17:18:45Z</time>
      </trkpt>
      <trkpt lat="49.67826" lon="5.63822">
        <ele>333.940002</ele>
        <time>2021-02-20T17:18:48Z</time>
      </trkpt>
      <trkpt lat="49.67828" lon="5.63837">
        <ele>333.940002</ele>
        <time>2021-02-20T17:18:50Z</time>
      </trkpt>
      <trkpt lat="49.67831" lon="5.63855">
        <ele>333.940002</ele>
        <time>2021-02-20T17:18:51Z</time>
      </trkpt>
      <trkpt lat="49.67833" lon="5.63871">
        <ele>333.940002</ele>
        <time>2021-02-20T17:18:52Z</time>
      </trkpt>
      <trkpt lat="49.67836" lon="5.63896">
        <ele>333.940002</ele>
        <time>2021-02-20T17:18:54Z</time>
      </trkpt>
      <trkpt lat="49.67839" lon="5.63919">
        <ele>333.940002</ele>
        <time>2021-02-20T17:18:56Z</time>
      </trkpt>
      <trkpt lat="49.67842" lon="5.63942">
        <ele>333.940002</ele>
        <time>2021-02-20T17:18:58Z</time>
      </trkpt>
      <trkpt lat="49.67845" lon="5.63963">
        <ele>333.940002</ele>
        <time>2021-02-20T17:19:00Z</time>
      </trkpt>
      <trkpt lat="49.67847" lon="5.63984">
        <ele>333.940002</ele>
        <time>2021-02-20T17:19:02Z</time>
      </trkpt>
      <trkpt lat="49.67849" lon="5.64004">
        <ele>333.940002</ele>
        <time>2021-02-20T17:19:04Z</time>
      </trkpt>
      <trkpt lat="49.67852" lon="5.64023">
        <ele>333.940002</ele>
        <time>2021-02-20T17:19:06Z</time>
      </trkpt>
      <trkpt lat="49.67854" lon="5.64042">
        <ele>333.940002</ele>
        <time>2021-02-20T17:19:08Z</time>
      </trkpt>
      <trkpt lat="49.67856" lon="5.64059">
        <ele>333.940002</ele>
        <time>2021-02-20T17:19:10Z</time>
      </trkpt>
      <trkpt lat="49.67856" lon="5.64077">
        <ele>333.940002</ele>
        <time>2021-02-20T17:19:12Z</time>
      </trkpt>
      <trkpt lat="49.67858" lon="5.64095">
        <ele>333.940002</ele>
        <time>2021-02-20T17:19:14Z</time>
      </trkpt>
      <trkpt lat="49.6786" lon="5.64113">
        <ele>333.940002</ele>
        <time>2021-02-20T17:19:16Z</time>
      </trkpt>
      <trkpt lat="49.67861" lon="5.64131">
        <ele>333.940002</ele>
        <time>2021-02-20T17:19:18Z</time>
      </trkpt>
      <trkpt lat="49.67862" lon="5.64151">
        <ele>333.940002</ele>
        <time>2021-02-20T17:19:20Z</time>
      </trkpt>
      <trkpt lat="49.67864" lon="5.64171">
        <ele>333.940002</ele>
        <time>2021-02-20T17:19:22Z</time>
      </trkpt>
      <trkpt lat="49.67866" lon="5.64193">
        <ele>333.940002</ele>
        <time>2021-02-20T17:19:24Z</time>
      </trkpt>
      <trkpt lat="49.67869" lon="5.64215">
        <ele>333.940002</ele>
        <time>2021-02-20T17:19:26Z</time>
      </trkpt>
      <trkpt lat="49.67872" lon="5.64235">
        <ele>333.940002</ele>
        <time>2021-02-20T17:19:28Z</time>
      </trkpt>
      <trkpt lat="49.67874" lon="5.64255">
        <ele>333.940002</ele>
        <time>2021-02-20T17:19:30Z</time>
      </trkpt>
      <trkpt lat="49.67875" lon="5.64275">
        <ele>333.940002</ele>
        <time>2021-02-20T17:19:32Z</time>
      </trkpt>
      <trkpt lat="49.67877" lon="5.64294">
        <ele>333.940002</ele>
        <time>2021-02-20T17:19:34Z</time>
      </trkpt>
      <trkpt lat="49.67879" lon="5.64312">
        <ele>333.940002</ele>
        <time>2021-02-20T17:19:36Z</time>
      </trkpt>
      <trkpt lat="49.67881" lon="5.6433">
        <ele>333.940002</ele>
        <time>2021-02-20T17:19:38Z</time>
      </trkpt>
      <trkpt lat="49.67883" lon="5.64348">
        <ele>333.940002</ele>
        <time>2021-02-20T17:19:40Z</time>
      </trkpt>
      <trkpt lat="49.67884" lon="5.64364">
        <ele>333.940002</ele>
        <time>2021-02-20T17:19:42Z</time>
      </trkpt>
      <trkpt lat="49.67887" lon="5.64383">
        <ele>333.940002</ele>
        <time>2021-02-20T17:19:44Z</time>
      </trkpt>
      <trkpt lat="49.67889" lon="5.64401">
        <ele>333.940002</ele>
        <time>2021-02-20T17:19:46Z</time>
      </trkpt>
      <trkpt lat="49.67893" lon="5.64421">
        <ele>333.940002</ele>
        <time>2021-02-20T17:19:48Z</time>
      </trkpt>
      <trkpt lat="49.67896" lon="5.64442">
        <ele>333.940002</ele>
        <time>2021-02-20T17:19:50Z</time>
      </trkpt>
      <trkpt lat="49.67898" lon="5.64462">
        <ele>333.940002</ele>
        <time>2021-02-20T17:19:52Z</time>
      </trkpt>
      <trkpt lat="49.67901" lon="5.64484">
        <ele>333.940002</ele>
        <time>2021-02-20T17:19:54Z</time>
      </trkpt>
      <trkpt lat="49.67905" lon="5.64505">
        <ele>333.940002</ele>
        <time>2021-02-20T17:19:56Z</time>
      </trkpt>
      <trkpt lat="49.67907" lon="5.64525">
        <ele>333.940002</ele>
        <time>2021-02-20T17:19:58Z</time>
      </trkpt>
      <trkpt lat="49.6791" lon="5.64545">
        <ele>333.940002</ele>
        <time>2021-02-20T17:20:00Z</time>
      </trkpt>
      <trkpt lat="49.67912" lon="5.64563">
        <ele>333.940002</ele>
        <time>2021-02-20T17:20:02Z</time>
      </trkpt>
      <trkpt lat="49.67916" lon="5.64582">
        <ele>333.940002</ele>
        <time>2021-02-20T17:20:04Z</time>
      </trkpt>
      <trkpt lat="49.67918" lon="5.646">
        <ele>333.940002</ele>
        <time>2021-02-20T17:20:06Z</time>
      </trkpt>
      <trkpt lat="49.67923" lon="5.64617">
        <ele>333.940002</ele>
        <time>2021-02-20T17:20:08Z</time>
      </trkpt>
      <trkpt lat="49.67929" lon="5.64634">
        <ele>333.940002</ele>
        <time>2021-02-20T17:20:10Z</time>
      </trkpt>
      <trkpt lat="49.67935" lon="5.6465">
        <ele>333.940002</ele>
        <time>2021-02-20T17:20:12Z</time>
      </trkpt>
      <trkpt lat="49.67941" lon="5.64667">
        <ele>333.940002</ele>
        <time>2021-02-20T17:20:14Z</time>
      </trkpt>
      <trkpt lat="49.67946" lon="5.64687">
        <ele>333.940002</ele>
        <time>2021-02-20T17:20:16Z</time>
      </trkpt>
      <trkpt lat="49.67949" lon="5.64704">
        <ele>333.940002</ele>
        <time>2021-02-20T17:20:18Z</time>
      </trkpt>
      <trkpt lat="49.67947" lon="5.64718">
        <ele>333.940002</ele>
        <time>2021-02-20T17:20:20Z</time>
      </trkpt>
      <trkpt lat="49.67942" lon="5.6473">
        <ele>333.940002</ele>
        <time>2021-02-20T17:20:22Z</time>
      </trkpt>
      <trkpt lat="49.67933" lon="5.64737">
        <ele>333.940002</ele>
        <time>2021-02-20T17:20:25Z</time>
      </trkpt>
      <trkpt lat="49.67925" lon="5.64748">
        <ele>333.940002</ele>
        <time>2021-02-20T17:20:27Z</time>
      </trkpt>
      <trkpt lat="49.67925" lon="5.64769">
        <ele>333.929993</ele>
        <time>2021-02-20T17:20:30Z</time>
      </trkpt>
      <trkpt lat="49.67929" lon="5.64784">
        <ele>333.929993</ele>
        <time>2021-02-20T17:20:32Z</time>
      </trkpt>
      <trkpt lat="49.67935" lon="5.64796">
        <ele>333.929993</ele>
        <time>2021-02-20T17:20:35Z</time>
      </trkpt>
      <trkpt lat="49.67939" lon="5.64813">
        <ele>333.929993</ele>
        <time>2021-02-20T17:20:37Z</time>
      </trkpt>
      <trkpt lat="49.67942" lon="5.64827">
        <ele>333.929993</ele>
        <time>2021-02-20T17:20:39Z</time>
      </trkpt>
      <trkpt lat="49.67945" lon="5.6484">
        <ele>333.929993</ele>
        <time>2021-02-20T17:20:41Z</time>
      </trkpt>
      <trkpt lat="49.67946" lon="5.64854">
        <ele>333.929993</ele>
        <time>2021-02-20T17:20:43Z</time>
      </trkpt>
      <trkpt lat="49.67948" lon="5.64868">
        <ele>333.929993</ele>
        <time>2021-02-20T17:20:45Z</time>
      </trkpt>
      <trkpt lat="49.67948" lon="5.64887">
        <ele>333.929993</ele>
        <time>2021-02-20T17:20:48Z</time>
      </trkpt>
      <trkpt lat="49.67948" lon="5.64902">
        <ele>333.929993</ele>
        <time>2021-02-20T17:20:50Z</time>
      </trkpt>
      <trkpt lat="49.67949" lon="5.64922">
        <ele>333.929993</ele>
        <time>2021-02-20T17:20:52Z</time>
      </trkpt>
      <trkpt lat="49.67951" lon="5.64941">
        <ele>333.929993</ele>
        <time>2021-02-20T17:20:55Z</time>
      </trkpt>
      <trkpt lat="49.67954" lon="5.64958">
        <ele>333.929993</ele>
        <time>2021-02-20T17:20:58Z</time>
      </trkpt>
      <trkpt lat="49.67957" lon="5.64976">
        <ele>333.929993</ele>
        <time>2021-02-20T17:21:01Z</time>
      </trkpt>
      <trkpt lat="49.67959" lon="5.64991">
        <ele>333.929993</ele>
        <time>2021-02-20T17:21:03Z</time>
      </trkpt>
      <trkpt lat="49.6796" lon="5.65011">
        <ele>333.929993</ele>
        <time>2021-02-20T17:21:06Z</time>
      </trkpt>
      <trkpt lat="49.67964" lon="5.65027">
        <ele>333.929993</ele>
        <time>2021-02-20T17:21:09Z</time>
      </trkpt>
      <trkpt lat="49.67967" lon="5.65042">
        <ele>333.929993</ele>
        <time>2021-02-20T17:21:11Z</time>
      </trkpt>
      <trkpt lat="49.67971" lon="5.65058">
        <ele>333.929993</ele>
        <time>2021-02-20T17:21:13Z</time>
      </trkpt>
      <trkpt lat="49.67971" lon="5.65076">
        <ele>333.929993</ele>
        <time>2021-02-20T17:21:16Z</time>
      </trkpt>
      <trkpt lat="49.67974" lon="5.65097">
        <ele>333.929993</ele>
        <time>2021-02-20T17:21:19Z</time>
      </trkpt>
      <trkpt lat="49.67978" lon="5.65114">
        <ele>333.929993</ele>
        <time>2021-02-20T17:21:21Z</time>
      </trkpt>
      <trkpt lat="49.6798" lon="5.65127">
        <ele>333.929993</ele>
        <time>2021-02-20T17:21:22Z</time>
      </trkpt>
      <trkpt lat="49.67983" lon="5.65143">
        <ele>333.929993</ele>
        <time>2021-02-20T17:21:25Z</time>
      </trkpt>
      <trkpt lat="49.67985" lon="5.65158">
        <ele>333.929993</ele>
        <time>2021-02-20T17:21:27Z</time>
      </trkpt>
      <trkpt lat="49.67987" lon="5.65173">
        <ele>333.929993</ele>
        <time>2021-02-20T17:21:29Z</time>
      </trkpt>
      <trkpt lat="49.6799" lon="5.65189">
        <ele>333.929993</ele>
        <time>2021-02-20T17:21:31Z</time>
      </trkpt>
      <trkpt lat="49.67991" lon="5.65203">
        <ele>333.929993</ele>
        <time>2021-02-20T17:21:32Z</time>
      </trkpt>
      <trkpt lat="49.67992" lon="5.65217">
        <ele>333.929993</ele>
        <time>2021-02-20T17:21:34Z</time>
      </trkpt>
      <trkpt lat="49.67992" lon="5.65232">
        <ele>333.929993</ele>
        <time>2021-02-20T17:21:36Z</time>
      </trkpt>
      <trkpt lat="49.67991" lon="5.65247">
        <ele>333.929993</ele>
        <time>2021-02-20T17:21:38Z</time>
      </trkpt>
      <trkpt lat="49.67992" lon="5.65265">
        <ele>333.929993</ele>
        <time>2021-02-20T17:21:41Z</time>
      </trkpt>
      <trkpt lat="49.67992" lon="5.65285">
        <ele>333.929993</ele>
        <time>2021-02-20T17:21:44Z</time>
      </trkpt>
      <trkpt lat="49.67993" lon="5.65299">
        <ele>333.929993</ele>
        <time>2021-02-20T17:21:46Z</time>
      </trkpt>
      <trkpt lat="49.67994" lon="5.65314">
        <ele>333.929993</ele>
        <time>2021-02-20T17:21:48Z</time>
      </trkpt>
      <trkpt lat="49.67996" lon="5.65328">
        <ele>333.929993</ele>
        <time>2021-02-20T17:21:50Z</time>
      </trkpt>
      <trkpt lat="49.67998" lon="5.65343">
        <ele>333.929993</ele>
        <time>2021-02-20T17:21:52Z</time>
      </trkpt>
      <trkpt lat="49.68" lon="5.65357">
        <ele>333.929993</ele>
        <time>2021-02-20T17:21:54Z</time>
      </trkpt>
      <trkpt lat="49.68002" lon="5.65371">
        <ele>333.929993</ele>
        <time>2021-02-20T17:21:56Z</time>
      </trkpt>
      <trkpt lat="49.68004" lon="5.65387">
        <ele>333.929993</ele>
        <time>2021-02-20T17:21:58Z</time>
      </trkpt>
      <trkpt lat="49.68005" lon="5.65403">
        <ele>333.929993</ele>
        <time>2021-02-20T17:22:00Z</time>
      </trkpt>
      <trkpt lat="49.68008" lon="5.65418">
        <ele>333.929993</ele>
        <time>2021-02-20T17:22:02Z</time>
      </trkpt>
      <trkpt lat="49.6801" lon="5.65433">
        <ele>333.929993</ele>
        <time>2021-02-20T17:22:04Z</time>
      </trkpt>
      <trkpt lat="49.68013" lon="5.65448">
        <ele>333.929993</ele>
        <time>2021-02-20T17:22:06Z</time>
      </trkpt>
      <trkpt lat="49.68015" lon="5.65463">
        <ele>333.929993</ele>
        <time>2021-02-20T17:22:08Z</time>
      </trkpt>
      <trkpt lat="49.68018" lon="5.65478">
        <ele>333.929993</ele>
        <time>2021-02-20T17:22:10Z</time>
      </trkpt>
      <trkpt lat="49.6802" lon="5.65493">
        <ele>333.929993</ele>
        <time>2021-02-20T17:22:12Z</time>
      </trkpt>
      <trkpt lat="49.68022" lon="5.65507">
        <ele>333.929993</ele>
        <time>2021-02-20T17:22:14Z</time>
      </trkpt>
      <trkpt lat="49.68024" lon="5.65523">
        <ele>333.929993</ele>
        <time>2021-02-20T17:22:16Z</time>
      </trkpt>
      <trkpt lat="49.68027" lon="5.65538">
        <ele>333.929993</ele>
        <time>2021-02-20T17:22:18Z</time>
      </trkpt>
      <trkpt lat="49.6803" lon="5.65556">
        <ele>333.929993</ele>
        <time>2021-02-20T17:22:20Z</time>
      </trkpt>
      <trkpt lat="49.68032" lon="5.65573">
        <ele>333.929993</ele>
        <time>2021-02-20T17:22:22Z</time>
      </trkpt>
      <trkpt lat="49.68034" lon="5.6559">
        <ele>333.929993</ele>
        <time>2021-02-20T17:22:24Z</time>
      </trkpt>
      <trkpt lat="49.68036" lon="5.65605">
        <ele>333.929993</ele>
        <time>2021-02-20T17:22:26Z</time>
      </trkpt>
      <trkpt lat="49.68037" lon="5.65619">
        <ele>333.929993</ele>
        <time>2021-02-20T17:22:28Z</time>
      </trkpt>
      <trkpt lat="49.68038" lon="5.65636">
        <ele>333.929993</ele>
        <time>2021-02-20T17:22:30Z</time>
      </trkpt>
      <trkpt lat="49.6804" lon="5.65657">
        <ele>333.929993</ele>
        <time>2021-02-20T17:22:33Z</time>
      </trkpt>
      <trkpt lat="49.68041" lon="5.65673">
        <ele>333.929993</ele>
        <time>2021-02-20T17:22:35Z</time>
      </trkpt>
      <trkpt lat="49.68043" lon="5.65692">
        <ele>333.929993</ele>
        <time>2021-02-20T17:22:38Z</time>
      </trkpt>
      <trkpt lat="49.68045" lon="5.65709">
        <ele>333.920013</ele>
        <time>2021-02-20T17:22:40Z</time>
      </trkpt>
      <trkpt lat="49.68046" lon="5.65725">
        <ele>333.920013</ele>
        <time>2021-02-20T17:22:42Z</time>
      </trkpt>
      <trkpt lat="49.68047" lon="5.65739">
        <ele>333.920013</ele>
        <time>2021-02-20T17:22:44Z</time>
      </trkpt>
      <trkpt lat="49.68047" lon="5.65755">
        <ele>333.920013</ele>
        <time>2021-02-20T17:22:47Z</time>
      </trkpt>
      <trkpt lat="49.68044" lon="5.65769">
        <ele>333.920013</ele>
        <time>2021-02-20T17:22:49Z</time>
      </trkpt>
      <trkpt lat="49.68034" lon="5.65782">
        <ele>333.920013</ele>
        <time>2021-02-20T17:22:51Z</time>
      </trkpt>
      <trkpt lat="49.68024" lon="5.65791">
        <ele>333.920013</ele>
        <time>2021-02-20T17:22:54Z</time>
      </trkpt>
      <trkpt lat="49.68016" lon="5.65801">
        <ele>333.920013</ele>
        <time>2021-02-20T17:22:56Z</time>
      </trkpt>
      <trkpt lat="49.68006" lon="5.6581">
        <ele>333.920013</ele>
        <time>2021-02-20T17:22:58Z</time>
      </trkpt>
      <trkpt lat="49.67996" lon="5.65818">
        <ele>333.920013</ele>
        <time>2021-02-20T17:23:00Z</time>
      </trkpt>
      <trkpt lat="49.67987" lon="5.65825">
        <ele>333.920013</ele>
        <time>2021-02-20T17:23:02Z</time>
      </trkpt>
      <trkpt lat="49.67977" lon="5.65831">
        <ele>333.920013</ele>
        <time>2021-02-20T17:23:05Z</time>
      </trkpt>
      <trkpt lat="49.67967" lon="5.65845">
        <ele>333.920013</ele>
        <time>2021-02-20T17:23:07Z</time>
      </trkpt>
      <trkpt lat="49.67956" lon="5.6586">
        <ele>333.920013</ele>
        <time>2021-02-20T17:23:09Z</time>
      </trkpt>
      <trkpt lat="49.67944" lon="5.65873">
        <ele>333.920013</ele>
        <time>2021-02-20T17:23:11Z</time>
      </trkpt>
      <trkpt lat="49.67933" lon="5.65884">
        <ele>333.920013</ele>
        <time>2021-02-20T17:23:13Z</time>
      </trkpt>
      <trkpt lat="49.67923" lon="5.65894">
        <ele>333.920013</ele>
        <time>2021-02-20T17:23:15Z</time>
      </trkpt>
      <trkpt lat="49.67913" lon="5.65903">
        <ele>333.920013</ele>
        <time>2021-02-20T17:23:17Z</time>
      </trkpt>
      <trkpt lat="49.67902" lon="5.65917">
        <ele>333.920013</ele>
        <time>2021-02-20T17:23:19Z</time>
      </trkpt>
      <trkpt lat="49.67891" lon="5.65931">
        <ele>333.920013</ele>
        <time>2021-02-20T17:23:21Z</time>
      </trkpt>
      <trkpt lat="49.67878" lon="5.65944">
        <ele>333.920013</ele>
        <time>2021-02-20T17:23:24Z</time>
      </trkpt>
      <trkpt lat="49.67867" lon="5.65965">
        <ele>333.920013</ele>
        <time>2021-02-20T17:23:26Z</time>
      </trkpt>
      <trkpt lat="49.67856" lon="5.65982">
        <ele>333.920013</ele>
        <time>2021-02-20T17:23:28Z</time>
      </trkpt>
      <trkpt lat="49.67847" lon="5.66001">
        <ele>333.920013</ele>
        <time>2021-02-20T17:23:30Z</time>
      </trkpt>
      <trkpt lat="49.67839" lon="5.6602">
        <ele>333.920013</ele>
        <time>2021-02-20T17:23:32Z</time>
      </trkpt>
      <trkpt lat="49.6783" lon="5.66038">
        <ele>333.920013</ele>
        <time>2021-02-20T17:23:34Z</time>
      </trkpt>
      <trkpt lat="49.67822" lon="5.66056">
        <ele>333.920013</ele>
        <time>2021-02-20T17:23:36Z</time>
      </trkpt>
      <trkpt lat="49.67814" lon="5.66074">
        <ele>333.920013</ele>
        <time>2021-02-20T17:23:38Z</time>
      </trkpt>
      <trkpt lat="49.67806" lon="5.66093">
        <ele>333.920013</ele>
        <time>2021-02-20T17:23:40Z</time>
      </trkpt>
      <trkpt lat="49.67798" lon="5.6611">
        <ele>333.920013</ele>
        <time>2021-02-20T17:23:42Z</time>
      </trkpt>
      <trkpt lat="49.6779" lon="5.66128">
        <ele>333.920013</ele>
        <time>2021-02-20T17:23:44Z</time>
      </trkpt>
      <trkpt lat="49.67781" lon="5.66146">
        <ele>333.920013</ele>
        <time>2021-02-20T17:23:46Z</time>
      </trkpt>
      <trkpt lat="49.67773" lon="5.66164">
        <ele>333.920013</ele>
        <time>2021-02-20T17:23:48Z</time>
      </trkpt>
      <trkpt lat="49.67765" lon="5.66181">
        <ele>333.920013</ele>
        <time>2021-02-20T17:23:50Z</time>
      </trkpt>
      <trkpt lat="49.67757" lon="5.66199">
        <ele>333.920013</ele>
        <time>2021-02-20T17:23:52Z</time>
      </trkpt>
      <trkpt lat="49.67749" lon="5.66217">
        <ele>333.920013</ele>
        <time>2021-02-20T17:23:54Z</time>
      </trkpt>
      <trkpt lat="49.6774" lon="5.66235">
        <ele>333.920013</ele>
        <time>2021-02-20T17:23:56Z</time>
      </trkpt>
      <trkpt lat="49.67732" lon="5.66253">
        <ele>333.920013</ele>
        <time>2021-02-20T17:23:58Z</time>
      </trkpt>
      <trkpt lat="49.67722" lon="5.66268">
        <ele>333.920013</ele>
        <time>2021-02-20T17:24:00Z</time>
      </trkpt>
      <trkpt lat="49.67711" lon="5.66282">
        <ele>333.920013</ele>
        <time>2021-02-20T17:24:02Z</time>
      </trkpt>
      <trkpt lat="49.67701" lon="5.66298">
        <ele>333.920013</ele>
        <time>2021-02-20T17:24:04Z</time>
      </trkpt>
      <trkpt lat="49.67691" lon="5.66311">
        <ele>333.920013</ele>
        <time>2021-02-20T17:24:06Z</time>
      </trkpt>
      <trkpt lat="49.67682" lon="5.66325">
        <ele>333.920013</ele>
        <time>2021-02-20T17:24:08Z</time>
      </trkpt>
      <trkpt lat="49.67672" lon="5.66335">
        <ele>333.920013</ele>
        <time>2021-02-20T17:24:10Z</time>
      </trkpt>
      <trkpt lat="49.67661" lon="5.6634">
        <ele>333.920013</ele>
        <time>2021-02-20T17:24:12Z</time>
      </trkpt>
      <trkpt lat="49.67648" lon="5.66346">
        <ele>333.920013</ele>
        <time>2021-02-20T17:24:14Z</time>
      </trkpt>
      <trkpt lat="49.67636" lon="5.66353">
        <ele>333.920013</ele>
        <time>2021-02-20T17:24:16Z</time>
      </trkpt>
      <trkpt lat="49.67624" lon="5.66359">
        <ele>333.920013</ele>
        <time>2021-02-20T17:24:18Z</time>
      </trkpt>
      <trkpt lat="49.67611" lon="5.66366">
        <ele>333.920013</ele>
        <time>2021-02-20T17:24:20Z</time>
      </trkpt>
      <trkpt lat="49.67597" lon="5.66373">
        <ele>333.920013</ele>
        <time>2021-02-20T17:24:22Z</time>
      </trkpt>
      <trkpt lat="49.67584" lon="5.66381">
        <ele>333.920013</ele>
        <time>2021-02-20T17:24:24Z</time>
      </trkpt>
      <trkpt lat="49.67571" lon="5.66389">
        <ele>333.920013</ele>
        <time>2021-02-20T17:24:26Z</time>
      </trkpt>
      <trkpt lat="49.67558" lon="5.66397">
        <ele>333.920013</ele>
        <time>2021-02-20T17:24:28Z</time>
      </trkpt>
      <trkpt lat="49.67544" lon="5.66404">
        <ele>333.920013</ele>
        <time>2021-02-20T17:24:30Z</time>
      </trkpt>
      <trkpt lat="49.67532" lon="5.66412">
        <ele>333.920013</ele>
        <time>2021-02-20T17:24:32Z</time>
      </trkpt>
      <trkpt lat="49.67519" lon="5.66422">
        <ele>333.920013</ele>
        <time>2021-02-20T17:24:34Z</time>
      </trkpt>
      <trkpt lat="49.67507" lon="5.66431">
        <ele>333.920013</ele>
        <time>2021-02-20T17:24:36Z</time>
      </trkpt>
      <trkpt lat="49.67495" lon="5.66441">
        <ele>333.920013</ele>
        <time>2021-02-20T17:24:38Z</time>
      </trkpt>
      <trkpt lat="49.67484" lon="5.6645">
        <ele>333.920013</ele>
        <time>2021-02-20T17:24:40Z</time>
      </trkpt>
      <trkpt lat="49.67473" lon="5.66459">
        <ele>333.920013</ele>
        <time>2021-02-20T17:24:42Z</time>
      </trkpt>
      <trkpt lat="49.67462" lon="5.66469">
        <ele>333.920013</ele>
        <time>2021-02-20T17:24:44Z</time>
      </trkpt>
      <trkpt lat="49.67451" lon="5.66477">
        <ele>333.920013</ele>
        <time>2021-02-20T17:24:46Z</time>
      </trkpt>
      <trkpt lat="49.6744" lon="5.66487">
        <ele>333.920013</ele>
        <time>2021-02-20T17:24:48Z</time>
      </trkpt>
      <trkpt lat="49.67429" lon="5.66497">
        <ele>333.920013</ele>
        <time>2021-02-20T17:24:50Z</time>
      </trkpt>
      <trkpt lat="49.67418" lon="5.66498">
        <ele>333.920013</ele>
        <time>2021-02-20T17:24:52Z</time>
      </trkpt>
      <trkpt lat="49.67409" lon="5.66487">
        <ele>333.920013</ele>
        <time>2021-02-20T17:24:54Z</time>
      </trkpt>
      <trkpt lat="49.67403" lon="5.66475">
        <ele>333.920013</ele>
        <time>2021-02-20T17:24:56Z</time>
      </trkpt>
      <trkpt lat="49.67398" lon="5.66464">
        <ele>333.920013</ele>
        <time>2021-02-20T17:24:58Z</time>
      </trkpt>
      <trkpt lat="49.67393" lon="5.66451">
        <ele>333.920013</ele>
        <time>2021-02-20T17:25:00Z</time>
      </trkpt>
      <trkpt lat="49.67389" lon="5.66438">
        <ele>333.920013</ele>
        <time>2021-02-20T17:25:02Z</time>
      </trkpt>
      <trkpt lat="49.67385" lon="5.66425">
        <ele>333.920013</ele>
        <time>2021-02-20T17:25:04Z</time>
      </trkpt>
      <trkpt lat="49.67381" lon="5.66412">
        <ele>333.920013</ele>
        <time>2021-02-20T17:25:06Z</time>
      </trkpt>
      <trkpt lat="49.67377" lon="5.66397">
        <ele>333.920013</ele>
        <time>2021-02-20T17:25:09Z</time>
      </trkpt>
      <trkpt lat="49.67373" lon="5.66383">
        <ele>333.920013</ele>
        <time>2021-02-20T17:25:12Z</time>
      </trkpt>
      <trkpt lat="49.67374" lon="5.66374">
        <ele>347.279999</ele>
        <time>2021-02-20T17:25:17Z</time>
      </trkpt>
      <trkpt lat="49.67374" lon="5.66378">
        <ele>352.290009</ele>
        <time>2021-02-20T17:25:22Z</time>
      </trkpt>
      <trkpt lat="49.67374" lon="5.66378">
        <ele>356.040009</ele>
        <time>2021-02-20T17:25:28Z</time>
      </trkpt>
      <trkpt lat="49.67374" lon="5.66379">
        <ele>357.649994</ele>
        <time>2021-02-20T17:25:33Z</time>
      </trkpt>
      <trkpt lat="49.67374" lon="5.66379">
        <ele>358.600006</ele>
        <time>2021-02-20T17:25:38Z</time>
      </trkpt>
      <trkpt lat="49.67374" lon="5.66378">
        <ele>358.920013</ele>
        <time>2021-02-20T17:25:43Z</time>
      </trkpt>
      <trkpt lat="49.67374" lon="5.66375">
        <ele>359.179993</ele>
        <time>2021-02-20T17:25:48Z</time>
      </trkpt>
      <trkpt lat="49.67373" lon="5.66375">
        <ele>359.350006</ele>
        <time>2021-02-20T17:25:53Z</time>
      </trkpt>
      <trkpt lat="49.67373" lon="5.66375">
        <ele>359.459991</ele>
        <time>2021-02-20T17:25:58Z</time>
      </trkpt>
      <trkpt lat="49.67373" lon="5.66374">
        <ele>359.519989</ele>
        <time>2021-02-20T17:26:03Z</time>
      </trkpt>
      <trkpt lat="49.67372" lon="5.66373">
        <ele>359.519989</ele>
        <time>2021-02-20T17:26:08Z</time>
      </trkpt>
      <trkpt lat="49.67372" lon="5.66374">
        <ele>359.519989</ele>
        <time>2021-02-20T17:26:13Z</time>
      </trkpt>
      <trkpt lat="49.67374" lon="5.66376">
        <ele>359.529999</ele>
        <time>2021-02-20T17:26:18Z</time>
      </trkpt>
      <trkpt lat="49.67375" lon="5.66376">
        <ele>359.519989</ele>
        <time>2021-02-20T17:26:23Z</time>
      </trkpt>
      <trkpt lat="49.67376" lon="5.66374">
        <ele>359.5</ele>
        <time>2021-02-20T17:26:28Z</time>
      </trkpt>
      <trkpt lat="49.67376" lon="5.66373">
        <ele>359.5</ele>
        <time>2021-02-20T17:26:33Z</time>
      </trkpt>
      <trkpt lat="49.67376" lon="5.66373">
        <ele>359.5</ele>
        <time>2021-02-20T17:26:37Z</time>
      </trkpt>
      <trkpt lat="49.67377" lon="5.66373">
        <ele>359.5</ele>
        <time>2021-02-20T17:26:42Z</time>
      </trkpt>
      <trkpt lat="49.67377" lon="5.66373">
        <ele>359.51001</ele>
        <time>2021-02-20T17:26:47Z</time>
      </trkpt>
      <trkpt lat="49.67377" lon="5.66373">
        <ele>359.48999</ele>
        <time>2021-02-20T17:26:51Z</time>
      </trkpt>
      <trkpt lat="49.67378" lon="5.66372">
        <ele>359.429993</ele>
        <time>2021-02-20T17:26:56Z</time>
      </trkpt>
      <trkpt lat="49.67378" lon="5.66372">
        <ele>359.440002</ele>
        <time>2021-02-20T17:27:01Z</time>
      </trkpt>
      <trkpt lat="49.67378" lon="5.66371">
        <ele>359.480011</ele>
        <time>2021-02-20T17:27:06Z</time>
      </trkpt>
      <trkpt lat="49.67377" lon="5.66371">
        <ele>359.5</ele>
        <time>2021-02-20T17:27:11Z</time>
      </trkpt>
      <trkpt lat="49.67377" lon="5.66371">
        <ele>359.51001</ele>
        <time>2021-02-20T17:27:16Z</time>
      </trkpt>
      <trkpt lat="49.67376" lon="5.66372">
        <ele>359.519989</ele>
        <time>2021-02-20T17:27:21Z</time>
      </trkpt>
      <trkpt lat="49.67378" lon="5.66369">
        <ele>359.480011</ele>
        <time>2021-02-20T17:27:26Z</time>
      </trkpt>
      <trkpt lat="49.67378" lon="5.66368">
        <ele>359.459991</ele>
        <time>2021-02-20T17:27:31Z</time>
      </trkpt>
      <trkpt lat="49.67378" lon="5.66369">
        <ele>359.420013</ele>
        <time>2021-02-20T17:27:36Z</time>
      </trkpt>
      <trkpt lat="49.67377" lon="5.66369">
        <ele>359.440002</ele>
        <time>2021-02-20T17:27:41Z</time>
      </trkpt>
      <trkpt lat="49.67378" lon="5.6637">
        <ele>359.459991</ele>
        <time>2021-02-20T17:27:46Z</time>
      </trkpt>
      <trkpt lat="49.67378" lon="5.66371">
        <ele>359.48999</ele>
        <time>2021-02-20T17:27:51Z</time>
      </trkpt>
      <trkpt lat="49.67378" lon="5.66371">
        <ele>359.429993</ele>
        <time>2021-02-20T17:27:56Z</time>
      </trkpt>
    </trkseg>
  </trk>
</gpx>